<?xml version="1.0" encoding="UTF-8" standalone="no" ?>
<gpx xmlns="http://www.topografix.com/GPX/1/1" xmlns:xsi="http://www.w3.org/2001/XMLSchema-instance" xsi:schemaLocation="http://www.topografix.com/GPX/1/1 http://www.topografix.com/GPX/1/1/gpx.xsd" version="1.1" creator="VisuGPX - https://www.visugpx.com">
  <metadata>
    <name>tressan le pouget 22/02/2022</name>
  </metadata>
  <trk>
    <name><![CDATA[Enregistrement du 22/02/2022]]></name>
    <trkseg>
      <trkpt lat="43.57488" lon="3.49064">
        <ele>73</ele>
        <time>2022-02-22T08:10:03Z</time>
      </trkpt>
      <trkpt lat="43.5749" lon="3.49066">
        <ele>74</ele>
        <time>2022-02-22T08:11:07Z</time>
      </trkpt>
      <trkpt lat="43.57491" lon="3.49069">
        <ele>75</ele>
        <time>2022-02-22T08:11:11Z</time>
      </trkpt>
      <trkpt lat="43.57491" lon="3.49073">
        <ele>75</ele>
        <time>2022-02-22T08:11:15Z</time>
      </trkpt>
      <trkpt lat="43.57491" lon="3.49077">
        <ele>75</ele>
        <time>2022-02-22T08:11:20Z</time>
      </trkpt>
      <trkpt lat="43.57489" lon="3.4908">
        <ele>73</ele>
        <time>2022-02-22T08:11:43Z</time>
      </trkpt>
      <trkpt lat="43.57487" lon="3.49083">
        <ele>72</ele>
        <time>2022-02-22T08:11:49Z</time>
      </trkpt>
      <trkpt lat="43.57484" lon="3.49085">
        <ele>73</ele>
        <time>2022-02-22T08:12:00Z</time>
      </trkpt>
      <trkpt lat="43.57482" lon="3.49084">
        <ele>76</ele>
        <time>2022-02-22T08:12:13Z</time>
      </trkpt>
      <trkpt lat="43.57479" lon="3.49081">
        <ele>77</ele>
        <time>2022-02-22T08:12:17Z</time>
      </trkpt>
      <trkpt lat="43.57476" lon="3.49079">
        <ele>78</ele>
        <time>2022-02-22T08:12:21Z</time>
      </trkpt>
      <trkpt lat="43.57474" lon="3.49078">
        <ele>78</ele>
        <time>2022-02-22T08:12:24Z</time>
      </trkpt>
      <trkpt lat="43.57471" lon="3.49078">
        <ele>78</ele>
        <time>2022-02-22T08:12:29Z</time>
      </trkpt>
      <trkpt lat="43.57469" lon="3.49075">
        <ele>78</ele>
        <time>2022-02-22T08:12:34Z</time>
      </trkpt>
      <trkpt lat="43.57467" lon="3.49071">
        <ele>76</ele>
        <time>2022-02-22T08:12:37Z</time>
      </trkpt>
      <trkpt lat="43.57465" lon="3.49069">
        <ele>75</ele>
        <time>2022-02-22T08:12:43Z</time>
      </trkpt>
      <trkpt lat="43.57462" lon="3.49068">
        <ele>76</ele>
        <time>2022-02-22T08:12:48Z</time>
      </trkpt>
      <trkpt lat="43.57459" lon="3.49068">
        <ele>76</ele>
        <time>2022-02-22T08:12:54Z</time>
      </trkpt>
      <trkpt lat="43.57457" lon="3.49066">
        <ele>77</ele>
        <time>2022-02-22T08:12:57Z</time>
      </trkpt>
      <trkpt lat="43.57455" lon="3.49064">
        <ele>78</ele>
        <time>2022-02-22T08:13:01Z</time>
      </trkpt>
      <trkpt lat="43.57451" lon="3.49064">
        <ele>79</ele>
        <time>2022-02-22T08:13:11Z</time>
      </trkpt>
      <trkpt lat="43.57451" lon="3.49066">
        <ele>80</ele>
        <time>2022-02-22T08:13:20Z</time>
      </trkpt>
      <trkpt lat="43.5745" lon="3.4907">
        <ele>80</ele>
        <time>2022-02-22T08:13:22Z</time>
      </trkpt>
      <trkpt lat="43.57449" lon="3.49073">
        <ele>79</ele>
        <time>2022-02-22T08:13:25Z</time>
      </trkpt>
      <trkpt lat="43.57447" lon="3.49077">
        <ele>79</ele>
        <time>2022-02-22T08:13:27Z</time>
      </trkpt>
      <trkpt lat="43.57446" lon="3.49081">
        <ele>79</ele>
        <time>2022-02-22T08:13:31Z</time>
      </trkpt>
      <trkpt lat="43.57445" lon="3.49084">
        <ele>79</ele>
        <time>2022-02-22T08:13:34Z</time>
      </trkpt>
      <trkpt lat="43.57444" lon="3.49088">
        <ele>79</ele>
        <time>2022-02-22T08:13:38Z</time>
      </trkpt>
      <trkpt lat="43.57443" lon="3.49092">
        <ele>79</ele>
        <time>2022-02-22T08:13:42Z</time>
      </trkpt>
      <trkpt lat="43.57443" lon="3.49096">
        <ele>79</ele>
        <time>2022-02-22T08:13:47Z</time>
      </trkpt>
      <trkpt lat="43.57441" lon="3.491">
        <ele>78</ele>
        <time>2022-02-22T08:14:04Z</time>
      </trkpt>
      <trkpt lat="43.57442" lon="3.49105">
        <ele>78</ele>
        <time>2022-02-22T08:14:08Z</time>
      </trkpt>
      <trkpt lat="43.57443" lon="3.49109">
        <ele>79</ele>
        <time>2022-02-22T08:14:10Z</time>
      </trkpt>
      <trkpt lat="43.57445" lon="3.49112">
        <ele>79</ele>
        <time>2022-02-22T08:14:12Z</time>
      </trkpt>
      <trkpt lat="43.57447" lon="3.49115">
        <ele>80</ele>
        <time>2022-02-22T08:14:14Z</time>
      </trkpt>
      <trkpt lat="43.57448" lon="3.49119">
        <ele>80</ele>
        <time>2022-02-22T08:14:17Z</time>
      </trkpt>
      <trkpt lat="43.57451" lon="3.49121">
        <ele>81</ele>
        <time>2022-02-22T08:14:22Z</time>
      </trkpt>
      <trkpt lat="43.57454" lon="3.49121">
        <ele>83</ele>
        <time>2022-02-22T08:14:36Z</time>
      </trkpt>
      <trkpt lat="43.57456" lon="3.49124">
        <ele>84</ele>
        <time>2022-02-22T08:14:39Z</time>
      </trkpt>
      <trkpt lat="43.57459" lon="3.49128">
        <ele>84</ele>
        <time>2022-02-22T08:14:42Z</time>
      </trkpt>
      <trkpt lat="43.57461" lon="3.49131">
        <ele>84</ele>
        <time>2022-02-22T08:14:45Z</time>
      </trkpt>
      <trkpt lat="43.57462" lon="3.49135">
        <ele>84</ele>
        <time>2022-02-22T08:14:49Z</time>
      </trkpt>
      <trkpt lat="43.57463" lon="3.49138">
        <ele>83</ele>
        <time>2022-02-22T08:14:55Z</time>
      </trkpt>
      <trkpt lat="43.57464" lon="3.49142">
        <ele>82</ele>
        <time>2022-02-22T08:15:02Z</time>
      </trkpt>
      <trkpt lat="43.57464" lon="3.49146">
        <ele>82</ele>
        <time>2022-02-22T08:15:05Z</time>
      </trkpt>
      <trkpt lat="43.57464" lon="3.4915">
        <ele>83</ele>
        <time>2022-02-22T08:15:08Z</time>
      </trkpt>
      <trkpt lat="43.57463" lon="3.49154">
        <ele>83</ele>
        <time>2022-02-22T08:15:11Z</time>
      </trkpt>
      <trkpt lat="43.57462" lon="3.49158">
        <ele>84</ele>
        <time>2022-02-22T08:15:14Z</time>
      </trkpt>
      <trkpt lat="43.57461" lon="3.49162">
        <ele>84</ele>
        <time>2022-02-22T08:15:17Z</time>
      </trkpt>
      <trkpt lat="43.5746" lon="3.49166">
        <ele>84</ele>
        <time>2022-02-22T08:15:20Z</time>
      </trkpt>
      <trkpt lat="43.57458" lon="3.4917">
        <ele>84</ele>
        <time>2022-02-22T08:15:23Z</time>
      </trkpt>
      <trkpt lat="43.57457" lon="3.49174">
        <ele>83</ele>
        <time>2022-02-22T08:15:26Z</time>
      </trkpt>
      <trkpt lat="43.57455" lon="3.49178">
        <ele>83</ele>
        <time>2022-02-22T08:15:29Z</time>
      </trkpt>
      <trkpt lat="43.57454" lon="3.49182">
        <ele>84</ele>
        <time>2022-02-22T08:15:31Z</time>
      </trkpt>
      <trkpt lat="43.57453" lon="3.49186">
        <ele>85</ele>
        <time>2022-02-22T08:15:33Z</time>
      </trkpt>
      <trkpt lat="43.57452" lon="3.49189">
        <ele>85</ele>
        <time>2022-02-22T08:15:35Z</time>
      </trkpt>
      <trkpt lat="43.57452" lon="3.49193">
        <ele>86</ele>
        <time>2022-02-22T08:15:37Z</time>
      </trkpt>
      <trkpt lat="43.57452" lon="3.49197">
        <ele>87</ele>
        <time>2022-02-22T08:15:39Z</time>
      </trkpt>
      <trkpt lat="43.57452" lon="3.49201">
        <ele>88</ele>
        <time>2022-02-22T08:15:41Z</time>
      </trkpt>
      <trkpt lat="43.57452" lon="3.49205">
        <ele>89</ele>
        <time>2022-02-22T08:15:44Z</time>
      </trkpt>
      <trkpt lat="43.57452" lon="3.49209">
        <ele>90</ele>
        <time>2022-02-22T08:15:46Z</time>
      </trkpt>
      <trkpt lat="43.57452" lon="3.49213">
        <ele>90</ele>
        <time>2022-02-22T08:15:48Z</time>
      </trkpt>
      <trkpt lat="43.57452" lon="3.49218">
        <ele>91</ele>
        <time>2022-02-22T08:15:51Z</time>
      </trkpt>
      <trkpt lat="43.57452" lon="3.49223">
        <ele>92</ele>
        <time>2022-02-22T08:15:54Z</time>
      </trkpt>
      <trkpt lat="43.57452" lon="3.49227">
        <ele>91</ele>
        <time>2022-02-22T08:15:57Z</time>
      </trkpt>
      <trkpt lat="43.57452" lon="3.49232">
        <ele>90</ele>
        <time>2022-02-22T08:16:00Z</time>
      </trkpt>
      <trkpt lat="43.57451" lon="3.49237">
        <ele>88</ele>
        <time>2022-02-22T08:16:02Z</time>
      </trkpt>
      <trkpt lat="43.5745" lon="3.49241">
        <ele>87</ele>
        <time>2022-02-22T08:16:05Z</time>
      </trkpt>
      <trkpt lat="43.57449" lon="3.49245">
        <ele>87</ele>
        <time>2022-02-22T08:16:08Z</time>
      </trkpt>
      <trkpt lat="43.57449" lon="3.4925">
        <ele>86</ele>
        <time>2022-02-22T08:16:10Z</time>
      </trkpt>
      <trkpt lat="43.57449" lon="3.49254">
        <ele>87</ele>
        <time>2022-02-22T08:16:14Z</time>
      </trkpt>
      <trkpt lat="43.57449" lon="3.49258">
        <ele>87</ele>
        <time>2022-02-22T08:16:17Z</time>
      </trkpt>
      <trkpt lat="43.57449" lon="3.49262">
        <ele>86</ele>
        <time>2022-02-22T08:16:20Z</time>
      </trkpt>
      <trkpt lat="43.5745" lon="3.49267">
        <ele>85</ele>
        <time>2022-02-22T08:16:23Z</time>
      </trkpt>
      <trkpt lat="43.5745" lon="3.49272">
        <ele>86</ele>
        <time>2022-02-22T08:16:28Z</time>
      </trkpt>
      <trkpt lat="43.5745" lon="3.49276">
        <ele>86</ele>
        <time>2022-02-22T08:16:31Z</time>
      </trkpt>
      <trkpt lat="43.5745" lon="3.49281">
        <ele>86</ele>
        <time>2022-02-22T08:16:34Z</time>
      </trkpt>
      <trkpt lat="43.5745" lon="3.49285">
        <ele>87</ele>
        <time>2022-02-22T08:16:36Z</time>
      </trkpt>
      <trkpt lat="43.57449" lon="3.4929">
        <ele>87</ele>
        <time>2022-02-22T08:16:39Z</time>
      </trkpt>
      <trkpt lat="43.57449" lon="3.49295">
        <ele>87</ele>
        <time>2022-02-22T08:16:42Z</time>
      </trkpt>
      <trkpt lat="43.57448" lon="3.49299">
        <ele>87</ele>
        <time>2022-02-22T08:16:46Z</time>
      </trkpt>
      <trkpt lat="43.57447" lon="3.49303">
        <ele>87</ele>
        <time>2022-02-22T08:16:49Z</time>
      </trkpt>
      <trkpt lat="43.57447" lon="3.49307">
        <ele>87</ele>
        <time>2022-02-22T08:16:57Z</time>
      </trkpt>
      <trkpt lat="43.57445" lon="3.49311">
        <ele>87</ele>
        <time>2022-02-22T08:17:00Z</time>
      </trkpt>
      <trkpt lat="43.57445" lon="3.49315">
        <ele>87</ele>
        <time>2022-02-22T08:17:03Z</time>
      </trkpt>
      <trkpt lat="43.57445" lon="3.49319">
        <ele>87</ele>
        <time>2022-02-22T08:17:05Z</time>
      </trkpt>
      <trkpt lat="43.57446" lon="3.49323">
        <ele>87</ele>
        <time>2022-02-22T08:17:07Z</time>
      </trkpt>
      <trkpt lat="43.57446" lon="3.49327">
        <ele>87</ele>
        <time>2022-02-22T08:17:10Z</time>
      </trkpt>
      <trkpt lat="43.57446" lon="3.49332">
        <ele>87</ele>
        <time>2022-02-22T08:17:13Z</time>
      </trkpt>
      <trkpt lat="43.57447" lon="3.49336">
        <ele>87</ele>
        <time>2022-02-22T08:17:15Z</time>
      </trkpt>
      <trkpt lat="43.57448" lon="3.4934">
        <ele>87</ele>
        <time>2022-02-22T08:17:17Z</time>
      </trkpt>
      <trkpt lat="43.57448" lon="3.49344">
        <ele>87</ele>
        <time>2022-02-22T08:17:20Z</time>
      </trkpt>
      <trkpt lat="43.57448" lon="3.49348">
        <ele>87</ele>
        <time>2022-02-22T08:17:23Z</time>
      </trkpt>
      <trkpt lat="43.57448" lon="3.49352">
        <ele>87</ele>
        <time>2022-02-22T08:17:26Z</time>
      </trkpt>
      <trkpt lat="43.57448" lon="3.49357">
        <ele>87</ele>
        <time>2022-02-22T08:17:29Z</time>
      </trkpt>
      <trkpt lat="43.57449" lon="3.49361">
        <ele>87</ele>
        <time>2022-02-22T08:17:32Z</time>
      </trkpt>
      <trkpt lat="43.5745" lon="3.49365">
        <ele>87</ele>
        <time>2022-02-22T08:17:35Z</time>
      </trkpt>
      <trkpt lat="43.57451" lon="3.4937">
        <ele>87</ele>
        <time>2022-02-22T08:17:37Z</time>
      </trkpt>
      <trkpt lat="43.57452" lon="3.49374">
        <ele>87</ele>
        <time>2022-02-22T08:17:40Z</time>
      </trkpt>
      <trkpt lat="43.57453" lon="3.49379">
        <ele>87</ele>
        <time>2022-02-22T08:17:44Z</time>
      </trkpt>
      <trkpt lat="43.57452" lon="3.49383">
        <ele>87</ele>
        <time>2022-02-22T08:17:47Z</time>
      </trkpt>
      <trkpt lat="43.57453" lon="3.49388">
        <ele>87</ele>
        <time>2022-02-22T08:17:50Z</time>
      </trkpt>
      <trkpt lat="43.57453" lon="3.49393">
        <ele>87</ele>
        <time>2022-02-22T08:17:53Z</time>
      </trkpt>
      <trkpt lat="43.57453" lon="3.49397">
        <ele>87</ele>
        <time>2022-02-22T08:17:58Z</time>
      </trkpt>
      <trkpt lat="43.57454" lon="3.494">
        <ele>87</ele>
        <time>2022-02-22T08:18:03Z</time>
      </trkpt>
      <trkpt lat="43.57454" lon="3.49405">
        <ele>87</ele>
        <time>2022-02-22T08:18:08Z</time>
      </trkpt>
      <trkpt lat="43.57455" lon="3.49409">
        <ele>87</ele>
        <time>2022-02-22T08:18:12Z</time>
      </trkpt>
      <trkpt lat="43.57456" lon="3.49414">
        <ele>87</ele>
        <time>2022-02-22T08:18:15Z</time>
      </trkpt>
      <trkpt lat="43.57456" lon="3.49419">
        <ele>87</ele>
        <time>2022-02-22T08:18:18Z</time>
      </trkpt>
      <trkpt lat="43.57456" lon="3.49424">
        <ele>87</ele>
        <time>2022-02-22T08:18:21Z</time>
      </trkpt>
      <trkpt lat="43.57457" lon="3.49428">
        <ele>87</ele>
        <time>2022-02-22T08:18:24Z</time>
      </trkpt>
      <trkpt lat="43.57458" lon="3.49433">
        <ele>87</ele>
        <time>2022-02-22T08:18:27Z</time>
      </trkpt>
      <trkpt lat="43.57458" lon="3.49438">
        <ele>87</ele>
        <time>2022-02-22T08:18:30Z</time>
      </trkpt>
      <trkpt lat="43.57457" lon="3.49443">
        <ele>87</ele>
        <time>2022-02-22T08:18:33Z</time>
      </trkpt>
      <trkpt lat="43.57457" lon="3.49447">
        <ele>87</ele>
        <time>2022-02-22T08:18:36Z</time>
      </trkpt>
      <trkpt lat="43.57458" lon="3.49451">
        <ele>87</ele>
        <time>2022-02-22T08:18:38Z</time>
      </trkpt>
      <trkpt lat="43.57458" lon="3.49455">
        <ele>87</ele>
        <time>2022-02-22T08:18:41Z</time>
      </trkpt>
      <trkpt lat="43.57457" lon="3.49459">
        <ele>87</ele>
        <time>2022-02-22T08:18:44Z</time>
      </trkpt>
      <trkpt lat="43.57457" lon="3.49463">
        <ele>87</ele>
        <time>2022-02-22T08:18:47Z</time>
      </trkpt>
      <trkpt lat="43.57457" lon="3.49467">
        <ele>87</ele>
        <time>2022-02-22T08:18:50Z</time>
      </trkpt>
      <trkpt lat="43.57457" lon="3.49471">
        <ele>87</ele>
        <time>2022-02-22T08:18:52Z</time>
      </trkpt>
      <trkpt lat="43.57457" lon="3.49475">
        <ele>87</ele>
        <time>2022-02-22T08:18:54Z</time>
      </trkpt>
      <trkpt lat="43.57457" lon="3.4948">
        <ele>87</ele>
        <time>2022-02-22T08:18:58Z</time>
      </trkpt>
      <trkpt lat="43.57458" lon="3.49484">
        <ele>87</ele>
        <time>2022-02-22T08:19:01Z</time>
      </trkpt>
      <trkpt lat="43.57458" lon="3.49489">
        <ele>87</ele>
        <time>2022-02-22T08:19:04Z</time>
      </trkpt>
      <trkpt lat="43.57459" lon="3.49493">
        <ele>87</ele>
        <time>2022-02-22T08:19:07Z</time>
      </trkpt>
      <trkpt lat="43.57459" lon="3.49498">
        <ele>87</ele>
        <time>2022-02-22T08:19:11Z</time>
      </trkpt>
      <trkpt lat="43.57459" lon="3.49502">
        <ele>87</ele>
        <time>2022-02-22T08:19:14Z</time>
      </trkpt>
      <trkpt lat="43.57459" lon="3.49507">
        <ele>87</ele>
        <time>2022-02-22T08:19:17Z</time>
      </trkpt>
      <trkpt lat="43.57459" lon="3.49511">
        <ele>87</ele>
        <time>2022-02-22T08:19:20Z</time>
      </trkpt>
      <trkpt lat="43.57459" lon="3.4951">
        <ele>87</ele>
        <time>2022-02-22T08:19:57Z</time>
      </trkpt>
      <trkpt lat="43.57459" lon="3.49507">
        <ele>87</ele>
        <time>2022-02-22T08:20:00Z</time>
      </trkpt>
      <trkpt lat="43.57459" lon="3.49504">
        <ele>87</ele>
        <time>2022-02-22T08:20:03Z</time>
      </trkpt>
      <trkpt lat="43.57459" lon="3.49499">
        <ele>87</ele>
        <time>2022-02-22T08:20:06Z</time>
      </trkpt>
      <trkpt lat="43.57459" lon="3.49495">
        <ele>87</ele>
        <time>2022-02-22T08:20:09Z</time>
      </trkpt>
      <trkpt lat="43.57459" lon="3.49491">
        <ele>87</ele>
        <time>2022-02-22T08:20:12Z</time>
      </trkpt>
      <trkpt lat="43.57458" lon="3.49487">
        <ele>87</ele>
        <time>2022-02-22T08:20:15Z</time>
      </trkpt>
      <trkpt lat="43.57458" lon="3.49482">
        <ele>87</ele>
        <time>2022-02-22T08:20:18Z</time>
      </trkpt>
      <trkpt lat="43.57458" lon="3.49477">
        <ele>87</ele>
        <time>2022-02-22T08:20:21Z</time>
      </trkpt>
      <trkpt lat="43.57458" lon="3.49473">
        <ele>87</ele>
        <time>2022-02-22T08:20:23Z</time>
      </trkpt>
      <trkpt lat="43.57457" lon="3.49468">
        <ele>87</ele>
        <time>2022-02-22T08:20:26Z</time>
      </trkpt>
      <trkpt lat="43.57457" lon="3.49464">
        <ele>87</ele>
        <time>2022-02-22T08:20:29Z</time>
      </trkpt>
      <trkpt lat="43.57457" lon="3.4946">
        <ele>87</ele>
        <time>2022-02-22T08:20:32Z</time>
      </trkpt>
      <trkpt lat="43.57458" lon="3.49455">
        <ele>87</ele>
        <time>2022-02-22T08:20:35Z</time>
      </trkpt>
      <trkpt lat="43.57458" lon="3.49451">
        <ele>87</ele>
        <time>2022-02-22T08:20:38Z</time>
      </trkpt>
      <trkpt lat="43.57457" lon="3.49447">
        <ele>87</ele>
        <time>2022-02-22T08:20:41Z</time>
      </trkpt>
      <trkpt lat="43.57457" lon="3.49443">
        <ele>87</ele>
        <time>2022-02-22T08:20:44Z</time>
      </trkpt>
      <trkpt lat="43.57457" lon="3.49439">
        <ele>87</ele>
        <time>2022-02-22T08:20:46Z</time>
      </trkpt>
      <trkpt lat="43.57457" lon="3.49435">
        <ele>87</ele>
        <time>2022-02-22T08:20:48Z</time>
      </trkpt>
      <trkpt lat="43.57457" lon="3.4943">
        <ele>87</ele>
        <time>2022-02-22T08:20:52Z</time>
      </trkpt>
      <trkpt lat="43.57456" lon="3.49425">
        <ele>87</ele>
        <time>2022-02-22T08:20:55Z</time>
      </trkpt>
      <trkpt lat="43.57456" lon="3.49421">
        <ele>87</ele>
        <time>2022-02-22T08:20:58Z</time>
      </trkpt>
      <trkpt lat="43.57456" lon="3.49416">
        <ele>87</ele>
        <time>2022-02-22T08:21:01Z</time>
      </trkpt>
      <trkpt lat="43.57455" lon="3.49412">
        <ele>87</ele>
        <time>2022-02-22T08:21:03Z</time>
      </trkpt>
      <trkpt lat="43.57456" lon="3.49408">
        <ele>87</ele>
        <time>2022-02-22T08:21:06Z</time>
      </trkpt>
      <trkpt lat="43.57456" lon="3.49404">
        <ele>87</ele>
        <time>2022-02-22T08:21:10Z</time>
      </trkpt>
      <trkpt lat="43.57456" lon="3.49399">
        <ele>87</ele>
        <time>2022-02-22T08:21:17Z</time>
      </trkpt>
      <trkpt lat="43.57456" lon="3.49394">
        <ele>87</ele>
        <time>2022-02-22T08:21:21Z</time>
      </trkpt>
      <trkpt lat="43.57456" lon="3.49389">
        <ele>87</ele>
        <time>2022-02-22T08:21:23Z</time>
      </trkpt>
      <trkpt lat="43.57455" lon="3.49385">
        <ele>87</ele>
        <time>2022-02-22T08:21:25Z</time>
      </trkpt>
      <trkpt lat="43.57455" lon="3.49381">
        <ele>87</ele>
        <time>2022-02-22T08:21:28Z</time>
      </trkpt>
      <trkpt lat="43.57456" lon="3.49381">
        <ele>87</ele>
        <time>2022-02-22T08:21:39Z</time>
      </trkpt>
      <trkpt lat="43.57459" lon="3.49381">
        <ele>87</ele>
        <time>2022-02-22T08:21:43Z</time>
      </trkpt>
      <trkpt lat="43.57462" lon="3.49381">
        <ele>87</ele>
        <time>2022-02-22T08:21:48Z</time>
      </trkpt>
      <trkpt lat="43.57465" lon="3.4938">
        <ele>87</ele>
        <time>2022-02-22T08:21:53Z</time>
      </trkpt>
      <trkpt lat="43.57468" lon="3.4938">
        <ele>87</ele>
        <time>2022-02-22T08:21:58Z</time>
      </trkpt>
      <trkpt lat="43.57471" lon="3.4938">
        <ele>87</ele>
        <time>2022-02-22T08:22:01Z</time>
      </trkpt>
      <trkpt lat="43.57474" lon="3.49378">
        <ele>87</ele>
        <time>2022-02-22T08:22:04Z</time>
      </trkpt>
      <trkpt lat="43.57478" lon="3.49377">
        <ele>87</ele>
        <time>2022-02-22T08:22:07Z</time>
      </trkpt>
      <trkpt lat="43.57481" lon="3.49378">
        <ele>87</ele>
        <time>2022-02-22T08:22:11Z</time>
      </trkpt>
      <trkpt lat="43.57484" lon="3.49379">
        <ele>87</ele>
        <time>2022-02-22T08:22:13Z</time>
      </trkpt>
      <trkpt lat="43.57487" lon="3.49378">
        <ele>87</ele>
        <time>2022-02-22T08:22:16Z</time>
      </trkpt>
      <trkpt lat="43.5749" lon="3.49377">
        <ele>87</ele>
        <time>2022-02-22T08:22:20Z</time>
      </trkpt>
      <trkpt lat="43.57492" lon="3.49375">
        <ele>87</ele>
        <time>2022-02-22T08:22:23Z</time>
      </trkpt>
      <trkpt lat="43.57496" lon="3.49375">
        <ele>87</ele>
        <time>2022-02-22T08:22:38Z</time>
      </trkpt>
      <trkpt lat="43.57499" lon="3.49377">
        <ele>87</ele>
        <time>2022-02-22T08:22:41Z</time>
      </trkpt>
      <trkpt lat="43.57501" lon="3.4938">
        <ele>87</ele>
        <time>2022-02-22T08:22:44Z</time>
      </trkpt>
      <trkpt lat="43.57503" lon="3.49384">
        <ele>87</ele>
        <time>2022-02-22T08:22:47Z</time>
      </trkpt>
      <trkpt lat="43.57504" lon="3.49388">
        <ele>87</ele>
        <time>2022-02-22T08:22:50Z</time>
      </trkpt>
      <trkpt lat="43.57504" lon="3.49393">
        <ele>87</ele>
        <time>2022-02-22T08:22:53Z</time>
      </trkpt>
      <trkpt lat="43.57505" lon="3.49397">
        <ele>87</ele>
        <time>2022-02-22T08:22:55Z</time>
      </trkpt>
      <trkpt lat="43.57504" lon="3.494">
        <ele>87</ele>
        <time>2022-02-22T08:22:57Z</time>
      </trkpt>
      <trkpt lat="43.57504" lon="3.49404">
        <ele>87</ele>
        <time>2022-02-22T08:23:00Z</time>
      </trkpt>
      <trkpt lat="43.57503" lon="3.49408">
        <ele>87</ele>
        <time>2022-02-22T08:23:02Z</time>
      </trkpt>
      <trkpt lat="43.57502" lon="3.49412">
        <ele>87</ele>
        <time>2022-02-22T08:23:04Z</time>
      </trkpt>
      <trkpt lat="43.57502" lon="3.49417">
        <ele>87</ele>
        <time>2022-02-22T08:23:07Z</time>
      </trkpt>
      <trkpt lat="43.57501" lon="3.49421">
        <ele>87</ele>
        <time>2022-02-22T08:23:10Z</time>
      </trkpt>
      <trkpt lat="43.575" lon="3.49426">
        <ele>87</ele>
        <time>2022-02-22T08:23:13Z</time>
      </trkpt>
      <trkpt lat="43.575" lon="3.49431">
        <ele>87</ele>
        <time>2022-02-22T08:23:16Z</time>
      </trkpt>
      <trkpt lat="43.57499" lon="3.49435">
        <ele>87</ele>
        <time>2022-02-22T08:23:20Z</time>
      </trkpt>
      <trkpt lat="43.57498" lon="3.49439">
        <ele>87</ele>
        <time>2022-02-22T08:23:22Z</time>
      </trkpt>
      <trkpt lat="43.57497" lon="3.49443">
        <ele>87</ele>
        <time>2022-02-22T08:23:25Z</time>
      </trkpt>
      <trkpt lat="43.57496" lon="3.49447">
        <ele>87</ele>
        <time>2022-02-22T08:23:28Z</time>
      </trkpt>
      <trkpt lat="43.57495" lon="3.49452">
        <ele>87</ele>
        <time>2022-02-22T08:23:31Z</time>
      </trkpt>
      <trkpt lat="43.57495" lon="3.49456">
        <ele>87</ele>
        <time>2022-02-22T08:23:35Z</time>
      </trkpt>
      <trkpt lat="43.57495" lon="3.49461">
        <ele>87</ele>
        <time>2022-02-22T08:23:38Z</time>
      </trkpt>
      <trkpt lat="43.57496" lon="3.49465">
        <ele>87</ele>
        <time>2022-02-22T08:23:41Z</time>
      </trkpt>
      <trkpt lat="43.57497" lon="3.49468">
        <ele>87</ele>
        <time>2022-02-22T08:23:44Z</time>
      </trkpt>
      <trkpt lat="43.57499" lon="3.49471">
        <ele>87</ele>
        <time>2022-02-22T08:23:47Z</time>
      </trkpt>
      <trkpt lat="43.57503" lon="3.49473">
        <ele>87</ele>
        <time>2022-02-22T08:23:50Z</time>
      </trkpt>
      <trkpt lat="43.57506" lon="3.49474">
        <ele>87</ele>
        <time>2022-02-22T08:23:52Z</time>
      </trkpt>
      <trkpt lat="43.57509" lon="3.49474">
        <ele>87</ele>
        <time>2022-02-22T08:24:01Z</time>
      </trkpt>
      <trkpt lat="43.57511" lon="3.49472">
        <ele>87</ele>
        <time>2022-02-22T08:24:05Z</time>
      </trkpt>
      <trkpt lat="43.57512" lon="3.49468">
        <ele>87</ele>
        <time>2022-02-22T08:24:17Z</time>
      </trkpt>
      <trkpt lat="43.57513" lon="3.49464">
        <ele>87</ele>
        <time>2022-02-22T08:24:34Z</time>
      </trkpt>
      <trkpt lat="43.57514" lon="3.49461">
        <ele>87</ele>
        <time>2022-02-22T08:24:39Z</time>
      </trkpt>
      <trkpt lat="43.57514" lon="3.49457">
        <ele>87</ele>
        <time>2022-02-22T08:24:43Z</time>
      </trkpt>
      <trkpt lat="43.57515" lon="3.49453">
        <ele>87</ele>
        <time>2022-02-22T08:24:58Z</time>
      </trkpt>
      <trkpt lat="43.57516" lon="3.49449">
        <ele>87</ele>
        <time>2022-02-22T08:25:05Z</time>
      </trkpt>
      <trkpt lat="43.57517" lon="3.49446">
        <ele>87</ele>
        <time>2022-02-22T08:25:09Z</time>
      </trkpt>
      <trkpt lat="43.57519" lon="3.49442">
        <ele>87</ele>
        <time>2022-02-22T08:25:14Z</time>
      </trkpt>
      <trkpt lat="43.5752" lon="3.49439">
        <ele>87</ele>
        <time>2022-02-22T08:25:33Z</time>
      </trkpt>
      <trkpt lat="43.5752" lon="3.49435">
        <ele>87</ele>
        <time>2022-02-22T08:25:38Z</time>
      </trkpt>
      <trkpt lat="43.57521" lon="3.49431">
        <ele>87</ele>
        <time>2022-02-22T08:25:42Z</time>
      </trkpt>
      <trkpt lat="43.57522" lon="3.49427">
        <ele>87</ele>
        <time>2022-02-22T08:25:45Z</time>
      </trkpt>
      <trkpt lat="43.57522" lon="3.49423">
        <ele>87</ele>
        <time>2022-02-22T08:25:49Z</time>
      </trkpt>
      <trkpt lat="43.57522" lon="3.49419">
        <ele>87</ele>
        <time>2022-02-22T08:25:52Z</time>
      </trkpt>
      <trkpt lat="43.57521" lon="3.49415">
        <ele>87</ele>
        <time>2022-02-22T08:25:56Z</time>
      </trkpt>
      <trkpt lat="43.57521" lon="3.49411">
        <ele>87</ele>
        <time>2022-02-22T08:26:00Z</time>
      </trkpt>
      <trkpt lat="43.5752" lon="3.49407">
        <ele>87</ele>
        <time>2022-02-22T08:26:03Z</time>
      </trkpt>
      <trkpt lat="43.57521" lon="3.49402">
        <ele>87</ele>
        <time>2022-02-22T08:26:07Z</time>
      </trkpt>
      <trkpt lat="43.57521" lon="3.49398">
        <ele>87</ele>
        <time>2022-02-22T08:26:11Z</time>
      </trkpt>
      <trkpt lat="43.57524" lon="3.49398">
        <ele>87</ele>
        <time>2022-02-22T08:26:26Z</time>
      </trkpt>
      <trkpt lat="43.57525" lon="3.494">
        <ele>87</ele>
        <time>2022-02-22T08:26:34Z</time>
      </trkpt>
      <trkpt lat="43.57527" lon="3.49402">
        <ele>87</ele>
        <time>2022-02-22T08:26:38Z</time>
      </trkpt>
      <trkpt lat="43.57529" lon="3.49406">
        <ele>87</ele>
        <time>2022-02-22T08:26:42Z</time>
      </trkpt>
      <trkpt lat="43.57529" lon="3.4941">
        <ele>87</ele>
        <time>2022-02-22T08:26:46Z</time>
      </trkpt>
      <trkpt lat="43.5753" lon="3.49415">
        <ele>87</ele>
        <time>2022-02-22T08:26:50Z</time>
      </trkpt>
      <trkpt lat="43.57531" lon="3.49419">
        <ele>87</ele>
        <time>2022-02-22T08:26:53Z</time>
      </trkpt>
      <trkpt lat="43.57533" lon="3.49423">
        <ele>87</ele>
        <time>2022-02-22T08:26:56Z</time>
      </trkpt>
      <trkpt lat="43.57534" lon="3.49428">
        <ele>87</ele>
        <time>2022-02-22T08:26:59Z</time>
      </trkpt>
      <trkpt lat="43.57535" lon="3.49433">
        <ele>87</ele>
        <time>2022-02-22T08:27:02Z</time>
      </trkpt>
      <trkpt lat="43.57535" lon="3.49438">
        <ele>87</ele>
        <time>2022-02-22T08:27:05Z</time>
      </trkpt>
      <trkpt lat="43.57535" lon="3.49443">
        <ele>87</ele>
        <time>2022-02-22T08:27:10Z</time>
      </trkpt>
      <trkpt lat="43.57535" lon="3.49447">
        <ele>87</ele>
        <time>2022-02-22T08:27:13Z</time>
      </trkpt>
      <trkpt lat="43.57535" lon="3.49452">
        <ele>87</ele>
        <time>2022-02-22T08:27:16Z</time>
      </trkpt>
      <trkpt lat="43.57535" lon="3.49457">
        <ele>87</ele>
        <time>2022-02-22T08:27:19Z</time>
      </trkpt>
      <trkpt lat="43.57535" lon="3.49462">
        <ele>87</ele>
        <time>2022-02-22T08:27:22Z</time>
      </trkpt>
      <trkpt lat="43.57536" lon="3.49467">
        <ele>87</ele>
        <time>2022-02-22T08:27:25Z</time>
      </trkpt>
      <trkpt lat="43.57536" lon="3.49471">
        <ele>87</ele>
        <time>2022-02-22T08:27:27Z</time>
      </trkpt>
      <trkpt lat="43.57536" lon="3.49475">
        <ele>87</ele>
        <time>2022-02-22T08:27:29Z</time>
      </trkpt>
      <trkpt lat="43.57537" lon="3.49479">
        <ele>87</ele>
        <time>2022-02-22T08:27:32Z</time>
      </trkpt>
      <trkpt lat="43.57537" lon="3.49484">
        <ele>87</ele>
        <time>2022-02-22T08:27:35Z</time>
      </trkpt>
      <trkpt lat="43.57537" lon="3.49489">
        <ele>87</ele>
        <time>2022-02-22T08:27:38Z</time>
      </trkpt>
      <trkpt lat="43.57537" lon="3.49493">
        <ele>87</ele>
        <time>2022-02-22T08:27:40Z</time>
      </trkpt>
      <trkpt lat="43.57538" lon="3.49497">
        <ele>87</ele>
        <time>2022-02-22T08:27:43Z</time>
      </trkpt>
      <trkpt lat="43.57538" lon="3.49502">
        <ele>87</ele>
        <time>2022-02-22T08:27:46Z</time>
      </trkpt>
      <trkpt lat="43.57539" lon="3.49507">
        <ele>87</ele>
        <time>2022-02-22T08:27:49Z</time>
      </trkpt>
      <trkpt lat="43.57539" lon="3.49513">
        <ele>87</ele>
        <time>2022-02-22T08:27:52Z</time>
      </trkpt>
      <trkpt lat="43.57539" lon="3.49518">
        <ele>87</ele>
        <time>2022-02-22T08:27:55Z</time>
      </trkpt>
      <trkpt lat="43.5754" lon="3.49523">
        <ele>87</ele>
        <time>2022-02-22T08:27:58Z</time>
      </trkpt>
      <trkpt lat="43.5754" lon="3.49528">
        <ele>87</ele>
        <time>2022-02-22T08:28:01Z</time>
      </trkpt>
      <trkpt lat="43.57541" lon="3.49533">
        <ele>87</ele>
        <time>2022-02-22T08:28:05Z</time>
      </trkpt>
      <trkpt lat="43.57542" lon="3.49538">
        <ele>87</ele>
        <time>2022-02-22T08:28:08Z</time>
      </trkpt>
      <trkpt lat="43.57543" lon="3.49543">
        <ele>87</ele>
        <time>2022-02-22T08:28:11Z</time>
      </trkpt>
      <trkpt lat="43.57544" lon="3.49547">
        <ele>87</ele>
        <time>2022-02-22T08:28:14Z</time>
      </trkpt>
      <trkpt lat="43.57545" lon="3.49551">
        <ele>87</ele>
        <time>2022-02-22T08:28:17Z</time>
      </trkpt>
      <trkpt lat="43.57547" lon="3.49556">
        <ele>87</ele>
        <time>2022-02-22T08:28:21Z</time>
      </trkpt>
      <trkpt lat="43.57548" lon="3.4956">
        <ele>87</ele>
        <time>2022-02-22T08:28:24Z</time>
      </trkpt>
      <trkpt lat="43.5755" lon="3.49563">
        <ele>87</ele>
        <time>2022-02-22T08:28:27Z</time>
      </trkpt>
      <trkpt lat="43.57552" lon="3.49566">
        <ele>87</ele>
        <time>2022-02-22T08:28:30Z</time>
      </trkpt>
      <trkpt lat="43.57555" lon="3.49569">
        <ele>87</ele>
        <time>2022-02-22T08:28:34Z</time>
      </trkpt>
      <trkpt lat="43.57558" lon="3.49571">
        <ele>87</ele>
        <time>2022-02-22T08:28:37Z</time>
      </trkpt>
      <trkpt lat="43.5756" lon="3.49573">
        <ele>87</ele>
        <time>2022-02-22T08:28:40Z</time>
      </trkpt>
      <trkpt lat="43.57562" lon="3.49576">
        <ele>87</ele>
        <time>2022-02-22T08:28:43Z</time>
      </trkpt>
      <trkpt lat="43.57564" lon="3.49579">
        <ele>87</ele>
        <time>2022-02-22T08:28:46Z</time>
      </trkpt>
      <trkpt lat="43.57567" lon="3.49582">
        <ele>87</ele>
        <time>2022-02-22T08:28:50Z</time>
      </trkpt>
      <trkpt lat="43.5757" lon="3.49584">
        <ele>87</ele>
        <time>2022-02-22T08:28:53Z</time>
      </trkpt>
      <trkpt lat="43.57572" lon="3.49587">
        <ele>87</ele>
        <time>2022-02-22T08:28:55Z</time>
      </trkpt>
      <trkpt lat="43.57574" lon="3.49589">
        <ele>87</ele>
        <time>2022-02-22T08:28:57Z</time>
      </trkpt>
      <trkpt lat="43.57577" lon="3.49592">
        <ele>87</ele>
        <time>2022-02-22T08:28:59Z</time>
      </trkpt>
      <trkpt lat="43.57579" lon="3.49594">
        <ele>87</ele>
        <time>2022-02-22T08:29:02Z</time>
      </trkpt>
      <trkpt lat="43.57581" lon="3.49596">
        <ele>87</ele>
        <time>2022-02-22T08:29:04Z</time>
      </trkpt>
      <trkpt lat="43.57584" lon="3.49599">
        <ele>87</ele>
        <time>2022-02-22T08:29:07Z</time>
      </trkpt>
      <trkpt lat="43.57587" lon="3.49601">
        <ele>87</ele>
        <time>2022-02-22T08:29:09Z</time>
      </trkpt>
      <trkpt lat="43.57591" lon="3.49602">
        <ele>87</ele>
        <time>2022-02-22T08:29:12Z</time>
      </trkpt>
      <trkpt lat="43.57594" lon="3.49604">
        <ele>87</ele>
        <time>2022-02-22T08:29:15Z</time>
      </trkpt>
      <trkpt lat="43.57598" lon="3.49604">
        <ele>87</ele>
        <time>2022-02-22T08:29:18Z</time>
      </trkpt>
      <trkpt lat="43.57602" lon="3.49606">
        <ele>87</ele>
        <time>2022-02-22T08:29:21Z</time>
      </trkpt>
      <trkpt lat="43.57605" lon="3.49608">
        <ele>87</ele>
        <time>2022-02-22T08:29:24Z</time>
      </trkpt>
      <trkpt lat="43.57608" lon="3.4961">
        <ele>87</ele>
        <time>2022-02-22T08:29:26Z</time>
      </trkpt>
      <trkpt lat="43.57611" lon="3.49611">
        <ele>87</ele>
        <time>2022-02-22T08:29:29Z</time>
      </trkpt>
      <trkpt lat="43.57614" lon="3.49612">
        <ele>87</ele>
        <time>2022-02-22T08:29:31Z</time>
      </trkpt>
      <trkpt lat="43.57617" lon="3.49612">
        <ele>87</ele>
        <time>2022-02-22T08:29:34Z</time>
      </trkpt>
      <trkpt lat="43.5762" lon="3.49613">
        <ele>87</ele>
        <time>2022-02-22T08:29:37Z</time>
      </trkpt>
      <trkpt lat="43.57624" lon="3.49613">
        <ele>87</ele>
        <time>2022-02-22T08:29:40Z</time>
      </trkpt>
      <trkpt lat="43.57627" lon="3.49613">
        <ele>87</ele>
        <time>2022-02-22T08:29:43Z</time>
      </trkpt>
      <trkpt lat="43.5763" lon="3.49612">
        <ele>87</ele>
        <time>2022-02-22T08:29:46Z</time>
      </trkpt>
      <trkpt lat="43.57633" lon="3.49613">
        <ele>87</ele>
        <time>2022-02-22T08:29:49Z</time>
      </trkpt>
      <trkpt lat="43.57637" lon="3.49612">
        <ele>87</ele>
        <time>2022-02-22T08:29:52Z</time>
      </trkpt>
      <trkpt lat="43.5764" lon="3.49611">
        <ele>87</ele>
        <time>2022-02-22T08:29:55Z</time>
      </trkpt>
      <trkpt lat="43.57643" lon="3.4961">
        <ele>87</ele>
        <time>2022-02-22T08:29:58Z</time>
      </trkpt>
      <trkpt lat="43.57646" lon="3.49608">
        <ele>87</ele>
        <time>2022-02-22T08:30:01Z</time>
      </trkpt>
      <trkpt lat="43.57649" lon="3.49607">
        <ele>87</ele>
        <time>2022-02-22T08:30:03Z</time>
      </trkpt>
      <trkpt lat="43.57652" lon="3.49605">
        <ele>87</ele>
        <time>2022-02-22T08:30:06Z</time>
      </trkpt>
      <trkpt lat="43.57655" lon="3.49604">
        <ele>87</ele>
        <time>2022-02-22T08:30:09Z</time>
      </trkpt>
      <trkpt lat="43.57659" lon="3.49603">
        <ele>87</ele>
        <time>2022-02-22T08:30:12Z</time>
      </trkpt>
      <trkpt lat="43.57662" lon="3.49602">
        <ele>87</ele>
        <time>2022-02-22T08:30:15Z</time>
      </trkpt>
      <trkpt lat="43.57666" lon="3.49601">
        <ele>87</ele>
        <time>2022-02-22T08:30:18Z</time>
      </trkpt>
      <trkpt lat="43.57669" lon="3.49599">
        <ele>87</ele>
        <time>2022-02-22T08:30:20Z</time>
      </trkpt>
      <trkpt lat="43.57672" lon="3.49598">
        <ele>87</ele>
        <time>2022-02-22T08:30:23Z</time>
      </trkpt>
      <trkpt lat="43.57675" lon="3.49596">
        <ele>87</ele>
        <time>2022-02-22T08:30:26Z</time>
      </trkpt>
      <trkpt lat="43.57678" lon="3.49594">
        <ele>87</ele>
        <time>2022-02-22T08:30:29Z</time>
      </trkpt>
      <trkpt lat="43.57681" lon="3.49593">
        <ele>87</ele>
        <time>2022-02-22T08:30:31Z</time>
      </trkpt>
      <trkpt lat="43.57684" lon="3.49592">
        <ele>87</ele>
        <time>2022-02-22T08:30:34Z</time>
      </trkpt>
      <trkpt lat="43.57687" lon="3.49591">
        <ele>87</ele>
        <time>2022-02-22T08:30:36Z</time>
      </trkpt>
      <trkpt lat="43.5769" lon="3.49589">
        <ele>87</ele>
        <time>2022-02-22T08:30:39Z</time>
      </trkpt>
      <trkpt lat="43.57694" lon="3.49587">
        <ele>87</ele>
        <time>2022-02-22T08:30:42Z</time>
      </trkpt>
      <trkpt lat="43.57697" lon="3.49586">
        <ele>87</ele>
        <time>2022-02-22T08:30:45Z</time>
      </trkpt>
      <trkpt lat="43.577" lon="3.49584">
        <ele>87</ele>
        <time>2022-02-22T08:30:49Z</time>
      </trkpt>
      <trkpt lat="43.57704" lon="3.49582">
        <ele>87</ele>
        <time>2022-02-22T08:30:52Z</time>
      </trkpt>
      <trkpt lat="43.57707" lon="3.49581">
        <ele>87</ele>
        <time>2022-02-22T08:30:56Z</time>
      </trkpt>
      <trkpt lat="43.5771" lon="3.4958">
        <ele>87</ele>
        <time>2022-02-22T08:30:59Z</time>
      </trkpt>
      <trkpt lat="43.57714" lon="3.49579">
        <ele>87</ele>
        <time>2022-02-22T08:31:02Z</time>
      </trkpt>
      <trkpt lat="43.57717" lon="3.49577">
        <ele>87</ele>
        <time>2022-02-22T08:31:05Z</time>
      </trkpt>
      <trkpt lat="43.5772" lon="3.49575">
        <ele>87</ele>
        <time>2022-02-22T08:31:08Z</time>
      </trkpt>
      <trkpt lat="43.57723" lon="3.49574">
        <ele>87</ele>
        <time>2022-02-22T08:31:11Z</time>
      </trkpt>
      <trkpt lat="43.57726" lon="3.49573">
        <ele>87</ele>
        <time>2022-02-22T08:31:14Z</time>
      </trkpt>
      <trkpt lat="43.5773" lon="3.49572">
        <ele>87</ele>
        <time>2022-02-22T08:31:17Z</time>
      </trkpt>
      <trkpt lat="43.57733" lon="3.49571">
        <ele>87</ele>
        <time>2022-02-22T08:31:20Z</time>
      </trkpt>
      <trkpt lat="43.57736" lon="3.49569">
        <ele>87</ele>
        <time>2022-02-22T08:31:23Z</time>
      </trkpt>
      <trkpt lat="43.57739" lon="3.49567">
        <ele>87</ele>
        <time>2022-02-22T08:31:26Z</time>
      </trkpt>
      <trkpt lat="43.57743" lon="3.49566">
        <ele>87</ele>
        <time>2022-02-22T08:31:30Z</time>
      </trkpt>
      <trkpt lat="43.57746" lon="3.49564">
        <ele>87</ele>
        <time>2022-02-22T08:31:33Z</time>
      </trkpt>
      <trkpt lat="43.57749" lon="3.49563">
        <ele>87</ele>
        <time>2022-02-22T08:31:37Z</time>
      </trkpt>
      <trkpt lat="43.57752" lon="3.49561">
        <ele>87</ele>
        <time>2022-02-22T08:31:40Z</time>
      </trkpt>
      <trkpt lat="43.57755" lon="3.49559">
        <ele>87</ele>
        <time>2022-02-22T08:31:43Z</time>
      </trkpt>
      <trkpt lat="43.57759" lon="3.49557">
        <ele>87</ele>
        <time>2022-02-22T08:31:46Z</time>
      </trkpt>
      <trkpt lat="43.57762" lon="3.49555">
        <ele>87</ele>
        <time>2022-02-22T08:31:49Z</time>
      </trkpt>
      <trkpt lat="43.57765" lon="3.49553">
        <ele>87</ele>
        <time>2022-02-22T08:31:52Z</time>
      </trkpt>
      <trkpt lat="43.57769" lon="3.49551">
        <ele>87</ele>
        <time>2022-02-22T08:31:55Z</time>
      </trkpt>
      <trkpt lat="43.57771" lon="3.4955">
        <ele>87</ele>
        <time>2022-02-22T08:31:58Z</time>
      </trkpt>
      <trkpt lat="43.57774" lon="3.4955">
        <ele>87</ele>
        <time>2022-02-22T08:32:07Z</time>
      </trkpt>
      <trkpt lat="43.57777" lon="3.4955">
        <ele>87</ele>
        <time>2022-02-22T08:32:10Z</time>
      </trkpt>
      <trkpt lat="43.5778" lon="3.49551">
        <ele>87</ele>
        <time>2022-02-22T08:32:14Z</time>
      </trkpt>
      <trkpt lat="43.57783" lon="3.49552">
        <ele>87</ele>
        <time>2022-02-22T08:32:17Z</time>
      </trkpt>
      <trkpt lat="43.57786" lon="3.49554">
        <ele>87</ele>
        <time>2022-02-22T08:32:20Z</time>
      </trkpt>
      <trkpt lat="43.57789" lon="3.49556">
        <ele>87</ele>
        <time>2022-02-22T08:32:23Z</time>
      </trkpt>
      <trkpt lat="43.57791" lon="3.49558">
        <ele>87</ele>
        <time>2022-02-22T08:32:28Z</time>
      </trkpt>
      <trkpt lat="43.57793" lon="3.4956">
        <ele>87</ele>
        <time>2022-02-22T08:32:32Z</time>
      </trkpt>
      <trkpt lat="43.57796" lon="3.49562">
        <ele>87</ele>
        <time>2022-02-22T08:32:38Z</time>
      </trkpt>
      <trkpt lat="43.57799" lon="3.49563">
        <ele>87</ele>
        <time>2022-02-22T08:32:43Z</time>
      </trkpt>
      <trkpt lat="43.57802" lon="3.49565">
        <ele>87</ele>
        <time>2022-02-22T08:32:45Z</time>
      </trkpt>
      <trkpt lat="43.57804" lon="3.49567">
        <ele>87</ele>
        <time>2022-02-22T08:32:47Z</time>
      </trkpt>
      <trkpt lat="43.57806" lon="3.4957">
        <ele>87</ele>
        <time>2022-02-22T08:32:49Z</time>
      </trkpt>
      <trkpt lat="43.57809" lon="3.49573">
        <ele>87</ele>
        <time>2022-02-22T08:32:52Z</time>
      </trkpt>
      <trkpt lat="43.57812" lon="3.49574">
        <ele>87</ele>
        <time>2022-02-22T08:32:54Z</time>
      </trkpt>
      <trkpt lat="43.57815" lon="3.49575">
        <ele>87</ele>
        <time>2022-02-22T08:32:56Z</time>
      </trkpt>
      <trkpt lat="43.57818" lon="3.49575">
        <ele>87</ele>
        <time>2022-02-22T08:32:59Z</time>
      </trkpt>
      <trkpt lat="43.57821" lon="3.49576">
        <ele>87</ele>
        <time>2022-02-22T08:33:01Z</time>
      </trkpt>
      <trkpt lat="43.57825" lon="3.49578">
        <ele>87</ele>
        <time>2022-02-22T08:33:04Z</time>
      </trkpt>
      <trkpt lat="43.57828" lon="3.49579">
        <ele>87</ele>
        <time>2022-02-22T08:33:07Z</time>
      </trkpt>
      <trkpt lat="43.57832" lon="3.4958">
        <ele>87</ele>
        <time>2022-02-22T08:33:11Z</time>
      </trkpt>
      <trkpt lat="43.57835" lon="3.49582">
        <ele>87</ele>
        <time>2022-02-22T08:33:14Z</time>
      </trkpt>
      <trkpt lat="43.57838" lon="3.49583">
        <ele>87</ele>
        <time>2022-02-22T08:33:21Z</time>
      </trkpt>
      <trkpt lat="43.57841" lon="3.49584">
        <ele>87</ele>
        <time>2022-02-22T08:33:37Z</time>
      </trkpt>
      <trkpt lat="43.57844" lon="3.49584">
        <ele>87</ele>
        <time>2022-02-22T08:33:42Z</time>
      </trkpt>
      <trkpt lat="43.57845" lon="3.49586">
        <ele>87</ele>
        <time>2022-02-22T08:33:51Z</time>
      </trkpt>
      <trkpt lat="43.57847" lon="3.49589">
        <ele>87</ele>
        <time>2022-02-22T08:34:21Z</time>
      </trkpt>
      <trkpt lat="43.57847" lon="3.49586">
        <ele>87</ele>
        <time>2022-02-22T08:35:08Z</time>
      </trkpt>
      <trkpt lat="43.57845" lon="3.49584">
        <ele>87</ele>
        <time>2022-02-22T08:35:16Z</time>
      </trkpt>
      <trkpt lat="43.57843" lon="3.49582">
        <ele>87</ele>
        <time>2022-02-22T08:36:01Z</time>
      </trkpt>
      <trkpt lat="43.57843" lon="3.49582">
        <ele>87</ele>
        <time>2022-02-22T08:36:16Z</time>
      </trkpt>
      <trkpt lat="43.57845" lon="3.49584">
        <ele>87</ele>
        <time>2022-02-22T08:38:29Z</time>
      </trkpt>
      <trkpt lat="43.57847" lon="3.49586">
        <ele>87</ele>
        <time>2022-02-22T08:38:32Z</time>
      </trkpt>
      <trkpt lat="43.5785" lon="3.49589">
        <ele>87</ele>
        <time>2022-02-22T08:38:36Z</time>
      </trkpt>
      <trkpt lat="43.57852" lon="3.49591">
        <ele>87</ele>
        <time>2022-02-22T08:38:40Z</time>
      </trkpt>
      <trkpt lat="43.57855" lon="3.49593">
        <ele>87</ele>
        <time>2022-02-22T08:38:44Z</time>
      </trkpt>
      <trkpt lat="43.57858" lon="3.49595">
        <ele>87</ele>
        <time>2022-02-22T08:38:47Z</time>
      </trkpt>
      <trkpt lat="43.5786" lon="3.49599">
        <ele>87</ele>
        <time>2022-02-22T08:38:50Z</time>
      </trkpt>
      <trkpt lat="43.57863" lon="3.49602">
        <ele>87</ele>
        <time>2022-02-22T08:38:54Z</time>
      </trkpt>
      <trkpt lat="43.57865" lon="3.49605">
        <ele>87</ele>
        <time>2022-02-22T08:38:58Z</time>
      </trkpt>
      <trkpt lat="43.57868" lon="3.49607">
        <ele>87</ele>
        <time>2022-02-22T08:39:01Z</time>
      </trkpt>
      <trkpt lat="43.5787" lon="3.4961">
        <ele>87</ele>
        <time>2022-02-22T08:39:04Z</time>
      </trkpt>
      <trkpt lat="43.57872" lon="3.49613">
        <ele>87</ele>
        <time>2022-02-22T08:39:08Z</time>
      </trkpt>
      <trkpt lat="43.57875" lon="3.49617">
        <ele>87</ele>
        <time>2022-02-22T08:39:12Z</time>
      </trkpt>
      <trkpt lat="43.57877" lon="3.49621">
        <ele>87</ele>
        <time>2022-02-22T08:39:15Z</time>
      </trkpt>
      <trkpt lat="43.57879" lon="3.49624">
        <ele>87</ele>
        <time>2022-02-22T08:39:18Z</time>
      </trkpt>
      <trkpt lat="43.57881" lon="3.49628">
        <ele>87</ele>
        <time>2022-02-22T08:39:21Z</time>
      </trkpt>
      <trkpt lat="43.57883" lon="3.49632">
        <ele>87</ele>
        <time>2022-02-22T08:39:24Z</time>
      </trkpt>
      <trkpt lat="43.57885" lon="3.49636">
        <ele>87</ele>
        <time>2022-02-22T08:39:27Z</time>
      </trkpt>
      <trkpt lat="43.57887" lon="3.4964">
        <ele>87</ele>
        <time>2022-02-22T08:39:30Z</time>
      </trkpt>
      <trkpt lat="43.57888" lon="3.49644">
        <ele>87</ele>
        <time>2022-02-22T08:39:33Z</time>
      </trkpt>
      <trkpt lat="43.5789" lon="3.49648">
        <ele>87</ele>
        <time>2022-02-22T08:39:36Z</time>
      </trkpt>
      <trkpt lat="43.57891" lon="3.49652">
        <ele>87</ele>
        <time>2022-02-22T08:39:38Z</time>
      </trkpt>
      <trkpt lat="43.57893" lon="3.49657">
        <ele>87</ele>
        <time>2022-02-22T08:39:41Z</time>
      </trkpt>
      <trkpt lat="43.57894" lon="3.4966">
        <ele>87</ele>
        <time>2022-02-22T08:39:43Z</time>
      </trkpt>
      <trkpt lat="43.57895" lon="3.49665">
        <ele>87</ele>
        <time>2022-02-22T08:39:46Z</time>
      </trkpt>
      <trkpt lat="43.57897" lon="3.49669">
        <ele>87</ele>
        <time>2022-02-22T08:39:49Z</time>
      </trkpt>
      <trkpt lat="43.57899" lon="3.49673">
        <ele>87</ele>
        <time>2022-02-22T08:39:52Z</time>
      </trkpt>
      <trkpt lat="43.579" lon="3.49676">
        <ele>87</ele>
        <time>2022-02-22T08:39:55Z</time>
      </trkpt>
      <trkpt lat="43.57902" lon="3.4968">
        <ele>87</ele>
        <time>2022-02-22T08:39:58Z</time>
      </trkpt>
      <trkpt lat="43.57905" lon="3.49683">
        <ele>87</ele>
        <time>2022-02-22T08:40:00Z</time>
      </trkpt>
      <trkpt lat="43.57907" lon="3.49685">
        <ele>87</ele>
        <time>2022-02-22T08:40:03Z</time>
      </trkpt>
      <trkpt lat="43.5791" lon="3.49688">
        <ele>87</ele>
        <time>2022-02-22T08:40:06Z</time>
      </trkpt>
      <trkpt lat="43.57913" lon="3.4969">
        <ele>87</ele>
        <time>2022-02-22T08:40:10Z</time>
      </trkpt>
      <trkpt lat="43.57915" lon="3.49694">
        <ele>87</ele>
        <time>2022-02-22T08:40:13Z</time>
      </trkpt>
      <trkpt lat="43.57918" lon="3.49697">
        <ele>87</ele>
        <time>2022-02-22T08:40:16Z</time>
      </trkpt>
      <trkpt lat="43.5792" lon="3.497">
        <ele>87</ele>
        <time>2022-02-22T08:40:25Z</time>
      </trkpt>
      <trkpt lat="43.57922" lon="3.49702">
        <ele>87</ele>
        <time>2022-02-22T08:40:32Z</time>
      </trkpt>
      <trkpt lat="43.57924" lon="3.49705">
        <ele>87</ele>
        <time>2022-02-22T08:40:36Z</time>
      </trkpt>
      <trkpt lat="43.57927" lon="3.49707">
        <ele>87</ele>
        <time>2022-02-22T08:40:39Z</time>
      </trkpt>
      <trkpt lat="43.5793" lon="3.49709">
        <ele>87</ele>
        <time>2022-02-22T08:40:41Z</time>
      </trkpt>
      <trkpt lat="43.57933" lon="3.49711">
        <ele>87</ele>
        <time>2022-02-22T08:40:43Z</time>
      </trkpt>
      <trkpt lat="43.57935" lon="3.49714">
        <ele>87</ele>
        <time>2022-02-22T08:40:46Z</time>
      </trkpt>
      <trkpt lat="43.57938" lon="3.49716">
        <ele>87</ele>
        <time>2022-02-22T08:40:49Z</time>
      </trkpt>
      <trkpt lat="43.5794" lon="3.49719">
        <ele>87</ele>
        <time>2022-02-22T08:40:52Z</time>
      </trkpt>
      <trkpt lat="43.57943" lon="3.49721">
        <ele>87</ele>
        <time>2022-02-22T08:40:55Z</time>
      </trkpt>
      <trkpt lat="43.57945" lon="3.49724">
        <ele>87</ele>
        <time>2022-02-22T08:40:57Z</time>
      </trkpt>
      <trkpt lat="43.57948" lon="3.49727">
        <ele>87</ele>
        <time>2022-02-22T08:41:00Z</time>
      </trkpt>
      <trkpt lat="43.57951" lon="3.49729">
        <ele>87</ele>
        <time>2022-02-22T08:41:03Z</time>
      </trkpt>
      <trkpt lat="43.57954" lon="3.49732">
        <ele>87</ele>
        <time>2022-02-22T08:41:06Z</time>
      </trkpt>
      <trkpt lat="43.57957" lon="3.49734">
        <ele>87</ele>
        <time>2022-02-22T08:41:09Z</time>
      </trkpt>
      <trkpt lat="43.57959" lon="3.49737">
        <ele>87</ele>
        <time>2022-02-22T08:41:11Z</time>
      </trkpt>
      <trkpt lat="43.57962" lon="3.49739">
        <ele>87</ele>
        <time>2022-02-22T08:41:14Z</time>
      </trkpt>
      <trkpt lat="43.57965" lon="3.49742">
        <ele>87</ele>
        <time>2022-02-22T08:41:17Z</time>
      </trkpt>
      <trkpt lat="43.57967" lon="3.49746">
        <ele>87</ele>
        <time>2022-02-22T08:41:20Z</time>
      </trkpt>
      <trkpt lat="43.5797" lon="3.49749">
        <ele>87</ele>
        <time>2022-02-22T08:41:23Z</time>
      </trkpt>
      <trkpt lat="43.57973" lon="3.49753">
        <ele>87</ele>
        <time>2022-02-22T08:41:26Z</time>
      </trkpt>
      <trkpt lat="43.57976" lon="3.49756">
        <ele>87</ele>
        <time>2022-02-22T08:41:29Z</time>
      </trkpt>
      <trkpt lat="43.57978" lon="3.49759">
        <ele>87</ele>
        <time>2022-02-22T08:41:32Z</time>
      </trkpt>
      <trkpt lat="43.57981" lon="3.49762">
        <ele>87</ele>
        <time>2022-02-22T08:41:34Z</time>
      </trkpt>
      <trkpt lat="43.57983" lon="3.49764">
        <ele>87</ele>
        <time>2022-02-22T08:41:37Z</time>
      </trkpt>
      <trkpt lat="43.57985" lon="3.49768">
        <ele>87</ele>
        <time>2022-02-22T08:41:41Z</time>
      </trkpt>
      <trkpt lat="43.57987" lon="3.49771">
        <ele>87</ele>
        <time>2022-02-22T08:41:44Z</time>
      </trkpt>
      <trkpt lat="43.5799" lon="3.49774">
        <ele>87</ele>
        <time>2022-02-22T08:41:47Z</time>
      </trkpt>
      <trkpt lat="43.57992" lon="3.49778">
        <ele>87</ele>
        <time>2022-02-22T08:41:50Z</time>
      </trkpt>
      <trkpt lat="43.57994" lon="3.49782">
        <ele>87</ele>
        <time>2022-02-22T08:41:53Z</time>
      </trkpt>
      <trkpt lat="43.57996" lon="3.49786">
        <ele>87</ele>
        <time>2022-02-22T08:41:57Z</time>
      </trkpt>
      <trkpt lat="43.57998" lon="3.49789">
        <ele>87</ele>
        <time>2022-02-22T08:42:00Z</time>
      </trkpt>
      <trkpt lat="43.58" lon="3.49793">
        <ele>87</ele>
        <time>2022-02-22T08:42:03Z</time>
      </trkpt>
      <trkpt lat="43.58002" lon="3.49796">
        <ele>87</ele>
        <time>2022-02-22T08:42:06Z</time>
      </trkpt>
      <trkpt lat="43.58005" lon="3.498">
        <ele>87</ele>
        <time>2022-02-22T08:42:09Z</time>
      </trkpt>
      <trkpt lat="43.58007" lon="3.49803">
        <ele>87</ele>
        <time>2022-02-22T08:42:12Z</time>
      </trkpt>
      <trkpt lat="43.58009" lon="3.49806">
        <ele>87</ele>
        <time>2022-02-22T08:42:15Z</time>
      </trkpt>
      <trkpt lat="43.58009" lon="3.49809">
        <ele>87</ele>
        <time>2022-02-22T08:42:22Z</time>
      </trkpt>
      <trkpt lat="43.58012" lon="3.49813">
        <ele>87</ele>
        <time>2022-02-22T08:42:28Z</time>
      </trkpt>
      <trkpt lat="43.58014" lon="3.49816">
        <ele>87</ele>
        <time>2022-02-22T08:42:31Z</time>
      </trkpt>
      <trkpt lat="43.58016" lon="3.49819">
        <ele>87</ele>
        <time>2022-02-22T08:42:35Z</time>
      </trkpt>
      <trkpt lat="43.58019" lon="3.49821">
        <ele>87</ele>
        <time>2022-02-22T08:42:38Z</time>
      </trkpt>
      <trkpt lat="43.58022" lon="3.49824">
        <ele>87</ele>
        <time>2022-02-22T08:42:41Z</time>
      </trkpt>
      <trkpt lat="43.58024" lon="3.49826">
        <ele>87</ele>
        <time>2022-02-22T08:42:44Z</time>
      </trkpt>
      <trkpt lat="43.58026" lon="3.4983">
        <ele>87</ele>
        <time>2022-02-22T08:42:47Z</time>
      </trkpt>
      <trkpt lat="43.58029" lon="3.49831">
        <ele>87</ele>
        <time>2022-02-22T08:42:50Z</time>
      </trkpt>
      <trkpt lat="43.58032" lon="3.49832">
        <ele>87</ele>
        <time>2022-02-22T08:42:52Z</time>
      </trkpt>
      <trkpt lat="43.58034" lon="3.49835">
        <ele>87</ele>
        <time>2022-02-22T08:42:55Z</time>
      </trkpt>
      <trkpt lat="43.58037" lon="3.49838">
        <ele>87</ele>
        <time>2022-02-22T08:42:58Z</time>
      </trkpt>
      <trkpt lat="43.58039" lon="3.49841">
        <ele>87</ele>
        <time>2022-02-22T08:43:01Z</time>
      </trkpt>
      <trkpt lat="43.58042" lon="3.49844">
        <ele>87</ele>
        <time>2022-02-22T08:43:04Z</time>
      </trkpt>
      <trkpt lat="43.58044" lon="3.49847">
        <ele>87</ele>
        <time>2022-02-22T08:43:08Z</time>
      </trkpt>
      <trkpt lat="43.58047" lon="3.4985">
        <ele>87</ele>
        <time>2022-02-22T08:43:11Z</time>
      </trkpt>
      <trkpt lat="43.5805" lon="3.49853">
        <ele>87</ele>
        <time>2022-02-22T08:43:14Z</time>
      </trkpt>
      <trkpt lat="43.58053" lon="3.49855">
        <ele>87</ele>
        <time>2022-02-22T08:43:17Z</time>
      </trkpt>
      <trkpt lat="43.58056" lon="3.49857">
        <ele>87</ele>
        <time>2022-02-22T08:43:20Z</time>
      </trkpt>
      <trkpt lat="43.58058" lon="3.4986">
        <ele>87</ele>
        <time>2022-02-22T08:43:23Z</time>
      </trkpt>
      <trkpt lat="43.5806" lon="3.49863">
        <ele>87</ele>
        <time>2022-02-22T08:43:26Z</time>
      </trkpt>
      <trkpt lat="43.58063" lon="3.49864">
        <ele>87</ele>
        <time>2022-02-22T08:43:29Z</time>
      </trkpt>
      <trkpt lat="43.58065" lon="3.49866">
        <ele>87</ele>
        <time>2022-02-22T08:43:32Z</time>
      </trkpt>
      <trkpt lat="43.58068" lon="3.49868">
        <ele>87</ele>
        <time>2022-02-22T08:43:35Z</time>
      </trkpt>
      <trkpt lat="43.5807" lon="3.4987">
        <ele>87</ele>
        <time>2022-02-22T08:43:38Z</time>
      </trkpt>
      <trkpt lat="43.58073" lon="3.49873">
        <ele>87</ele>
        <time>2022-02-22T08:43:41Z</time>
      </trkpt>
      <trkpt lat="43.58075" lon="3.49876">
        <ele>87</ele>
        <time>2022-02-22T08:43:44Z</time>
      </trkpt>
      <trkpt lat="43.58078" lon="3.49878">
        <ele>87</ele>
        <time>2022-02-22T08:43:46Z</time>
      </trkpt>
      <trkpt lat="43.5808" lon="3.49879">
        <ele>87</ele>
        <time>2022-02-22T08:43:48Z</time>
      </trkpt>
      <trkpt lat="43.58083" lon="3.49881">
        <ele>87</ele>
        <time>2022-02-22T08:43:50Z</time>
      </trkpt>
      <trkpt lat="43.58086" lon="3.49884">
        <ele>87</ele>
        <time>2022-02-22T08:43:53Z</time>
      </trkpt>
      <trkpt lat="43.58088" lon="3.49887">
        <ele>87</ele>
        <time>2022-02-22T08:43:55Z</time>
      </trkpt>
      <trkpt lat="43.58091" lon="3.4989">
        <ele>87</ele>
        <time>2022-02-22T08:43:58Z</time>
      </trkpt>
      <trkpt lat="43.58093" lon="3.49893">
        <ele>87</ele>
        <time>2022-02-22T08:44:01Z</time>
      </trkpt>
      <trkpt lat="43.58096" lon="3.49896">
        <ele>87</ele>
        <time>2022-02-22T08:44:03Z</time>
      </trkpt>
      <trkpt lat="43.58099" lon="3.49899">
        <ele>87</ele>
        <time>2022-02-22T08:44:05Z</time>
      </trkpt>
      <trkpt lat="43.58101" lon="3.49902">
        <ele>87</ele>
        <time>2022-02-22T08:44:07Z</time>
      </trkpt>
      <trkpt lat="43.58104" lon="3.49906">
        <ele>87</ele>
        <time>2022-02-22T08:44:10Z</time>
      </trkpt>
      <trkpt lat="43.58106" lon="3.49909">
        <ele>87</ele>
        <time>2022-02-22T08:44:13Z</time>
      </trkpt>
      <trkpt lat="43.58109" lon="3.49912">
        <ele>87</ele>
        <time>2022-02-22T08:44:16Z</time>
      </trkpt>
      <trkpt lat="43.58111" lon="3.49915">
        <ele>87</ele>
        <time>2022-02-22T08:44:19Z</time>
      </trkpt>
      <trkpt lat="43.58114" lon="3.49919">
        <ele>87</ele>
        <time>2022-02-22T08:44:22Z</time>
      </trkpt>
      <trkpt lat="43.58117" lon="3.49922">
        <ele>87</ele>
        <time>2022-02-22T08:44:25Z</time>
      </trkpt>
      <trkpt lat="43.58119" lon="3.49925">
        <ele>87</ele>
        <time>2022-02-22T08:44:32Z</time>
      </trkpt>
      <trkpt lat="43.58122" lon="3.49928">
        <ele>87</ele>
        <time>2022-02-22T08:44:35Z</time>
      </trkpt>
      <trkpt lat="43.58125" lon="3.49931">
        <ele>87</ele>
        <time>2022-02-22T08:44:37Z</time>
      </trkpt>
      <trkpt lat="43.58128" lon="3.49934">
        <ele>87</ele>
        <time>2022-02-22T08:44:40Z</time>
      </trkpt>
      <trkpt lat="43.58131" lon="3.49938">
        <ele>87</ele>
        <time>2022-02-22T08:44:43Z</time>
      </trkpt>
      <trkpt lat="43.58133" lon="3.49941">
        <ele>87</ele>
        <time>2022-02-22T08:44:45Z</time>
      </trkpt>
      <trkpt lat="43.58135" lon="3.49943">
        <ele>87</ele>
        <time>2022-02-22T08:44:48Z</time>
      </trkpt>
      <trkpt lat="43.58138" lon="3.49947">
        <ele>87</ele>
        <time>2022-02-22T08:44:51Z</time>
      </trkpt>
      <trkpt lat="43.58141" lon="3.4995">
        <ele>87</ele>
        <time>2022-02-22T08:44:54Z</time>
      </trkpt>
      <trkpt lat="43.58144" lon="3.49952">
        <ele>87</ele>
        <time>2022-02-22T08:44:57Z</time>
      </trkpt>
      <trkpt lat="43.58146" lon="3.49955">
        <ele>87</ele>
        <time>2022-02-22T08:45:00Z</time>
      </trkpt>
      <trkpt lat="43.58149" lon="3.49958">
        <ele>87</ele>
        <time>2022-02-22T08:45:03Z</time>
      </trkpt>
      <trkpt lat="43.58152" lon="3.4996">
        <ele>87</ele>
        <time>2022-02-22T08:45:06Z</time>
      </trkpt>
      <trkpt lat="43.58155" lon="3.49963">
        <ele>87</ele>
        <time>2022-02-22T08:45:09Z</time>
      </trkpt>
      <trkpt lat="43.58158" lon="3.49965">
        <ele>87</ele>
        <time>2022-02-22T08:45:12Z</time>
      </trkpt>
      <trkpt lat="43.58161" lon="3.49967">
        <ele>87</ele>
        <time>2022-02-22T08:45:15Z</time>
      </trkpt>
      <trkpt lat="43.58164" lon="3.49969">
        <ele>87</ele>
        <time>2022-02-22T08:45:18Z</time>
      </trkpt>
      <trkpt lat="43.58167" lon="3.49971">
        <ele>87</ele>
        <time>2022-02-22T08:45:20Z</time>
      </trkpt>
      <trkpt lat="43.5817" lon="3.49973">
        <ele>87</ele>
        <time>2022-02-22T08:45:23Z</time>
      </trkpt>
      <trkpt lat="43.58173" lon="3.49975">
        <ele>87</ele>
        <time>2022-02-22T08:45:26Z</time>
      </trkpt>
      <trkpt lat="43.58176" lon="3.49978">
        <ele>87</ele>
        <time>2022-02-22T08:45:29Z</time>
      </trkpt>
      <trkpt lat="43.58179" lon="3.49979">
        <ele>87</ele>
        <time>2022-02-22T08:45:32Z</time>
      </trkpt>
      <trkpt lat="43.58182" lon="3.49982">
        <ele>87</ele>
        <time>2022-02-22T08:45:35Z</time>
      </trkpt>
      <trkpt lat="43.58185" lon="3.49984">
        <ele>87</ele>
        <time>2022-02-22T08:45:38Z</time>
      </trkpt>
      <trkpt lat="43.58188" lon="3.49986">
        <ele>87</ele>
        <time>2022-02-22T08:45:41Z</time>
      </trkpt>
      <trkpt lat="43.58191" lon="3.49989">
        <ele>87</ele>
        <time>2022-02-22T08:45:44Z</time>
      </trkpt>
      <trkpt lat="43.58194" lon="3.49991">
        <ele>87</ele>
        <time>2022-02-22T08:45:46Z</time>
      </trkpt>
      <trkpt lat="43.58197" lon="3.49993">
        <ele>87</ele>
        <time>2022-02-22T08:45:48Z</time>
      </trkpt>
      <trkpt lat="43.582" lon="3.49995">
        <ele>87</ele>
        <time>2022-02-22T08:45:51Z</time>
      </trkpt>
      <trkpt lat="43.58203" lon="3.49997">
        <ele>87</ele>
        <time>2022-02-22T08:45:54Z</time>
      </trkpt>
      <trkpt lat="43.58206" lon="3.49999">
        <ele>87</ele>
        <time>2022-02-22T08:45:57Z</time>
      </trkpt>
      <trkpt lat="43.58208" lon="3.50002">
        <ele>87</ele>
        <time>2022-02-22T08:45:59Z</time>
      </trkpt>
      <trkpt lat="43.58211" lon="3.50004">
        <ele>87</ele>
        <time>2022-02-22T08:46:02Z</time>
      </trkpt>
      <trkpt lat="43.58214" lon="3.50005">
        <ele>87</ele>
        <time>2022-02-22T08:46:05Z</time>
      </trkpt>
      <trkpt lat="43.58217" lon="3.50007">
        <ele>87</ele>
        <time>2022-02-22T08:46:08Z</time>
      </trkpt>
      <trkpt lat="43.5822" lon="3.50009">
        <ele>87</ele>
        <time>2022-02-22T08:46:11Z</time>
      </trkpt>
      <trkpt lat="43.58223" lon="3.50011">
        <ele>87</ele>
        <time>2022-02-22T08:46:14Z</time>
      </trkpt>
      <trkpt lat="43.58226" lon="3.50012">
        <ele>87</ele>
        <time>2022-02-22T08:46:17Z</time>
      </trkpt>
      <trkpt lat="43.58229" lon="3.50014">
        <ele>87</ele>
        <time>2022-02-22T08:46:20Z</time>
      </trkpt>
      <trkpt lat="43.58232" lon="3.50016">
        <ele>87</ele>
        <time>2022-02-22T08:46:23Z</time>
      </trkpt>
      <trkpt lat="43.58235" lon="3.50018">
        <ele>87</ele>
        <time>2022-02-22T08:46:26Z</time>
      </trkpt>
      <trkpt lat="43.58238" lon="3.50019">
        <ele>87</ele>
        <time>2022-02-22T08:46:28Z</time>
      </trkpt>
      <trkpt lat="43.58241" lon="3.50021">
        <ele>87</ele>
        <time>2022-02-22T08:46:31Z</time>
      </trkpt>
      <trkpt lat="43.58244" lon="3.50023">
        <ele>87</ele>
        <time>2022-02-22T08:46:34Z</time>
      </trkpt>
      <trkpt lat="43.58248" lon="3.50026">
        <ele>87</ele>
        <time>2022-02-22T08:46:37Z</time>
      </trkpt>
      <trkpt lat="43.58251" lon="3.50028">
        <ele>87</ele>
        <time>2022-02-22T08:46:40Z</time>
      </trkpt>
      <trkpt lat="43.58254" lon="3.5003">
        <ele>87</ele>
        <time>2022-02-22T08:46:43Z</time>
      </trkpt>
      <trkpt lat="43.58258" lon="3.50032">
        <ele>87</ele>
        <time>2022-02-22T08:46:46Z</time>
      </trkpt>
      <trkpt lat="43.58261" lon="3.50034">
        <ele>87</ele>
        <time>2022-02-22T08:46:49Z</time>
      </trkpt>
      <trkpt lat="43.58264" lon="3.50036">
        <ele>87</ele>
        <time>2022-02-22T08:46:52Z</time>
      </trkpt>
      <trkpt lat="43.58267" lon="3.50037">
        <ele>87</ele>
        <time>2022-02-22T08:46:55Z</time>
      </trkpt>
      <trkpt lat="43.5827" lon="3.50039">
        <ele>87</ele>
        <time>2022-02-22T08:46:57Z</time>
      </trkpt>
      <trkpt lat="43.58273" lon="3.50041">
        <ele>87</ele>
        <time>2022-02-22T08:47:00Z</time>
      </trkpt>
      <trkpt lat="43.58276" lon="3.50043">
        <ele>87</ele>
        <time>2022-02-22T08:47:03Z</time>
      </trkpt>
      <trkpt lat="43.58279" lon="3.50045">
        <ele>87</ele>
        <time>2022-02-22T08:47:06Z</time>
      </trkpt>
      <trkpt lat="43.58282" lon="3.50047">
        <ele>87</ele>
        <time>2022-02-22T08:47:08Z</time>
      </trkpt>
      <trkpt lat="43.58285" lon="3.50049">
        <ele>87</ele>
        <time>2022-02-22T08:47:11Z</time>
      </trkpt>
      <trkpt lat="43.58288" lon="3.50051">
        <ele>87</ele>
        <time>2022-02-22T08:47:14Z</time>
      </trkpt>
      <trkpt lat="43.58291" lon="3.50053">
        <ele>87</ele>
        <time>2022-02-22T08:47:17Z</time>
      </trkpt>
      <trkpt lat="43.58294" lon="3.50056">
        <ele>87</ele>
        <time>2022-02-22T08:47:20Z</time>
      </trkpt>
      <trkpt lat="43.58297" lon="3.50058">
        <ele>87</ele>
        <time>2022-02-22T08:47:23Z</time>
      </trkpt>
      <trkpt lat="43.583" lon="3.5006">
        <ele>87</ele>
        <time>2022-02-22T08:47:26Z</time>
      </trkpt>
      <trkpt lat="43.58303" lon="3.50062">
        <ele>87</ele>
        <time>2022-02-22T08:47:29Z</time>
      </trkpt>
      <trkpt lat="43.58306" lon="3.50064">
        <ele>87</ele>
        <time>2022-02-22T08:47:31Z</time>
      </trkpt>
      <trkpt lat="43.58309" lon="3.50066">
        <ele>87</ele>
        <time>2022-02-22T08:47:34Z</time>
      </trkpt>
      <trkpt lat="43.58312" lon="3.50068">
        <ele>87</ele>
        <time>2022-02-22T08:47:37Z</time>
      </trkpt>
      <trkpt lat="43.58315" lon="3.5007">
        <ele>87</ele>
        <time>2022-02-22T08:47:40Z</time>
      </trkpt>
      <trkpt lat="43.58318" lon="3.50072">
        <ele>87</ele>
        <time>2022-02-22T08:47:43Z</time>
      </trkpt>
      <trkpt lat="43.58322" lon="3.50075">
        <ele>87</ele>
        <time>2022-02-22T08:47:46Z</time>
      </trkpt>
      <trkpt lat="43.58325" lon="3.50077">
        <ele>87</ele>
        <time>2022-02-22T08:47:49Z</time>
      </trkpt>
      <trkpt lat="43.58328" lon="3.5008">
        <ele>87</ele>
        <time>2022-02-22T08:47:52Z</time>
      </trkpt>
      <trkpt lat="43.58331" lon="3.50082">
        <ele>87</ele>
        <time>2022-02-22T08:47:55Z</time>
      </trkpt>
      <trkpt lat="43.58333" lon="3.50085">
        <ele>87</ele>
        <time>2022-02-22T08:47:58Z</time>
      </trkpt>
      <trkpt lat="43.58336" lon="3.50087">
        <ele>87</ele>
        <time>2022-02-22T08:48:01Z</time>
      </trkpt>
      <trkpt lat="43.58339" lon="3.50089">
        <ele>87</ele>
        <time>2022-02-22T08:48:04Z</time>
      </trkpt>
      <trkpt lat="43.58341" lon="3.50092">
        <ele>87</ele>
        <time>2022-02-22T08:48:07Z</time>
      </trkpt>
      <trkpt lat="43.58344" lon="3.50094">
        <ele>87</ele>
        <time>2022-02-22T08:48:10Z</time>
      </trkpt>
      <trkpt lat="43.58346" lon="3.50098">
        <ele>87</ele>
        <time>2022-02-22T08:48:13Z</time>
      </trkpt>
      <trkpt lat="43.58348" lon="3.50101">
        <ele>87</ele>
        <time>2022-02-22T08:48:16Z</time>
      </trkpt>
      <trkpt lat="43.58351" lon="3.50103">
        <ele>87</ele>
        <time>2022-02-22T08:48:18Z</time>
      </trkpt>
      <trkpt lat="43.58354" lon="3.50105">
        <ele>87</ele>
        <time>2022-02-22T08:48:21Z</time>
      </trkpt>
      <trkpt lat="43.58356" lon="3.50108">
        <ele>87</ele>
        <time>2022-02-22T08:48:23Z</time>
      </trkpt>
      <trkpt lat="43.58359" lon="3.5011">
        <ele>87</ele>
        <time>2022-02-22T08:48:26Z</time>
      </trkpt>
      <trkpt lat="43.58361" lon="3.50113">
        <ele>87</ele>
        <time>2022-02-22T08:48:29Z</time>
      </trkpt>
      <trkpt lat="43.58364" lon="3.50116">
        <ele>87</ele>
        <time>2022-02-22T08:48:32Z</time>
      </trkpt>
      <trkpt lat="43.58367" lon="3.50119">
        <ele>87</ele>
        <time>2022-02-22T08:48:35Z</time>
      </trkpt>
      <trkpt lat="43.5837" lon="3.50121">
        <ele>87</ele>
        <time>2022-02-22T08:48:37Z</time>
      </trkpt>
      <trkpt lat="43.58372" lon="3.50124">
        <ele>87</ele>
        <time>2022-02-22T08:48:39Z</time>
      </trkpt>
      <trkpt lat="43.58374" lon="3.50127">
        <ele>87</ele>
        <time>2022-02-22T08:48:42Z</time>
      </trkpt>
      <trkpt lat="43.58377" lon="3.5013">
        <ele>87</ele>
        <time>2022-02-22T08:48:45Z</time>
      </trkpt>
      <trkpt lat="43.58379" lon="3.50132">
        <ele>87</ele>
        <time>2022-02-22T08:48:47Z</time>
      </trkpt>
      <trkpt lat="43.58382" lon="3.50136">
        <ele>87</ele>
        <time>2022-02-22T08:48:50Z</time>
      </trkpt>
      <trkpt lat="43.58384" lon="3.50139">
        <ele>87</ele>
        <time>2022-02-22T08:48:53Z</time>
      </trkpt>
      <trkpt lat="43.58387" lon="3.50142">
        <ele>87</ele>
        <time>2022-02-22T08:48:56Z</time>
      </trkpt>
      <trkpt lat="43.58389" lon="3.50146">
        <ele>87</ele>
        <time>2022-02-22T08:48:59Z</time>
      </trkpt>
      <trkpt lat="43.58392" lon="3.50149">
        <ele>87</ele>
        <time>2022-02-22T08:49:01Z</time>
      </trkpt>
      <trkpt lat="43.58394" lon="3.50152">
        <ele>87</ele>
        <time>2022-02-22T08:49:04Z</time>
      </trkpt>
      <trkpt lat="43.58397" lon="3.50155">
        <ele>87</ele>
        <time>2022-02-22T08:49:07Z</time>
      </trkpt>
      <trkpt lat="43.584" lon="3.50157">
        <ele>87</ele>
        <time>2022-02-22T08:49:10Z</time>
      </trkpt>
      <trkpt lat="43.58403" lon="3.5016">
        <ele>87</ele>
        <time>2022-02-22T08:49:13Z</time>
      </trkpt>
      <trkpt lat="43.58405" lon="3.50163">
        <ele>87</ele>
        <time>2022-02-22T08:49:16Z</time>
      </trkpt>
      <trkpt lat="43.58407" lon="3.50166">
        <ele>87</ele>
        <time>2022-02-22T08:49:19Z</time>
      </trkpt>
      <trkpt lat="43.5841" lon="3.50169">
        <ele>87</ele>
        <time>2022-02-22T08:49:22Z</time>
      </trkpt>
      <trkpt lat="43.58412" lon="3.50173">
        <ele>87</ele>
        <time>2022-02-22T08:49:25Z</time>
      </trkpt>
      <trkpt lat="43.58415" lon="3.50175">
        <ele>87</ele>
        <time>2022-02-22T08:49:28Z</time>
      </trkpt>
      <trkpt lat="43.58418" lon="3.50178">
        <ele>87</ele>
        <time>2022-02-22T08:49:31Z</time>
      </trkpt>
      <trkpt lat="43.5842" lon="3.50181">
        <ele>87</ele>
        <time>2022-02-22T08:49:34Z</time>
      </trkpt>
      <trkpt lat="43.58423" lon="3.50185">
        <ele>87</ele>
        <time>2022-02-22T08:49:38Z</time>
      </trkpt>
      <trkpt lat="43.58425" lon="3.50188">
        <ele>87</ele>
        <time>2022-02-22T08:49:41Z</time>
      </trkpt>
      <trkpt lat="43.58428" lon="3.50191">
        <ele>87</ele>
        <time>2022-02-22T08:49:43Z</time>
      </trkpt>
      <trkpt lat="43.5843" lon="3.50194">
        <ele>87</ele>
        <time>2022-02-22T08:49:46Z</time>
      </trkpt>
      <trkpt lat="43.58433" lon="3.50197">
        <ele>87</ele>
        <time>2022-02-22T08:49:49Z</time>
      </trkpt>
      <trkpt lat="43.58436" lon="3.502">
        <ele>87</ele>
        <time>2022-02-22T08:49:52Z</time>
      </trkpt>
      <trkpt lat="43.58438" lon="3.50202">
        <ele>87</ele>
        <time>2022-02-22T08:49:54Z</time>
      </trkpt>
      <trkpt lat="43.5844" lon="3.50205">
        <ele>87</ele>
        <time>2022-02-22T08:49:57Z</time>
      </trkpt>
      <trkpt lat="43.58442" lon="3.50208">
        <ele>87</ele>
        <time>2022-02-22T08:49:59Z</time>
      </trkpt>
      <trkpt lat="43.58445" lon="3.50211">
        <ele>87</ele>
        <time>2022-02-22T08:50:02Z</time>
      </trkpt>
      <trkpt lat="43.58447" lon="3.50214">
        <ele>87</ele>
        <time>2022-02-22T08:50:05Z</time>
      </trkpt>
      <trkpt lat="43.58449" lon="3.50217">
        <ele>87</ele>
        <time>2022-02-22T08:50:07Z</time>
      </trkpt>
      <trkpt lat="43.58451" lon="3.5022">
        <ele>87</ele>
        <time>2022-02-22T08:50:10Z</time>
      </trkpt>
      <trkpt lat="43.58453" lon="3.50223">
        <ele>87</ele>
        <time>2022-02-22T08:50:12Z</time>
      </trkpt>
      <trkpt lat="43.58455" lon="3.50226">
        <ele>87</ele>
        <time>2022-02-22T08:50:15Z</time>
      </trkpt>
      <trkpt lat="43.58458" lon="3.50229">
        <ele>87</ele>
        <time>2022-02-22T08:50:18Z</time>
      </trkpt>
      <trkpt lat="43.5846" lon="3.50232">
        <ele>87</ele>
        <time>2022-02-22T08:50:21Z</time>
      </trkpt>
      <trkpt lat="43.58463" lon="3.50235">
        <ele>87</ele>
        <time>2022-02-22T08:50:24Z</time>
      </trkpt>
      <trkpt lat="43.58466" lon="3.50238">
        <ele>87</ele>
        <time>2022-02-22T08:50:27Z</time>
      </trkpt>
      <trkpt lat="43.58469" lon="3.50241">
        <ele>87</ele>
        <time>2022-02-22T08:50:30Z</time>
      </trkpt>
      <trkpt lat="43.58471" lon="3.50244">
        <ele>87</ele>
        <time>2022-02-22T08:50:33Z</time>
      </trkpt>
      <trkpt lat="43.58474" lon="3.50247">
        <ele>87</ele>
        <time>2022-02-22T08:50:36Z</time>
      </trkpt>
      <trkpt lat="43.58477" lon="3.5025">
        <ele>87</ele>
        <time>2022-02-22T08:50:39Z</time>
      </trkpt>
      <trkpt lat="43.58479" lon="3.50252">
        <ele>87</ele>
        <time>2022-02-22T08:50:41Z</time>
      </trkpt>
      <trkpt lat="43.58482" lon="3.50255">
        <ele>87</ele>
        <time>2022-02-22T08:50:44Z</time>
      </trkpt>
      <trkpt lat="43.58484" lon="3.50258">
        <ele>87</ele>
        <time>2022-02-22T08:50:47Z</time>
      </trkpt>
      <trkpt lat="43.58487" lon="3.50261">
        <ele>87</ele>
        <time>2022-02-22T08:50:50Z</time>
      </trkpt>
      <trkpt lat="43.5849" lon="3.50264">
        <ele>87</ele>
        <time>2022-02-22T08:50:53Z</time>
      </trkpt>
      <trkpt lat="43.58492" lon="3.50267">
        <ele>87</ele>
        <time>2022-02-22T08:50:56Z</time>
      </trkpt>
      <trkpt lat="43.58495" lon="3.5027">
        <ele>87</ele>
        <time>2022-02-22T08:50:59Z</time>
      </trkpt>
      <trkpt lat="43.58498" lon="3.50274">
        <ele>87</ele>
        <time>2022-02-22T08:51:02Z</time>
      </trkpt>
      <trkpt lat="43.58501" lon="3.50276">
        <ele>87</ele>
        <time>2022-02-22T08:51:05Z</time>
      </trkpt>
      <trkpt lat="43.58503" lon="3.50279">
        <ele>87</ele>
        <time>2022-02-22T08:51:07Z</time>
      </trkpt>
      <trkpt lat="43.58506" lon="3.50282">
        <ele>87</ele>
        <time>2022-02-22T08:51:10Z</time>
      </trkpt>
      <trkpt lat="43.58509" lon="3.50285">
        <ele>87</ele>
        <time>2022-02-22T08:51:13Z</time>
      </trkpt>
      <trkpt lat="43.58511" lon="3.50289">
        <ele>87</ele>
        <time>2022-02-22T08:51:16Z</time>
      </trkpt>
      <trkpt lat="43.58513" lon="3.50292">
        <ele>87</ele>
        <time>2022-02-22T08:51:19Z</time>
      </trkpt>
      <trkpt lat="43.58516" lon="3.50295">
        <ele>87</ele>
        <time>2022-02-22T08:51:22Z</time>
      </trkpt>
      <trkpt lat="43.58518" lon="3.50298">
        <ele>87</ele>
        <time>2022-02-22T08:51:25Z</time>
      </trkpt>
      <trkpt lat="43.58521" lon="3.50301">
        <ele>87</ele>
        <time>2022-02-22T08:51:28Z</time>
      </trkpt>
      <trkpt lat="43.58523" lon="3.50304">
        <ele>87</ele>
        <time>2022-02-22T08:51:31Z</time>
      </trkpt>
      <trkpt lat="43.58525" lon="3.50307">
        <ele>87</ele>
        <time>2022-02-22T08:51:34Z</time>
      </trkpt>
      <trkpt lat="43.58527" lon="3.50312">
        <ele>87</ele>
        <time>2022-02-22T08:51:37Z</time>
      </trkpt>
      <trkpt lat="43.58529" lon="3.50316">
        <ele>87</ele>
        <time>2022-02-22T08:51:40Z</time>
      </trkpt>
      <trkpt lat="43.5853" lon="3.50319">
        <ele>87</ele>
        <time>2022-02-22T08:51:42Z</time>
      </trkpt>
      <trkpt lat="43.58531" lon="3.50324">
        <ele>87</ele>
        <time>2022-02-22T08:51:45Z</time>
      </trkpt>
      <trkpt lat="43.58532" lon="3.50329">
        <ele>87</ele>
        <time>2022-02-22T08:51:48Z</time>
      </trkpt>
      <trkpt lat="43.58534" lon="3.50333">
        <ele>87</ele>
        <time>2022-02-22T08:51:51Z</time>
      </trkpt>
      <trkpt lat="43.58535" lon="3.50338">
        <ele>87</ele>
        <time>2022-02-22T08:51:54Z</time>
      </trkpt>
      <trkpt lat="43.58537" lon="3.50342">
        <ele>87</ele>
        <time>2022-02-22T08:51:57Z</time>
      </trkpt>
      <trkpt lat="43.58538" lon="3.50347">
        <ele>87</ele>
        <time>2022-02-22T08:52:00Z</time>
      </trkpt>
      <trkpt lat="43.5854" lon="3.50351">
        <ele>87</ele>
        <time>2022-02-22T08:52:03Z</time>
      </trkpt>
      <trkpt lat="43.58541" lon="3.50355">
        <ele>87</ele>
        <time>2022-02-22T08:52:06Z</time>
      </trkpt>
      <trkpt lat="43.58541" lon="3.5036">
        <ele>87</ele>
        <time>2022-02-22T08:52:09Z</time>
      </trkpt>
      <trkpt lat="43.58543" lon="3.50364">
        <ele>87</ele>
        <time>2022-02-22T08:52:12Z</time>
      </trkpt>
      <trkpt lat="43.58544" lon="3.50369">
        <ele>87</ele>
        <time>2022-02-22T08:52:15Z</time>
      </trkpt>
      <trkpt lat="43.58545" lon="3.50374">
        <ele>87</ele>
        <time>2022-02-22T08:52:18Z</time>
      </trkpt>
      <trkpt lat="43.58547" lon="3.50378">
        <ele>87</ele>
        <time>2022-02-22T08:52:21Z</time>
      </trkpt>
      <trkpt lat="43.58549" lon="3.50382">
        <ele>87</ele>
        <time>2022-02-22T08:52:24Z</time>
      </trkpt>
      <trkpt lat="43.5855" lon="3.50387">
        <ele>87</ele>
        <time>2022-02-22T08:52:27Z</time>
      </trkpt>
      <trkpt lat="43.58552" lon="3.50392">
        <ele>87</ele>
        <time>2022-02-22T08:52:30Z</time>
      </trkpt>
      <trkpt lat="43.58553" lon="3.50396">
        <ele>87</ele>
        <time>2022-02-22T08:52:33Z</time>
      </trkpt>
      <trkpt lat="43.58555" lon="3.504">
        <ele>87</ele>
        <time>2022-02-22T08:52:36Z</time>
      </trkpt>
      <trkpt lat="43.58556" lon="3.50405">
        <ele>87</ele>
        <time>2022-02-22T08:52:39Z</time>
      </trkpt>
      <trkpt lat="43.58558" lon="3.50408">
        <ele>87</ele>
        <time>2022-02-22T08:52:42Z</time>
      </trkpt>
      <trkpt lat="43.5856" lon="3.50413">
        <ele>87</ele>
        <time>2022-02-22T08:52:45Z</time>
      </trkpt>
      <trkpt lat="43.58561" lon="3.50417">
        <ele>87</ele>
        <time>2022-02-22T08:52:48Z</time>
      </trkpt>
      <trkpt lat="43.58562" lon="3.50421">
        <ele>87</ele>
        <time>2022-02-22T08:52:51Z</time>
      </trkpt>
      <trkpt lat="43.58564" lon="3.50426">
        <ele>87</ele>
        <time>2022-02-22T08:52:54Z</time>
      </trkpt>
      <trkpt lat="43.58565" lon="3.5043">
        <ele>87</ele>
        <time>2022-02-22T08:52:57Z</time>
      </trkpt>
      <trkpt lat="43.58566" lon="3.50435">
        <ele>87</ele>
        <time>2022-02-22T08:53:00Z</time>
      </trkpt>
      <trkpt lat="43.58568" lon="3.50439">
        <ele>87</ele>
        <time>2022-02-22T08:53:02Z</time>
      </trkpt>
      <trkpt lat="43.58569" lon="3.50443">
        <ele>87</ele>
        <time>2022-02-22T08:53:05Z</time>
      </trkpt>
      <trkpt lat="43.5857" lon="3.50447">
        <ele>87</ele>
        <time>2022-02-22T08:53:08Z</time>
      </trkpt>
      <trkpt lat="43.58571" lon="3.50451">
        <ele>87</ele>
        <time>2022-02-22T08:53:11Z</time>
      </trkpt>
      <trkpt lat="43.58571" lon="3.50456">
        <ele>87</ele>
        <time>2022-02-22T08:53:14Z</time>
      </trkpt>
      <trkpt lat="43.58572" lon="3.5046">
        <ele>87</ele>
        <time>2022-02-22T08:53:17Z</time>
      </trkpt>
      <trkpt lat="43.58574" lon="3.50465">
        <ele>87</ele>
        <time>2022-02-22T08:53:21Z</time>
      </trkpt>
      <trkpt lat="43.58575" lon="3.50469">
        <ele>87</ele>
        <time>2022-02-22T08:53:23Z</time>
      </trkpt>
      <trkpt lat="43.58576" lon="3.50473">
        <ele>87</ele>
        <time>2022-02-22T08:53:26Z</time>
      </trkpt>
      <trkpt lat="43.58577" lon="3.50477">
        <ele>87</ele>
        <time>2022-02-22T08:53:28Z</time>
      </trkpt>
      <trkpt lat="43.58579" lon="3.50481">
        <ele>87</ele>
        <time>2022-02-22T08:53:30Z</time>
      </trkpt>
      <trkpt lat="43.5858" lon="3.50485">
        <ele>87</ele>
        <time>2022-02-22T08:53:33Z</time>
      </trkpt>
      <trkpt lat="43.58581" lon="3.50489">
        <ele>87</ele>
        <time>2022-02-22T08:53:35Z</time>
      </trkpt>
      <trkpt lat="43.58582" lon="3.50492">
        <ele>87</ele>
        <time>2022-02-22T08:53:38Z</time>
      </trkpt>
      <trkpt lat="43.58584" lon="3.50496">
        <ele>87</ele>
        <time>2022-02-22T08:53:41Z</time>
      </trkpt>
      <trkpt lat="43.58586" lon="3.505">
        <ele>87</ele>
        <time>2022-02-22T08:53:44Z</time>
      </trkpt>
      <trkpt lat="43.58588" lon="3.50504">
        <ele>87</ele>
        <time>2022-02-22T08:53:47Z</time>
      </trkpt>
      <trkpt lat="43.5859" lon="3.50508">
        <ele>87</ele>
        <time>2022-02-22T08:53:50Z</time>
      </trkpt>
      <trkpt lat="43.58592" lon="3.50511">
        <ele>87</ele>
        <time>2022-02-22T08:53:52Z</time>
      </trkpt>
      <trkpt lat="43.58595" lon="3.50515">
        <ele>87</ele>
        <time>2022-02-22T08:53:55Z</time>
      </trkpt>
      <trkpt lat="43.58597" lon="3.50518">
        <ele>87</ele>
        <time>2022-02-22T08:53:58Z</time>
      </trkpt>
      <trkpt lat="43.586" lon="3.5052">
        <ele>87</ele>
        <time>2022-02-22T08:54:01Z</time>
      </trkpt>
      <trkpt lat="43.58603" lon="3.50523">
        <ele>87</ele>
        <time>2022-02-22T08:54:04Z</time>
      </trkpt>
      <trkpt lat="43.58606" lon="3.50526">
        <ele>87</ele>
        <time>2022-02-22T08:54:07Z</time>
      </trkpt>
      <trkpt lat="43.58608" lon="3.50528">
        <ele>87</ele>
        <time>2022-02-22T08:54:10Z</time>
      </trkpt>
      <trkpt lat="43.58611" lon="3.5053">
        <ele>87</ele>
        <time>2022-02-22T08:54:13Z</time>
      </trkpt>
      <trkpt lat="43.58614" lon="3.50533">
        <ele>87</ele>
        <time>2022-02-22T08:54:16Z</time>
      </trkpt>
      <trkpt lat="43.58617" lon="3.50535">
        <ele>87</ele>
        <time>2022-02-22T08:54:19Z</time>
      </trkpt>
      <trkpt lat="43.5862" lon="3.50536">
        <ele>87</ele>
        <time>2022-02-22T08:54:22Z</time>
      </trkpt>
      <trkpt lat="43.58624" lon="3.50538">
        <ele>87</ele>
        <time>2022-02-22T08:54:26Z</time>
      </trkpt>
      <trkpt lat="43.58627" lon="3.50539">
        <ele>87</ele>
        <time>2022-02-22T08:54:29Z</time>
      </trkpt>
      <trkpt lat="43.58629" lon="3.50541">
        <ele>87</ele>
        <time>2022-02-22T08:54:34Z</time>
      </trkpt>
      <trkpt lat="43.58632" lon="3.50543">
        <ele>87</ele>
        <time>2022-02-22T08:54:44Z</time>
      </trkpt>
      <trkpt lat="43.58631" lon="3.50543">
        <ele>87</ele>
        <time>2022-02-22T08:55:04Z</time>
      </trkpt>
      <trkpt lat="43.58629" lon="3.50542">
        <ele>87</ele>
        <time>2022-02-22T08:55:07Z</time>
      </trkpt>
      <trkpt lat="43.58627" lon="3.50539">
        <ele>87</ele>
        <time>2022-02-22T08:55:15Z</time>
      </trkpt>
      <trkpt lat="43.58624" lon="3.50537">
        <ele>87</ele>
        <time>2022-02-22T08:55:18Z</time>
      </trkpt>
      <trkpt lat="43.58621" lon="3.50534">
        <ele>87</ele>
        <time>2022-02-22T08:55:21Z</time>
      </trkpt>
      <trkpt lat="43.58618" lon="3.50532">
        <ele>87</ele>
        <time>2022-02-22T08:55:24Z</time>
      </trkpt>
      <trkpt lat="43.58615" lon="3.50529">
        <ele>87</ele>
        <time>2022-02-22T08:55:27Z</time>
      </trkpt>
      <trkpt lat="43.58612" lon="3.50527">
        <ele>87</ele>
        <time>2022-02-22T08:55:29Z</time>
      </trkpt>
      <trkpt lat="43.58609" lon="3.50525">
        <ele>87</ele>
        <time>2022-02-22T08:55:32Z</time>
      </trkpt>
      <trkpt lat="43.58606" lon="3.50523">
        <ele>87</ele>
        <time>2022-02-22T08:55:35Z</time>
      </trkpt>
      <trkpt lat="43.58603" lon="3.5052">
        <ele>87</ele>
        <time>2022-02-22T08:55:38Z</time>
      </trkpt>
      <trkpt lat="43.586" lon="3.50517">
        <ele>87</ele>
        <time>2022-02-22T08:55:41Z</time>
      </trkpt>
      <trkpt lat="43.58596" lon="3.50514">
        <ele>87</ele>
        <time>2022-02-22T08:55:44Z</time>
      </trkpt>
      <trkpt lat="43.58594" lon="3.50511">
        <ele>87</ele>
        <time>2022-02-22T08:55:47Z</time>
      </trkpt>
      <trkpt lat="43.58591" lon="3.50507">
        <ele>87</ele>
        <time>2022-02-22T08:55:50Z</time>
      </trkpt>
      <trkpt lat="43.58589" lon="3.50504">
        <ele>87</ele>
        <time>2022-02-22T08:55:53Z</time>
      </trkpt>
      <trkpt lat="43.58587" lon="3.505">
        <ele>87</ele>
        <time>2022-02-22T08:55:56Z</time>
      </trkpt>
      <trkpt lat="43.58585" lon="3.50495">
        <ele>87</ele>
        <time>2022-02-22T08:55:59Z</time>
      </trkpt>
      <trkpt lat="43.58583" lon="3.50491">
        <ele>87</ele>
        <time>2022-02-22T08:56:02Z</time>
      </trkpt>
      <trkpt lat="43.58582" lon="3.50486">
        <ele>87</ele>
        <time>2022-02-22T08:56:05Z</time>
      </trkpt>
      <trkpt lat="43.5858" lon="3.50482">
        <ele>87</ele>
        <time>2022-02-22T08:56:09Z</time>
      </trkpt>
      <trkpt lat="43.58579" lon="3.50478">
        <ele>87</ele>
        <time>2022-02-22T08:56:18Z</time>
      </trkpt>
      <trkpt lat="43.58579" lon="3.50473">
        <ele>87</ele>
        <time>2022-02-22T08:56:21Z</time>
      </trkpt>
      <trkpt lat="43.58578" lon="3.50469">
        <ele>87</ele>
        <time>2022-02-22T08:56:24Z</time>
      </trkpt>
      <trkpt lat="43.58576" lon="3.50465">
        <ele>87</ele>
        <time>2022-02-22T08:56:27Z</time>
      </trkpt>
      <trkpt lat="43.58575" lon="3.50461">
        <ele>87</ele>
        <time>2022-02-22T08:56:30Z</time>
      </trkpt>
      <trkpt lat="43.58573" lon="3.50457">
        <ele>87</ele>
        <time>2022-02-22T08:56:33Z</time>
      </trkpt>
      <trkpt lat="43.58572" lon="3.50453">
        <ele>87</ele>
        <time>2022-02-22T08:56:36Z</time>
      </trkpt>
      <trkpt lat="43.5857" lon="3.50448">
        <ele>87</ele>
        <time>2022-02-22T08:56:39Z</time>
      </trkpt>
      <trkpt lat="43.58569" lon="3.50444">
        <ele>87</ele>
        <time>2022-02-22T08:56:42Z</time>
      </trkpt>
      <trkpt lat="43.58569" lon="3.5044">
        <ele>87</ele>
        <time>2022-02-22T08:56:45Z</time>
      </trkpt>
      <trkpt lat="43.58567" lon="3.50435">
        <ele>87</ele>
        <time>2022-02-22T08:56:48Z</time>
      </trkpt>
      <trkpt lat="43.58566" lon="3.50431">
        <ele>87</ele>
        <time>2022-02-22T08:56:50Z</time>
      </trkpt>
      <trkpt lat="43.58565" lon="3.50427">
        <ele>87</ele>
        <time>2022-02-22T08:56:53Z</time>
      </trkpt>
      <trkpt lat="43.58564" lon="3.50422">
        <ele>87</ele>
        <time>2022-02-22T08:56:56Z</time>
      </trkpt>
      <trkpt lat="43.58562" lon="3.50418">
        <ele>87</ele>
        <time>2022-02-22T08:56:59Z</time>
      </trkpt>
      <trkpt lat="43.5856" lon="3.50413">
        <ele>87</ele>
        <time>2022-02-22T08:57:02Z</time>
      </trkpt>
      <trkpt lat="43.58559" lon="3.50408">
        <ele>87</ele>
        <time>2022-02-22T08:57:05Z</time>
      </trkpt>
      <trkpt lat="43.58557" lon="3.50404">
        <ele>87</ele>
        <time>2022-02-22T08:57:08Z</time>
      </trkpt>
      <trkpt lat="43.58556" lon="3.504">
        <ele>87</ele>
        <time>2022-02-22T08:57:11Z</time>
      </trkpt>
      <trkpt lat="43.58554" lon="3.50396">
        <ele>87</ele>
        <time>2022-02-22T08:57:14Z</time>
      </trkpt>
      <trkpt lat="43.58553" lon="3.50391">
        <ele>87</ele>
        <time>2022-02-22T08:57:17Z</time>
      </trkpt>
      <trkpt lat="43.58552" lon="3.50388">
        <ele>87</ele>
        <time>2022-02-22T08:57:19Z</time>
      </trkpt>
      <trkpt lat="43.58551" lon="3.50384">
        <ele>87</ele>
        <time>2022-02-22T08:57:22Z</time>
      </trkpt>
      <trkpt lat="43.58549" lon="3.5038">
        <ele>87</ele>
        <time>2022-02-22T08:57:25Z</time>
      </trkpt>
      <trkpt lat="43.58548" lon="3.50376">
        <ele>87</ele>
        <time>2022-02-22T08:57:28Z</time>
      </trkpt>
      <trkpt lat="43.58547" lon="3.50372">
        <ele>87</ele>
        <time>2022-02-22T08:57:31Z</time>
      </trkpt>
      <trkpt lat="43.58545" lon="3.50369">
        <ele>87</ele>
        <time>2022-02-22T08:57:33Z</time>
      </trkpt>
      <trkpt lat="43.58544" lon="3.50365">
        <ele>87</ele>
        <time>2022-02-22T08:57:35Z</time>
      </trkpt>
      <trkpt lat="43.58543" lon="3.50361">
        <ele>87</ele>
        <time>2022-02-22T08:57:38Z</time>
      </trkpt>
      <trkpt lat="43.58542" lon="3.50357">
        <ele>87</ele>
        <time>2022-02-22T08:57:41Z</time>
      </trkpt>
      <trkpt lat="43.58541" lon="3.50353">
        <ele>87</ele>
        <time>2022-02-22T08:57:44Z</time>
      </trkpt>
      <trkpt lat="43.5854" lon="3.50348">
        <ele>87</ele>
        <time>2022-02-22T08:57:47Z</time>
      </trkpt>
      <trkpt lat="43.58538" lon="3.50344">
        <ele>87</ele>
        <time>2022-02-22T08:57:50Z</time>
      </trkpt>
      <trkpt lat="43.58537" lon="3.50339">
        <ele>87</ele>
        <time>2022-02-22T08:57:53Z</time>
      </trkpt>
      <trkpt lat="43.58536" lon="3.50335">
        <ele>87</ele>
        <time>2022-02-22T08:57:56Z</time>
      </trkpt>
      <trkpt lat="43.58535" lon="3.5033">
        <ele>87</ele>
        <time>2022-02-22T08:57:59Z</time>
      </trkpt>
      <trkpt lat="43.58534" lon="3.50325">
        <ele>87</ele>
        <time>2022-02-22T08:58:02Z</time>
      </trkpt>
      <trkpt lat="43.58533" lon="3.50321">
        <ele>87</ele>
        <time>2022-02-22T08:58:05Z</time>
      </trkpt>
      <trkpt lat="43.58531" lon="3.50316">
        <ele>87</ele>
        <time>2022-02-22T08:58:08Z</time>
      </trkpt>
      <trkpt lat="43.5853" lon="3.50313">
        <ele>87</ele>
        <time>2022-02-22T08:58:10Z</time>
      </trkpt>
      <trkpt lat="43.58528" lon="3.5031">
        <ele>87</ele>
        <time>2022-02-22T08:58:12Z</time>
      </trkpt>
      <trkpt lat="43.58526" lon="3.50306">
        <ele>87</ele>
        <time>2022-02-22T08:58:15Z</time>
      </trkpt>
      <trkpt lat="43.58524" lon="3.50303">
        <ele>87</ele>
        <time>2022-02-22T08:58:19Z</time>
      </trkpt>
      <trkpt lat="43.58522" lon="3.503">
        <ele>87</ele>
        <time>2022-02-22T08:58:22Z</time>
      </trkpt>
      <trkpt lat="43.5852" lon="3.50296">
        <ele>87</ele>
        <time>2022-02-22T08:58:25Z</time>
      </trkpt>
      <trkpt lat="43.58517" lon="3.50293">
        <ele>87</ele>
        <time>2022-02-22T08:58:28Z</time>
      </trkpt>
      <trkpt lat="43.58514" lon="3.5029">
        <ele>87</ele>
        <time>2022-02-22T08:58:31Z</time>
      </trkpt>
      <trkpt lat="43.58512" lon="3.50287">
        <ele>87</ele>
        <time>2022-02-22T08:58:34Z</time>
      </trkpt>
      <trkpt lat="43.58509" lon="3.50284">
        <ele>87</ele>
        <time>2022-02-22T08:58:37Z</time>
      </trkpt>
      <trkpt lat="43.58506" lon="3.50281">
        <ele>87</ele>
        <time>2022-02-22T08:58:40Z</time>
      </trkpt>
      <trkpt lat="43.58504" lon="3.50277">
        <ele>87</ele>
        <time>2022-02-22T08:58:43Z</time>
      </trkpt>
      <trkpt lat="43.58501" lon="3.50274">
        <ele>87</ele>
        <time>2022-02-22T08:58:46Z</time>
      </trkpt>
      <trkpt lat="43.58499" lon="3.50271">
        <ele>87</ele>
        <time>2022-02-22T08:58:49Z</time>
      </trkpt>
      <trkpt lat="43.58496" lon="3.50268">
        <ele>87</ele>
        <time>2022-02-22T08:58:52Z</time>
      </trkpt>
      <trkpt lat="43.58493" lon="3.50266">
        <ele>87</ele>
        <time>2022-02-22T08:58:55Z</time>
      </trkpt>
      <trkpt lat="43.58491" lon="3.50262">
        <ele>87</ele>
        <time>2022-02-22T08:58:58Z</time>
      </trkpt>
      <trkpt lat="43.58488" lon="3.50259">
        <ele>87</ele>
        <time>2022-02-22T08:59:00Z</time>
      </trkpt>
      <trkpt lat="43.58485" lon="3.50257">
        <ele>87</ele>
        <time>2022-02-22T08:59:03Z</time>
      </trkpt>
      <trkpt lat="43.58483" lon="3.50254">
        <ele>87</ele>
        <time>2022-02-22T08:59:05Z</time>
      </trkpt>
      <trkpt lat="43.5848" lon="3.50251">
        <ele>87</ele>
        <time>2022-02-22T08:59:08Z</time>
      </trkpt>
      <trkpt lat="43.58477" lon="3.50248">
        <ele>87</ele>
        <time>2022-02-22T08:59:11Z</time>
      </trkpt>
      <trkpt lat="43.58475" lon="3.50245">
        <ele>87</ele>
        <time>2022-02-22T08:59:14Z</time>
      </trkpt>
      <trkpt lat="43.58472" lon="3.50242">
        <ele>87</ele>
        <time>2022-02-22T08:59:17Z</time>
      </trkpt>
      <trkpt lat="43.58469" lon="3.50238">
        <ele>87</ele>
        <time>2022-02-22T08:59:20Z</time>
      </trkpt>
      <trkpt lat="43.58467" lon="3.50235">
        <ele>87</ele>
        <time>2022-02-22T08:59:23Z</time>
      </trkpt>
      <trkpt lat="43.58464" lon="3.50231">
        <ele>87</ele>
        <time>2022-02-22T08:59:26Z</time>
      </trkpt>
      <trkpt lat="43.58462" lon="3.50228">
        <ele>87</ele>
        <time>2022-02-22T08:59:29Z</time>
      </trkpt>
      <trkpt lat="43.58459" lon="3.50225">
        <ele>87</ele>
        <time>2022-02-22T08:59:32Z</time>
      </trkpt>
      <trkpt lat="43.58457" lon="3.50222">
        <ele>87</ele>
        <time>2022-02-22T08:59:35Z</time>
      </trkpt>
      <trkpt lat="43.58454" lon="3.50219">
        <ele>87</ele>
        <time>2022-02-22T08:59:38Z</time>
      </trkpt>
      <trkpt lat="43.58451" lon="3.50216">
        <ele>87</ele>
        <time>2022-02-22T08:59:41Z</time>
      </trkpt>
      <trkpt lat="43.58449" lon="3.50213">
        <ele>87</ele>
        <time>2022-02-22T08:59:44Z</time>
      </trkpt>
      <trkpt lat="43.58446" lon="3.5021">
        <ele>87</ele>
        <time>2022-02-22T08:59:47Z</time>
      </trkpt>
      <trkpt lat="43.58444" lon="3.50206">
        <ele>87</ele>
        <time>2022-02-22T08:59:49Z</time>
      </trkpt>
      <trkpt lat="43.58442" lon="3.50204">
        <ele>87</ele>
        <time>2022-02-22T08:59:52Z</time>
      </trkpt>
      <trkpt lat="43.58439" lon="3.50201">
        <ele>87</ele>
        <time>2022-02-22T08:59:55Z</time>
      </trkpt>
      <trkpt lat="43.58436" lon="3.50198">
        <ele>87</ele>
        <time>2022-02-22T08:59:58Z</time>
      </trkpt>
      <trkpt lat="43.58434" lon="3.50196">
        <ele>87</ele>
        <time>2022-02-22T09:00:00Z</time>
      </trkpt>
      <trkpt lat="43.58431" lon="3.50193">
        <ele>87</ele>
        <time>2022-02-22T09:00:03Z</time>
      </trkpt>
      <trkpt lat="43.58428" lon="3.5019">
        <ele>87</ele>
        <time>2022-02-22T09:00:06Z</time>
      </trkpt>
      <trkpt lat="43.58426" lon="3.50187">
        <ele>87</ele>
        <time>2022-02-22T09:00:09Z</time>
      </trkpt>
      <trkpt lat="43.58424" lon="3.50184">
        <ele>87</ele>
        <time>2022-02-22T09:00:11Z</time>
      </trkpt>
      <trkpt lat="43.58421" lon="3.50182">
        <ele>87</ele>
        <time>2022-02-22T09:00:13Z</time>
      </trkpt>
      <trkpt lat="43.58419" lon="3.50179">
        <ele>87</ele>
        <time>2022-02-22T09:00:16Z</time>
      </trkpt>
      <trkpt lat="43.58417" lon="3.50176">
        <ele>87</ele>
        <time>2022-02-22T09:00:19Z</time>
      </trkpt>
      <trkpt lat="43.58414" lon="3.50173">
        <ele>87</ele>
        <time>2022-02-22T09:00:22Z</time>
      </trkpt>
      <trkpt lat="43.58412" lon="3.5017">
        <ele>87</ele>
        <time>2022-02-22T09:00:25Z</time>
      </trkpt>
      <trkpt lat="43.58409" lon="3.50167">
        <ele>87</ele>
        <time>2022-02-22T09:00:28Z</time>
      </trkpt>
      <trkpt lat="43.58407" lon="3.50163">
        <ele>87</ele>
        <time>2022-02-22T09:00:31Z</time>
      </trkpt>
      <trkpt lat="43.58404" lon="3.5016">
        <ele>87</ele>
        <time>2022-02-22T09:00:34Z</time>
      </trkpt>
      <trkpt lat="43.58401" lon="3.50157">
        <ele>87</ele>
        <time>2022-02-22T09:00:37Z</time>
      </trkpt>
      <trkpt lat="43.58399" lon="3.50153">
        <ele>87</ele>
        <time>2022-02-22T09:00:40Z</time>
      </trkpt>
      <trkpt lat="43.58395" lon="3.5015">
        <ele>87</ele>
        <time>2022-02-22T09:00:43Z</time>
      </trkpt>
      <trkpt lat="43.58393" lon="3.50146">
        <ele>87</ele>
        <time>2022-02-22T09:00:46Z</time>
      </trkpt>
      <trkpt lat="43.5839" lon="3.50143">
        <ele>87</ele>
        <time>2022-02-22T09:00:49Z</time>
      </trkpt>
      <trkpt lat="43.58388" lon="3.5014">
        <ele>87</ele>
        <time>2022-02-22T09:00:52Z</time>
      </trkpt>
      <trkpt lat="43.58385" lon="3.50136">
        <ele>87</ele>
        <time>2022-02-22T09:00:55Z</time>
      </trkpt>
      <trkpt lat="43.58383" lon="3.50134">
        <ele>87</ele>
        <time>2022-02-22T09:00:58Z</time>
      </trkpt>
      <trkpt lat="43.5838" lon="3.50131">
        <ele>87</ele>
        <time>2022-02-22T09:01:01Z</time>
      </trkpt>
      <trkpt lat="43.58378" lon="3.50128">
        <ele>87</ele>
        <time>2022-02-22T09:01:04Z</time>
      </trkpt>
      <trkpt lat="43.58375" lon="3.50125">
        <ele>87</ele>
        <time>2022-02-22T09:01:07Z</time>
      </trkpt>
      <trkpt lat="43.58372" lon="3.50121">
        <ele>87</ele>
        <time>2022-02-22T09:01:10Z</time>
      </trkpt>
      <trkpt lat="43.58369" lon="3.50119">
        <ele>87</ele>
        <time>2022-02-22T09:01:13Z</time>
      </trkpt>
      <trkpt lat="43.58367" lon="3.50115">
        <ele>87</ele>
        <time>2022-02-22T09:01:16Z</time>
      </trkpt>
      <trkpt lat="43.58364" lon="3.50112">
        <ele>87</ele>
        <time>2022-02-22T09:01:19Z</time>
      </trkpt>
      <trkpt lat="43.58362" lon="3.50109">
        <ele>87</ele>
        <time>2022-02-22T09:01:22Z</time>
      </trkpt>
      <trkpt lat="43.58359" lon="3.50106">
        <ele>87</ele>
        <time>2022-02-22T09:01:25Z</time>
      </trkpt>
      <trkpt lat="43.58356" lon="3.50103">
        <ele>87</ele>
        <time>2022-02-22T09:01:28Z</time>
      </trkpt>
      <trkpt lat="43.58353" lon="3.501">
        <ele>87</ele>
        <time>2022-02-22T09:01:31Z</time>
      </trkpt>
      <trkpt lat="43.58351" lon="3.50097">
        <ele>87</ele>
        <time>2022-02-22T09:01:34Z</time>
      </trkpt>
      <trkpt lat="43.58348" lon="3.50094">
        <ele>87</ele>
        <time>2022-02-22T09:01:37Z</time>
      </trkpt>
      <trkpt lat="43.58345" lon="3.50092">
        <ele>87</ele>
        <time>2022-02-22T09:01:39Z</time>
      </trkpt>
      <trkpt lat="43.58342" lon="3.50089">
        <ele>87</ele>
        <time>2022-02-22T09:01:42Z</time>
      </trkpt>
      <trkpt lat="43.5834" lon="3.50086">
        <ele>87</ele>
        <time>2022-02-22T09:01:45Z</time>
      </trkpt>
      <trkpt lat="43.58336" lon="3.50083">
        <ele>87</ele>
        <time>2022-02-22T09:01:49Z</time>
      </trkpt>
      <trkpt lat="43.58333" lon="3.50081">
        <ele>87</ele>
        <time>2022-02-22T09:01:52Z</time>
      </trkpt>
      <trkpt lat="43.5833" lon="3.50078">
        <ele>87</ele>
        <time>2022-02-22T09:01:55Z</time>
      </trkpt>
      <trkpt lat="43.58327" lon="3.50076">
        <ele>87</ele>
        <time>2022-02-22T09:01:58Z</time>
      </trkpt>
      <trkpt lat="43.58324" lon="3.50073">
        <ele>87</ele>
        <time>2022-02-22T09:02:01Z</time>
      </trkpt>
      <trkpt lat="43.58321" lon="3.50071">
        <ele>87</ele>
        <time>2022-02-22T09:02:04Z</time>
      </trkpt>
      <trkpt lat="43.58317" lon="3.50069">
        <ele>87</ele>
        <time>2022-02-22T09:02:07Z</time>
      </trkpt>
      <trkpt lat="43.58314" lon="3.50067">
        <ele>87</ele>
        <time>2022-02-22T09:02:10Z</time>
      </trkpt>
      <trkpt lat="43.58312" lon="3.50066">
        <ele>87</ele>
        <time>2022-02-22T09:02:12Z</time>
      </trkpt>
      <trkpt lat="43.58309" lon="3.50064">
        <ele>87</ele>
        <time>2022-02-22T09:02:15Z</time>
      </trkpt>
      <trkpt lat="43.58306" lon="3.50061">
        <ele>87</ele>
        <time>2022-02-22T09:02:18Z</time>
      </trkpt>
      <trkpt lat="43.58303" lon="3.50059">
        <ele>87</ele>
        <time>2022-02-22T09:02:20Z</time>
      </trkpt>
      <trkpt lat="43.583" lon="3.50057">
        <ele>87</ele>
        <time>2022-02-22T09:02:23Z</time>
      </trkpt>
      <trkpt lat="43.58297" lon="3.50055">
        <ele>87</ele>
        <time>2022-02-22T09:02:25Z</time>
      </trkpt>
      <trkpt lat="43.58294" lon="3.50053">
        <ele>87</ele>
        <time>2022-02-22T09:02:27Z</time>
      </trkpt>
      <trkpt lat="43.58291" lon="3.5005">
        <ele>87</ele>
        <time>2022-02-22T09:02:30Z</time>
      </trkpt>
      <trkpt lat="43.58288" lon="3.50049">
        <ele>87</ele>
        <time>2022-02-22T09:02:33Z</time>
      </trkpt>
      <trkpt lat="43.58286" lon="3.50046">
        <ele>87</ele>
        <time>2022-02-22T09:02:36Z</time>
      </trkpt>
      <trkpt lat="43.58283" lon="3.50043">
        <ele>87</ele>
        <time>2022-02-22T09:02:39Z</time>
      </trkpt>
      <trkpt lat="43.5828" lon="3.50041">
        <ele>87</ele>
        <time>2022-02-22T09:02:42Z</time>
      </trkpt>
      <trkpt lat="43.58277" lon="3.5004">
        <ele>87</ele>
        <time>2022-02-22T09:02:45Z</time>
      </trkpt>
      <trkpt lat="43.58274" lon="3.50038">
        <ele>87</ele>
        <time>2022-02-22T09:02:48Z</time>
      </trkpt>
      <trkpt lat="43.5827" lon="3.50035">
        <ele>87</ele>
        <time>2022-02-22T09:02:51Z</time>
      </trkpt>
      <trkpt lat="43.58267" lon="3.50033">
        <ele>87</ele>
        <time>2022-02-22T09:02:54Z</time>
      </trkpt>
      <trkpt lat="43.58264" lon="3.50031">
        <ele>87</ele>
        <time>2022-02-22T09:02:56Z</time>
      </trkpt>
      <trkpt lat="43.58261" lon="3.5003">
        <ele>87</ele>
        <time>2022-02-22T09:02:59Z</time>
      </trkpt>
      <trkpt lat="43.58258" lon="3.50028">
        <ele>87</ele>
        <time>2022-02-22T09:03:02Z</time>
      </trkpt>
      <trkpt lat="43.58254" lon="3.50026">
        <ele>87</ele>
        <time>2022-02-22T09:03:05Z</time>
      </trkpt>
      <trkpt lat="43.58251" lon="3.50023">
        <ele>87</ele>
        <time>2022-02-22T09:03:08Z</time>
      </trkpt>
      <trkpt lat="43.58248" lon="3.5002">
        <ele>87</ele>
        <time>2022-02-22T09:03:11Z</time>
      </trkpt>
      <trkpt lat="43.58245" lon="3.50018">
        <ele>87</ele>
        <time>2022-02-22T09:03:14Z</time>
      </trkpt>
      <trkpt lat="43.58242" lon="3.50016">
        <ele>87</ele>
        <time>2022-02-22T09:03:17Z</time>
      </trkpt>
      <trkpt lat="43.58238" lon="3.50015">
        <ele>87</ele>
        <time>2022-02-22T09:03:20Z</time>
      </trkpt>
      <trkpt lat="43.58235" lon="3.50013">
        <ele>87</ele>
        <time>2022-02-22T09:03:23Z</time>
      </trkpt>
      <trkpt lat="43.58232" lon="3.50012">
        <ele>87</ele>
        <time>2022-02-22T09:03:26Z</time>
      </trkpt>
      <trkpt lat="43.58229" lon="3.5001">
        <ele>87</ele>
        <time>2022-02-22T09:03:29Z</time>
      </trkpt>
      <trkpt lat="43.58226" lon="3.50008">
        <ele>87</ele>
        <time>2022-02-22T09:03:32Z</time>
      </trkpt>
      <trkpt lat="43.58224" lon="3.50006">
        <ele>87</ele>
        <time>2022-02-22T09:03:34Z</time>
      </trkpt>
      <trkpt lat="43.58221" lon="3.50004">
        <ele>87</ele>
        <time>2022-02-22T09:03:37Z</time>
      </trkpt>
      <trkpt lat="43.58218" lon="3.50002">
        <ele>87</ele>
        <time>2022-02-22T09:03:40Z</time>
      </trkpt>
      <trkpt lat="43.58214" lon="3.5">
        <ele>87</ele>
        <time>2022-02-22T09:03:43Z</time>
      </trkpt>
      <trkpt lat="43.58211" lon="3.49997">
        <ele>87</ele>
        <time>2022-02-22T09:03:46Z</time>
      </trkpt>
      <trkpt lat="43.58208" lon="3.49996">
        <ele>87</ele>
        <time>2022-02-22T09:03:48Z</time>
      </trkpt>
      <trkpt lat="43.58205" lon="3.49994">
        <ele>87</ele>
        <time>2022-02-22T09:03:51Z</time>
      </trkpt>
      <trkpt lat="43.58202" lon="3.49993">
        <ele>87</ele>
        <time>2022-02-22T09:03:54Z</time>
      </trkpt>
      <trkpt lat="43.58199" lon="3.4999">
        <ele>87</ele>
        <time>2022-02-22T09:03:57Z</time>
      </trkpt>
      <trkpt lat="43.58195" lon="3.49988">
        <ele>87</ele>
        <time>2022-02-22T09:04:00Z</time>
      </trkpt>
      <trkpt lat="43.58193" lon="3.49986">
        <ele>87</ele>
        <time>2022-02-22T09:04:02Z</time>
      </trkpt>
      <trkpt lat="43.58189" lon="3.49984">
        <ele>87</ele>
        <time>2022-02-22T09:04:05Z</time>
      </trkpt>
      <trkpt lat="43.58187" lon="3.49982">
        <ele>87</ele>
        <time>2022-02-22T09:04:07Z</time>
      </trkpt>
      <trkpt lat="43.58183" lon="3.4998">
        <ele>87</ele>
        <time>2022-02-22T09:04:10Z</time>
      </trkpt>
      <trkpt lat="43.5818" lon="3.49977">
        <ele>87</ele>
        <time>2022-02-22T09:04:13Z</time>
      </trkpt>
      <trkpt lat="43.58177" lon="3.49975">
        <ele>87</ele>
        <time>2022-02-22T09:04:16Z</time>
      </trkpt>
      <trkpt lat="43.58174" lon="3.49973">
        <ele>87</ele>
        <time>2022-02-22T09:04:19Z</time>
      </trkpt>
      <trkpt lat="43.5817" lon="3.4997">
        <ele>87</ele>
        <time>2022-02-22T09:04:22Z</time>
      </trkpt>
      <trkpt lat="43.58167" lon="3.49969">
        <ele>87</ele>
        <time>2022-02-22T09:04:25Z</time>
      </trkpt>
      <trkpt lat="43.58164" lon="3.49967">
        <ele>87</ele>
        <time>2022-02-22T09:04:27Z</time>
      </trkpt>
      <trkpt lat="43.58162" lon="3.49965">
        <ele>87</ele>
        <time>2022-02-22T09:04:30Z</time>
      </trkpt>
      <trkpt lat="43.58159" lon="3.49962">
        <ele>87</ele>
        <time>2022-02-22T09:04:33Z</time>
      </trkpt>
      <trkpt lat="43.58156" lon="3.4996">
        <ele>87</ele>
        <time>2022-02-22T09:04:36Z</time>
      </trkpt>
      <trkpt lat="43.58154" lon="3.49957">
        <ele>87</ele>
        <time>2022-02-22T09:04:39Z</time>
      </trkpt>
      <trkpt lat="43.5815" lon="3.49955">
        <ele>87</ele>
        <time>2022-02-22T09:04:42Z</time>
      </trkpt>
      <trkpt lat="43.58148" lon="3.49953">
        <ele>87</ele>
        <time>2022-02-22T09:04:45Z</time>
      </trkpt>
      <trkpt lat="43.58145" lon="3.4995">
        <ele>87</ele>
        <time>2022-02-22T09:04:48Z</time>
      </trkpt>
      <trkpt lat="43.58142" lon="3.49947">
        <ele>87</ele>
        <time>2022-02-22T09:04:51Z</time>
      </trkpt>
      <trkpt lat="43.58139" lon="3.49945">
        <ele>87</ele>
        <time>2022-02-22T09:04:53Z</time>
      </trkpt>
      <trkpt lat="43.58137" lon="3.49942">
        <ele>87</ele>
        <time>2022-02-22T09:04:55Z</time>
      </trkpt>
      <trkpt lat="43.58134" lon="3.4994">
        <ele>87</ele>
        <time>2022-02-22T09:04:58Z</time>
      </trkpt>
      <trkpt lat="43.58132" lon="3.49937">
        <ele>87</ele>
        <time>2022-02-22T09:05:00Z</time>
      </trkpt>
      <trkpt lat="43.5813" lon="3.49934">
        <ele>87</ele>
        <time>2022-02-22T09:05:03Z</time>
      </trkpt>
      <trkpt lat="43.58127" lon="3.49931">
        <ele>87</ele>
        <time>2022-02-22T09:05:06Z</time>
      </trkpt>
      <trkpt lat="43.58125" lon="3.49928">
        <ele>87</ele>
        <time>2022-02-22T09:05:08Z</time>
      </trkpt>
      <trkpt lat="43.58123" lon="3.49926">
        <ele>87</ele>
        <time>2022-02-22T09:05:11Z</time>
      </trkpt>
      <trkpt lat="43.5812" lon="3.49923">
        <ele>87</ele>
        <time>2022-02-22T09:05:14Z</time>
      </trkpt>
      <trkpt lat="43.58118" lon="3.4992">
        <ele>87</ele>
        <time>2022-02-22T09:05:16Z</time>
      </trkpt>
      <trkpt lat="43.58115" lon="3.49917">
        <ele>87</ele>
        <time>2022-02-22T09:05:18Z</time>
      </trkpt>
      <trkpt lat="43.58113" lon="3.49915">
        <ele>87</ele>
        <time>2022-02-22T09:05:21Z</time>
      </trkpt>
      <trkpt lat="43.5811" lon="3.49911">
        <ele>87</ele>
        <time>2022-02-22T09:05:24Z</time>
      </trkpt>
      <trkpt lat="43.58107" lon="3.49908">
        <ele>87</ele>
        <time>2022-02-22T09:05:27Z</time>
      </trkpt>
      <trkpt lat="43.58104" lon="3.49906">
        <ele>87</ele>
        <time>2022-02-22T09:05:30Z</time>
      </trkpt>
      <trkpt lat="43.58102" lon="3.49903">
        <ele>87</ele>
        <time>2022-02-22T09:05:33Z</time>
      </trkpt>
      <trkpt lat="43.581" lon="3.49899">
        <ele>87</ele>
        <time>2022-02-22T09:05:36Z</time>
      </trkpt>
      <trkpt lat="43.58097" lon="3.49896">
        <ele>87</ele>
        <time>2022-02-22T09:05:39Z</time>
      </trkpt>
      <trkpt lat="43.58095" lon="3.49893">
        <ele>87</ele>
        <time>2022-02-22T09:05:42Z</time>
      </trkpt>
      <trkpt lat="43.58092" lon="3.4989">
        <ele>87</ele>
        <time>2022-02-22T09:05:45Z</time>
      </trkpt>
      <trkpt lat="43.5809" lon="3.49887">
        <ele>87</ele>
        <time>2022-02-22T09:05:48Z</time>
      </trkpt>
      <trkpt lat="43.58087" lon="3.49884">
        <ele>87</ele>
        <time>2022-02-22T09:05:51Z</time>
      </trkpt>
      <trkpt lat="43.58084" lon="3.49881">
        <ele>87</ele>
        <time>2022-02-22T09:05:54Z</time>
      </trkpt>
      <trkpt lat="43.58081" lon="3.49879">
        <ele>87</ele>
        <time>2022-02-22T09:05:56Z</time>
      </trkpt>
      <trkpt lat="43.58079" lon="3.49876">
        <ele>87</ele>
        <time>2022-02-22T09:05:59Z</time>
      </trkpt>
      <trkpt lat="43.58076" lon="3.49873">
        <ele>87</ele>
        <time>2022-02-22T09:06:02Z</time>
      </trkpt>
      <trkpt lat="43.58074" lon="3.4987">
        <ele>87</ele>
        <time>2022-02-22T09:06:05Z</time>
      </trkpt>
      <trkpt lat="43.58071" lon="3.49868">
        <ele>87</ele>
        <time>2022-02-22T09:06:08Z</time>
      </trkpt>
      <trkpt lat="43.58068" lon="3.49865">
        <ele>87</ele>
        <time>2022-02-22T09:06:11Z</time>
      </trkpt>
      <trkpt lat="43.58065" lon="3.49863">
        <ele>87</ele>
        <time>2022-02-22T09:06:14Z</time>
      </trkpt>
      <trkpt lat="43.58062" lon="3.49861">
        <ele>87</ele>
        <time>2022-02-22T09:06:17Z</time>
      </trkpt>
      <trkpt lat="43.58058" lon="3.49858">
        <ele>87</ele>
        <time>2022-02-22T09:06:20Z</time>
      </trkpt>
      <trkpt lat="43.58055" lon="3.49856">
        <ele>87</ele>
        <time>2022-02-22T09:06:23Z</time>
      </trkpt>
      <trkpt lat="43.58053" lon="3.49854">
        <ele>87</ele>
        <time>2022-02-22T09:06:25Z</time>
      </trkpt>
      <trkpt lat="43.5805" lon="3.49851">
        <ele>87</ele>
        <time>2022-02-22T09:06:28Z</time>
      </trkpt>
      <trkpt lat="43.58047" lon="3.49848">
        <ele>87</ele>
        <time>2022-02-22T09:06:31Z</time>
      </trkpt>
      <trkpt lat="43.58045" lon="3.49845">
        <ele>87</ele>
        <time>2022-02-22T09:06:35Z</time>
      </trkpt>
      <trkpt lat="43.58042" lon="3.49842">
        <ele>87</ele>
        <time>2022-02-22T09:06:38Z</time>
      </trkpt>
      <trkpt lat="43.5804" lon="3.49839">
        <ele>87</ele>
        <time>2022-02-22T09:06:41Z</time>
      </trkpt>
      <trkpt lat="43.58037" lon="3.49836">
        <ele>87</ele>
        <time>2022-02-22T09:06:44Z</time>
      </trkpt>
      <trkpt lat="43.58034" lon="3.49833">
        <ele>87</ele>
        <time>2022-02-22T09:06:47Z</time>
      </trkpt>
      <trkpt lat="43.58032" lon="3.4983">
        <ele>87</ele>
        <time>2022-02-22T09:06:50Z</time>
      </trkpt>
      <trkpt lat="43.58029" lon="3.49828">
        <ele>87</ele>
        <time>2022-02-22T09:06:53Z</time>
      </trkpt>
      <trkpt lat="43.58026" lon="3.49825">
        <ele>87</ele>
        <time>2022-02-22T09:06:56Z</time>
      </trkpt>
      <trkpt lat="43.58023" lon="3.49823">
        <ele>87</ele>
        <time>2022-02-22T09:06:59Z</time>
      </trkpt>
      <trkpt lat="43.58021" lon="3.4982">
        <ele>87</ele>
        <time>2022-02-22T09:07:02Z</time>
      </trkpt>
      <trkpt lat="43.58019" lon="3.49817">
        <ele>87</ele>
        <time>2022-02-22T09:07:06Z</time>
      </trkpt>
      <trkpt lat="43.58016" lon="3.49815">
        <ele>87</ele>
        <time>2022-02-22T09:07:09Z</time>
      </trkpt>
      <trkpt lat="43.58014" lon="3.49812">
        <ele>87</ele>
        <time>2022-02-22T09:07:17Z</time>
      </trkpt>
      <trkpt lat="43.58011" lon="3.49812">
        <ele>87</ele>
        <time>2022-02-22T09:07:22Z</time>
      </trkpt>
      <trkpt lat="43.58009" lon="3.49814">
        <ele>87</ele>
        <time>2022-02-22T09:07:31Z</time>
      </trkpt>
      <trkpt lat="43.58008" lon="3.49817">
        <ele>87</ele>
        <time>2022-02-22T09:07:37Z</time>
      </trkpt>
      <trkpt lat="43.58006" lon="3.49821">
        <ele>87</ele>
        <time>2022-02-22T09:08:33Z</time>
      </trkpt>
      <trkpt lat="43.58006" lon="3.49826">
        <ele>87</ele>
        <time>2022-02-22T09:09:24Z</time>
      </trkpt>
      <trkpt lat="43.58008" lon="3.49829">
        <ele>87</ele>
        <time>2022-02-22T09:09:28Z</time>
      </trkpt>
      <trkpt lat="43.5801" lon="3.49832">
        <ele>87</ele>
        <time>2022-02-22T09:09:32Z</time>
      </trkpt>
      <trkpt lat="43.58012" lon="3.49834">
        <ele>87</ele>
        <time>2022-02-22T09:09:35Z</time>
      </trkpt>
      <trkpt lat="43.58015" lon="3.49837">
        <ele>87</ele>
        <time>2022-02-22T09:09:38Z</time>
      </trkpt>
      <trkpt lat="43.58019" lon="3.49838">
        <ele>87</ele>
        <time>2022-02-22T09:09:41Z</time>
      </trkpt>
      <trkpt lat="43.58021" lon="3.49841">
        <ele>87</ele>
        <time>2022-02-22T09:09:44Z</time>
      </trkpt>
      <trkpt lat="43.58024" lon="3.49843">
        <ele>87</ele>
        <time>2022-02-22T09:09:48Z</time>
      </trkpt>
      <trkpt lat="43.58027" lon="3.49845">
        <ele>87</ele>
        <time>2022-02-22T09:09:51Z</time>
      </trkpt>
      <trkpt lat="43.58029" lon="3.49847">
        <ele>87</ele>
        <time>2022-02-22T09:09:54Z</time>
      </trkpt>
      <trkpt lat="43.58031" lon="3.4985">
        <ele>87</ele>
        <time>2022-02-22T09:09:57Z</time>
      </trkpt>
      <trkpt lat="43.58034" lon="3.49854">
        <ele>87</ele>
        <time>2022-02-22T09:10:00Z</time>
      </trkpt>
      <trkpt lat="43.58036" lon="3.49858">
        <ele>87</ele>
        <time>2022-02-22T09:10:03Z</time>
      </trkpt>
      <trkpt lat="43.58038" lon="3.49861">
        <ele>87</ele>
        <time>2022-02-22T09:10:06Z</time>
      </trkpt>
      <trkpt lat="43.58041" lon="3.49863">
        <ele>87</ele>
        <time>2022-02-22T09:10:09Z</time>
      </trkpt>
      <trkpt lat="43.58045" lon="3.49866">
        <ele>87</ele>
        <time>2022-02-22T09:10:12Z</time>
      </trkpt>
      <trkpt lat="43.58047" lon="3.49869">
        <ele>87</ele>
        <time>2022-02-22T09:10:15Z</time>
      </trkpt>
      <trkpt lat="43.5805" lon="3.49872">
        <ele>87</ele>
        <time>2022-02-22T09:10:18Z</time>
      </trkpt>
      <trkpt lat="43.58053" lon="3.49874">
        <ele>87</ele>
        <time>2022-02-22T09:10:21Z</time>
      </trkpt>
      <trkpt lat="43.58056" lon="3.49877">
        <ele>87</ele>
        <time>2022-02-22T09:10:24Z</time>
      </trkpt>
      <trkpt lat="43.58059" lon="3.49879">
        <ele>87</ele>
        <time>2022-02-22T09:10:27Z</time>
      </trkpt>
      <trkpt lat="43.58062" lon="3.49882">
        <ele>87</ele>
        <time>2022-02-22T09:10:30Z</time>
      </trkpt>
      <trkpt lat="43.58064" lon="3.49884">
        <ele>87</ele>
        <time>2022-02-22T09:10:33Z</time>
      </trkpt>
      <trkpt lat="43.58067" lon="3.49887">
        <ele>87</ele>
        <time>2022-02-22T09:10:36Z</time>
      </trkpt>
      <trkpt lat="43.58069" lon="3.49889">
        <ele>87</ele>
        <time>2022-02-22T09:10:39Z</time>
      </trkpt>
      <trkpt lat="43.58071" lon="3.49892">
        <ele>87</ele>
        <time>2022-02-22T09:10:41Z</time>
      </trkpt>
      <trkpt lat="43.58074" lon="3.49894">
        <ele>87</ele>
        <time>2022-02-22T09:10:43Z</time>
      </trkpt>
      <trkpt lat="43.58076" lon="3.49896">
        <ele>87</ele>
        <time>2022-02-22T09:10:46Z</time>
      </trkpt>
      <trkpt lat="43.58078" lon="3.49899">
        <ele>87</ele>
        <time>2022-02-22T09:10:49Z</time>
      </trkpt>
      <trkpt lat="43.58081" lon="3.49901">
        <ele>87</ele>
        <time>2022-02-22T09:10:51Z</time>
      </trkpt>
      <trkpt lat="43.58083" lon="3.49903">
        <ele>87</ele>
        <time>2022-02-22T09:10:54Z</time>
      </trkpt>
      <trkpt lat="43.58086" lon="3.49906">
        <ele>87</ele>
        <time>2022-02-22T09:10:57Z</time>
      </trkpt>
      <trkpt lat="43.58088" lon="3.49909">
        <ele>87</ele>
        <time>2022-02-22T09:11:00Z</time>
      </trkpt>
      <trkpt lat="43.5809" lon="3.49911">
        <ele>87</ele>
        <time>2022-02-22T09:11:03Z</time>
      </trkpt>
      <trkpt lat="43.58093" lon="3.49914">
        <ele>87</ele>
        <time>2022-02-22T09:11:07Z</time>
      </trkpt>
      <trkpt lat="43.58095" lon="3.49917">
        <ele>87</ele>
        <time>2022-02-22T09:11:09Z</time>
      </trkpt>
      <trkpt lat="43.58097" lon="3.49919">
        <ele>87</ele>
        <time>2022-02-22T09:11:12Z</time>
      </trkpt>
      <trkpt lat="43.581" lon="3.49922">
        <ele>87</ele>
        <time>2022-02-22T09:11:15Z</time>
      </trkpt>
      <trkpt lat="43.58102" lon="3.49925">
        <ele>87</ele>
        <time>2022-02-22T09:11:17Z</time>
      </trkpt>
      <trkpt lat="43.58105" lon="3.49928">
        <ele>87</ele>
        <time>2022-02-22T09:11:20Z</time>
      </trkpt>
      <trkpt lat="43.58108" lon="3.49931">
        <ele>87</ele>
        <time>2022-02-22T09:11:23Z</time>
      </trkpt>
      <trkpt lat="43.58111" lon="3.49934">
        <ele>87</ele>
        <time>2022-02-22T09:11:26Z</time>
      </trkpt>
      <trkpt lat="43.58113" lon="3.49937">
        <ele>87</ele>
        <time>2022-02-22T09:11:29Z</time>
      </trkpt>
      <trkpt lat="43.58116" lon="3.4994">
        <ele>87</ele>
        <time>2022-02-22T09:11:32Z</time>
      </trkpt>
      <trkpt lat="43.58119" lon="3.49943">
        <ele>87</ele>
        <time>2022-02-22T09:11:35Z</time>
      </trkpt>
      <trkpt lat="43.58122" lon="3.49946">
        <ele>87</ele>
        <time>2022-02-22T09:11:38Z</time>
      </trkpt>
      <trkpt lat="43.58124" lon="3.49949">
        <ele>87</ele>
        <time>2022-02-22T09:11:41Z</time>
      </trkpt>
      <trkpt lat="43.58127" lon="3.49952">
        <ele>87</ele>
        <time>2022-02-22T09:11:44Z</time>
      </trkpt>
      <trkpt lat="43.58129" lon="3.49955">
        <ele>87</ele>
        <time>2022-02-22T09:11:47Z</time>
      </trkpt>
      <trkpt lat="43.58132" lon="3.49959">
        <ele>87</ele>
        <time>2022-02-22T09:11:50Z</time>
      </trkpt>
      <trkpt lat="43.58135" lon="3.49962">
        <ele>87</ele>
        <time>2022-02-22T09:11:53Z</time>
      </trkpt>
      <trkpt lat="43.58137" lon="3.49965">
        <ele>87</ele>
        <time>2022-02-22T09:11:56Z</time>
      </trkpt>
      <trkpt lat="43.5814" lon="3.49967">
        <ele>87</ele>
        <time>2022-02-22T09:11:59Z</time>
      </trkpt>
      <trkpt lat="43.58144" lon="3.4997">
        <ele>87</ele>
        <time>2022-02-22T09:12:02Z</time>
      </trkpt>
      <trkpt lat="43.58147" lon="3.49973">
        <ele>87</ele>
        <time>2022-02-22T09:12:05Z</time>
      </trkpt>
      <trkpt lat="43.5815" lon="3.49975">
        <ele>87</ele>
        <time>2022-02-22T09:12:08Z</time>
      </trkpt>
      <trkpt lat="43.58153" lon="3.49978">
        <ele>87</ele>
        <time>2022-02-22T09:12:11Z</time>
      </trkpt>
      <trkpt lat="43.58156" lon="3.4998">
        <ele>87</ele>
        <time>2022-02-22T09:12:14Z</time>
      </trkpt>
      <trkpt lat="43.58159" lon="3.49982">
        <ele>87</ele>
        <time>2022-02-22T09:12:16Z</time>
      </trkpt>
      <trkpt lat="43.58162" lon="3.49983">
        <ele>87</ele>
        <time>2022-02-22T09:12:18Z</time>
      </trkpt>
      <trkpt lat="43.58165" lon="3.49985">
        <ele>87</ele>
        <time>2022-02-22T09:12:21Z</time>
      </trkpt>
      <trkpt lat="43.58168" lon="3.49987">
        <ele>87</ele>
        <time>2022-02-22T09:12:24Z</time>
      </trkpt>
      <trkpt lat="43.58171" lon="3.49989">
        <ele>87</ele>
        <time>2022-02-22T09:12:27Z</time>
      </trkpt>
      <trkpt lat="43.58174" lon="3.49991">
        <ele>87</ele>
        <time>2022-02-22T09:12:30Z</time>
      </trkpt>
      <trkpt lat="43.58177" lon="3.49992">
        <ele>87</ele>
        <time>2022-02-22T09:12:33Z</time>
      </trkpt>
      <trkpt lat="43.5818" lon="3.49995">
        <ele>87</ele>
        <time>2022-02-22T09:12:36Z</time>
      </trkpt>
      <trkpt lat="43.58183" lon="3.49997">
        <ele>87</ele>
        <time>2022-02-22T09:12:38Z</time>
      </trkpt>
      <trkpt lat="43.58186" lon="3.49999">
        <ele>87</ele>
        <time>2022-02-22T09:12:41Z</time>
      </trkpt>
      <trkpt lat="43.58189" lon="3.50001">
        <ele>87</ele>
        <time>2022-02-22T09:12:44Z</time>
      </trkpt>
      <trkpt lat="43.58192" lon="3.50003">
        <ele>87</ele>
        <time>2022-02-22T09:12:47Z</time>
      </trkpt>
      <trkpt lat="43.58196" lon="3.50005">
        <ele>87</ele>
        <time>2022-02-22T09:12:50Z</time>
      </trkpt>
      <trkpt lat="43.58199" lon="3.50007">
        <ele>87</ele>
        <time>2022-02-22T09:12:52Z</time>
      </trkpt>
      <trkpt lat="43.58201" lon="3.5001">
        <ele>87</ele>
        <time>2022-02-22T09:12:55Z</time>
      </trkpt>
      <trkpt lat="43.58204" lon="3.50012">
        <ele>87</ele>
        <time>2022-02-22T09:12:58Z</time>
      </trkpt>
      <trkpt lat="43.58207" lon="3.50015">
        <ele>87</ele>
        <time>2022-02-22T09:13:01Z</time>
      </trkpt>
      <trkpt lat="43.5821" lon="3.50018">
        <ele>87</ele>
        <time>2022-02-22T09:13:04Z</time>
      </trkpt>
      <trkpt lat="43.58213" lon="3.5002">
        <ele>87</ele>
        <time>2022-02-22T09:13:07Z</time>
      </trkpt>
      <trkpt lat="43.58216" lon="3.50022">
        <ele>87</ele>
        <time>2022-02-22T09:13:09Z</time>
      </trkpt>
      <trkpt lat="43.58219" lon="3.50024">
        <ele>87</ele>
        <time>2022-02-22T09:13:12Z</time>
      </trkpt>
      <trkpt lat="43.58222" lon="3.50026">
        <ele>87</ele>
        <time>2022-02-22T09:13:15Z</time>
      </trkpt>
      <trkpt lat="43.58225" lon="3.50028">
        <ele>87</ele>
        <time>2022-02-22T09:13:18Z</time>
      </trkpt>
      <trkpt lat="43.58228" lon="3.5003">
        <ele>87</ele>
        <time>2022-02-22T09:13:21Z</time>
      </trkpt>
      <trkpt lat="43.58232" lon="3.50032">
        <ele>87</ele>
        <time>2022-02-22T09:13:24Z</time>
      </trkpt>
      <trkpt lat="43.58235" lon="3.50034">
        <ele>87</ele>
        <time>2022-02-22T09:13:27Z</time>
      </trkpt>
      <trkpt lat="43.58238" lon="3.50036">
        <ele>87</ele>
        <time>2022-02-22T09:13:30Z</time>
      </trkpt>
      <trkpt lat="43.58241" lon="3.50038">
        <ele>87</ele>
        <time>2022-02-22T09:13:33Z</time>
      </trkpt>
      <trkpt lat="43.58245" lon="3.5004">
        <ele>87</ele>
        <time>2022-02-22T09:13:36Z</time>
      </trkpt>
      <trkpt lat="43.58248" lon="3.50042">
        <ele>87</ele>
        <time>2022-02-22T09:13:39Z</time>
      </trkpt>
      <trkpt lat="43.58251" lon="3.50044">
        <ele>87</ele>
        <time>2022-02-22T09:13:41Z</time>
      </trkpt>
      <trkpt lat="43.58254" lon="3.50046">
        <ele>87</ele>
        <time>2022-02-22T09:13:44Z</time>
      </trkpt>
      <trkpt lat="43.58257" lon="3.50047">
        <ele>87</ele>
        <time>2022-02-22T09:13:47Z</time>
      </trkpt>
      <trkpt lat="43.58261" lon="3.50049">
        <ele>87</ele>
        <time>2022-02-22T09:13:50Z</time>
      </trkpt>
      <trkpt lat="43.58264" lon="3.50051">
        <ele>87</ele>
        <time>2022-02-22T09:13:53Z</time>
      </trkpt>
      <trkpt lat="43.58267" lon="3.50053">
        <ele>87</ele>
        <time>2022-02-22T09:13:56Z</time>
      </trkpt>
      <trkpt lat="43.58271" lon="3.50055">
        <ele>87</ele>
        <time>2022-02-22T09:13:59Z</time>
      </trkpt>
      <trkpt lat="43.58274" lon="3.50057">
        <ele>87</ele>
        <time>2022-02-22T09:14:02Z</time>
      </trkpt>
      <trkpt lat="43.58277" lon="3.50059">
        <ele>87</ele>
        <time>2022-02-22T09:14:05Z</time>
      </trkpt>
      <trkpt lat="43.5828" lon="3.5006">
        <ele>87</ele>
        <time>2022-02-22T09:14:08Z</time>
      </trkpt>
      <trkpt lat="43.58284" lon="3.50062">
        <ele>87</ele>
        <time>2022-02-22T09:14:11Z</time>
      </trkpt>
      <trkpt lat="43.58286" lon="3.50064">
        <ele>87</ele>
        <time>2022-02-22T09:14:13Z</time>
      </trkpt>
      <trkpt lat="43.58289" lon="3.50067">
        <ele>87</ele>
        <time>2022-02-22T09:14:16Z</time>
      </trkpt>
      <trkpt lat="43.58292" lon="3.50069">
        <ele>87</ele>
        <time>2022-02-22T09:14:19Z</time>
      </trkpt>
      <trkpt lat="43.58295" lon="3.50071">
        <ele>87</ele>
        <time>2022-02-22T09:14:22Z</time>
      </trkpt>
      <trkpt lat="43.58298" lon="3.50072">
        <ele>87</ele>
        <time>2022-02-22T09:14:25Z</time>
      </trkpt>
      <trkpt lat="43.58302" lon="3.50074">
        <ele>87</ele>
        <time>2022-02-22T09:14:28Z</time>
      </trkpt>
      <trkpt lat="43.58305" lon="3.50077">
        <ele>87</ele>
        <time>2022-02-22T09:14:31Z</time>
      </trkpt>
      <trkpt lat="43.58308" lon="3.50079">
        <ele>87</ele>
        <time>2022-02-22T09:14:34Z</time>
      </trkpt>
      <trkpt lat="43.58311" lon="3.50082">
        <ele>87</ele>
        <time>2022-02-22T09:14:37Z</time>
      </trkpt>
      <trkpt lat="43.58314" lon="3.50084">
        <ele>87</ele>
        <time>2022-02-22T09:14:40Z</time>
      </trkpt>
      <trkpt lat="43.58317" lon="3.50086">
        <ele>87</ele>
        <time>2022-02-22T09:14:43Z</time>
      </trkpt>
      <trkpt lat="43.5832" lon="3.50087">
        <ele>87</ele>
        <time>2022-02-22T09:14:45Z</time>
      </trkpt>
      <trkpt lat="43.58323" lon="3.50089">
        <ele>87</ele>
        <time>2022-02-22T09:14:48Z</time>
      </trkpt>
      <trkpt lat="43.58326" lon="3.50092">
        <ele>87</ele>
        <time>2022-02-22T09:14:51Z</time>
      </trkpt>
      <trkpt lat="43.58329" lon="3.50094">
        <ele>87</ele>
        <time>2022-02-22T09:14:54Z</time>
      </trkpt>
      <trkpt lat="43.58331" lon="3.50096">
        <ele>87</ele>
        <time>2022-02-22T09:14:57Z</time>
      </trkpt>
      <trkpt lat="43.58334" lon="3.50098">
        <ele>87</ele>
        <time>2022-02-22T09:15:00Z</time>
      </trkpt>
      <trkpt lat="43.58337" lon="3.50101">
        <ele>87</ele>
        <time>2022-02-22T09:15:03Z</time>
      </trkpt>
      <trkpt lat="43.5834" lon="3.50104">
        <ele>87</ele>
        <time>2022-02-22T09:15:06Z</time>
      </trkpt>
      <trkpt lat="43.58343" lon="3.50107">
        <ele>87</ele>
        <time>2022-02-22T09:15:09Z</time>
      </trkpt>
      <trkpt lat="43.58345" lon="3.50109">
        <ele>87</ele>
        <time>2022-02-22T09:15:11Z</time>
      </trkpt>
      <trkpt lat="43.58349" lon="3.50112">
        <ele>87</ele>
        <time>2022-02-22T09:15:14Z</time>
      </trkpt>
      <trkpt lat="43.58351" lon="3.50114">
        <ele>87</ele>
        <time>2022-02-22T09:15:16Z</time>
      </trkpt>
      <trkpt lat="43.58354" lon="3.50117">
        <ele>87</ele>
        <time>2022-02-22T09:15:19Z</time>
      </trkpt>
      <trkpt lat="43.58357" lon="3.5012">
        <ele>87</ele>
        <time>2022-02-22T09:15:22Z</time>
      </trkpt>
      <trkpt lat="43.5836" lon="3.50123">
        <ele>87</ele>
        <time>2022-02-22T09:15:25Z</time>
      </trkpt>
      <trkpt lat="43.58363" lon="3.50126">
        <ele>87</ele>
        <time>2022-02-22T09:15:28Z</time>
      </trkpt>
      <trkpt lat="43.58366" lon="3.50129">
        <ele>87</ele>
        <time>2022-02-22T09:15:31Z</time>
      </trkpt>
      <trkpt lat="43.58368" lon="3.50132">
        <ele>87</ele>
        <time>2022-02-22T09:15:34Z</time>
      </trkpt>
      <trkpt lat="43.5837" lon="3.50136">
        <ele>87</ele>
        <time>2022-02-22T09:15:37Z</time>
      </trkpt>
      <trkpt lat="43.58373" lon="3.50138">
        <ele>87</ele>
        <time>2022-02-22T09:15:40Z</time>
      </trkpt>
      <trkpt lat="43.58375" lon="3.50141">
        <ele>87</ele>
        <time>2022-02-22T09:15:43Z</time>
      </trkpt>
      <trkpt lat="43.58378" lon="3.50144">
        <ele>87</ele>
        <time>2022-02-22T09:15:45Z</time>
      </trkpt>
      <trkpt lat="43.5838" lon="3.50146">
        <ele>87</ele>
        <time>2022-02-22T09:15:47Z</time>
      </trkpt>
      <trkpt lat="43.58382" lon="3.50149">
        <ele>87</ele>
        <time>2022-02-22T09:15:50Z</time>
      </trkpt>
      <trkpt lat="43.58385" lon="3.50152">
        <ele>87</ele>
        <time>2022-02-22T09:15:53Z</time>
      </trkpt>
      <trkpt lat="43.58387" lon="3.50156">
        <ele>87</ele>
        <time>2022-02-22T09:15:56Z</time>
      </trkpt>
      <trkpt lat="43.5839" lon="3.50159">
        <ele>87</ele>
        <time>2022-02-22T09:15:59Z</time>
      </trkpt>
      <trkpt lat="43.58393" lon="3.50162">
        <ele>87</ele>
        <time>2022-02-22T09:16:02Z</time>
      </trkpt>
      <trkpt lat="43.58395" lon="3.50165">
        <ele>87</ele>
        <time>2022-02-22T09:16:04Z</time>
      </trkpt>
      <trkpt lat="43.58397" lon="3.50168">
        <ele>87</ele>
        <time>2022-02-22T09:16:06Z</time>
      </trkpt>
      <trkpt lat="43.58399" lon="3.5017">
        <ele>87</ele>
        <time>2022-02-22T09:16:09Z</time>
      </trkpt>
      <trkpt lat="43.58402" lon="3.50173">
        <ele>87</ele>
        <time>2022-02-22T09:16:12Z</time>
      </trkpt>
      <trkpt lat="43.58404" lon="3.50176">
        <ele>87</ele>
        <time>2022-02-22T09:16:14Z</time>
      </trkpt>
      <trkpt lat="43.58406" lon="3.50179">
        <ele>87</ele>
        <time>2022-02-22T09:16:17Z</time>
      </trkpt>
      <trkpt lat="43.58409" lon="3.50182">
        <ele>87</ele>
        <time>2022-02-22T09:16:20Z</time>
      </trkpt>
      <trkpt lat="43.58412" lon="3.50185">
        <ele>87</ele>
        <time>2022-02-22T09:16:22Z</time>
      </trkpt>
      <trkpt lat="43.58415" lon="3.50188">
        <ele>87</ele>
        <time>2022-02-22T09:16:25Z</time>
      </trkpt>
      <trkpt lat="43.58417" lon="3.50191">
        <ele>87</ele>
        <time>2022-02-22T09:16:28Z</time>
      </trkpt>
      <trkpt lat="43.5842" lon="3.50195">
        <ele>87</ele>
        <time>2022-02-22T09:16:31Z</time>
      </trkpt>
      <trkpt lat="43.58423" lon="3.50198">
        <ele>87</ele>
        <time>2022-02-22T09:16:34Z</time>
      </trkpt>
      <trkpt lat="43.58425" lon="3.50201">
        <ele>87</ele>
        <time>2022-02-22T09:16:37Z</time>
      </trkpt>
      <trkpt lat="43.58428" lon="3.50204">
        <ele>87</ele>
        <time>2022-02-22T09:16:40Z</time>
      </trkpt>
      <trkpt lat="43.58431" lon="3.50207">
        <ele>87</ele>
        <time>2022-02-22T09:16:42Z</time>
      </trkpt>
      <trkpt lat="43.58433" lon="3.5021">
        <ele>87</ele>
        <time>2022-02-22T09:16:45Z</time>
      </trkpt>
      <trkpt lat="43.58436" lon="3.50213">
        <ele>87</ele>
        <time>2022-02-22T09:16:48Z</time>
      </trkpt>
      <trkpt lat="43.58438" lon="3.50216">
        <ele>87</ele>
        <time>2022-02-22T09:16:50Z</time>
      </trkpt>
      <trkpt lat="43.5844" lon="3.50219">
        <ele>87</ele>
        <time>2022-02-22T09:16:53Z</time>
      </trkpt>
      <trkpt lat="43.58442" lon="3.50222">
        <ele>87</ele>
        <time>2022-02-22T09:16:56Z</time>
      </trkpt>
      <trkpt lat="43.58445" lon="3.50226">
        <ele>87</ele>
        <time>2022-02-22T09:16:59Z</time>
      </trkpt>
      <trkpt lat="43.58448" lon="3.50229">
        <ele>87</ele>
        <time>2022-02-22T09:17:02Z</time>
      </trkpt>
      <trkpt lat="43.5845" lon="3.50231">
        <ele>87</ele>
        <time>2022-02-22T09:17:04Z</time>
      </trkpt>
      <trkpt lat="43.58453" lon="3.50235">
        <ele>87</ele>
        <time>2022-02-22T09:17:07Z</time>
      </trkpt>
      <trkpt lat="43.58455" lon="3.50238">
        <ele>87</ele>
        <time>2022-02-22T09:17:10Z</time>
      </trkpt>
      <trkpt lat="43.58458" lon="3.5024">
        <ele>87</ele>
        <time>2022-02-22T09:17:13Z</time>
      </trkpt>
      <trkpt lat="43.5846" lon="3.50243">
        <ele>87</ele>
        <time>2022-02-22T09:17:15Z</time>
      </trkpt>
      <trkpt lat="43.58463" lon="3.50246">
        <ele>87</ele>
        <time>2022-02-22T09:17:18Z</time>
      </trkpt>
      <trkpt lat="43.58465" lon="3.50249">
        <ele>87</ele>
        <time>2022-02-22T09:17:21Z</time>
      </trkpt>
      <trkpt lat="43.58468" lon="3.50252">
        <ele>87</ele>
        <time>2022-02-22T09:17:24Z</time>
      </trkpt>
      <trkpt lat="43.58471" lon="3.50255">
        <ele>87</ele>
        <time>2022-02-22T09:17:27Z</time>
      </trkpt>
      <trkpt lat="43.58473" lon="3.50258">
        <ele>87</ele>
        <time>2022-02-22T09:17:30Z</time>
      </trkpt>
      <trkpt lat="43.58476" lon="3.50261">
        <ele>87</ele>
        <time>2022-02-22T09:17:33Z</time>
      </trkpt>
      <trkpt lat="43.58479" lon="3.50265">
        <ele>87</ele>
        <time>2022-02-22T09:17:36Z</time>
      </trkpt>
      <trkpt lat="43.58482" lon="3.50268">
        <ele>87</ele>
        <time>2022-02-22T09:17:39Z</time>
      </trkpt>
      <trkpt lat="43.58485" lon="3.50271">
        <ele>87</ele>
        <time>2022-02-22T09:17:42Z</time>
      </trkpt>
      <trkpt lat="43.58487" lon="3.50274">
        <ele>87</ele>
        <time>2022-02-22T09:17:44Z</time>
      </trkpt>
      <trkpt lat="43.58489" lon="3.50276">
        <ele>87</ele>
        <time>2022-02-22T09:17:46Z</time>
      </trkpt>
      <trkpt lat="43.58492" lon="3.50279">
        <ele>87</ele>
        <time>2022-02-22T09:17:50Z</time>
      </trkpt>
      <trkpt lat="43.58494" lon="3.50282">
        <ele>87</ele>
        <time>2022-02-22T09:17:52Z</time>
      </trkpt>
      <trkpt lat="43.58497" lon="3.50285">
        <ele>87</ele>
        <time>2022-02-22T09:17:54Z</time>
      </trkpt>
      <trkpt lat="43.58499" lon="3.50288">
        <ele>87</ele>
        <time>2022-02-22T09:17:56Z</time>
      </trkpt>
      <trkpt lat="43.58501" lon="3.5029">
        <ele>87</ele>
        <time>2022-02-22T09:17:59Z</time>
      </trkpt>
      <trkpt lat="43.58503" lon="3.50294">
        <ele>87</ele>
        <time>2022-02-22T09:18:02Z</time>
      </trkpt>
      <trkpt lat="43.58506" lon="3.50297">
        <ele>87</ele>
        <time>2022-02-22T09:18:05Z</time>
      </trkpt>
      <trkpt lat="43.58509" lon="3.503">
        <ele>87</ele>
        <time>2022-02-22T09:18:07Z</time>
      </trkpt>
      <trkpt lat="43.58511" lon="3.50303">
        <ele>87</ele>
        <time>2022-02-22T09:18:10Z</time>
      </trkpt>
      <trkpt lat="43.58513" lon="3.50306">
        <ele>87</ele>
        <time>2022-02-22T09:18:13Z</time>
      </trkpt>
      <trkpt lat="43.58515" lon="3.50309">
        <ele>87</ele>
        <time>2022-02-22T09:18:16Z</time>
      </trkpt>
      <trkpt lat="43.58517" lon="3.50313">
        <ele>87</ele>
        <time>2022-02-22T09:18:19Z</time>
      </trkpt>
      <trkpt lat="43.58519" lon="3.50317">
        <ele>87</ele>
        <time>2022-02-22T09:18:22Z</time>
      </trkpt>
      <trkpt lat="43.58522" lon="3.5032">
        <ele>87</ele>
        <time>2022-02-22T09:18:25Z</time>
      </trkpt>
      <trkpt lat="43.58523" lon="3.50324">
        <ele>87</ele>
        <time>2022-02-22T09:18:28Z</time>
      </trkpt>
      <trkpt lat="43.58525" lon="3.50329">
        <ele>87</ele>
        <time>2022-02-22T09:18:31Z</time>
      </trkpt>
      <trkpt lat="43.58526" lon="3.50332">
        <ele>87</ele>
        <time>2022-02-22T09:18:34Z</time>
      </trkpt>
      <trkpt lat="43.58527" lon="3.50337">
        <ele>87</ele>
        <time>2022-02-22T09:18:37Z</time>
      </trkpt>
      <trkpt lat="43.58529" lon="3.50341">
        <ele>87</ele>
        <time>2022-02-22T09:18:40Z</time>
      </trkpt>
      <trkpt lat="43.5853" lon="3.50345">
        <ele>87</ele>
        <time>2022-02-22T09:18:43Z</time>
      </trkpt>
      <trkpt lat="43.58531" lon="3.5035">
        <ele>87</ele>
        <time>2022-02-22T09:18:46Z</time>
      </trkpt>
      <trkpt lat="43.58532" lon="3.50354">
        <ele>87</ele>
        <time>2022-02-22T09:18:49Z</time>
      </trkpt>
      <trkpt lat="43.58533" lon="3.50359">
        <ele>87</ele>
        <time>2022-02-22T09:18:52Z</time>
      </trkpt>
      <trkpt lat="43.58534" lon="3.50363">
        <ele>87</ele>
        <time>2022-02-22T09:18:55Z</time>
      </trkpt>
      <trkpt lat="43.58535" lon="3.50368">
        <ele>87</ele>
        <time>2022-02-22T09:18:58Z</time>
      </trkpt>
      <trkpt lat="43.58536" lon="3.50372">
        <ele>87</ele>
        <time>2022-02-22T09:19:00Z</time>
      </trkpt>
      <trkpt lat="43.58537" lon="3.50376">
        <ele>87</ele>
        <time>2022-02-22T09:19:02Z</time>
      </trkpt>
      <trkpt lat="43.58538" lon="3.5038">
        <ele>87</ele>
        <time>2022-02-22T09:19:05Z</time>
      </trkpt>
      <trkpt lat="43.58539" lon="3.50385">
        <ele>87</ele>
        <time>2022-02-22T09:19:08Z</time>
      </trkpt>
      <trkpt lat="43.5854" lon="3.5039">
        <ele>87</ele>
        <time>2022-02-22T09:19:12Z</time>
      </trkpt>
      <trkpt lat="43.58541" lon="3.50394">
        <ele>87</ele>
        <time>2022-02-22T09:19:15Z</time>
      </trkpt>
      <trkpt lat="43.58543" lon="3.50399">
        <ele>87</ele>
        <time>2022-02-22T09:19:18Z</time>
      </trkpt>
      <trkpt lat="43.58544" lon="3.50402">
        <ele>87</ele>
        <time>2022-02-22T09:19:20Z</time>
      </trkpt>
      <trkpt lat="43.58545" lon="3.50407">
        <ele>87</ele>
        <time>2022-02-22T09:19:23Z</time>
      </trkpt>
      <trkpt lat="43.58546" lon="3.50412">
        <ele>87</ele>
        <time>2022-02-22T09:19:26Z</time>
      </trkpt>
      <trkpt lat="43.58547" lon="3.50416">
        <ele>87</ele>
        <time>2022-02-22T09:19:29Z</time>
      </trkpt>
      <trkpt lat="43.58548" lon="3.50421">
        <ele>87</ele>
        <time>2022-02-22T09:19:32Z</time>
      </trkpt>
      <trkpt lat="43.5855" lon="3.50425">
        <ele>87</ele>
        <time>2022-02-22T09:19:35Z</time>
      </trkpt>
      <trkpt lat="43.58551" lon="3.50429">
        <ele>87</ele>
        <time>2022-02-22T09:19:38Z</time>
      </trkpt>
      <trkpt lat="43.58552" lon="3.50433">
        <ele>87</ele>
        <time>2022-02-22T09:19:41Z</time>
      </trkpt>
      <trkpt lat="43.58553" lon="3.50438">
        <ele>87</ele>
        <time>2022-02-22T09:19:44Z</time>
      </trkpt>
      <trkpt lat="43.58554" lon="3.50442">
        <ele>87</ele>
        <time>2022-02-22T09:19:47Z</time>
      </trkpt>
      <trkpt lat="43.58555" lon="3.50446">
        <ele>87</ele>
        <time>2022-02-22T09:19:50Z</time>
      </trkpt>
      <trkpt lat="43.58556" lon="3.50451">
        <ele>87</ele>
        <time>2022-02-22T09:19:53Z</time>
      </trkpt>
      <trkpt lat="43.58557" lon="3.50456">
        <ele>87</ele>
        <time>2022-02-22T09:19:56Z</time>
      </trkpt>
      <trkpt lat="43.58558" lon="3.50461">
        <ele>87</ele>
        <time>2022-02-22T09:19:59Z</time>
      </trkpt>
      <trkpt lat="43.58559" lon="3.50465">
        <ele>87</ele>
        <time>2022-02-22T09:20:02Z</time>
      </trkpt>
      <trkpt lat="43.5856" lon="3.5047">
        <ele>87</ele>
        <time>2022-02-22T09:20:05Z</time>
      </trkpt>
      <trkpt lat="43.58561" lon="3.50475">
        <ele>87</ele>
        <time>2022-02-22T09:20:08Z</time>
      </trkpt>
      <trkpt lat="43.58561" lon="3.50479">
        <ele>87</ele>
        <time>2022-02-22T09:20:11Z</time>
      </trkpt>
      <trkpt lat="43.58562" lon="3.50484">
        <ele>87</ele>
        <time>2022-02-22T09:20:14Z</time>
      </trkpt>
      <trkpt lat="43.58563" lon="3.50489">
        <ele>87</ele>
        <time>2022-02-22T09:20:17Z</time>
      </trkpt>
      <trkpt lat="43.58563" lon="3.50494">
        <ele>87</ele>
        <time>2022-02-22T09:20:20Z</time>
      </trkpt>
      <trkpt lat="43.58564" lon="3.50499">
        <ele>87</ele>
        <time>2022-02-22T09:20:23Z</time>
      </trkpt>
      <trkpt lat="43.58564" lon="3.50503">
        <ele>87</ele>
        <time>2022-02-22T09:20:26Z</time>
      </trkpt>
      <trkpt lat="43.58565" lon="3.50508">
        <ele>87</ele>
        <time>2022-02-22T09:20:29Z</time>
      </trkpt>
      <trkpt lat="43.58565" lon="3.50513">
        <ele>87</ele>
        <time>2022-02-22T09:20:32Z</time>
      </trkpt>
      <trkpt lat="43.58565" lon="3.50517">
        <ele>87</ele>
        <time>2022-02-22T09:20:35Z</time>
      </trkpt>
      <trkpt lat="43.58566" lon="3.50522">
        <ele>87</ele>
        <time>2022-02-22T09:20:38Z</time>
      </trkpt>
      <trkpt lat="43.58567" lon="3.50527">
        <ele>87</ele>
        <time>2022-02-22T09:20:41Z</time>
      </trkpt>
      <trkpt lat="43.58568" lon="3.50532">
        <ele>87</ele>
        <time>2022-02-22T09:20:44Z</time>
      </trkpt>
      <trkpt lat="43.58569" lon="3.50536">
        <ele>87</ele>
        <time>2022-02-22T09:20:47Z</time>
      </trkpt>
      <trkpt lat="43.5857" lon="3.50541">
        <ele>87</ele>
        <time>2022-02-22T09:20:50Z</time>
      </trkpt>
      <trkpt lat="43.5857" lon="3.50546">
        <ele>87</ele>
        <time>2022-02-22T09:20:53Z</time>
      </trkpt>
      <trkpt lat="43.58571" lon="3.50551">
        <ele>87</ele>
        <time>2022-02-22T09:20:56Z</time>
      </trkpt>
      <trkpt lat="43.58572" lon="3.50555">
        <ele>87</ele>
        <time>2022-02-22T09:20:59Z</time>
      </trkpt>
      <trkpt lat="43.58573" lon="3.5056">
        <ele>87</ele>
        <time>2022-02-22T09:21:02Z</time>
      </trkpt>
      <trkpt lat="43.58574" lon="3.50564">
        <ele>87</ele>
        <time>2022-02-22T09:21:04Z</time>
      </trkpt>
      <trkpt lat="43.58575" lon="3.50568">
        <ele>87</ele>
        <time>2022-02-22T09:21:07Z</time>
      </trkpt>
      <trkpt lat="43.58576" lon="3.50571">
        <ele>87</ele>
        <time>2022-02-22T09:21:10Z</time>
      </trkpt>
      <trkpt lat="43.58577" lon="3.50576">
        <ele>87</ele>
        <time>2022-02-22T09:21:13Z</time>
      </trkpt>
      <trkpt lat="43.58578" lon="3.5058">
        <ele>87</ele>
        <time>2022-02-22T09:21:16Z</time>
      </trkpt>
      <trkpt lat="43.58579" lon="3.50586">
        <ele>87</ele>
        <time>2022-02-22T09:21:19Z</time>
      </trkpt>
      <trkpt lat="43.5858" lon="3.50591">
        <ele>87</ele>
        <time>2022-02-22T09:21:22Z</time>
      </trkpt>
      <trkpt lat="43.5858" lon="3.50595">
        <ele>87</ele>
        <time>2022-02-22T09:21:25Z</time>
      </trkpt>
      <trkpt lat="43.58581" lon="3.506">
        <ele>87</ele>
        <time>2022-02-22T09:21:28Z</time>
      </trkpt>
      <trkpt lat="43.58582" lon="3.50604">
        <ele>87</ele>
        <time>2022-02-22T09:21:31Z</time>
      </trkpt>
      <trkpt lat="43.58583" lon="3.50609">
        <ele>87</ele>
        <time>2022-02-22T09:21:34Z</time>
      </trkpt>
      <trkpt lat="43.58584" lon="3.50614">
        <ele>87</ele>
        <time>2022-02-22T09:21:37Z</time>
      </trkpt>
      <trkpt lat="43.58585" lon="3.50618">
        <ele>87</ele>
        <time>2022-02-22T09:21:40Z</time>
      </trkpt>
      <trkpt lat="43.58586" lon="3.50622">
        <ele>87</ele>
        <time>2022-02-22T09:21:42Z</time>
      </trkpt>
      <trkpt lat="43.58587" lon="3.50627">
        <ele>87</ele>
        <time>2022-02-22T09:21:45Z</time>
      </trkpt>
      <trkpt lat="43.58588" lon="3.50631">
        <ele>87</ele>
        <time>2022-02-22T09:21:48Z</time>
      </trkpt>
      <trkpt lat="43.58589" lon="3.50636">
        <ele>87</ele>
        <time>2022-02-22T09:21:51Z</time>
      </trkpt>
      <trkpt lat="43.5859" lon="3.50641">
        <ele>87</ele>
        <time>2022-02-22T09:21:54Z</time>
      </trkpt>
      <trkpt lat="43.58591" lon="3.50645">
        <ele>87</ele>
        <time>2022-02-22T09:21:57Z</time>
      </trkpt>
      <trkpt lat="43.58592" lon="3.5065">
        <ele>87</ele>
        <time>2022-02-22T09:22:00Z</time>
      </trkpt>
      <trkpt lat="43.58592" lon="3.50655">
        <ele>87</ele>
        <time>2022-02-22T09:22:03Z</time>
      </trkpt>
      <trkpt lat="43.58593" lon="3.50659">
        <ele>87</ele>
        <time>2022-02-22T09:22:06Z</time>
      </trkpt>
      <trkpt lat="43.58593" lon="3.50664">
        <ele>87</ele>
        <time>2022-02-22T09:22:09Z</time>
      </trkpt>
      <trkpt lat="43.58594" lon="3.50669">
        <ele>87</ele>
        <time>2022-02-22T09:22:12Z</time>
      </trkpt>
      <trkpt lat="43.58595" lon="3.50673">
        <ele>87</ele>
        <time>2022-02-22T09:22:15Z</time>
      </trkpt>
      <trkpt lat="43.58596" lon="3.50678">
        <ele>87</ele>
        <time>2022-02-22T09:22:18Z</time>
      </trkpt>
      <trkpt lat="43.58597" lon="3.50682">
        <ele>87</ele>
        <time>2022-02-22T09:22:21Z</time>
      </trkpt>
      <trkpt lat="43.58598" lon="3.50686">
        <ele>87</ele>
        <time>2022-02-22T09:22:23Z</time>
      </trkpt>
      <trkpt lat="43.58598" lon="3.50691">
        <ele>87</ele>
        <time>2022-02-22T09:22:26Z</time>
      </trkpt>
      <trkpt lat="43.58599" lon="3.50695">
        <ele>87</ele>
        <time>2022-02-22T09:22:29Z</time>
      </trkpt>
      <trkpt lat="43.586" lon="3.507">
        <ele>87</ele>
        <time>2022-02-22T09:22:32Z</time>
      </trkpt>
      <trkpt lat="43.58601" lon="3.50704">
        <ele>87</ele>
        <time>2022-02-22T09:22:35Z</time>
      </trkpt>
      <trkpt lat="43.58601" lon="3.50708">
        <ele>87</ele>
        <time>2022-02-22T09:22:37Z</time>
      </trkpt>
      <trkpt lat="43.58603" lon="3.50712">
        <ele>87</ele>
        <time>2022-02-22T09:22:40Z</time>
      </trkpt>
      <trkpt lat="43.58603" lon="3.50716">
        <ele>87</ele>
        <time>2022-02-22T09:22:43Z</time>
      </trkpt>
      <trkpt lat="43.58604" lon="3.5072">
        <ele>87</ele>
        <time>2022-02-22T09:22:46Z</time>
      </trkpt>
      <trkpt lat="43.58604" lon="3.50725">
        <ele>87</ele>
        <time>2022-02-22T09:22:49Z</time>
      </trkpt>
      <trkpt lat="43.58605" lon="3.50729">
        <ele>87</ele>
        <time>2022-02-22T09:22:51Z</time>
      </trkpt>
      <trkpt lat="43.58605" lon="3.50733">
        <ele>87</ele>
        <time>2022-02-22T09:22:54Z</time>
      </trkpt>
      <trkpt lat="43.58606" lon="3.50737">
        <ele>87</ele>
        <time>2022-02-22T09:22:57Z</time>
      </trkpt>
      <trkpt lat="43.58606" lon="3.50742">
        <ele>87</ele>
        <time>2022-02-22T09:23:00Z</time>
      </trkpt>
      <trkpt lat="43.58607" lon="3.50747">
        <ele>87</ele>
        <time>2022-02-22T09:23:03Z</time>
      </trkpt>
      <trkpt lat="43.58607" lon="3.50752">
        <ele>87</ele>
        <time>2022-02-22T09:23:05Z</time>
      </trkpt>
      <trkpt lat="43.58608" lon="3.50756">
        <ele>87</ele>
        <time>2022-02-22T09:23:08Z</time>
      </trkpt>
      <trkpt lat="43.58609" lon="3.50761">
        <ele>87</ele>
        <time>2022-02-22T09:23:11Z</time>
      </trkpt>
      <trkpt lat="43.5861" lon="3.50765">
        <ele>87</ele>
        <time>2022-02-22T09:23:14Z</time>
      </trkpt>
      <trkpt lat="43.5861" lon="3.5077">
        <ele>87</ele>
        <time>2022-02-22T09:23:17Z</time>
      </trkpt>
      <trkpt lat="43.5861" lon="3.50774">
        <ele>87</ele>
        <time>2022-02-22T09:23:20Z</time>
      </trkpt>
      <trkpt lat="43.5861" lon="3.50778">
        <ele>87</ele>
        <time>2022-02-22T09:23:23Z</time>
      </trkpt>
      <trkpt lat="43.5861" lon="3.50782">
        <ele>87</ele>
        <time>2022-02-22T09:23:26Z</time>
      </trkpt>
      <trkpt lat="43.5861" lon="3.50787">
        <ele>87</ele>
        <time>2022-02-22T09:23:29Z</time>
      </trkpt>
      <trkpt lat="43.5861" lon="3.50792">
        <ele>87</ele>
        <time>2022-02-22T09:23:32Z</time>
      </trkpt>
      <trkpt lat="43.5861" lon="3.50797">
        <ele>87</ele>
        <time>2022-02-22T09:23:35Z</time>
      </trkpt>
      <trkpt lat="43.5861" lon="3.50801">
        <ele>87</ele>
        <time>2022-02-22T09:23:38Z</time>
      </trkpt>
      <trkpt lat="43.5861" lon="3.50806">
        <ele>87</ele>
        <time>2022-02-22T09:23:41Z</time>
      </trkpt>
      <trkpt lat="43.5861" lon="3.50811">
        <ele>87</ele>
        <time>2022-02-22T09:23:44Z</time>
      </trkpt>
      <trkpt lat="43.5861" lon="3.50816">
        <ele>87</ele>
        <time>2022-02-22T09:23:47Z</time>
      </trkpt>
      <trkpt lat="43.5861" lon="3.5082">
        <ele>87</ele>
        <time>2022-02-22T09:23:50Z</time>
      </trkpt>
      <trkpt lat="43.5861" lon="3.50824">
        <ele>87</ele>
        <time>2022-02-22T09:23:54Z</time>
      </trkpt>
      <trkpt lat="43.58609" lon="3.50828">
        <ele>87</ele>
        <time>2022-02-22T09:23:57Z</time>
      </trkpt>
      <trkpt lat="43.5861" lon="3.50832">
        <ele>87</ele>
        <time>2022-02-22T09:24:00Z</time>
      </trkpt>
      <trkpt lat="43.5861" lon="3.50837">
        <ele>87</ele>
        <time>2022-02-22T09:24:03Z</time>
      </trkpt>
      <trkpt lat="43.5861" lon="3.50841">
        <ele>87</ele>
        <time>2022-02-22T09:24:06Z</time>
      </trkpt>
      <trkpt lat="43.5861" lon="3.50845">
        <ele>87</ele>
        <time>2022-02-22T09:24:10Z</time>
      </trkpt>
      <trkpt lat="43.58609" lon="3.50849">
        <ele>87</ele>
        <time>2022-02-22T09:24:14Z</time>
      </trkpt>
      <trkpt lat="43.58609" lon="3.50853">
        <ele>87</ele>
        <time>2022-02-22T09:24:21Z</time>
      </trkpt>
      <trkpt lat="43.58608" lon="3.50857">
        <ele>87</ele>
        <time>2022-02-22T09:24:25Z</time>
      </trkpt>
      <trkpt lat="43.58606" lon="3.5086">
        <ele>87</ele>
        <time>2022-02-22T09:24:28Z</time>
      </trkpt>
      <trkpt lat="43.58603" lon="3.50863">
        <ele>87</ele>
        <time>2022-02-22T09:24:32Z</time>
      </trkpt>
      <trkpt lat="43.586" lon="3.50866">
        <ele>87</ele>
        <time>2022-02-22T09:24:36Z</time>
      </trkpt>
      <trkpt lat="43.58597" lon="3.50867">
        <ele>87</ele>
        <time>2022-02-22T09:24:39Z</time>
      </trkpt>
      <trkpt lat="43.58595" lon="3.50869">
        <ele>87</ele>
        <time>2022-02-22T09:24:42Z</time>
      </trkpt>
      <trkpt lat="43.58592" lon="3.50871">
        <ele>87</ele>
        <time>2022-02-22T09:24:45Z</time>
      </trkpt>
      <trkpt lat="43.58589" lon="3.50874">
        <ele>87</ele>
        <time>2022-02-22T09:24:49Z</time>
      </trkpt>
      <trkpt lat="43.58586" lon="3.50876">
        <ele>87</ele>
        <time>2022-02-22T09:24:52Z</time>
      </trkpt>
      <trkpt lat="43.58583" lon="3.50879">
        <ele>87</ele>
        <time>2022-02-22T09:24:56Z</time>
      </trkpt>
      <trkpt lat="43.5858" lon="3.50882">
        <ele>87</ele>
        <time>2022-02-22T09:24:59Z</time>
      </trkpt>
      <trkpt lat="43.58578" lon="3.50884">
        <ele>87</ele>
        <time>2022-02-22T09:25:01Z</time>
      </trkpt>
      <trkpt lat="43.58575" lon="3.50886">
        <ele>87</ele>
        <time>2022-02-22T09:25:04Z</time>
      </trkpt>
      <trkpt lat="43.58573" lon="3.50888">
        <ele>87</ele>
        <time>2022-02-22T09:25:07Z</time>
      </trkpt>
      <trkpt lat="43.58571" lon="3.50891">
        <ele>87</ele>
        <time>2022-02-22T09:25:10Z</time>
      </trkpt>
      <trkpt lat="43.5857" lon="3.50894">
        <ele>87</ele>
        <time>2022-02-22T09:25:13Z</time>
      </trkpt>
      <trkpt lat="43.5857" lon="3.50898">
        <ele>87</ele>
        <time>2022-02-22T09:25:15Z</time>
      </trkpt>
      <trkpt lat="43.5857" lon="3.50902">
        <ele>87</ele>
        <time>2022-02-22T09:25:18Z</time>
      </trkpt>
      <trkpt lat="43.58569" lon="3.50906">
        <ele>87</ele>
        <time>2022-02-22T09:25:22Z</time>
      </trkpt>
      <trkpt lat="43.58568" lon="3.50909">
        <ele>87</ele>
        <time>2022-02-22T09:25:33Z</time>
      </trkpt>
      <trkpt lat="43.58566" lon="3.50912">
        <ele>87</ele>
        <time>2022-02-22T09:25:38Z</time>
      </trkpt>
      <trkpt lat="43.58564" lon="3.50915">
        <ele>87</ele>
        <time>2022-02-22T09:25:44Z</time>
      </trkpt>
      <trkpt lat="43.58563" lon="3.50919">
        <ele>87</ele>
        <time>2022-02-22T09:25:47Z</time>
      </trkpt>
      <trkpt lat="43.58561" lon="3.50923">
        <ele>87</ele>
        <time>2022-02-22T09:25:59Z</time>
      </trkpt>
      <trkpt lat="43.58559" lon="3.50926">
        <ele>87</ele>
        <time>2022-02-22T09:26:04Z</time>
      </trkpt>
      <trkpt lat="43.58561" lon="3.50927">
        <ele>87</ele>
        <time>2022-02-22T09:27:04Z</time>
      </trkpt>
      <trkpt lat="43.58563" lon="3.50926">
        <ele>87</ele>
        <time>2022-02-22T09:27:08Z</time>
      </trkpt>
      <trkpt lat="43.58566" lon="3.50924">
        <ele>87</ele>
        <time>2022-02-22T09:27:12Z</time>
      </trkpt>
      <trkpt lat="43.58569" lon="3.50921">
        <ele>87</ele>
        <time>2022-02-22T09:27:15Z</time>
      </trkpt>
      <trkpt lat="43.58571" lon="3.50919">
        <ele>87</ele>
        <time>2022-02-22T09:27:18Z</time>
      </trkpt>
      <trkpt lat="43.58574" lon="3.50916">
        <ele>87</ele>
        <time>2022-02-22T09:27:21Z</time>
      </trkpt>
      <trkpt lat="43.58576" lon="3.50913">
        <ele>87</ele>
        <time>2022-02-22T09:27:24Z</time>
      </trkpt>
      <trkpt lat="43.58579" lon="3.50911">
        <ele>87</ele>
        <time>2022-02-22T09:27:27Z</time>
      </trkpt>
      <trkpt lat="43.58581" lon="3.50908">
        <ele>87</ele>
        <time>2022-02-22T09:27:35Z</time>
      </trkpt>
      <trkpt lat="43.58583" lon="3.50905">
        <ele>87</ele>
        <time>2022-02-22T09:28:10Z</time>
      </trkpt>
      <trkpt lat="43.58586" lon="3.50903">
        <ele>87</ele>
        <time>2022-02-22T09:28:15Z</time>
      </trkpt>
      <trkpt lat="43.58588" lon="3.509">
        <ele>87</ele>
        <time>2022-02-22T09:28:19Z</time>
      </trkpt>
      <trkpt lat="43.58591" lon="3.50897">
        <ele>87</ele>
        <time>2022-02-22T09:28:22Z</time>
      </trkpt>
      <trkpt lat="43.58593" lon="3.50894">
        <ele>87</ele>
        <time>2022-02-22T09:28:25Z</time>
      </trkpt>
      <trkpt lat="43.58596" lon="3.50891">
        <ele>87</ele>
        <time>2022-02-22T09:28:28Z</time>
      </trkpt>
      <trkpt lat="43.58598" lon="3.50889">
        <ele>87</ele>
        <time>2022-02-22T09:28:31Z</time>
      </trkpt>
      <trkpt lat="43.58601" lon="3.50887">
        <ele>87</ele>
        <time>2022-02-22T09:28:34Z</time>
      </trkpt>
      <trkpt lat="43.58604" lon="3.50885">
        <ele>87</ele>
        <time>2022-02-22T09:28:36Z</time>
      </trkpt>
      <trkpt lat="43.58607" lon="3.50883">
        <ele>87</ele>
        <time>2022-02-22T09:28:39Z</time>
      </trkpt>
      <trkpt lat="43.5861" lon="3.50881">
        <ele>87</ele>
        <time>2022-02-22T09:28:42Z</time>
      </trkpt>
      <trkpt lat="43.58613" lon="3.50878">
        <ele>87</ele>
        <time>2022-02-22T09:28:45Z</time>
      </trkpt>
      <trkpt lat="43.58615" lon="3.50875">
        <ele>87</ele>
        <time>2022-02-22T09:28:48Z</time>
      </trkpt>
      <trkpt lat="43.58617" lon="3.50872">
        <ele>87</ele>
        <time>2022-02-22T09:28:50Z</time>
      </trkpt>
      <trkpt lat="43.5862" lon="3.5087">
        <ele>87</ele>
        <time>2022-02-22T09:28:53Z</time>
      </trkpt>
      <trkpt lat="43.58621" lon="3.50867">
        <ele>87</ele>
        <time>2022-02-22T09:29:02Z</time>
      </trkpt>
      <trkpt lat="43.58624" lon="3.50865">
        <ele>87</ele>
        <time>2022-02-22T09:29:06Z</time>
      </trkpt>
      <trkpt lat="43.58626" lon="3.50862">
        <ele>87</ele>
        <time>2022-02-22T09:29:10Z</time>
      </trkpt>
      <trkpt lat="43.58629" lon="3.50859">
        <ele>87</ele>
        <time>2022-02-22T09:29:13Z</time>
      </trkpt>
      <trkpt lat="43.58632" lon="3.50858">
        <ele>87</ele>
        <time>2022-02-22T09:29:16Z</time>
      </trkpt>
      <trkpt lat="43.58635" lon="3.50856">
        <ele>87</ele>
        <time>2022-02-22T09:29:19Z</time>
      </trkpt>
      <trkpt lat="43.58638" lon="3.50855">
        <ele>87</ele>
        <time>2022-02-22T09:29:22Z</time>
      </trkpt>
      <trkpt lat="43.58641" lon="3.50854">
        <ele>87</ele>
        <time>2022-02-22T09:29:26Z</time>
      </trkpt>
      <trkpt lat="43.58644" lon="3.50853">
        <ele>87</ele>
        <time>2022-02-22T09:29:29Z</time>
      </trkpt>
      <trkpt lat="43.58648" lon="3.50852">
        <ele>87</ele>
        <time>2022-02-22T09:29:32Z</time>
      </trkpt>
      <trkpt lat="43.58651" lon="3.50851">
        <ele>87</ele>
        <time>2022-02-22T09:29:35Z</time>
      </trkpt>
      <trkpt lat="43.58654" lon="3.5085">
        <ele>87</ele>
        <time>2022-02-22T09:29:39Z</time>
      </trkpt>
      <trkpt lat="43.58657" lon="3.50849">
        <ele>87</ele>
        <time>2022-02-22T09:29:42Z</time>
      </trkpt>
      <trkpt lat="43.5866" lon="3.50848">
        <ele>87</ele>
        <time>2022-02-22T09:29:45Z</time>
      </trkpt>
      <trkpt lat="43.58663" lon="3.50847">
        <ele>87</ele>
        <time>2022-02-22T09:29:48Z</time>
      </trkpt>
      <trkpt lat="43.58666" lon="3.50847">
        <ele>87</ele>
        <time>2022-02-22T09:29:51Z</time>
      </trkpt>
      <trkpt lat="43.5867" lon="3.50845">
        <ele>87</ele>
        <time>2022-02-22T09:29:55Z</time>
      </trkpt>
      <trkpt lat="43.58673" lon="3.50845">
        <ele>87</ele>
        <time>2022-02-22T09:29:58Z</time>
      </trkpt>
      <trkpt lat="43.58676" lon="3.50845">
        <ele>87</ele>
        <time>2022-02-22T09:30:01Z</time>
      </trkpt>
      <trkpt lat="43.58679" lon="3.50844">
        <ele>87</ele>
        <time>2022-02-22T09:30:04Z</time>
      </trkpt>
      <trkpt lat="43.58683" lon="3.50843">
        <ele>87</ele>
        <time>2022-02-22T09:30:07Z</time>
      </trkpt>
      <trkpt lat="43.58686" lon="3.50843">
        <ele>87</ele>
        <time>2022-02-22T09:30:10Z</time>
      </trkpt>
      <trkpt lat="43.5869" lon="3.50842">
        <ele>87</ele>
        <time>2022-02-22T09:30:13Z</time>
      </trkpt>
      <trkpt lat="43.58694" lon="3.50842">
        <ele>87</ele>
        <time>2022-02-22T09:30:16Z</time>
      </trkpt>
      <trkpt lat="43.58697" lon="3.50841">
        <ele>87</ele>
        <time>2022-02-22T09:30:19Z</time>
      </trkpt>
      <trkpt lat="43.587" lon="3.50841">
        <ele>87</ele>
        <time>2022-02-22T09:30:22Z</time>
      </trkpt>
      <trkpt lat="43.58703" lon="3.50841">
        <ele>87</ele>
        <time>2022-02-22T09:30:25Z</time>
      </trkpt>
      <trkpt lat="43.58707" lon="3.50841">
        <ele>87</ele>
        <time>2022-02-22T09:30:28Z</time>
      </trkpt>
      <trkpt lat="43.5871" lon="3.50842">
        <ele>87</ele>
        <time>2022-02-22T09:30:31Z</time>
      </trkpt>
      <trkpt lat="43.58713" lon="3.50843">
        <ele>87</ele>
        <time>2022-02-22T09:30:34Z</time>
      </trkpt>
      <trkpt lat="43.58717" lon="3.50843">
        <ele>87</ele>
        <time>2022-02-22T09:30:36Z</time>
      </trkpt>
      <trkpt lat="43.5872" lon="3.50844">
        <ele>87</ele>
        <time>2022-02-22T09:30:38Z</time>
      </trkpt>
      <trkpt lat="43.58722" lon="3.50845">
        <ele>87</ele>
        <time>2022-02-22T09:30:40Z</time>
      </trkpt>
      <trkpt lat="43.58725" lon="3.50845">
        <ele>87</ele>
        <time>2022-02-22T09:30:43Z</time>
      </trkpt>
      <trkpt lat="43.58729" lon="3.50846">
        <ele>87</ele>
        <time>2022-02-22T09:30:46Z</time>
      </trkpt>
      <trkpt lat="43.58732" lon="3.50846">
        <ele>87</ele>
        <time>2022-02-22T09:30:49Z</time>
      </trkpt>
      <trkpt lat="43.58735" lon="3.50846">
        <ele>87</ele>
        <time>2022-02-22T09:30:51Z</time>
      </trkpt>
      <trkpt lat="43.58738" lon="3.50847">
        <ele>87</ele>
        <time>2022-02-22T09:30:54Z</time>
      </trkpt>
      <trkpt lat="43.58741" lon="3.50848">
        <ele>87</ele>
        <time>2022-02-22T09:30:56Z</time>
      </trkpt>
      <trkpt lat="43.58745" lon="3.50849">
        <ele>87</ele>
        <time>2022-02-22T09:30:59Z</time>
      </trkpt>
      <trkpt lat="43.58748" lon="3.50849">
        <ele>87</ele>
        <time>2022-02-22T09:31:02Z</time>
      </trkpt>
      <trkpt lat="43.58752" lon="3.50849">
        <ele>87</ele>
        <time>2022-02-22T09:31:06Z</time>
      </trkpt>
      <trkpt lat="43.58755" lon="3.50849">
        <ele>87</ele>
        <time>2022-02-22T09:31:09Z</time>
      </trkpt>
      <trkpt lat="43.58759" lon="3.50848">
        <ele>87</ele>
        <time>2022-02-22T09:31:12Z</time>
      </trkpt>
      <trkpt lat="43.58762" lon="3.50848">
        <ele>87</ele>
        <time>2022-02-22T09:31:15Z</time>
      </trkpt>
      <trkpt lat="43.58765" lon="3.50849">
        <ele>87</ele>
        <time>2022-02-22T09:31:18Z</time>
      </trkpt>
      <trkpt lat="43.58768" lon="3.50851">
        <ele>87</ele>
        <time>2022-02-22T09:31:21Z</time>
      </trkpt>
      <trkpt lat="43.58771" lon="3.50852">
        <ele>87</ele>
        <time>2022-02-22T09:31:24Z</time>
      </trkpt>
      <trkpt lat="43.58774" lon="3.50852">
        <ele>87</ele>
        <time>2022-02-22T09:31:29Z</time>
      </trkpt>
      <trkpt lat="43.58777" lon="3.5085">
        <ele>87</ele>
        <time>2022-02-22T09:31:36Z</time>
      </trkpt>
      <trkpt lat="43.5878" lon="3.50852">
        <ele>87</ele>
        <time>2022-02-22T09:31:41Z</time>
      </trkpt>
      <trkpt lat="43.58782" lon="3.50853">
        <ele>87</ele>
        <time>2022-02-22T09:31:43Z</time>
      </trkpt>
      <trkpt lat="43.58785" lon="3.50855">
        <ele>87</ele>
        <time>2022-02-22T09:31:46Z</time>
      </trkpt>
      <trkpt lat="43.58789" lon="3.50857">
        <ele>87</ele>
        <time>2022-02-22T09:31:50Z</time>
      </trkpt>
      <trkpt lat="43.58792" lon="3.50858">
        <ele>87</ele>
        <time>2022-02-22T09:31:53Z</time>
      </trkpt>
      <trkpt lat="43.58795" lon="3.50859">
        <ele>87</ele>
        <time>2022-02-22T09:31:56Z</time>
      </trkpt>
      <trkpt lat="43.58798" lon="3.5086">
        <ele>87</ele>
        <time>2022-02-22T09:31:59Z</time>
      </trkpt>
      <trkpt lat="43.58801" lon="3.50861">
        <ele>87</ele>
        <time>2022-02-22T09:32:02Z</time>
      </trkpt>
      <trkpt lat="43.58804" lon="3.50863">
        <ele>87</ele>
        <time>2022-02-22T09:32:05Z</time>
      </trkpt>
      <trkpt lat="43.58807" lon="3.50864">
        <ele>87</ele>
        <time>2022-02-22T09:32:08Z</time>
      </trkpt>
      <trkpt lat="43.5881" lon="3.50865">
        <ele>87</ele>
        <time>2022-02-22T09:32:10Z</time>
      </trkpt>
      <trkpt lat="43.58813" lon="3.50866">
        <ele>87</ele>
        <time>2022-02-22T09:32:13Z</time>
      </trkpt>
      <trkpt lat="43.58817" lon="3.50867">
        <ele>87</ele>
        <time>2022-02-22T09:32:16Z</time>
      </trkpt>
      <trkpt lat="43.5882" lon="3.50868">
        <ele>87</ele>
        <time>2022-02-22T09:32:19Z</time>
      </trkpt>
      <trkpt lat="43.58823" lon="3.50869">
        <ele>87</ele>
        <time>2022-02-22T09:32:22Z</time>
      </trkpt>
      <trkpt lat="43.58826" lon="3.5087">
        <ele>87</ele>
        <time>2022-02-22T09:32:25Z</time>
      </trkpt>
      <trkpt lat="43.58829" lon="3.50872">
        <ele>87</ele>
        <time>2022-02-22T09:32:29Z</time>
      </trkpt>
      <trkpt lat="43.58832" lon="3.50874">
        <ele>87</ele>
        <time>2022-02-22T09:32:32Z</time>
      </trkpt>
      <trkpt lat="43.58835" lon="3.50874">
        <ele>87</ele>
        <time>2022-02-22T09:32:35Z</time>
      </trkpt>
      <trkpt lat="43.58838" lon="3.50875">
        <ele>87</ele>
        <time>2022-02-22T09:32:38Z</time>
      </trkpt>
      <trkpt lat="43.58841" lon="3.50877">
        <ele>87</ele>
        <time>2022-02-22T09:32:43Z</time>
      </trkpt>
      <trkpt lat="43.58845" lon="3.50879">
        <ele>87</ele>
        <time>2022-02-22T09:32:46Z</time>
      </trkpt>
      <trkpt lat="43.58848" lon="3.50882">
        <ele>87</ele>
        <time>2022-02-22T09:32:49Z</time>
      </trkpt>
      <trkpt lat="43.58851" lon="3.50883">
        <ele>87</ele>
        <time>2022-02-22T09:32:51Z</time>
      </trkpt>
      <trkpt lat="43.58854" lon="3.50885">
        <ele>87</ele>
        <time>2022-02-22T09:32:54Z</time>
      </trkpt>
      <trkpt lat="43.58857" lon="3.50887">
        <ele>87</ele>
        <time>2022-02-22T09:33:22Z</time>
      </trkpt>
      <trkpt lat="43.5886" lon="3.50888">
        <ele>87</ele>
        <time>2022-02-22T09:33:25Z</time>
      </trkpt>
      <trkpt lat="43.58863" lon="3.5089">
        <ele>87</ele>
        <time>2022-02-22T09:33:28Z</time>
      </trkpt>
      <trkpt lat="43.58865" lon="3.50893">
        <ele>87</ele>
        <time>2022-02-22T09:33:40Z</time>
      </trkpt>
      <trkpt lat="43.58865" lon="3.50896">
        <ele>87</ele>
        <time>2022-02-22T09:33:46Z</time>
      </trkpt>
      <trkpt lat="43.58864" lon="3.50899">
        <ele>87</ele>
        <time>2022-02-22T09:33:51Z</time>
      </trkpt>
      <trkpt lat="43.58861" lon="3.50902">
        <ele>87</ele>
        <time>2022-02-22T09:33:56Z</time>
      </trkpt>
      <trkpt lat="43.58859" lon="3.50904">
        <ele>87</ele>
        <time>2022-02-22T09:34:00Z</time>
      </trkpt>
      <trkpt lat="43.58857" lon="3.50907">
        <ele>87</ele>
        <time>2022-02-22T09:34:04Z</time>
      </trkpt>
      <trkpt lat="43.58856" lon="3.50911">
        <ele>87</ele>
        <time>2022-02-22T09:34:07Z</time>
      </trkpt>
      <trkpt lat="43.58854" lon="3.50915">
        <ele>87</ele>
        <time>2022-02-22T09:34:10Z</time>
      </trkpt>
      <trkpt lat="43.58852" lon="3.50918">
        <ele>87</ele>
        <time>2022-02-22T09:34:13Z</time>
      </trkpt>
      <trkpt lat="43.5885" lon="3.50921">
        <ele>87</ele>
        <time>2022-02-22T09:34:16Z</time>
      </trkpt>
      <trkpt lat="43.58848" lon="3.50925">
        <ele>87</ele>
        <time>2022-02-22T09:34:20Z</time>
      </trkpt>
      <trkpt lat="43.58847" lon="3.50929">
        <ele>87</ele>
        <time>2022-02-22T09:34:24Z</time>
      </trkpt>
      <trkpt lat="43.58846" lon="3.50934">
        <ele>87</ele>
        <time>2022-02-22T09:34:28Z</time>
      </trkpt>
      <trkpt lat="43.58845" lon="3.50937">
        <ele>87</ele>
        <time>2022-02-22T09:34:31Z</time>
      </trkpt>
      <trkpt lat="43.58844" lon="3.50941">
        <ele>87</ele>
        <time>2022-02-22T09:34:35Z</time>
      </trkpt>
      <trkpt lat="43.58842" lon="3.50944">
        <ele>87</ele>
        <time>2022-02-22T09:34:40Z</time>
      </trkpt>
      <trkpt lat="43.58841" lon="3.50947">
        <ele>87</ele>
        <time>2022-02-22T09:34:44Z</time>
      </trkpt>
      <trkpt lat="43.58838" lon="3.50949">
        <ele>87</ele>
        <time>2022-02-22T09:34:49Z</time>
      </trkpt>
      <trkpt lat="43.58836" lon="3.50952">
        <ele>87</ele>
        <time>2022-02-22T09:34:54Z</time>
      </trkpt>
      <trkpt lat="43.58833" lon="3.50954">
        <ele>87</ele>
        <time>2022-02-22T09:34:57Z</time>
      </trkpt>
      <trkpt lat="43.5883" lon="3.50956">
        <ele>87</ele>
        <time>2022-02-22T09:35:01Z</time>
      </trkpt>
      <trkpt lat="43.58828" lon="3.50958">
        <ele>87</ele>
        <time>2022-02-22T09:35:06Z</time>
      </trkpt>
      <trkpt lat="43.58825" lon="3.5096">
        <ele>87</ele>
        <time>2022-02-22T09:35:12Z</time>
      </trkpt>
      <trkpt lat="43.58822" lon="3.50961">
        <ele>87</ele>
        <time>2022-02-22T09:35:17Z</time>
      </trkpt>
      <trkpt lat="43.58818" lon="3.50961">
        <ele>87</ele>
        <time>2022-02-22T09:35:21Z</time>
      </trkpt>
      <trkpt lat="43.58815" lon="3.50962">
        <ele>87</ele>
        <time>2022-02-22T09:35:27Z</time>
      </trkpt>
      <trkpt lat="43.58812" lon="3.50963">
        <ele>87</ele>
        <time>2022-02-22T09:35:32Z</time>
      </trkpt>
      <trkpt lat="43.58809" lon="3.50963">
        <ele>87</ele>
        <time>2022-02-22T09:35:37Z</time>
      </trkpt>
      <trkpt lat="43.58807" lon="3.50965">
        <ele>87</ele>
        <time>2022-02-22T09:35:43Z</time>
      </trkpt>
      <trkpt lat="43.58805" lon="3.50967">
        <ele>87</ele>
        <time>2022-02-22T09:35:46Z</time>
      </trkpt>
      <trkpt lat="43.58804" lon="3.50971">
        <ele>87</ele>
        <time>2022-02-22T09:35:50Z</time>
      </trkpt>
      <trkpt lat="43.58804" lon="3.50975">
        <ele>87</ele>
        <time>2022-02-22T09:35:53Z</time>
      </trkpt>
      <trkpt lat="43.58804" lon="3.50978">
        <ele>87</ele>
        <time>2022-02-22T09:35:56Z</time>
      </trkpt>
      <trkpt lat="43.58804" lon="3.50983">
        <ele>87</ele>
        <time>2022-02-22T09:36:00Z</time>
      </trkpt>
      <trkpt lat="43.58804" lon="3.50987">
        <ele>87</ele>
        <time>2022-02-22T09:36:04Z</time>
      </trkpt>
      <trkpt lat="43.58805" lon="3.5099">
        <ele>87</ele>
        <time>2022-02-22T09:36:14Z</time>
      </trkpt>
      <trkpt lat="43.58804" lon="3.50994">
        <ele>87</ele>
        <time>2022-02-22T09:36:18Z</time>
      </trkpt>
      <trkpt lat="43.58803" lon="3.50996">
        <ele>87</ele>
        <time>2022-02-22T09:36:23Z</time>
      </trkpt>
      <trkpt lat="43.588" lon="3.50998">
        <ele>87</ele>
        <time>2022-02-22T09:36:31Z</time>
      </trkpt>
      <trkpt lat="43.58797" lon="3.50999">
        <ele>87</ele>
        <time>2022-02-22T09:36:39Z</time>
      </trkpt>
      <trkpt lat="43.58794" lon="3.50999">
        <ele>87</ele>
        <time>2022-02-22T09:36:44Z</time>
      </trkpt>
      <trkpt lat="43.58791" lon="3.50999">
        <ele>87</ele>
        <time>2022-02-22T09:36:49Z</time>
      </trkpt>
      <trkpt lat="43.58788" lon="3.51">
        <ele>87</ele>
        <time>2022-02-22T09:36:54Z</time>
      </trkpt>
      <trkpt lat="43.58785" lon="3.51002">
        <ele>87</ele>
        <time>2022-02-22T09:36:58Z</time>
      </trkpt>
      <trkpt lat="43.58783" lon="3.51005">
        <ele>87</ele>
        <time>2022-02-22T09:37:02Z</time>
      </trkpt>
      <trkpt lat="43.58782" lon="3.51008">
        <ele>87</ele>
        <time>2022-02-22T09:37:06Z</time>
      </trkpt>
      <trkpt lat="43.5878" lon="3.51012">
        <ele>87</ele>
        <time>2022-02-22T09:37:12Z</time>
      </trkpt>
      <trkpt lat="43.58779" lon="3.51016">
        <ele>87</ele>
        <time>2022-02-22T09:37:16Z</time>
      </trkpt>
      <trkpt lat="43.58777" lon="3.51019">
        <ele>87</ele>
        <time>2022-02-22T09:37:20Z</time>
      </trkpt>
      <trkpt lat="43.58775" lon="3.5102">
        <ele>87</ele>
        <time>2022-02-22T09:37:27Z</time>
      </trkpt>
      <trkpt lat="43.58776" lon="3.51021">
        <ele>87</ele>
        <time>2022-02-22T09:41:04Z</time>
      </trkpt>
      <trkpt lat="43.58778" lon="3.51021">
        <ele>87</ele>
        <time>2022-02-22T09:41:09Z</time>
      </trkpt>
      <trkpt lat="43.5878" lon="3.51018">
        <ele>87</ele>
        <time>2022-02-22T09:41:12Z</time>
      </trkpt>
      <trkpt lat="43.58781" lon="3.51015">
        <ele>87</ele>
        <time>2022-02-22T09:41:16Z</time>
      </trkpt>
      <trkpt lat="43.58782" lon="3.51011">
        <ele>87</ele>
        <time>2022-02-22T09:41:21Z</time>
      </trkpt>
      <trkpt lat="43.58782" lon="3.51006">
        <ele>87</ele>
        <time>2022-02-22T09:41:24Z</time>
      </trkpt>
      <trkpt lat="43.58784" lon="3.51003">
        <ele>87</ele>
        <time>2022-02-22T09:41:29Z</time>
      </trkpt>
      <trkpt lat="43.58787" lon="3.51001">
        <ele>87</ele>
        <time>2022-02-22T09:41:33Z</time>
      </trkpt>
      <trkpt lat="43.5879" lon="3.51">
        <ele>87</ele>
        <time>2022-02-22T09:41:37Z</time>
      </trkpt>
      <trkpt lat="43.58793" lon="3.50999">
        <ele>87</ele>
        <time>2022-02-22T09:41:43Z</time>
      </trkpt>
      <trkpt lat="43.58796" lon="3.50999">
        <ele>87</ele>
        <time>2022-02-22T09:41:50Z</time>
      </trkpt>
      <trkpt lat="43.58799" lon="3.50998">
        <ele>87</ele>
        <time>2022-02-22T09:42:05Z</time>
      </trkpt>
      <trkpt lat="43.58803" lon="3.50996">
        <ele>87</ele>
        <time>2022-02-22T09:42:16Z</time>
      </trkpt>
      <trkpt lat="43.58805" lon="3.50993">
        <ele>87</ele>
        <time>2022-02-22T09:42:19Z</time>
      </trkpt>
      <trkpt lat="43.58806" lon="3.50989">
        <ele>87</ele>
        <time>2022-02-22T09:42:22Z</time>
      </trkpt>
      <trkpt lat="43.58806" lon="3.50984">
        <ele>87</ele>
        <time>2022-02-22T09:42:25Z</time>
      </trkpt>
      <trkpt lat="43.58805" lon="3.5098">
        <ele>87</ele>
        <time>2022-02-22T09:42:28Z</time>
      </trkpt>
      <trkpt lat="43.58804" lon="3.50975">
        <ele>87</ele>
        <time>2022-02-22T09:42:31Z</time>
      </trkpt>
      <trkpt lat="43.58803" lon="3.50971">
        <ele>87</ele>
        <time>2022-02-22T09:42:35Z</time>
      </trkpt>
      <trkpt lat="43.58801" lon="3.50969">
        <ele>87</ele>
        <time>2022-02-22T09:44:37Z</time>
      </trkpt>
      <trkpt lat="43.58798" lon="3.50968">
        <ele>87</ele>
        <time>2022-02-22T09:44:43Z</time>
      </trkpt>
      <trkpt lat="43.58795" lon="3.50966">
        <ele>87</ele>
        <time>2022-02-22T09:44:46Z</time>
      </trkpt>
      <trkpt lat="43.58791" lon="3.50966">
        <ele>87</ele>
        <time>2022-02-22T09:44:49Z</time>
      </trkpt>
      <trkpt lat="43.58788" lon="3.50965">
        <ele>87</ele>
        <time>2022-02-22T09:44:52Z</time>
      </trkpt>
      <trkpt lat="43.58785" lon="3.50965">
        <ele>87</ele>
        <time>2022-02-22T09:44:55Z</time>
      </trkpt>
      <trkpt lat="43.58782" lon="3.50965">
        <ele>87</ele>
        <time>2022-02-22T09:44:58Z</time>
      </trkpt>
      <trkpt lat="43.58778" lon="3.50964">
        <ele>87</ele>
        <time>2022-02-22T09:45:01Z</time>
      </trkpt>
      <trkpt lat="43.58775" lon="3.50964">
        <ele>87</ele>
        <time>2022-02-22T09:45:05Z</time>
      </trkpt>
      <trkpt lat="43.58771" lon="3.50964">
        <ele>87</ele>
        <time>2022-02-22T09:45:09Z</time>
      </trkpt>
      <trkpt lat="43.58768" lon="3.50963">
        <ele>87</ele>
        <time>2022-02-22T09:45:12Z</time>
      </trkpt>
      <trkpt lat="43.58765" lon="3.50961">
        <ele>87</ele>
        <time>2022-02-22T09:45:15Z</time>
      </trkpt>
      <trkpt lat="43.58762" lon="3.50959">
        <ele>87</ele>
        <time>2022-02-22T09:45:19Z</time>
      </trkpt>
      <trkpt lat="43.58758" lon="3.50957">
        <ele>87</ele>
        <time>2022-02-22T09:45:22Z</time>
      </trkpt>
      <trkpt lat="43.58755" lon="3.50955">
        <ele>87</ele>
        <time>2022-02-22T09:45:25Z</time>
      </trkpt>
      <trkpt lat="43.58752" lon="3.50953">
        <ele>87</ele>
        <time>2022-02-22T09:45:28Z</time>
      </trkpt>
      <trkpt lat="43.58749" lon="3.50951">
        <ele>87</ele>
        <time>2022-02-22T09:45:32Z</time>
      </trkpt>
      <trkpt lat="43.58746" lon="3.5095">
        <ele>87</ele>
        <time>2022-02-22T09:45:36Z</time>
      </trkpt>
      <trkpt lat="43.58743" lon="3.50949">
        <ele>87</ele>
        <time>2022-02-22T09:45:40Z</time>
      </trkpt>
      <trkpt lat="43.5874" lon="3.50947">
        <ele>87</ele>
        <time>2022-02-22T09:45:44Z</time>
      </trkpt>
      <trkpt lat="43.58736" lon="3.50945">
        <ele>87</ele>
        <time>2022-02-22T09:45:47Z</time>
      </trkpt>
      <trkpt lat="43.58733" lon="3.50944">
        <ele>87</ele>
        <time>2022-02-22T09:45:50Z</time>
      </trkpt>
      <trkpt lat="43.5873" lon="3.50942">
        <ele>87</ele>
        <time>2022-02-22T09:45:53Z</time>
      </trkpt>
      <trkpt lat="43.58727" lon="3.50941">
        <ele>87</ele>
        <time>2022-02-22T09:45:56Z</time>
      </trkpt>
      <trkpt lat="43.58724" lon="3.5094">
        <ele>87</ele>
        <time>2022-02-22T09:45:59Z</time>
      </trkpt>
      <trkpt lat="43.58721" lon="3.50937">
        <ele>87</ele>
        <time>2022-02-22T09:46:02Z</time>
      </trkpt>
      <trkpt lat="43.58718" lon="3.50935">
        <ele>87</ele>
        <time>2022-02-22T09:46:05Z</time>
      </trkpt>
      <trkpt lat="43.58715" lon="3.50933">
        <ele>87</ele>
        <time>2022-02-22T09:46:10Z</time>
      </trkpt>
      <trkpt lat="43.58712" lon="3.50931">
        <ele>87</ele>
        <time>2022-02-22T09:46:14Z</time>
      </trkpt>
      <trkpt lat="43.58709" lon="3.50928">
        <ele>87</ele>
        <time>2022-02-22T09:46:17Z</time>
      </trkpt>
      <trkpt lat="43.58706" lon="3.50925">
        <ele>87</ele>
        <time>2022-02-22T09:46:20Z</time>
      </trkpt>
      <trkpt lat="43.58703" lon="3.50924">
        <ele>87</ele>
        <time>2022-02-22T09:46:23Z</time>
      </trkpt>
      <trkpt lat="43.587" lon="3.50923">
        <ele>87</ele>
        <time>2022-02-22T09:46:26Z</time>
      </trkpt>
      <trkpt lat="43.58696" lon="3.50922">
        <ele>87</ele>
        <time>2022-02-22T09:46:29Z</time>
      </trkpt>
      <trkpt lat="43.58693" lon="3.50921">
        <ele>87</ele>
        <time>2022-02-22T09:46:32Z</time>
      </trkpt>
      <trkpt lat="43.58689" lon="3.5092">
        <ele>87</ele>
        <time>2022-02-22T09:46:35Z</time>
      </trkpt>
      <trkpt lat="43.58686" lon="3.5092">
        <ele>87</ele>
        <time>2022-02-22T09:46:38Z</time>
      </trkpt>
      <trkpt lat="43.58683" lon="3.50919">
        <ele>87</ele>
        <time>2022-02-22T09:46:40Z</time>
      </trkpt>
      <trkpt lat="43.5868" lon="3.50918">
        <ele>87</ele>
        <time>2022-02-22T09:46:45Z</time>
      </trkpt>
      <trkpt lat="43.58681" lon="3.50916">
        <ele>87</ele>
        <time>2022-02-22T09:47:03Z</time>
      </trkpt>
      <trkpt lat="43.58683" lon="3.50916">
        <ele>87</ele>
        <time>2022-02-22T09:47:06Z</time>
      </trkpt>
      <trkpt lat="43.58686" lon="3.50917">
        <ele>87</ele>
        <time>2022-02-22T09:47:09Z</time>
      </trkpt>
      <trkpt lat="43.58689" lon="3.50917">
        <ele>87</ele>
        <time>2022-02-22T09:47:12Z</time>
      </trkpt>
      <trkpt lat="43.58691" lon="3.50918">
        <ele>87</ele>
        <time>2022-02-22T09:47:15Z</time>
      </trkpt>
      <trkpt lat="43.58694" lon="3.50919">
        <ele>87</ele>
        <time>2022-02-22T09:47:18Z</time>
      </trkpt>
      <trkpt lat="43.58697" lon="3.50921">
        <ele>87</ele>
        <time>2022-02-22T09:47:22Z</time>
      </trkpt>
      <trkpt lat="43.587" lon="3.50925">
        <ele>87</ele>
        <time>2022-02-22T09:49:15Z</time>
      </trkpt>
      <trkpt lat="43.58703" lon="3.50928">
        <ele>87</ele>
        <time>2022-02-22T09:49:24Z</time>
      </trkpt>
      <trkpt lat="43.58705" lon="3.50931">
        <ele>87</ele>
        <time>2022-02-22T09:49:28Z</time>
      </trkpt>
      <trkpt lat="43.58707" lon="3.50933">
        <ele>87</ele>
        <time>2022-02-22T09:49:33Z</time>
      </trkpt>
      <trkpt lat="43.5871" lon="3.50936">
        <ele>87</ele>
        <time>2022-02-22T09:49:36Z</time>
      </trkpt>
      <trkpt lat="43.58712" lon="3.50939">
        <ele>87</ele>
        <time>2022-02-22T09:49:41Z</time>
      </trkpt>
      <trkpt lat="43.58714" lon="3.50942">
        <ele>87</ele>
        <time>2022-02-22T09:49:46Z</time>
      </trkpt>
      <trkpt lat="43.58716" lon="3.50945">
        <ele>87</ele>
        <time>2022-02-22T09:49:54Z</time>
      </trkpt>
      <trkpt lat="43.58715" lon="3.50945">
        <ele>87</ele>
        <time>2022-02-22T09:52:35Z</time>
      </trkpt>
      <trkpt lat="43.58714" lon="3.50949">
        <ele>87</ele>
        <time>2022-02-22T09:54:41Z</time>
      </trkpt>
      <trkpt lat="43.58715" lon="3.50949">
        <ele>87</ele>
        <time>2022-02-22T09:54:53Z</time>
      </trkpt>
      <trkpt lat="43.58717" lon="3.50947">
        <ele>87</ele>
        <time>2022-02-22T09:56:53Z</time>
      </trkpt>
      <trkpt lat="43.58717" lon="3.50948">
        <ele>87</ele>
        <time>2022-02-22T09:57:02Z</time>
      </trkpt>
      <trkpt lat="43.58715" lon="3.5095">
        <ele>87</ele>
        <time>2022-02-22T09:57:21Z</time>
      </trkpt>
      <trkpt lat="43.58716" lon="3.50947">
        <ele>87</ele>
        <time>2022-02-22T09:58:44Z</time>
      </trkpt>
      <trkpt lat="43.58718" lon="3.50945">
        <ele>87</ele>
        <time>2022-02-22T09:58:49Z</time>
      </trkpt>
      <trkpt lat="43.5872" lon="3.50943">
        <ele>87</ele>
        <time>2022-02-22T09:58:53Z</time>
      </trkpt>
      <trkpt lat="43.58723" lon="3.50941">
        <ele>87</ele>
        <time>2022-02-22T09:58:56Z</time>
      </trkpt>
      <trkpt lat="43.58727" lon="3.5094">
        <ele>87</ele>
        <time>2022-02-22T09:58:59Z</time>
      </trkpt>
      <trkpt lat="43.5873" lon="3.50941">
        <ele>87</ele>
        <time>2022-02-22T09:59:02Z</time>
      </trkpt>
      <trkpt lat="43.58733" lon="3.50942">
        <ele>87</ele>
        <time>2022-02-22T09:59:05Z</time>
      </trkpt>
      <trkpt lat="43.58737" lon="3.50943">
        <ele>87</ele>
        <time>2022-02-22T09:59:09Z</time>
      </trkpt>
      <trkpt lat="43.5874" lon="3.50945">
        <ele>87</ele>
        <time>2022-02-22T09:59:12Z</time>
      </trkpt>
      <trkpt lat="43.58741" lon="3.50948">
        <ele>87</ele>
        <time>2022-02-22T09:59:21Z</time>
      </trkpt>
      <trkpt lat="43.5874" lon="3.50952">
        <ele>87</ele>
        <time>2022-02-22T09:59:24Z</time>
      </trkpt>
      <trkpt lat="43.58739" lon="3.50955">
        <ele>87</ele>
        <time>2022-02-22T09:59:30Z</time>
      </trkpt>
      <trkpt lat="43.58737" lon="3.50958">
        <ele>87</ele>
        <time>2022-02-22T09:59:37Z</time>
      </trkpt>
      <trkpt lat="43.58735" lon="3.5096">
        <ele>87</ele>
        <time>2022-02-22T09:59:41Z</time>
      </trkpt>
      <trkpt lat="43.58736" lon="3.5096">
        <ele>87</ele>
        <time>2022-02-22T10:00:05Z</time>
      </trkpt>
      <trkpt lat="43.58738" lon="3.50958">
        <ele>87</ele>
        <time>2022-02-22T10:00:11Z</time>
      </trkpt>
      <trkpt lat="43.5874" lon="3.50956">
        <ele>87</ele>
        <time>2022-02-22T10:00:16Z</time>
      </trkpt>
      <trkpt lat="43.58743" lon="3.50953">
        <ele>87</ele>
        <time>2022-02-22T10:00:23Z</time>
      </trkpt>
      <trkpt lat="43.58745" lon="3.50951">
        <ele>87</ele>
        <time>2022-02-22T10:00:27Z</time>
      </trkpt>
      <trkpt lat="43.58748" lon="3.5095">
        <ele>87</ele>
        <time>2022-02-22T10:00:30Z</time>
      </trkpt>
      <trkpt lat="43.5875" lon="3.50951">
        <ele>87</ele>
        <time>2022-02-22T10:00:33Z</time>
      </trkpt>
      <trkpt lat="43.58753" lon="3.50952">
        <ele>87</ele>
        <time>2022-02-22T10:00:36Z</time>
      </trkpt>
      <trkpt lat="43.58756" lon="3.50954">
        <ele>87</ele>
        <time>2022-02-22T10:00:39Z</time>
      </trkpt>
      <trkpt lat="43.58759" lon="3.50956">
        <ele>87</ele>
        <time>2022-02-22T10:00:41Z</time>
      </trkpt>
      <trkpt lat="43.58762" lon="3.50957">
        <ele>87</ele>
        <time>2022-02-22T10:00:43Z</time>
      </trkpt>
      <trkpt lat="43.58765" lon="3.50959">
        <ele>87</ele>
        <time>2022-02-22T10:00:46Z</time>
      </trkpt>
      <trkpt lat="43.58768" lon="3.50961">
        <ele>87</ele>
        <time>2022-02-22T10:00:49Z</time>
      </trkpt>
      <trkpt lat="43.58771" lon="3.50962">
        <ele>87</ele>
        <time>2022-02-22T10:00:52Z</time>
      </trkpt>
      <trkpt lat="43.58775" lon="3.50963">
        <ele>87</ele>
        <time>2022-02-22T10:00:55Z</time>
      </trkpt>
      <trkpt lat="43.58778" lon="3.50964">
        <ele>87</ele>
        <time>2022-02-22T10:00:57Z</time>
      </trkpt>
      <trkpt lat="43.58781" lon="3.50964">
        <ele>87</ele>
        <time>2022-02-22T10:00:59Z</time>
      </trkpt>
      <trkpt lat="43.58784" lon="3.50964">
        <ele>87</ele>
        <time>2022-02-22T10:01:01Z</time>
      </trkpt>
      <trkpt lat="43.58787" lon="3.50964">
        <ele>87</ele>
        <time>2022-02-22T10:01:03Z</time>
      </trkpt>
      <trkpt lat="43.5879" lon="3.50964">
        <ele>87</ele>
        <time>2022-02-22T10:01:06Z</time>
      </trkpt>
      <trkpt lat="43.58793" lon="3.50965">
        <ele>87</ele>
        <time>2022-02-22T10:01:08Z</time>
      </trkpt>
      <trkpt lat="43.58796" lon="3.50965">
        <ele>87</ele>
        <time>2022-02-22T10:01:10Z</time>
      </trkpt>
      <trkpt lat="43.58799" lon="3.50965">
        <ele>87</ele>
        <time>2022-02-22T10:01:13Z</time>
      </trkpt>
      <trkpt lat="43.58801" lon="3.50966">
        <ele>87</ele>
        <time>2022-02-22T10:01:16Z</time>
      </trkpt>
      <trkpt lat="43.58803" lon="3.5097">
        <ele>87</ele>
        <time>2022-02-22T10:01:19Z</time>
      </trkpt>
      <trkpt lat="43.58804" lon="3.50974">
        <ele>87</ele>
        <time>2022-02-22T10:01:23Z</time>
      </trkpt>
      <trkpt lat="43.58806" lon="3.50978">
        <ele>87</ele>
        <time>2022-02-22T10:01:26Z</time>
      </trkpt>
      <trkpt lat="43.58807" lon="3.50982">
        <ele>87</ele>
        <time>2022-02-22T10:01:30Z</time>
      </trkpt>
      <trkpt lat="43.58807" lon="3.50987">
        <ele>87</ele>
        <time>2022-02-22T10:01:33Z</time>
      </trkpt>
      <trkpt lat="43.58808" lon="3.50991">
        <ele>87</ele>
        <time>2022-02-22T10:01:40Z</time>
      </trkpt>
      <trkpt lat="43.58806" lon="3.50994">
        <ele>87</ele>
        <time>2022-02-22T10:01:50Z</time>
      </trkpt>
      <trkpt lat="43.58801" lon="3.50997">
        <ele>87</ele>
        <time>2022-02-22T10:02:16Z</time>
      </trkpt>
      <trkpt lat="43.58797" lon="3.50998">
        <ele>87</ele>
        <time>2022-02-22T10:02:20Z</time>
      </trkpt>
      <trkpt lat="43.58793" lon="3.50998">
        <ele>87</ele>
        <time>2022-02-22T10:02:26Z</time>
      </trkpt>
      <trkpt lat="43.5879" lon="3.50998">
        <ele>87</ele>
        <time>2022-02-22T10:02:31Z</time>
      </trkpt>
      <trkpt lat="43.58787" lon="3.51">
        <ele>87</ele>
        <time>2022-02-22T10:02:35Z</time>
      </trkpt>
      <trkpt lat="43.58786" lon="3.51003">
        <ele>87</ele>
        <time>2022-02-22T10:02:39Z</time>
      </trkpt>
      <trkpt lat="43.58785" lon="3.51007">
        <ele>87</ele>
        <time>2022-02-22T10:02:46Z</time>
      </trkpt>
      <trkpt lat="43.58784" lon="3.5101">
        <ele>87</ele>
        <time>2022-02-22T10:02:50Z</time>
      </trkpt>
      <trkpt lat="43.58782" lon="3.51014">
        <ele>87</ele>
        <time>2022-02-22T10:02:53Z</time>
      </trkpt>
      <trkpt lat="43.5878" lon="3.51017">
        <ele>87</ele>
        <time>2022-02-22T10:02:57Z</time>
      </trkpt>
      <trkpt lat="43.58778" lon="3.51019">
        <ele>87</ele>
        <time>2022-02-22T10:03:00Z</time>
      </trkpt>
      <trkpt lat="43.58776" lon="3.51021">
        <ele>87</ele>
        <time>2022-02-22T10:03:06Z</time>
      </trkpt>
      <trkpt lat="43.58773" lon="3.51023">
        <ele>87</ele>
        <time>2022-02-22T10:03:10Z</time>
      </trkpt>
      <trkpt lat="43.5877" lon="3.51025">
        <ele>87</ele>
        <time>2022-02-22T10:03:15Z</time>
      </trkpt>
      <trkpt lat="43.58768" lon="3.51027">
        <ele>87</ele>
        <time>2022-02-22T10:03:18Z</time>
      </trkpt>
      <trkpt lat="43.58765" lon="3.51029">
        <ele>87</ele>
        <time>2022-02-22T10:03:21Z</time>
      </trkpt>
      <trkpt lat="43.58762" lon="3.51031">
        <ele>87</ele>
        <time>2022-02-22T10:03:27Z</time>
      </trkpt>
      <trkpt lat="43.58759" lon="3.51034">
        <ele>87</ele>
        <time>2022-02-22T10:03:31Z</time>
      </trkpt>
      <trkpt lat="43.58756" lon="3.51036">
        <ele>87</ele>
        <time>2022-02-22T10:03:35Z</time>
      </trkpt>
      <trkpt lat="43.58753" lon="3.51037">
        <ele>87</ele>
        <time>2022-02-22T10:03:38Z</time>
      </trkpt>
      <trkpt lat="43.58751" lon="3.51036">
        <ele>87</ele>
        <time>2022-02-22T10:03:46Z</time>
      </trkpt>
      <trkpt lat="43.58748" lon="3.51034">
        <ele>87</ele>
        <time>2022-02-22T10:03:57Z</time>
      </trkpt>
      <trkpt lat="43.58746" lon="3.51031">
        <ele>87</ele>
        <time>2022-02-22T10:04:00Z</time>
      </trkpt>
      <trkpt lat="43.58744" lon="3.51028">
        <ele>87</ele>
        <time>2022-02-22T10:04:03Z</time>
      </trkpt>
      <trkpt lat="43.58742" lon="3.51025">
        <ele>87</ele>
        <time>2022-02-22T10:04:08Z</time>
      </trkpt>
      <trkpt lat="43.58739" lon="3.51022">
        <ele>87</ele>
        <time>2022-02-22T10:04:11Z</time>
      </trkpt>
      <trkpt lat="43.58736" lon="3.5102">
        <ele>87</ele>
        <time>2022-02-22T10:04:15Z</time>
      </trkpt>
      <trkpt lat="43.58733" lon="3.51018">
        <ele>87</ele>
        <time>2022-02-22T10:04:19Z</time>
      </trkpt>
      <trkpt lat="43.58732" lon="3.51013">
        <ele>87</ele>
        <time>2022-02-22T10:04:50Z</time>
      </trkpt>
      <trkpt lat="43.58731" lon="3.51009">
        <ele>87</ele>
        <time>2022-02-22T10:06:12Z</time>
      </trkpt>
      <trkpt lat="43.58731" lon="3.51005">
        <ele>87</ele>
        <time>2022-02-22T10:06:17Z</time>
      </trkpt>
      <trkpt lat="43.58732" lon="3.51">
        <ele>87</ele>
        <time>2022-02-22T10:06:21Z</time>
      </trkpt>
      <trkpt lat="43.5873" lon="3.50998">
        <ele>87</ele>
        <time>2022-02-22T10:06:27Z</time>
      </trkpt>
      <trkpt lat="43.58727" lon="3.50997">
        <ele>87</ele>
        <time>2022-02-22T10:06:30Z</time>
      </trkpt>
      <trkpt lat="43.58725" lon="3.50997">
        <ele>87</ele>
        <time>2022-02-22T10:06:33Z</time>
      </trkpt>
      <trkpt lat="43.58722" lon="3.50997">
        <ele>87</ele>
        <time>2022-02-22T10:06:39Z</time>
      </trkpt>
      <trkpt lat="43.58719" lon="3.50997">
        <ele>87</ele>
        <time>2022-02-22T10:06:46Z</time>
      </trkpt>
      <trkpt lat="43.58717" lon="3.50999">
        <ele>87</ele>
        <time>2022-02-22T10:06:51Z</time>
      </trkpt>
      <trkpt lat="43.58714" lon="3.51001">
        <ele>87</ele>
        <time>2022-02-22T10:06:58Z</time>
      </trkpt>
      <trkpt lat="43.58713" lon="3.51005">
        <ele>87</ele>
        <time>2022-02-22T10:07:03Z</time>
      </trkpt>
      <trkpt lat="43.58711" lon="3.51007">
        <ele>87</ele>
        <time>2022-02-22T10:07:10Z</time>
      </trkpt>
      <trkpt lat="43.58708" lon="3.51009">
        <ele>87</ele>
        <time>2022-02-22T10:07:15Z</time>
      </trkpt>
      <trkpt lat="43.58706" lon="3.51008">
        <ele>87</ele>
        <time>2022-02-22T10:07:24Z</time>
      </trkpt>
      <trkpt lat="43.58704" lon="3.51006">
        <ele>87</ele>
        <time>2022-02-22T10:07:28Z</time>
      </trkpt>
      <trkpt lat="43.58703" lon="3.51003">
        <ele>87</ele>
        <time>2022-02-22T10:07:32Z</time>
      </trkpt>
      <trkpt lat="43.587" lon="3.51001">
        <ele>87</ele>
        <time>2022-02-22T10:07:36Z</time>
      </trkpt>
      <trkpt lat="43.58697" lon="3.51">
        <ele>87</ele>
        <time>2022-02-22T10:07:40Z</time>
      </trkpt>
      <trkpt lat="43.58695" lon="3.51001">
        <ele>87</ele>
        <time>2022-02-22T10:07:46Z</time>
      </trkpt>
      <trkpt lat="43.58692" lon="3.51002">
        <ele>87</ele>
        <time>2022-02-22T10:07:55Z</time>
      </trkpt>
      <trkpt lat="43.5869" lon="3.51005">
        <ele>87</ele>
        <time>2022-02-22T10:08:01Z</time>
      </trkpt>
      <trkpt lat="43.58688" lon="3.51007">
        <ele>87</ele>
        <time>2022-02-22T10:08:11Z</time>
      </trkpt>
      <trkpt lat="43.58688" lon="3.51011">
        <ele>87</ele>
        <time>2022-02-22T10:08:17Z</time>
      </trkpt>
      <trkpt lat="43.58688" lon="3.51014">
        <ele>87</ele>
        <time>2022-02-22T10:09:30Z</time>
      </trkpt>
      <trkpt lat="43.5869" lon="3.51018">
        <ele>87</ele>
        <time>2022-02-22T10:09:34Z</time>
      </trkpt>
      <trkpt lat="43.58692" lon="3.51021">
        <ele>87</ele>
        <time>2022-02-22T10:09:41Z</time>
      </trkpt>
      <trkpt lat="43.58693" lon="3.51024">
        <ele>87</ele>
        <time>2022-02-22T10:09:47Z</time>
      </trkpt>
      <trkpt lat="43.58693" lon="3.51028">
        <ele>87</ele>
        <time>2022-02-22T10:09:51Z</time>
      </trkpt>
      <trkpt lat="43.58693" lon="3.51033">
        <ele>87</ele>
        <time>2022-02-22T10:10:09Z</time>
      </trkpt>
      <trkpt lat="43.58694" lon="3.51033">
        <ele>87</ele>
        <time>2022-02-22T10:11:04Z</time>
      </trkpt>
      <trkpt lat="43.58695" lon="3.51031">
        <ele>87</ele>
        <time>2022-02-22T10:11:07Z</time>
      </trkpt>
      <trkpt lat="43.58694" lon="3.51028">
        <ele>87</ele>
        <time>2022-02-22T10:11:10Z</time>
      </trkpt>
      <trkpt lat="43.58693" lon="3.51024">
        <ele>87</ele>
        <time>2022-02-22T10:11:14Z</time>
      </trkpt>
      <trkpt lat="43.58692" lon="3.5102">
        <ele>87</ele>
        <time>2022-02-22T10:11:27Z</time>
      </trkpt>
      <trkpt lat="43.5869" lon="3.51017">
        <ele>87</ele>
        <time>2022-02-22T10:11:40Z</time>
      </trkpt>
      <trkpt lat="43.58689" lon="3.51013">
        <ele>87</ele>
        <time>2022-02-22T10:11:43Z</time>
      </trkpt>
      <trkpt lat="43.58687" lon="3.51009">
        <ele>87</ele>
        <time>2022-02-22T10:11:46Z</time>
      </trkpt>
      <trkpt lat="43.58685" lon="3.51006">
        <ele>87</ele>
        <time>2022-02-22T10:11:51Z</time>
      </trkpt>
      <trkpt lat="43.58682" lon="3.51005">
        <ele>87</ele>
        <time>2022-02-22T10:11:55Z</time>
      </trkpt>
      <trkpt lat="43.58679" lon="3.51004">
        <ele>87</ele>
        <time>2022-02-22T10:11:58Z</time>
      </trkpt>
      <trkpt lat="43.58675" lon="3.51004">
        <ele>87</ele>
        <time>2022-02-22T10:12:01Z</time>
      </trkpt>
      <trkpt lat="43.58672" lon="3.51004">
        <ele>87</ele>
        <time>2022-02-22T10:12:04Z</time>
      </trkpt>
      <trkpt lat="43.58669" lon="3.51005">
        <ele>87</ele>
        <time>2022-02-22T10:12:07Z</time>
      </trkpt>
      <trkpt lat="43.58666" lon="3.51006">
        <ele>87</ele>
        <time>2022-02-22T10:12:11Z</time>
      </trkpt>
      <trkpt lat="43.58663" lon="3.51007">
        <ele>87</ele>
        <time>2022-02-22T10:12:17Z</time>
      </trkpt>
      <trkpt lat="43.58661" lon="3.51006">
        <ele>87</ele>
        <time>2022-02-22T10:12:22Z</time>
      </trkpt>
      <trkpt lat="43.58658" lon="3.51005">
        <ele>87</ele>
        <time>2022-02-22T10:12:26Z</time>
      </trkpt>
      <trkpt lat="43.58659" lon="3.51004">
        <ele>87</ele>
        <time>2022-02-22T10:12:44Z</time>
      </trkpt>
      <trkpt lat="43.5866" lon="3.51006">
        <ele>87</ele>
        <time>2022-02-22T10:12:47Z</time>
      </trkpt>
      <trkpt lat="43.58659" lon="3.51007">
        <ele>87</ele>
        <time>2022-02-22T10:12:57Z</time>
      </trkpt>
      <trkpt lat="43.58657" lon="3.51005">
        <ele>87</ele>
        <time>2022-02-22T10:13:00Z</time>
      </trkpt>
      <trkpt lat="43.58656" lon="3.51006">
        <ele>87</ele>
        <time>2022-02-22T10:13:03Z</time>
      </trkpt>
      <trkpt lat="43.58657" lon="3.51009">
        <ele>87</ele>
        <time>2022-02-22T10:13:05Z</time>
      </trkpt>
      <trkpt lat="43.58658" lon="3.51012">
        <ele>87</ele>
        <time>2022-02-22T10:13:07Z</time>
      </trkpt>
      <trkpt lat="43.5866" lon="3.51015">
        <ele>87</ele>
        <time>2022-02-22T10:13:34Z</time>
      </trkpt>
      <trkpt lat="43.58662" lon="3.51018">
        <ele>87</ele>
        <time>2022-02-22T10:14:07Z</time>
      </trkpt>
      <trkpt lat="43.58663" lon="3.51015">
        <ele>87</ele>
        <time>2022-02-22T10:14:23Z</time>
      </trkpt>
      <trkpt lat="43.58665" lon="3.51008">
        <ele>87</ele>
        <time>2022-02-22T10:15:23Z</time>
      </trkpt>
      <trkpt lat="43.58667" lon="3.51005">
        <ele>87</ele>
        <time>2022-02-22T10:15:28Z</time>
      </trkpt>
      <trkpt lat="43.5867" lon="3.51004">
        <ele>87</ele>
        <time>2022-02-22T10:15:34Z</time>
      </trkpt>
      <trkpt lat="43.58673" lon="3.51004">
        <ele>87</ele>
        <time>2022-02-22T10:15:40Z</time>
      </trkpt>
      <trkpt lat="43.58676" lon="3.51004">
        <ele>87</ele>
        <time>2022-02-22T10:15:46Z</time>
      </trkpt>
      <trkpt lat="43.58679" lon="3.51004">
        <ele>87</ele>
        <time>2022-02-22T10:15:51Z</time>
      </trkpt>
      <trkpt lat="43.58682" lon="3.51004">
        <ele>87</ele>
        <time>2022-02-22T10:15:58Z</time>
      </trkpt>
      <trkpt lat="43.58684" lon="3.51007">
        <ele>87</ele>
        <time>2022-02-22T10:16:04Z</time>
      </trkpt>
      <trkpt lat="43.58686" lon="3.5101">
        <ele>87</ele>
        <time>2022-02-22T10:16:08Z</time>
      </trkpt>
      <trkpt lat="43.58688" lon="3.51014">
        <ele>87</ele>
        <time>2022-02-22T10:16:12Z</time>
      </trkpt>
      <trkpt lat="43.58691" lon="3.51017">
        <ele>87</ele>
        <time>2022-02-22T10:16:15Z</time>
      </trkpt>
      <trkpt lat="43.58693" lon="3.5102">
        <ele>87</ele>
        <time>2022-02-22T10:16:19Z</time>
      </trkpt>
      <trkpt lat="43.58694" lon="3.51024">
        <ele>87</ele>
        <time>2022-02-22T10:16:23Z</time>
      </trkpt>
      <trkpt lat="43.58695" lon="3.51028">
        <ele>87</ele>
        <time>2022-02-22T10:16:27Z</time>
      </trkpt>
      <trkpt lat="43.58696" lon="3.51032">
        <ele>87</ele>
        <time>2022-02-22T10:16:29Z</time>
      </trkpt>
      <trkpt lat="43.58698" lon="3.51035">
        <ele>87</ele>
        <time>2022-02-22T10:16:31Z</time>
      </trkpt>
      <trkpt lat="43.58699" lon="3.51039">
        <ele>87</ele>
        <time>2022-02-22T10:16:33Z</time>
      </trkpt>
      <trkpt lat="43.58701" lon="3.51042">
        <ele>87</ele>
        <time>2022-02-22T10:16:35Z</time>
      </trkpt>
      <trkpt lat="43.58703" lon="3.51045">
        <ele>87</ele>
        <time>2022-02-22T10:16:37Z</time>
      </trkpt>
      <trkpt lat="43.58705" lon="3.51048">
        <ele>87</ele>
        <time>2022-02-22T10:16:40Z</time>
      </trkpt>
      <trkpt lat="43.58708" lon="3.51051">
        <ele>87</ele>
        <time>2022-02-22T10:16:42Z</time>
      </trkpt>
      <trkpt lat="43.5871" lon="3.51054">
        <ele>87</ele>
        <time>2022-02-22T10:16:45Z</time>
      </trkpt>
      <trkpt lat="43.58711" lon="3.51058">
        <ele>87</ele>
        <time>2022-02-22T10:16:48Z</time>
      </trkpt>
      <trkpt lat="43.58712" lon="3.51062">
        <ele>87</ele>
        <time>2022-02-22T10:16:54Z</time>
      </trkpt>
      <trkpt lat="43.58714" lon="3.51065">
        <ele>87</ele>
        <time>2022-02-22T10:17:11Z</time>
      </trkpt>
      <trkpt lat="43.58717" lon="3.51067">
        <ele>87</ele>
        <time>2022-02-22T10:17:14Z</time>
      </trkpt>
      <trkpt lat="43.5872" lon="3.51068">
        <ele>87</ele>
        <time>2022-02-22T10:17:20Z</time>
      </trkpt>
      <trkpt lat="43.58723" lon="3.51069">
        <ele>87</ele>
        <time>2022-02-22T10:17:24Z</time>
      </trkpt>
      <trkpt lat="43.58726" lon="3.51071">
        <ele>87</ele>
        <time>2022-02-22T10:17:28Z</time>
      </trkpt>
      <trkpt lat="43.58728" lon="3.51072">
        <ele>87</ele>
        <time>2022-02-22T10:17:32Z</time>
      </trkpt>
      <trkpt lat="43.58731" lon="3.51072">
        <ele>87</ele>
        <time>2022-02-22T10:17:38Z</time>
      </trkpt>
      <trkpt lat="43.58734" lon="3.51072">
        <ele>87</ele>
        <time>2022-02-22T10:17:41Z</time>
      </trkpt>
      <trkpt lat="43.58737" lon="3.51072">
        <ele>87</ele>
        <time>2022-02-22T10:17:44Z</time>
      </trkpt>
      <trkpt lat="43.5874" lon="3.51073">
        <ele>87</ele>
        <time>2022-02-22T10:17:47Z</time>
      </trkpt>
      <trkpt lat="43.58743" lon="3.51074">
        <ele>87</ele>
        <time>2022-02-22T10:17:50Z</time>
      </trkpt>
      <trkpt lat="43.58746" lon="3.51076">
        <ele>87</ele>
        <time>2022-02-22T10:17:53Z</time>
      </trkpt>
      <trkpt lat="43.58748" lon="3.51079">
        <ele>87</ele>
        <time>2022-02-22T10:18:00Z</time>
      </trkpt>
      <trkpt lat="43.58748" lon="3.51083">
        <ele>87</ele>
        <time>2022-02-22T10:18:05Z</time>
      </trkpt>
      <trkpt lat="43.58748" lon="3.51087">
        <ele>87</ele>
        <time>2022-02-22T10:18:11Z</time>
      </trkpt>
      <trkpt lat="43.58747" lon="3.51091">
        <ele>87</ele>
        <time>2022-02-22T10:18:15Z</time>
      </trkpt>
      <trkpt lat="43.58746" lon="3.51096">
        <ele>87</ele>
        <time>2022-02-22T10:18:19Z</time>
      </trkpt>
      <trkpt lat="43.58747" lon="3.51099">
        <ele>87</ele>
        <time>2022-02-22T10:18:24Z</time>
      </trkpt>
      <trkpt lat="43.58747" lon="3.51104">
        <ele>87</ele>
        <time>2022-02-22T10:18:29Z</time>
      </trkpt>
      <trkpt lat="43.58748" lon="3.51107">
        <ele>87</ele>
        <time>2022-02-22T10:18:33Z</time>
      </trkpt>
      <trkpt lat="43.5875" lon="3.51109">
        <ele>87</ele>
        <time>2022-02-22T10:18:37Z</time>
      </trkpt>
      <trkpt lat="43.58753" lon="3.5111">
        <ele>87</ele>
        <time>2022-02-22T10:18:40Z</time>
      </trkpt>
      <trkpt lat="43.58755" lon="3.51112">
        <ele>87</ele>
        <time>2022-02-22T10:18:45Z</time>
      </trkpt>
      <trkpt lat="43.58757" lon="3.51115">
        <ele>87</ele>
        <time>2022-02-22T10:18:49Z</time>
      </trkpt>
      <trkpt lat="43.58758" lon="3.51119">
        <ele>87</ele>
        <time>2022-02-22T10:18:54Z</time>
      </trkpt>
      <trkpt lat="43.5876" lon="3.51121">
        <ele>87</ele>
        <time>2022-02-22T10:19:02Z</time>
      </trkpt>
      <trkpt lat="43.58763" lon="3.51123">
        <ele>87</ele>
        <time>2022-02-22T10:19:08Z</time>
      </trkpt>
      <trkpt lat="43.58765" lon="3.51126">
        <ele>87</ele>
        <time>2022-02-22T10:19:13Z</time>
      </trkpt>
      <trkpt lat="43.58767" lon="3.51129">
        <ele>87</ele>
        <time>2022-02-22T10:19:18Z</time>
      </trkpt>
      <trkpt lat="43.58769" lon="3.51133">
        <ele>87</ele>
        <time>2022-02-22T10:19:21Z</time>
      </trkpt>
      <trkpt lat="43.5877" lon="3.51137">
        <ele>87</ele>
        <time>2022-02-22T10:19:25Z</time>
      </trkpt>
      <trkpt lat="43.58772" lon="3.5114">
        <ele>87</ele>
        <time>2022-02-22T10:19:29Z</time>
      </trkpt>
      <trkpt lat="43.58774" lon="3.51144">
        <ele>87</ele>
        <time>2022-02-22T10:19:32Z</time>
      </trkpt>
      <trkpt lat="43.58775" lon="3.51147">
        <ele>87</ele>
        <time>2022-02-22T10:19:38Z</time>
      </trkpt>
      <trkpt lat="43.58777" lon="3.51153">
        <ele>87</ele>
        <time>2022-02-22T10:20:03Z</time>
      </trkpt>
      <trkpt lat="43.5878" lon="3.51156">
        <ele>87</ele>
        <time>2022-02-22T10:20:09Z</time>
      </trkpt>
      <trkpt lat="43.58783" lon="3.51158">
        <ele>87</ele>
        <time>2022-02-22T10:22:00Z</time>
      </trkpt>
      <trkpt lat="43.58786" lon="3.51162">
        <ele>87</ele>
        <time>2022-02-22T10:22:03Z</time>
      </trkpt>
      <trkpt lat="43.58788" lon="3.51165">
        <ele>87</ele>
        <time>2022-02-22T10:22:06Z</time>
      </trkpt>
      <trkpt lat="43.58788" lon="3.51168">
        <ele>87</ele>
        <time>2022-02-22T10:22:11Z</time>
      </trkpt>
      <trkpt lat="43.58786" lon="3.51171">
        <ele>87</ele>
        <time>2022-02-22T10:22:16Z</time>
      </trkpt>
      <trkpt lat="43.58784" lon="3.51173">
        <ele>87</ele>
        <time>2022-02-22T10:22:19Z</time>
      </trkpt>
      <trkpt lat="43.58781" lon="3.51175">
        <ele>87</ele>
        <time>2022-02-22T10:22:22Z</time>
      </trkpt>
      <trkpt lat="43.58778" lon="3.51177">
        <ele>87</ele>
        <time>2022-02-22T10:22:25Z</time>
      </trkpt>
      <trkpt lat="43.58776" lon="3.51179">
        <ele>87</ele>
        <time>2022-02-22T10:22:28Z</time>
      </trkpt>
      <trkpt lat="43.58774" lon="3.51182">
        <ele>87</ele>
        <time>2022-02-22T10:22:34Z</time>
      </trkpt>
      <trkpt lat="43.58775" lon="3.51186">
        <ele>87</ele>
        <time>2022-02-22T10:22:37Z</time>
      </trkpt>
      <trkpt lat="43.58776" lon="3.5119">
        <ele>87</ele>
        <time>2022-02-22T10:22:40Z</time>
      </trkpt>
      <trkpt lat="43.58777" lon="3.51194">
        <ele>87</ele>
        <time>2022-02-22T10:22:45Z</time>
      </trkpt>
      <trkpt lat="43.58777" lon="3.51197">
        <ele>87</ele>
        <time>2022-02-22T10:22:49Z</time>
      </trkpt>
      <trkpt lat="43.58775" lon="3.51201">
        <ele>87</ele>
        <time>2022-02-22T10:22:53Z</time>
      </trkpt>
      <trkpt lat="43.58775" lon="3.51205">
        <ele>87</ele>
        <time>2022-02-22T10:22:56Z</time>
      </trkpt>
      <trkpt lat="43.58775" lon="3.51209">
        <ele>87</ele>
        <time>2022-02-22T10:22:58Z</time>
      </trkpt>
      <trkpt lat="43.58776" lon="3.51213">
        <ele>87</ele>
        <time>2022-02-22T10:23:01Z</time>
      </trkpt>
      <trkpt lat="43.58779" lon="3.51215">
        <ele>87</ele>
        <time>2022-02-22T10:23:04Z</time>
      </trkpt>
      <trkpt lat="43.58781" lon="3.51218">
        <ele>87</ele>
        <time>2022-02-22T10:23:07Z</time>
      </trkpt>
      <trkpt lat="43.58781" lon="3.51222">
        <ele>87</ele>
        <time>2022-02-22T10:23:11Z</time>
      </trkpt>
      <trkpt lat="43.58782" lon="3.51225">
        <ele>87</ele>
        <time>2022-02-22T10:23:14Z</time>
      </trkpt>
      <trkpt lat="43.58785" lon="3.51228">
        <ele>87</ele>
        <time>2022-02-22T10:23:17Z</time>
      </trkpt>
      <trkpt lat="43.58787" lon="3.51231">
        <ele>87</ele>
        <time>2022-02-22T10:23:20Z</time>
      </trkpt>
      <trkpt lat="43.58789" lon="3.51235">
        <ele>87</ele>
        <time>2022-02-22T10:23:23Z</time>
      </trkpt>
      <trkpt lat="43.5879" lon="3.51239">
        <ele>87</ele>
        <time>2022-02-22T10:23:27Z</time>
      </trkpt>
      <trkpt lat="43.5879" lon="3.51243">
        <ele>87</ele>
        <time>2022-02-22T10:23:30Z</time>
      </trkpt>
      <trkpt lat="43.58789" lon="3.51247">
        <ele>87</ele>
        <time>2022-02-22T10:23:33Z</time>
      </trkpt>
      <trkpt lat="43.58788" lon="3.51251">
        <ele>87</ele>
        <time>2022-02-22T10:23:36Z</time>
      </trkpt>
      <trkpt lat="43.58786" lon="3.51255">
        <ele>87</ele>
        <time>2022-02-22T10:23:40Z</time>
      </trkpt>
      <trkpt lat="43.58785" lon="3.51259">
        <ele>87</ele>
        <time>2022-02-22T10:23:43Z</time>
      </trkpt>
      <trkpt lat="43.58784" lon="3.51264">
        <ele>87</ele>
        <time>2022-02-22T10:23:47Z</time>
      </trkpt>
      <trkpt lat="43.58785" lon="3.51268">
        <ele>87</ele>
        <time>2022-02-22T10:23:50Z</time>
      </trkpt>
      <trkpt lat="43.58787" lon="3.51272">
        <ele>87</ele>
        <time>2022-02-22T10:23:53Z</time>
      </trkpt>
      <trkpt lat="43.58788" lon="3.51275">
        <ele>87</ele>
        <time>2022-02-22T10:23:57Z</time>
      </trkpt>
      <trkpt lat="43.58787" lon="3.51279">
        <ele>87</ele>
        <time>2022-02-22T10:24:03Z</time>
      </trkpt>
      <trkpt lat="43.58786" lon="3.51282">
        <ele>87</ele>
        <time>2022-02-22T10:24:09Z</time>
      </trkpt>
      <trkpt lat="43.58783" lon="3.51284">
        <ele>87</ele>
        <time>2022-02-22T10:24:13Z</time>
      </trkpt>
      <trkpt lat="43.5878" lon="3.51285">
        <ele>87</ele>
        <time>2022-02-22T10:24:17Z</time>
      </trkpt>
      <trkpt lat="43.58778" lon="3.51288">
        <ele>87</ele>
        <time>2022-02-22T10:24:20Z</time>
      </trkpt>
      <trkpt lat="43.58777" lon="3.51291">
        <ele>87</ele>
        <time>2022-02-22T10:24:23Z</time>
      </trkpt>
      <trkpt lat="43.58779" lon="3.51294">
        <ele>87</ele>
        <time>2022-02-22T10:24:26Z</time>
      </trkpt>
      <trkpt lat="43.58781" lon="3.51294">
        <ele>87</ele>
        <time>2022-02-22T10:24:30Z</time>
      </trkpt>
      <trkpt lat="43.58784" lon="3.51293">
        <ele>87</ele>
        <time>2022-02-22T10:24:33Z</time>
      </trkpt>
      <trkpt lat="43.58786" lon="3.51291">
        <ele>87</ele>
        <time>2022-02-22T10:24:36Z</time>
      </trkpt>
      <trkpt lat="43.58789" lon="3.5129">
        <ele>87</ele>
        <time>2022-02-22T10:24:39Z</time>
      </trkpt>
      <trkpt lat="43.58793" lon="3.5129">
        <ele>87</ele>
        <time>2022-02-22T10:24:42Z</time>
      </trkpt>
      <trkpt lat="43.58796" lon="3.51289">
        <ele>87</ele>
        <time>2022-02-22T10:24:45Z</time>
      </trkpt>
      <trkpt lat="43.58798" lon="3.51288">
        <ele>87</ele>
        <time>2022-02-22T10:24:49Z</time>
      </trkpt>
      <trkpt lat="43.58801" lon="3.51286">
        <ele>87</ele>
        <time>2022-02-22T10:24:55Z</time>
      </trkpt>
      <trkpt lat="43.58804" lon="3.51284">
        <ele>87</ele>
        <time>2022-02-22T10:24:58Z</time>
      </trkpt>
      <trkpt lat="43.58807" lon="3.51281">
        <ele>87</ele>
        <time>2022-02-22T10:25:01Z</time>
      </trkpt>
      <trkpt lat="43.58809" lon="3.51278">
        <ele>87</ele>
        <time>2022-02-22T10:25:04Z</time>
      </trkpt>
      <trkpt lat="43.58812" lon="3.51276">
        <ele>87</ele>
        <time>2022-02-22T10:25:08Z</time>
      </trkpt>
      <trkpt lat="43.58815" lon="3.51274">
        <ele>87</ele>
        <time>2022-02-22T10:25:11Z</time>
      </trkpt>
      <trkpt lat="43.58818" lon="3.51272">
        <ele>87</ele>
        <time>2022-02-22T10:25:14Z</time>
      </trkpt>
      <trkpt lat="43.58822" lon="3.51272">
        <ele>87</ele>
        <time>2022-02-22T10:25:17Z</time>
      </trkpt>
      <trkpt lat="43.58825" lon="3.51273">
        <ele>87</ele>
        <time>2022-02-22T10:25:21Z</time>
      </trkpt>
      <trkpt lat="43.58828" lon="3.51273">
        <ele>87</ele>
        <time>2022-02-22T10:25:24Z</time>
      </trkpt>
      <trkpt lat="43.58831" lon="3.51273">
        <ele>87</ele>
        <time>2022-02-22T10:25:27Z</time>
      </trkpt>
      <trkpt lat="43.58835" lon="3.51273">
        <ele>87</ele>
        <time>2022-02-22T10:25:31Z</time>
      </trkpt>
      <trkpt lat="43.58838" lon="3.51273">
        <ele>87</ele>
        <time>2022-02-22T10:25:35Z</time>
      </trkpt>
      <trkpt lat="43.58841" lon="3.51275">
        <ele>87</ele>
        <time>2022-02-22T10:25:41Z</time>
      </trkpt>
      <trkpt lat="43.58841" lon="3.51278">
        <ele>87</ele>
        <time>2022-02-22T10:25:45Z</time>
      </trkpt>
      <trkpt lat="43.5884" lon="3.51281">
        <ele>87</ele>
        <time>2022-02-22T10:25:47Z</time>
      </trkpt>
      <trkpt lat="43.58838" lon="3.51284">
        <ele>87</ele>
        <time>2022-02-22T10:25:50Z</time>
      </trkpt>
      <trkpt lat="43.58837" lon="3.51288">
        <ele>87</ele>
        <time>2022-02-22T10:25:52Z</time>
      </trkpt>
      <trkpt lat="43.58836" lon="3.51292">
        <ele>87</ele>
        <time>2022-02-22T10:25:54Z</time>
      </trkpt>
      <trkpt lat="43.58834" lon="3.51295">
        <ele>87</ele>
        <time>2022-02-22T10:25:56Z</time>
      </trkpt>
      <trkpt lat="43.58834" lon="3.513">
        <ele>87</ele>
        <time>2022-02-22T10:25:59Z</time>
      </trkpt>
      <trkpt lat="43.58835" lon="3.51304">
        <ele>87</ele>
        <time>2022-02-22T10:26:02Z</time>
      </trkpt>
      <trkpt lat="43.58835" lon="3.51309">
        <ele>87</ele>
        <time>2022-02-22T10:26:05Z</time>
      </trkpt>
      <trkpt lat="43.58835" lon="3.51313">
        <ele>87</ele>
        <time>2022-02-22T10:26:07Z</time>
      </trkpt>
      <trkpt lat="43.58835" lon="3.51317">
        <ele>87</ele>
        <time>2022-02-22T10:26:10Z</time>
      </trkpt>
      <trkpt lat="43.58835" lon="3.51322">
        <ele>87</ele>
        <time>2022-02-22T10:26:13Z</time>
      </trkpt>
      <trkpt lat="43.58834" lon="3.51326">
        <ele>87</ele>
        <time>2022-02-22T10:26:16Z</time>
      </trkpt>
      <trkpt lat="43.58834" lon="3.51331">
        <ele>87</ele>
        <time>2022-02-22T10:26:19Z</time>
      </trkpt>
      <trkpt lat="43.58833" lon="3.51335">
        <ele>87</ele>
        <time>2022-02-22T10:26:22Z</time>
      </trkpt>
      <trkpt lat="43.58833" lon="3.51339">
        <ele>87</ele>
        <time>2022-02-22T10:26:25Z</time>
      </trkpt>
      <trkpt lat="43.58833" lon="3.51343">
        <ele>87</ele>
        <time>2022-02-22T10:26:28Z</time>
      </trkpt>
      <trkpt lat="43.58833" lon="3.51348">
        <ele>87</ele>
        <time>2022-02-22T10:26:31Z</time>
      </trkpt>
      <trkpt lat="43.58831" lon="3.51352">
        <ele>87</ele>
        <time>2022-02-22T10:26:34Z</time>
      </trkpt>
      <trkpt lat="43.5883" lon="3.51356">
        <ele>87</ele>
        <time>2022-02-22T10:26:37Z</time>
      </trkpt>
      <trkpt lat="43.58828" lon="3.51361">
        <ele>87</ele>
        <time>2022-02-22T10:26:40Z</time>
      </trkpt>
      <trkpt lat="43.58826" lon="3.51364">
        <ele>87</ele>
        <time>2022-02-22T10:26:43Z</time>
      </trkpt>
      <trkpt lat="43.58824" lon="3.51368">
        <ele>87</ele>
        <time>2022-02-22T10:26:46Z</time>
      </trkpt>
      <trkpt lat="43.58821" lon="3.51372">
        <ele>87</ele>
        <time>2022-02-22T10:26:49Z</time>
      </trkpt>
      <trkpt lat="43.5882" lon="3.51376">
        <ele>87</ele>
        <time>2022-02-22T10:26:53Z</time>
      </trkpt>
      <trkpt lat="43.58818" lon="3.5138">
        <ele>87</ele>
        <time>2022-02-22T10:26:56Z</time>
      </trkpt>
      <trkpt lat="43.58817" lon="3.51384">
        <ele>87</ele>
        <time>2022-02-22T10:27:00Z</time>
      </trkpt>
      <trkpt lat="43.58815" lon="3.51388">
        <ele>87</ele>
        <time>2022-02-22T10:27:04Z</time>
      </trkpt>
      <trkpt lat="43.58814" lon="3.51393">
        <ele>87</ele>
        <time>2022-02-22T10:27:07Z</time>
      </trkpt>
      <trkpt lat="43.58815" lon="3.51396">
        <ele>87</ele>
        <time>2022-02-22T10:27:19Z</time>
      </trkpt>
      <trkpt lat="43.58816" lon="3.51395">
        <ele>87</ele>
        <time>2022-02-22T10:27:24Z</time>
      </trkpt>
      <trkpt lat="43.58817" lon="3.51392">
        <ele>87</ele>
        <time>2022-02-22T10:27:27Z</time>
      </trkpt>
      <trkpt lat="43.58818" lon="3.51388">
        <ele>87</ele>
        <time>2022-02-22T10:27:30Z</time>
      </trkpt>
      <trkpt lat="43.58819" lon="3.51385">
        <ele>87</ele>
        <time>2022-02-22T10:27:33Z</time>
      </trkpt>
      <trkpt lat="43.5882" lon="3.51381">
        <ele>87</ele>
        <time>2022-02-22T10:27:35Z</time>
      </trkpt>
      <trkpt lat="43.58821" lon="3.51377">
        <ele>87</ele>
        <time>2022-02-22T10:27:39Z</time>
      </trkpt>
      <trkpt lat="43.58823" lon="3.51374">
        <ele>87</ele>
        <time>2022-02-22T10:27:42Z</time>
      </trkpt>
      <trkpt lat="43.58824" lon="3.5137">
        <ele>87</ele>
        <time>2022-02-22T10:27:45Z</time>
      </trkpt>
      <trkpt lat="43.58827" lon="3.51367">
        <ele>87</ele>
        <time>2022-02-22T10:27:49Z</time>
      </trkpt>
      <trkpt lat="43.58829" lon="3.51364">
        <ele>87</ele>
        <time>2022-02-22T10:27:54Z</time>
      </trkpt>
      <trkpt lat="43.58829" lon="3.51365">
        <ele>87</ele>
        <time>2022-02-22T10:29:06Z</time>
      </trkpt>
      <trkpt lat="43.58828" lon="3.51368">
        <ele>87</ele>
        <time>2022-02-22T10:29:09Z</time>
      </trkpt>
      <trkpt lat="43.58826" lon="3.5137">
        <ele>87</ele>
        <time>2022-02-22T10:29:12Z</time>
      </trkpt>
      <trkpt lat="43.58824" lon="3.51374">
        <ele>87</ele>
        <time>2022-02-22T10:29:15Z</time>
      </trkpt>
      <trkpt lat="43.58823" lon="3.51377">
        <ele>87</ele>
        <time>2022-02-22T10:29:18Z</time>
      </trkpt>
      <trkpt lat="43.58823" lon="3.51382">
        <ele>87</ele>
        <time>2022-02-22T10:29:21Z</time>
      </trkpt>
      <trkpt lat="43.58822" lon="3.51386">
        <ele>87</ele>
        <time>2022-02-22T10:29:24Z</time>
      </trkpt>
      <trkpt lat="43.58822" lon="3.5139">
        <ele>87</ele>
        <time>2022-02-22T10:29:28Z</time>
      </trkpt>
      <trkpt lat="43.58821" lon="3.51394">
        <ele>87</ele>
        <time>2022-02-22T10:29:31Z</time>
      </trkpt>
      <trkpt lat="43.5882" lon="3.51398">
        <ele>87</ele>
        <time>2022-02-22T10:29:34Z</time>
      </trkpt>
      <trkpt lat="43.5882" lon="3.51402">
        <ele>87</ele>
        <time>2022-02-22T10:29:37Z</time>
      </trkpt>
      <trkpt lat="43.58819" lon="3.51405">
        <ele>87</ele>
        <time>2022-02-22T10:29:40Z</time>
      </trkpt>
      <trkpt lat="43.58818" lon="3.51409">
        <ele>87</ele>
        <time>2022-02-22T10:29:43Z</time>
      </trkpt>
      <trkpt lat="43.58818" lon="3.51413">
        <ele>87</ele>
        <time>2022-02-22T10:29:46Z</time>
      </trkpt>
      <trkpt lat="43.58818" lon="3.51417">
        <ele>87</ele>
        <time>2022-02-22T10:29:49Z</time>
      </trkpt>
      <trkpt lat="43.58817" lon="3.51422">
        <ele>87</ele>
        <time>2022-02-22T10:29:52Z</time>
      </trkpt>
      <trkpt lat="43.58817" lon="3.51426">
        <ele>87</ele>
        <time>2022-02-22T10:29:54Z</time>
      </trkpt>
      <trkpt lat="43.58817" lon="3.5143">
        <ele>87</ele>
        <time>2022-02-22T10:30:02Z</time>
      </trkpt>
      <trkpt lat="43.58818" lon="3.51434">
        <ele>87</ele>
        <time>2022-02-22T10:30:05Z</time>
      </trkpt>
      <trkpt lat="43.58818" lon="3.51438">
        <ele>87</ele>
        <time>2022-02-22T10:30:09Z</time>
      </trkpt>
      <trkpt lat="43.58818" lon="3.51442">
        <ele>87</ele>
        <time>2022-02-22T10:30:15Z</time>
      </trkpt>
      <trkpt lat="43.58817" lon="3.51446">
        <ele>87</ele>
        <time>2022-02-22T10:30:30Z</time>
      </trkpt>
      <trkpt lat="43.58817" lon="3.5145">
        <ele>87</ele>
        <time>2022-02-22T10:30:33Z</time>
      </trkpt>
      <trkpt lat="43.58816" lon="3.51455">
        <ele>87</ele>
        <time>2022-02-22T10:30:36Z</time>
      </trkpt>
      <trkpt lat="43.58816" lon="3.51459">
        <ele>87</ele>
        <time>2022-02-22T10:30:39Z</time>
      </trkpt>
      <trkpt lat="43.58815" lon="3.51464">
        <ele>87</ele>
        <time>2022-02-22T10:30:42Z</time>
      </trkpt>
      <trkpt lat="43.58815" lon="3.51468">
        <ele>87</ele>
        <time>2022-02-22T10:30:45Z</time>
      </trkpt>
      <trkpt lat="43.58813" lon="3.51472">
        <ele>87</ele>
        <time>2022-02-22T10:30:48Z</time>
      </trkpt>
      <trkpt lat="43.58812" lon="3.51475">
        <ele>87</ele>
        <time>2022-02-22T10:30:51Z</time>
      </trkpt>
      <trkpt lat="43.58812" lon="3.5148">
        <ele>87</ele>
        <time>2022-02-22T10:30:54Z</time>
      </trkpt>
      <trkpt lat="43.58811" lon="3.51485">
        <ele>87</ele>
        <time>2022-02-22T10:30:58Z</time>
      </trkpt>
      <trkpt lat="43.5881" lon="3.51489">
        <ele>87</ele>
        <time>2022-02-22T10:31:02Z</time>
      </trkpt>
      <trkpt lat="43.58812" lon="3.5149">
        <ele>87</ele>
        <time>2022-02-22T10:31:57Z</time>
      </trkpt>
      <trkpt lat="43.58813" lon="3.51488">
        <ele>87</ele>
        <time>2022-02-22T10:32:01Z</time>
      </trkpt>
      <trkpt lat="43.58814" lon="3.51484">
        <ele>87</ele>
        <time>2022-02-22T10:32:04Z</time>
      </trkpt>
      <trkpt lat="43.58816" lon="3.5148">
        <ele>87</ele>
        <time>2022-02-22T10:32:07Z</time>
      </trkpt>
      <trkpt lat="43.58816" lon="3.51476">
        <ele>87</ele>
        <time>2022-02-22T10:32:12Z</time>
      </trkpt>
      <trkpt lat="43.58817" lon="3.51472">
        <ele>87</ele>
        <time>2022-02-22T10:32:32Z</time>
      </trkpt>
      <trkpt lat="43.58817" lon="3.51468">
        <ele>87</ele>
        <time>2022-02-22T10:32:35Z</time>
      </trkpt>
      <trkpt lat="43.58818" lon="3.51463">
        <ele>87</ele>
        <time>2022-02-22T10:32:38Z</time>
      </trkpt>
      <trkpt lat="43.58819" lon="3.51459">
        <ele>87</ele>
        <time>2022-02-22T10:32:40Z</time>
      </trkpt>
      <trkpt lat="43.58819" lon="3.51454">
        <ele>87</ele>
        <time>2022-02-22T10:32:43Z</time>
      </trkpt>
      <trkpt lat="43.58819" lon="3.51449">
        <ele>87</ele>
        <time>2022-02-22T10:32:46Z</time>
      </trkpt>
      <trkpt lat="43.58818" lon="3.51444">
        <ele>87</ele>
        <time>2022-02-22T10:32:49Z</time>
      </trkpt>
      <trkpt lat="43.58817" lon="3.51439">
        <ele>87</ele>
        <time>2022-02-22T10:32:52Z</time>
      </trkpt>
      <trkpt lat="43.58817" lon="3.51434">
        <ele>87</ele>
        <time>2022-02-22T10:32:55Z</time>
      </trkpt>
      <trkpt lat="43.58817" lon="3.5143">
        <ele>87</ele>
        <time>2022-02-22T10:32:57Z</time>
      </trkpt>
      <trkpt lat="43.58817" lon="3.51425">
        <ele>87</ele>
        <time>2022-02-22T10:33:00Z</time>
      </trkpt>
      <trkpt lat="43.58817" lon="3.51421">
        <ele>87</ele>
        <time>2022-02-22T10:33:03Z</time>
      </trkpt>
      <trkpt lat="43.58818" lon="3.51417">
        <ele>87</ele>
        <time>2022-02-22T10:33:10Z</time>
      </trkpt>
      <trkpt lat="43.58819" lon="3.51413">
        <ele>87</ele>
        <time>2022-02-22T10:33:13Z</time>
      </trkpt>
      <trkpt lat="43.58821" lon="3.51409">
        <ele>87</ele>
        <time>2022-02-22T10:33:16Z</time>
      </trkpt>
      <trkpt lat="43.58822" lon="3.51405">
        <ele>87</ele>
        <time>2022-02-22T10:33:19Z</time>
      </trkpt>
      <trkpt lat="43.58822" lon="3.51401">
        <ele>87</ele>
        <time>2022-02-22T10:33:22Z</time>
      </trkpt>
      <trkpt lat="43.58823" lon="3.51396">
        <ele>87</ele>
        <time>2022-02-22T10:33:25Z</time>
      </trkpt>
      <trkpt lat="43.58824" lon="3.51392">
        <ele>87</ele>
        <time>2022-02-22T10:33:28Z</time>
      </trkpt>
      <trkpt lat="43.58825" lon="3.51387">
        <ele>87</ele>
        <time>2022-02-22T10:33:31Z</time>
      </trkpt>
      <trkpt lat="43.58826" lon="3.51383">
        <ele>87</ele>
        <time>2022-02-22T10:33:34Z</time>
      </trkpt>
      <trkpt lat="43.58827" lon="3.51379">
        <ele>87</ele>
        <time>2022-02-22T10:33:36Z</time>
      </trkpt>
      <trkpt lat="43.58829" lon="3.51375">
        <ele>87</ele>
        <time>2022-02-22T10:33:39Z</time>
      </trkpt>
      <trkpt lat="43.5883" lon="3.51371">
        <ele>87</ele>
        <time>2022-02-22T10:33:42Z</time>
      </trkpt>
      <trkpt lat="43.58833" lon="3.51368">
        <ele>87</ele>
        <time>2022-02-22T10:33:46Z</time>
      </trkpt>
      <trkpt lat="43.58835" lon="3.51365">
        <ele>87</ele>
        <time>2022-02-22T10:33:49Z</time>
      </trkpt>
      <trkpt lat="43.58838" lon="3.51362">
        <ele>87</ele>
        <time>2022-02-22T10:33:54Z</time>
      </trkpt>
      <trkpt lat="43.58839" lon="3.51359">
        <ele>87</ele>
        <time>2022-02-22T10:34:08Z</time>
      </trkpt>
      <trkpt lat="43.58838" lon="3.51356">
        <ele>87</ele>
        <time>2022-02-22T10:34:13Z</time>
      </trkpt>
      <trkpt lat="43.58839" lon="3.51356">
        <ele>87</ele>
        <time>2022-02-22T10:34:25Z</time>
      </trkpt>
      <trkpt lat="43.58842" lon="3.51356">
        <ele>87</ele>
        <time>2022-02-22T10:34:28Z</time>
      </trkpt>
      <trkpt lat="43.58844" lon="3.51357">
        <ele>87</ele>
        <time>2022-02-22T10:34:31Z</time>
      </trkpt>
      <trkpt lat="43.58847" lon="3.51359">
        <ele>87</ele>
        <time>2022-02-22T10:34:34Z</time>
      </trkpt>
      <trkpt lat="43.58849" lon="3.51361">
        <ele>87</ele>
        <time>2022-02-22T10:34:46Z</time>
      </trkpt>
      <trkpt lat="43.58851" lon="3.51364">
        <ele>87</ele>
        <time>2022-02-22T10:34:49Z</time>
      </trkpt>
      <trkpt lat="43.58853" lon="3.51367">
        <ele>87</ele>
        <time>2022-02-22T10:34:54Z</time>
      </trkpt>
      <trkpt lat="43.58855" lon="3.51369">
        <ele>87</ele>
        <time>2022-02-22T10:35:02Z</time>
      </trkpt>
      <trkpt lat="43.58858" lon="3.51371">
        <ele>87</ele>
        <time>2022-02-22T10:35:06Z</time>
      </trkpt>
      <trkpt lat="43.58859" lon="3.51374">
        <ele>87</ele>
        <time>2022-02-22T10:35:11Z</time>
      </trkpt>
      <trkpt lat="43.5886" lon="3.51378">
        <ele>87</ele>
        <time>2022-02-22T10:36:11Z</time>
      </trkpt>
      <trkpt lat="43.58862" lon="3.51381">
        <ele>87</ele>
        <time>2022-02-22T10:36:15Z</time>
      </trkpt>
      <trkpt lat="43.58863" lon="3.51385">
        <ele>87</ele>
        <time>2022-02-22T10:36:18Z</time>
      </trkpt>
      <trkpt lat="43.58865" lon="3.51389">
        <ele>87</ele>
        <time>2022-02-22T10:36:22Z</time>
      </trkpt>
      <trkpt lat="43.58866" lon="3.51393">
        <ele>87</ele>
        <time>2022-02-22T10:36:26Z</time>
      </trkpt>
      <trkpt lat="43.58868" lon="3.51396">
        <ele>87</ele>
        <time>2022-02-22T10:36:30Z</time>
      </trkpt>
      <trkpt lat="43.58869" lon="3.51401">
        <ele>87</ele>
        <time>2022-02-22T10:36:34Z</time>
      </trkpt>
      <trkpt lat="43.58868" lon="3.51405">
        <ele>87</ele>
        <time>2022-02-22T10:36:38Z</time>
      </trkpt>
      <trkpt lat="43.58869" lon="3.51409">
        <ele>87</ele>
        <time>2022-02-22T10:36:41Z</time>
      </trkpt>
      <trkpt lat="43.58869" lon="3.51413">
        <ele>87</ele>
        <time>2022-02-22T10:36:44Z</time>
      </trkpt>
      <trkpt lat="43.5887" lon="3.51418">
        <ele>87</ele>
        <time>2022-02-22T10:36:49Z</time>
      </trkpt>
      <trkpt lat="43.5887" lon="3.51421">
        <ele>87</ele>
        <time>2022-02-22T10:36:52Z</time>
      </trkpt>
      <trkpt lat="43.58872" lon="3.51425">
        <ele>87</ele>
        <time>2022-02-22T10:36:55Z</time>
      </trkpt>
      <trkpt lat="43.58875" lon="3.51427">
        <ele>87</ele>
        <time>2022-02-22T10:36:58Z</time>
      </trkpt>
      <trkpt lat="43.58877" lon="3.51429">
        <ele>87</ele>
        <time>2022-02-22T10:37:01Z</time>
      </trkpt>
      <trkpt lat="43.5888" lon="3.5143">
        <ele>87</ele>
        <time>2022-02-22T10:37:04Z</time>
      </trkpt>
      <trkpt lat="43.58883" lon="3.51433">
        <ele>87</ele>
        <time>2022-02-22T10:37:07Z</time>
      </trkpt>
      <trkpt lat="43.58885" lon="3.51435">
        <ele>87</ele>
        <time>2022-02-22T10:37:10Z</time>
      </trkpt>
      <trkpt lat="43.58888" lon="3.51438">
        <ele>87</ele>
        <time>2022-02-22T10:37:13Z</time>
      </trkpt>
      <trkpt lat="43.58888" lon="3.51442">
        <ele>87</ele>
        <time>2022-02-22T10:37:16Z</time>
      </trkpt>
      <trkpt lat="43.58888" lon="3.51446">
        <ele>87</ele>
        <time>2022-02-22T10:37:20Z</time>
      </trkpt>
      <trkpt lat="43.58889" lon="3.5145">
        <ele>87</ele>
        <time>2022-02-22T10:37:23Z</time>
      </trkpt>
      <trkpt lat="43.58892" lon="3.51453">
        <ele>87</ele>
        <time>2022-02-22T10:37:26Z</time>
      </trkpt>
      <trkpt lat="43.58894" lon="3.51456">
        <ele>87</ele>
        <time>2022-02-22T10:37:29Z</time>
      </trkpt>
      <trkpt lat="43.58896" lon="3.5146">
        <ele>87</ele>
        <time>2022-02-22T10:37:33Z</time>
      </trkpt>
      <trkpt lat="43.58897" lon="3.51464">
        <ele>87</ele>
        <time>2022-02-22T10:37:36Z</time>
      </trkpt>
      <trkpt lat="43.58897" lon="3.51469">
        <ele>87</ele>
        <time>2022-02-22T10:37:39Z</time>
      </trkpt>
      <trkpt lat="43.58898" lon="3.51474">
        <ele>87</ele>
        <time>2022-02-22T10:37:42Z</time>
      </trkpt>
      <trkpt lat="43.58898" lon="3.51479">
        <ele>87</ele>
        <time>2022-02-22T10:37:45Z</time>
      </trkpt>
      <trkpt lat="43.58898" lon="3.51484">
        <ele>87</ele>
        <time>2022-02-22T10:37:49Z</time>
      </trkpt>
      <trkpt lat="43.58899" lon="3.51489">
        <ele>87</ele>
        <time>2022-02-22T10:37:52Z</time>
      </trkpt>
      <trkpt lat="43.58899" lon="3.51494">
        <ele>87</ele>
        <time>2022-02-22T10:37:55Z</time>
      </trkpt>
      <trkpt lat="43.589" lon="3.51499">
        <ele>87</ele>
        <time>2022-02-22T10:37:59Z</time>
      </trkpt>
      <trkpt lat="43.58901" lon="3.51505">
        <ele>87</ele>
        <time>2022-02-22T10:38:02Z</time>
      </trkpt>
      <trkpt lat="43.58902" lon="3.51509">
        <ele>87</ele>
        <time>2022-02-22T10:38:04Z</time>
      </trkpt>
      <trkpt lat="43.58903" lon="3.51513">
        <ele>87</ele>
        <time>2022-02-22T10:38:07Z</time>
      </trkpt>
      <trkpt lat="43.58903" lon="3.51518">
        <ele>87</ele>
        <time>2022-02-22T10:38:11Z</time>
      </trkpt>
      <trkpt lat="43.58902" lon="3.51522">
        <ele>87</ele>
        <time>2022-02-22T10:38:14Z</time>
      </trkpt>
      <trkpt lat="43.58902" lon="3.51526">
        <ele>87</ele>
        <time>2022-02-22T10:38:16Z</time>
      </trkpt>
      <trkpt lat="43.58902" lon="3.5153">
        <ele>87</ele>
        <time>2022-02-22T10:38:18Z</time>
      </trkpt>
      <trkpt lat="43.58902" lon="3.51534">
        <ele>87</ele>
        <time>2022-02-22T10:38:21Z</time>
      </trkpt>
      <trkpt lat="43.58901" lon="3.5154">
        <ele>87</ele>
        <time>2022-02-22T10:38:24Z</time>
      </trkpt>
      <trkpt lat="43.58901" lon="3.51544">
        <ele>87</ele>
        <time>2022-02-22T10:38:27Z</time>
      </trkpt>
      <trkpt lat="43.589" lon="3.51549">
        <ele>87</ele>
        <time>2022-02-22T10:38:30Z</time>
      </trkpt>
      <trkpt lat="43.58898" lon="3.51552">
        <ele>87</ele>
        <time>2022-02-22T10:38:33Z</time>
      </trkpt>
      <trkpt lat="43.58896" lon="3.51556">
        <ele>87</ele>
        <time>2022-02-22T10:38:36Z</time>
      </trkpt>
      <trkpt lat="43.58895" lon="3.5156">
        <ele>87</ele>
        <time>2022-02-22T10:38:39Z</time>
      </trkpt>
      <trkpt lat="43.58892" lon="3.51564">
        <ele>87</ele>
        <time>2022-02-22T10:38:42Z</time>
      </trkpt>
      <trkpt lat="43.5889" lon="3.51568">
        <ele>87</ele>
        <time>2022-02-22T10:38:50Z</time>
      </trkpt>
      <trkpt lat="43.58889" lon="3.51573">
        <ele>87</ele>
        <time>2022-02-22T10:38:53Z</time>
      </trkpt>
      <trkpt lat="43.58888" lon="3.51577">
        <ele>87</ele>
        <time>2022-02-22T10:38:56Z</time>
      </trkpt>
      <trkpt lat="43.58887" lon="3.51582">
        <ele>87</ele>
        <time>2022-02-22T10:39:00Z</time>
      </trkpt>
      <trkpt lat="43.58886" lon="3.51586">
        <ele>87</ele>
        <time>2022-02-22T10:39:03Z</time>
      </trkpt>
      <trkpt lat="43.58885" lon="3.51591">
        <ele>87</ele>
        <time>2022-02-22T10:39:06Z</time>
      </trkpt>
      <trkpt lat="43.58883" lon="3.51595">
        <ele>87</ele>
        <time>2022-02-22T10:39:08Z</time>
      </trkpt>
      <trkpt lat="43.58881" lon="3.51599">
        <ele>87</ele>
        <time>2022-02-22T10:39:11Z</time>
      </trkpt>
      <trkpt lat="43.58879" lon="3.51603">
        <ele>87</ele>
        <time>2022-02-22T10:39:15Z</time>
      </trkpt>
      <trkpt lat="43.58879" lon="3.51607">
        <ele>87</ele>
        <time>2022-02-22T10:39:18Z</time>
      </trkpt>
      <trkpt lat="43.58877" lon="3.51611">
        <ele>87</ele>
        <time>2022-02-22T10:39:21Z</time>
      </trkpt>
      <trkpt lat="43.58875" lon="3.51615">
        <ele>87</ele>
        <time>2022-02-22T10:39:23Z</time>
      </trkpt>
      <trkpt lat="43.58873" lon="3.51618">
        <ele>87</ele>
        <time>2022-02-22T10:39:26Z</time>
      </trkpt>
      <trkpt lat="43.58871" lon="3.51621">
        <ele>87</ele>
        <time>2022-02-22T10:39:29Z</time>
      </trkpt>
      <trkpt lat="43.58869" lon="3.51625">
        <ele>87</ele>
        <time>2022-02-22T10:39:32Z</time>
      </trkpt>
      <trkpt lat="43.58868" lon="3.51629">
        <ele>87</ele>
        <time>2022-02-22T10:39:35Z</time>
      </trkpt>
      <trkpt lat="43.58866" lon="3.51634">
        <ele>87</ele>
        <time>2022-02-22T10:39:39Z</time>
      </trkpt>
      <trkpt lat="43.58865" lon="3.51638">
        <ele>87</ele>
        <time>2022-02-22T10:39:42Z</time>
      </trkpt>
      <trkpt lat="43.58863" lon="3.51642">
        <ele>87</ele>
        <time>2022-02-22T10:39:45Z</time>
      </trkpt>
      <trkpt lat="43.58862" lon="3.51646">
        <ele>87</ele>
        <time>2022-02-22T10:39:47Z</time>
      </trkpt>
      <trkpt lat="43.58861" lon="3.5165">
        <ele>87</ele>
        <time>2022-02-22T10:39:50Z</time>
      </trkpt>
      <trkpt lat="43.5886" lon="3.51655">
        <ele>87</ele>
        <time>2022-02-22T10:39:54Z</time>
      </trkpt>
      <trkpt lat="43.58858" lon="3.51659">
        <ele>87</ele>
        <time>2022-02-22T10:39:58Z</time>
      </trkpt>
      <trkpt lat="43.58856" lon="3.51663">
        <ele>87</ele>
        <time>2022-02-22T10:40:10Z</time>
      </trkpt>
      <trkpt lat="43.58855" lon="3.51667">
        <ele>87</ele>
        <time>2022-02-22T10:40:14Z</time>
      </trkpt>
      <trkpt lat="43.58853" lon="3.5167">
        <ele>87</ele>
        <time>2022-02-22T10:40:18Z</time>
      </trkpt>
      <trkpt lat="43.58851" lon="3.51674">
        <ele>87</ele>
        <time>2022-02-22T10:40:22Z</time>
      </trkpt>
      <trkpt lat="43.58849" lon="3.51677">
        <ele>87</ele>
        <time>2022-02-22T10:40:25Z</time>
      </trkpt>
      <trkpt lat="43.58847" lon="3.5168">
        <ele>87</ele>
        <time>2022-02-22T10:40:28Z</time>
      </trkpt>
      <trkpt lat="43.58844" lon="3.51682">
        <ele>87</ele>
        <time>2022-02-22T10:40:32Z</time>
      </trkpt>
      <trkpt lat="43.58842" lon="3.51685">
        <ele>87</ele>
        <time>2022-02-22T10:40:35Z</time>
      </trkpt>
      <trkpt lat="43.5884" lon="3.51688">
        <ele>87</ele>
        <time>2022-02-22T10:40:38Z</time>
      </trkpt>
      <trkpt lat="43.58837" lon="3.51691">
        <ele>87</ele>
        <time>2022-02-22T10:40:41Z</time>
      </trkpt>
      <trkpt lat="43.58835" lon="3.51694">
        <ele>87</ele>
        <time>2022-02-22T10:40:44Z</time>
      </trkpt>
      <trkpt lat="43.58832" lon="3.51697">
        <ele>87</ele>
        <time>2022-02-22T10:40:47Z</time>
      </trkpt>
      <trkpt lat="43.5883" lon="3.51701">
        <ele>87</ele>
        <time>2022-02-22T10:40:50Z</time>
      </trkpt>
      <trkpt lat="43.58829" lon="3.51705">
        <ele>87</ele>
        <time>2022-02-22T10:40:53Z</time>
      </trkpt>
      <trkpt lat="43.58829" lon="3.51709">
        <ele>87</ele>
        <time>2022-02-22T10:40:56Z</time>
      </trkpt>
      <trkpt lat="43.58828" lon="3.51713">
        <ele>87</ele>
        <time>2022-02-22T10:41:00Z</time>
      </trkpt>
      <trkpt lat="43.58828" lon="3.51718">
        <ele>87</ele>
        <time>2022-02-22T10:41:04Z</time>
      </trkpt>
      <trkpt lat="43.58826" lon="3.51722">
        <ele>87</ele>
        <time>2022-02-22T10:41:08Z</time>
      </trkpt>
      <trkpt lat="43.58825" lon="3.51726">
        <ele>87</ele>
        <time>2022-02-22T10:41:11Z</time>
      </trkpt>
      <trkpt lat="43.58823" lon="3.5173">
        <ele>87</ele>
        <time>2022-02-22T10:41:14Z</time>
      </trkpt>
      <trkpt lat="43.58821" lon="3.51733">
        <ele>87</ele>
        <time>2022-02-22T10:41:17Z</time>
      </trkpt>
      <trkpt lat="43.58821" lon="3.51736">
        <ele>87</ele>
        <time>2022-02-22T10:41:22Z</time>
      </trkpt>
      <trkpt lat="43.5882" lon="3.5174">
        <ele>87</ele>
        <time>2022-02-22T10:41:43Z</time>
      </trkpt>
      <trkpt lat="43.5882" lon="3.51744">
        <ele>87</ele>
        <time>2022-02-22T10:41:46Z</time>
      </trkpt>
      <trkpt lat="43.5882" lon="3.51748">
        <ele>87</ele>
        <time>2022-02-22T10:41:49Z</time>
      </trkpt>
      <trkpt lat="43.58821" lon="3.51752">
        <ele>87</ele>
        <time>2022-02-22T10:41:52Z</time>
      </trkpt>
      <trkpt lat="43.58821" lon="3.51756">
        <ele>87</ele>
        <time>2022-02-22T10:41:55Z</time>
      </trkpt>
      <trkpt lat="43.58821" lon="3.5176">
        <ele>87</ele>
        <time>2022-02-22T10:41:58Z</time>
      </trkpt>
      <trkpt lat="43.58822" lon="3.51765">
        <ele>87</ele>
        <time>2022-02-22T10:42:01Z</time>
      </trkpt>
      <trkpt lat="43.58822" lon="3.51769">
        <ele>87</ele>
        <time>2022-02-22T10:42:04Z</time>
      </trkpt>
      <trkpt lat="43.58822" lon="3.51773">
        <ele>87</ele>
        <time>2022-02-22T10:42:07Z</time>
      </trkpt>
      <trkpt lat="43.58822" lon="3.51778">
        <ele>87</ele>
        <time>2022-02-22T10:42:10Z</time>
      </trkpt>
      <trkpt lat="43.58822" lon="3.51782">
        <ele>87</ele>
        <time>2022-02-22T10:42:13Z</time>
      </trkpt>
      <trkpt lat="43.58823" lon="3.51786">
        <ele>87</ele>
        <time>2022-02-22T10:42:16Z</time>
      </trkpt>
      <trkpt lat="43.58825" lon="3.51791">
        <ele>87</ele>
        <time>2022-02-22T10:42:19Z</time>
      </trkpt>
      <trkpt lat="43.58827" lon="3.51794">
        <ele>87</ele>
        <time>2022-02-22T10:42:22Z</time>
      </trkpt>
      <trkpt lat="43.5883" lon="3.51797">
        <ele>87</ele>
        <time>2022-02-22T10:42:25Z</time>
      </trkpt>
      <trkpt lat="43.58832" lon="3.51801">
        <ele>87</ele>
        <time>2022-02-22T10:42:34Z</time>
      </trkpt>
      <trkpt lat="43.58834" lon="3.51805">
        <ele>87</ele>
        <time>2022-02-22T10:42:37Z</time>
      </trkpt>
      <trkpt lat="43.58835" lon="3.5181">
        <ele>87</ele>
        <time>2022-02-22T10:42:40Z</time>
      </trkpt>
      <trkpt lat="43.58834" lon="3.51814">
        <ele>87</ele>
        <time>2022-02-22T10:42:45Z</time>
      </trkpt>
      <trkpt lat="43.58833" lon="3.51817">
        <ele>87</ele>
        <time>2022-02-22T10:42:49Z</time>
      </trkpt>
      <trkpt lat="43.58831" lon="3.51821">
        <ele>87</ele>
        <time>2022-02-22T10:42:53Z</time>
      </trkpt>
      <trkpt lat="43.5883" lon="3.51824">
        <ele>87</ele>
        <time>2022-02-22T10:42:57Z</time>
      </trkpt>
      <trkpt lat="43.58828" lon="3.51827">
        <ele>87</ele>
        <time>2022-02-22T10:43:00Z</time>
      </trkpt>
      <trkpt lat="43.58826" lon="3.51832">
        <ele>87</ele>
        <time>2022-02-22T10:43:16Z</time>
      </trkpt>
      <trkpt lat="43.58827" lon="3.51836">
        <ele>87</ele>
        <time>2022-02-22T10:43:49Z</time>
      </trkpt>
      <trkpt lat="43.58828" lon="3.5184">
        <ele>87</ele>
        <time>2022-02-22T10:43:53Z</time>
      </trkpt>
      <trkpt lat="43.58829" lon="3.51843">
        <ele>87</ele>
        <time>2022-02-22T10:43:57Z</time>
      </trkpt>
      <trkpt lat="43.5883" lon="3.51847">
        <ele>87</ele>
        <time>2022-02-22T10:44:01Z</time>
      </trkpt>
      <trkpt lat="43.5883" lon="3.51851">
        <ele>87</ele>
        <time>2022-02-22T10:44:05Z</time>
      </trkpt>
      <trkpt lat="43.58827" lon="3.51856">
        <ele>87</ele>
        <time>2022-02-22T10:45:03Z</time>
      </trkpt>
      <trkpt lat="43.58824" lon="3.51859">
        <ele>87</ele>
        <time>2022-02-22T10:45:07Z</time>
      </trkpt>
      <trkpt lat="43.58825" lon="3.51859">
        <ele>87</ele>
        <time>2022-02-22T10:45:17Z</time>
      </trkpt>
      <trkpt lat="43.58828" lon="3.51859">
        <ele>87</ele>
        <time>2022-02-22T10:45:21Z</time>
      </trkpt>
      <trkpt lat="43.58831" lon="3.51861">
        <ele>87</ele>
        <time>2022-02-22T10:45:25Z</time>
      </trkpt>
      <trkpt lat="43.5883" lon="3.51861">
        <ele>87</ele>
        <time>2022-02-22T10:46:00Z</time>
      </trkpt>
      <trkpt lat="43.58832" lon="3.51862">
        <ele>87</ele>
        <time>2022-02-22T10:46:18Z</time>
      </trkpt>
      <trkpt lat="43.58834" lon="3.51863">
        <ele>87</ele>
        <time>2022-02-22T10:46:21Z</time>
      </trkpt>
      <trkpt lat="43.58834" lon="3.51866">
        <ele>87</ele>
        <time>2022-02-22T10:46:39Z</time>
      </trkpt>
      <trkpt lat="43.58836" lon="3.51869">
        <ele>87</ele>
        <time>2022-02-22T10:46:42Z</time>
      </trkpt>
      <trkpt lat="43.58838" lon="3.51873">
        <ele>87</ele>
        <time>2022-02-22T10:46:45Z</time>
      </trkpt>
      <trkpt lat="43.58841" lon="3.51874">
        <ele>87</ele>
        <time>2022-02-22T10:46:54Z</time>
      </trkpt>
      <trkpt lat="43.58841" lon="3.51878">
        <ele>87</ele>
        <time>2022-02-22T11:38:26Z</time>
      </trkpt>
      <trkpt lat="43.5884" lon="3.51882">
        <ele>87</ele>
        <time>2022-02-22T11:38:40Z</time>
      </trkpt>
      <trkpt lat="43.5884" lon="3.51887">
        <ele>87</ele>
        <time>2022-02-22T11:38:44Z</time>
      </trkpt>
      <trkpt lat="43.58841" lon="3.5189">
        <ele>87</ele>
        <time>2022-02-22T11:38:48Z</time>
      </trkpt>
      <trkpt lat="43.58843" lon="3.51893">
        <ele>87</ele>
        <time>2022-02-22T11:38:51Z</time>
      </trkpt>
      <trkpt lat="43.58845" lon="3.51896">
        <ele>87</ele>
        <time>2022-02-22T11:38:54Z</time>
      </trkpt>
      <trkpt lat="43.58847" lon="3.51899">
        <ele>87</ele>
        <time>2022-02-22T11:38:57Z</time>
      </trkpt>
      <trkpt lat="43.58848" lon="3.51903">
        <ele>87</ele>
        <time>2022-02-22T11:39:00Z</time>
      </trkpt>
      <trkpt lat="43.58849" lon="3.51907">
        <ele>87</ele>
        <time>2022-02-22T11:39:03Z</time>
      </trkpt>
      <trkpt lat="43.58849" lon="3.51912">
        <ele>87</ele>
        <time>2022-02-22T11:39:06Z</time>
      </trkpt>
      <trkpt lat="43.5885" lon="3.51916">
        <ele>87</ele>
        <time>2022-02-22T11:39:09Z</time>
      </trkpt>
      <trkpt lat="43.58849" lon="3.5192">
        <ele>87</ele>
        <time>2022-02-22T11:39:12Z</time>
      </trkpt>
      <trkpt lat="43.58848" lon="3.51925">
        <ele>87</ele>
        <time>2022-02-22T11:39:15Z</time>
      </trkpt>
      <trkpt lat="43.58848" lon="3.51929">
        <ele>87</ele>
        <time>2022-02-22T11:39:17Z</time>
      </trkpt>
      <trkpt lat="43.58848" lon="3.51933">
        <ele>87</ele>
        <time>2022-02-22T11:39:20Z</time>
      </trkpt>
      <trkpt lat="43.58848" lon="3.51937">
        <ele>87</ele>
        <time>2022-02-22T11:39:23Z</time>
      </trkpt>
      <trkpt lat="43.58849" lon="3.51942">
        <ele>87</ele>
        <time>2022-02-22T11:39:27Z</time>
      </trkpt>
      <trkpt lat="43.58851" lon="3.51945">
        <ele>87</ele>
        <time>2022-02-22T11:39:34Z</time>
      </trkpt>
      <trkpt lat="43.58854" lon="3.51948">
        <ele>87</ele>
        <time>2022-02-22T11:39:42Z</time>
      </trkpt>
      <trkpt lat="43.58857" lon="3.51952">
        <ele>87</ele>
        <time>2022-02-22T11:40:06Z</time>
      </trkpt>
      <trkpt lat="43.58859" lon="3.51955">
        <ele>87</ele>
        <time>2022-02-22T11:40:15Z</time>
      </trkpt>
      <trkpt lat="43.58861" lon="3.51959">
        <ele>87</ele>
        <time>2022-02-22T11:40:29Z</time>
      </trkpt>
      <trkpt lat="43.58863" lon="3.51962">
        <ele>87</ele>
        <time>2022-02-22T11:40:33Z</time>
      </trkpt>
      <trkpt lat="43.58864" lon="3.51966">
        <ele>87</ele>
        <time>2022-02-22T11:40:37Z</time>
      </trkpt>
      <trkpt lat="43.58865" lon="3.5197">
        <ele>87</ele>
        <time>2022-02-22T11:40:41Z</time>
      </trkpt>
      <trkpt lat="43.58865" lon="3.51974">
        <ele>87</ele>
        <time>2022-02-22T11:40:44Z</time>
      </trkpt>
      <trkpt lat="43.58865" lon="3.51978">
        <ele>87</ele>
        <time>2022-02-22T11:40:47Z</time>
      </trkpt>
      <trkpt lat="43.58866" lon="3.5198">
        <ele>87</ele>
        <time>2022-02-22T11:41:05Z</time>
      </trkpt>
      <trkpt lat="43.58868" lon="3.51982">
        <ele>87</ele>
        <time>2022-02-22T11:41:14Z</time>
      </trkpt>
      <trkpt lat="43.58871" lon="3.51984">
        <ele>87</ele>
        <time>2022-02-22T11:41:23Z</time>
      </trkpt>
      <trkpt lat="43.58873" lon="3.51986">
        <ele>87</ele>
        <time>2022-02-22T11:41:26Z</time>
      </trkpt>
      <trkpt lat="43.58875" lon="3.51989">
        <ele>87</ele>
        <time>2022-02-22T11:41:29Z</time>
      </trkpt>
      <trkpt lat="43.58877" lon="3.51992">
        <ele>87</ele>
        <time>2022-02-22T11:41:32Z</time>
      </trkpt>
      <trkpt lat="43.58879" lon="3.51995">
        <ele>87</ele>
        <time>2022-02-22T11:41:35Z</time>
      </trkpt>
      <trkpt lat="43.58881" lon="3.51998">
        <ele>87</ele>
        <time>2022-02-22T11:41:38Z</time>
      </trkpt>
      <trkpt lat="43.58884" lon="3.52001">
        <ele>87</ele>
        <time>2022-02-22T11:41:41Z</time>
      </trkpt>
      <trkpt lat="43.58886" lon="3.52004">
        <ele>87</ele>
        <time>2022-02-22T11:41:44Z</time>
      </trkpt>
      <trkpt lat="43.58888" lon="3.52007">
        <ele>87</ele>
        <time>2022-02-22T11:41:47Z</time>
      </trkpt>
      <trkpt lat="43.58891" lon="3.52009">
        <ele>87</ele>
        <time>2022-02-22T11:41:51Z</time>
      </trkpt>
      <trkpt lat="43.58893" lon="3.52011">
        <ele>87</ele>
        <time>2022-02-22T11:41:55Z</time>
      </trkpt>
      <trkpt lat="43.58896" lon="3.52013">
        <ele>87</ele>
        <time>2022-02-22T11:41:59Z</time>
      </trkpt>
      <trkpt lat="43.58899" lon="3.52016">
        <ele>87</ele>
        <time>2022-02-22T11:42:03Z</time>
      </trkpt>
      <trkpt lat="43.58901" lon="3.52018">
        <ele>87</ele>
        <time>2022-02-22T11:42:07Z</time>
      </trkpt>
      <trkpt lat="43.58903" lon="3.52022">
        <ele>87</ele>
        <time>2022-02-22T11:42:13Z</time>
      </trkpt>
      <trkpt lat="43.58905" lon="3.52025">
        <ele>87</ele>
        <time>2022-02-22T11:42:16Z</time>
      </trkpt>
      <trkpt lat="43.58907" lon="3.52028">
        <ele>87</ele>
        <time>2022-02-22T11:42:31Z</time>
      </trkpt>
      <trkpt lat="43.58909" lon="3.52031">
        <ele>87</ele>
        <time>2022-02-22T11:42:34Z</time>
      </trkpt>
      <trkpt lat="43.58911" lon="3.52035">
        <ele>87</ele>
        <time>2022-02-22T11:42:37Z</time>
      </trkpt>
      <trkpt lat="43.58912" lon="3.52038">
        <ele>87</ele>
        <time>2022-02-22T11:42:41Z</time>
      </trkpt>
      <trkpt lat="43.58914" lon="3.52041">
        <ele>87</ele>
        <time>2022-02-22T11:42:47Z</time>
      </trkpt>
      <trkpt lat="43.58916" lon="3.52044">
        <ele>87</ele>
        <time>2022-02-22T11:42:52Z</time>
      </trkpt>
      <trkpt lat="43.58918" lon="3.52046">
        <ele>87</ele>
        <time>2022-02-22T11:42:57Z</time>
      </trkpt>
      <trkpt lat="43.58918" lon="3.52045">
        <ele>87</ele>
        <time>2022-02-22T11:43:34Z</time>
      </trkpt>
      <trkpt lat="43.58916" lon="3.52043">
        <ele>87</ele>
        <time>2022-02-22T11:43:38Z</time>
      </trkpt>
      <trkpt lat="43.58914" lon="3.52041">
        <ele>87</ele>
        <time>2022-02-22T11:43:43Z</time>
      </trkpt>
      <trkpt lat="43.58912" lon="3.52037">
        <ele>87</ele>
        <time>2022-02-22T11:43:47Z</time>
      </trkpt>
      <trkpt lat="43.5891" lon="3.52033">
        <ele>87</ele>
        <time>2022-02-22T11:43:52Z</time>
      </trkpt>
      <trkpt lat="43.58908" lon="3.5203">
        <ele>87</ele>
        <time>2022-02-22T11:43:57Z</time>
      </trkpt>
      <trkpt lat="43.58906" lon="3.52028">
        <ele>87</ele>
        <time>2022-02-22T11:44:00Z</time>
      </trkpt>
      <trkpt lat="43.58904" lon="3.52024">
        <ele>87</ele>
        <time>2022-02-22T11:44:04Z</time>
      </trkpt>
      <trkpt lat="43.58904" lon="3.52021">
        <ele>87</ele>
        <time>2022-02-22T11:44:15Z</time>
      </trkpt>
      <trkpt lat="43.58904" lon="3.52022">
        <ele>87</ele>
        <time>2022-02-22T11:44:44Z</time>
      </trkpt>
      <trkpt lat="43.58905" lon="3.52025">
        <ele>87</ele>
        <time>2022-02-22T11:44:48Z</time>
      </trkpt>
      <trkpt lat="43.58906" lon="3.52028">
        <ele>87</ele>
        <time>2022-02-22T11:44:51Z</time>
      </trkpt>
      <trkpt lat="43.58908" lon="3.5203">
        <ele>87</ele>
        <time>2022-02-22T11:44:55Z</time>
      </trkpt>
      <trkpt lat="43.5891" lon="3.52033">
        <ele>87</ele>
        <time>2022-02-22T11:44:59Z</time>
      </trkpt>
      <trkpt lat="43.58912" lon="3.52037">
        <ele>87</ele>
        <time>2022-02-22T11:45:03Z</time>
      </trkpt>
      <trkpt lat="43.58913" lon="3.5204">
        <ele>87</ele>
        <time>2022-02-22T11:45:08Z</time>
      </trkpt>
      <trkpt lat="43.58915" lon="3.52043">
        <ele>87</ele>
        <time>2022-02-22T11:45:16Z</time>
      </trkpt>
      <trkpt lat="43.58918" lon="3.52043">
        <ele>87</ele>
        <time>2022-02-22T11:45:22Z</time>
      </trkpt>
      <trkpt lat="43.58917" lon="3.52045">
        <ele>87</ele>
        <time>2022-02-22T11:45:27Z</time>
      </trkpt>
      <trkpt lat="43.58916" lon="3.52048">
        <ele>87</ele>
        <time>2022-02-22T11:45:30Z</time>
      </trkpt>
      <trkpt lat="43.58914" lon="3.5205">
        <ele>87</ele>
        <time>2022-02-22T11:45:40Z</time>
      </trkpt>
      <trkpt lat="43.58912" lon="3.52053">
        <ele>87</ele>
        <time>2022-02-22T11:45:47Z</time>
      </trkpt>
      <trkpt lat="43.58911" lon="3.52056">
        <ele>87</ele>
        <time>2022-02-22T11:45:52Z</time>
      </trkpt>
      <trkpt lat="43.58911" lon="3.5206">
        <ele>87</ele>
        <time>2022-02-22T11:45:58Z</time>
      </trkpt>
      <trkpt lat="43.58911" lon="3.52063">
        <ele>87</ele>
        <time>2022-02-22T11:46:05Z</time>
      </trkpt>
      <trkpt lat="43.58911" lon="3.52062">
        <ele>87</ele>
        <time>2022-02-22T11:46:10Z</time>
      </trkpt>
      <trkpt lat="43.58911" lon="3.52059">
        <ele>87</ele>
        <time>2022-02-22T11:46:13Z</time>
      </trkpt>
      <trkpt lat="43.58912" lon="3.52055">
        <ele>87</ele>
        <time>2022-02-22T11:46:17Z</time>
      </trkpt>
      <trkpt lat="43.58914" lon="3.52053">
        <ele>87</ele>
        <time>2022-02-22T11:46:22Z</time>
      </trkpt>
      <trkpt lat="43.58915" lon="3.52049">
        <ele>87</ele>
        <time>2022-02-22T11:46:30Z</time>
      </trkpt>
      <trkpt lat="43.58915" lon="3.52046">
        <ele>87</ele>
        <time>2022-02-22T11:46:45Z</time>
      </trkpt>
      <trkpt lat="43.58917" lon="3.52045">
        <ele>87</ele>
        <time>2022-02-22T11:47:05Z</time>
      </trkpt>
      <trkpt lat="43.58919" lon="3.52046">
        <ele>87</ele>
        <time>2022-02-22T11:47:14Z</time>
      </trkpt>
      <trkpt lat="43.58921" lon="3.52049">
        <ele>87</ele>
        <time>2022-02-22T11:47:25Z</time>
      </trkpt>
      <trkpt lat="43.58922" lon="3.52053">
        <ele>87</ele>
        <time>2022-02-22T11:47:47Z</time>
      </trkpt>
      <trkpt lat="43.58923" lon="3.52057">
        <ele>87</ele>
        <time>2022-02-22T11:47:56Z</time>
      </trkpt>
      <trkpt lat="43.58926" lon="3.52059">
        <ele>87</ele>
        <time>2022-02-22T11:48:04Z</time>
      </trkpt>
      <trkpt lat="43.58928" lon="3.52062">
        <ele>87</ele>
        <time>2022-02-22T11:48:07Z</time>
      </trkpt>
      <trkpt lat="43.5893" lon="3.52064">
        <ele>87</ele>
        <time>2022-02-22T11:48:13Z</time>
      </trkpt>
      <trkpt lat="43.5893" lon="3.52069">
        <ele>87</ele>
        <time>2022-02-22T11:48:24Z</time>
      </trkpt>
      <trkpt lat="43.58929" lon="3.52072">
        <ele>87</ele>
        <time>2022-02-22T11:48:33Z</time>
      </trkpt>
      <trkpt lat="43.58927" lon="3.52074">
        <ele>87</ele>
        <time>2022-02-22T11:48:37Z</time>
      </trkpt>
      <trkpt lat="43.58924" lon="3.52076">
        <ele>87</ele>
        <time>2022-02-22T11:48:41Z</time>
      </trkpt>
      <trkpt lat="43.58922" lon="3.52079">
        <ele>87</ele>
        <time>2022-02-22T11:48:46Z</time>
      </trkpt>
      <trkpt lat="43.58921" lon="3.52083">
        <ele>87</ele>
        <time>2022-02-22T11:49:33Z</time>
      </trkpt>
      <trkpt lat="43.58921" lon="3.52087">
        <ele>87</ele>
        <time>2022-02-22T11:49:36Z</time>
      </trkpt>
      <trkpt lat="43.58922" lon="3.52092">
        <ele>87</ele>
        <time>2022-02-22T11:49:40Z</time>
      </trkpt>
      <trkpt lat="43.58923" lon="3.52096">
        <ele>87</ele>
        <time>2022-02-22T11:49:43Z</time>
      </trkpt>
      <trkpt lat="43.58925" lon="3.52099">
        <ele>87</ele>
        <time>2022-02-22T11:49:56Z</time>
      </trkpt>
      <trkpt lat="43.58927" lon="3.521">
        <ele>87</ele>
        <time>2022-02-22T11:50:00Z</time>
      </trkpt>
      <trkpt lat="43.5893" lon="3.52099">
        <ele>87</ele>
        <time>2022-02-22T11:50:05Z</time>
      </trkpt>
      <trkpt lat="43.5893" lon="3.52101">
        <ele>87</ele>
        <time>2022-02-22T11:50:21Z</time>
      </trkpt>
      <trkpt lat="43.58929" lon="3.52104">
        <ele>87</ele>
        <time>2022-02-22T11:50:25Z</time>
      </trkpt>
      <trkpt lat="43.58929" lon="3.52108">
        <ele>87</ele>
        <time>2022-02-22T11:50:29Z</time>
      </trkpt>
      <trkpt lat="43.58929" lon="3.52112">
        <ele>87</ele>
        <time>2022-02-22T11:50:34Z</time>
      </trkpt>
      <trkpt lat="43.5893" lon="3.52115">
        <ele>87</ele>
        <time>2022-02-22T11:50:40Z</time>
      </trkpt>
      <trkpt lat="43.58929" lon="3.52117">
        <ele>87</ele>
        <time>2022-02-22T11:51:18Z</time>
      </trkpt>
      <trkpt lat="43.58929" lon="3.5212">
        <ele>87</ele>
        <time>2022-02-22T11:51:44Z</time>
      </trkpt>
      <trkpt lat="43.5893" lon="3.52124">
        <ele>87</ele>
        <time>2022-02-22T11:51:48Z</time>
      </trkpt>
      <trkpt lat="43.58932" lon="3.52127">
        <ele>87</ele>
        <time>2022-02-22T11:51:52Z</time>
      </trkpt>
      <trkpt lat="43.58933" lon="3.52131">
        <ele>87</ele>
        <time>2022-02-22T11:51:56Z</time>
      </trkpt>
      <trkpt lat="43.58935" lon="3.52134">
        <ele>87</ele>
        <time>2022-02-22T11:52:00Z</time>
      </trkpt>
      <trkpt lat="43.58937" lon="3.52137">
        <ele>87</ele>
        <time>2022-02-22T11:52:05Z</time>
      </trkpt>
      <trkpt lat="43.58939" lon="3.52141">
        <ele>87</ele>
        <time>2022-02-22T11:52:48Z</time>
      </trkpt>
      <trkpt lat="43.5894" lon="3.52145">
        <ele>87</ele>
        <time>2022-02-22T11:52:51Z</time>
      </trkpt>
      <trkpt lat="43.58942" lon="3.52148">
        <ele>87</ele>
        <time>2022-02-22T11:52:55Z</time>
      </trkpt>
      <trkpt lat="43.58943" lon="3.52152">
        <ele>87</ele>
        <time>2022-02-22T11:53:00Z</time>
      </trkpt>
      <trkpt lat="43.58945" lon="3.52156">
        <ele>87</ele>
        <time>2022-02-22T11:53:04Z</time>
      </trkpt>
      <trkpt lat="43.58948" lon="3.52158">
        <ele>87</ele>
        <time>2022-02-22T11:53:17Z</time>
      </trkpt>
      <trkpt lat="43.5895" lon="3.52162">
        <ele>87</ele>
        <time>2022-02-22T11:53:34Z</time>
      </trkpt>
      <trkpt lat="43.58952" lon="3.52165">
        <ele>87</ele>
        <time>2022-02-22T11:53:38Z</time>
      </trkpt>
      <trkpt lat="43.58955" lon="3.52164">
        <ele>87</ele>
        <time>2022-02-22T11:53:45Z</time>
      </trkpt>
      <trkpt lat="43.58957" lon="3.52163">
        <ele>87</ele>
        <time>2022-02-22T11:54:16Z</time>
      </trkpt>
      <trkpt lat="43.5896" lon="3.52163">
        <ele>87</ele>
        <time>2022-02-22T11:54:20Z</time>
      </trkpt>
      <trkpt lat="43.58963" lon="3.52163">
        <ele>87</ele>
        <time>2022-02-22T11:54:23Z</time>
      </trkpt>
      <trkpt lat="43.58966" lon="3.52163">
        <ele>87</ele>
        <time>2022-02-22T11:54:27Z</time>
      </trkpt>
      <trkpt lat="43.58969" lon="3.52164">
        <ele>87</ele>
        <time>2022-02-22T11:54:31Z</time>
      </trkpt>
      <trkpt lat="43.58972" lon="3.52165">
        <ele>87</ele>
        <time>2022-02-22T11:54:35Z</time>
      </trkpt>
      <trkpt lat="43.58974" lon="3.52168">
        <ele>87</ele>
        <time>2022-02-22T11:54:43Z</time>
      </trkpt>
      <trkpt lat="43.58977" lon="3.5217">
        <ele>87</ele>
        <time>2022-02-22T11:54:46Z</time>
      </trkpt>
      <trkpt lat="43.58979" lon="3.52173">
        <ele>87</ele>
        <time>2022-02-22T11:54:49Z</time>
      </trkpt>
      <trkpt lat="43.58981" lon="3.52175">
        <ele>87</ele>
        <time>2022-02-22T11:54:52Z</time>
      </trkpt>
      <trkpt lat="43.58983" lon="3.52179">
        <ele>87</ele>
        <time>2022-02-22T11:54:56Z</time>
      </trkpt>
      <trkpt lat="43.58985" lon="3.52183">
        <ele>87</ele>
        <time>2022-02-22T11:54:59Z</time>
      </trkpt>
      <trkpt lat="43.58986" lon="3.52187">
        <ele>87</ele>
        <time>2022-02-22T11:55:03Z</time>
      </trkpt>
      <trkpt lat="43.58987" lon="3.52191">
        <ele>87</ele>
        <time>2022-02-22T11:55:06Z</time>
      </trkpt>
      <trkpt lat="43.58989" lon="3.52194">
        <ele>87</ele>
        <time>2022-02-22T11:55:10Z</time>
      </trkpt>
      <trkpt lat="43.58991" lon="3.52198">
        <ele>87</ele>
        <time>2022-02-22T11:55:14Z</time>
      </trkpt>
      <trkpt lat="43.58994" lon="3.522">
        <ele>87</ele>
        <time>2022-02-22T11:55:17Z</time>
      </trkpt>
      <trkpt lat="43.58996" lon="3.52202">
        <ele>87</ele>
        <time>2022-02-22T11:55:21Z</time>
      </trkpt>
      <trkpt lat="43.58999" lon="3.52204">
        <ele>87</ele>
        <time>2022-02-22T11:55:24Z</time>
      </trkpt>
      <trkpt lat="43.59002" lon="3.52206">
        <ele>87</ele>
        <time>2022-02-22T11:55:29Z</time>
      </trkpt>
      <trkpt lat="43.59004" lon="3.52208">
        <ele>87</ele>
        <time>2022-02-22T11:55:32Z</time>
      </trkpt>
      <trkpt lat="43.59007" lon="3.52211">
        <ele>87</ele>
        <time>2022-02-22T11:55:43Z</time>
      </trkpt>
      <trkpt lat="43.5901" lon="3.52212">
        <ele>87</ele>
        <time>2022-02-22T11:55:47Z</time>
      </trkpt>
      <trkpt lat="43.59012" lon="3.52214">
        <ele>87</ele>
        <time>2022-02-22T11:55:51Z</time>
      </trkpt>
      <trkpt lat="43.59015" lon="3.52217">
        <ele>87</ele>
        <time>2022-02-22T11:55:55Z</time>
      </trkpt>
      <trkpt lat="43.59017" lon="3.52219">
        <ele>87</ele>
        <time>2022-02-22T11:55:59Z</time>
      </trkpt>
      <trkpt lat="43.5902" lon="3.5222">
        <ele>87</ele>
        <time>2022-02-22T11:56:03Z</time>
      </trkpt>
      <trkpt lat="43.59023" lon="3.52219">
        <ele>87</ele>
        <time>2022-02-22T11:56:28Z</time>
      </trkpt>
      <trkpt lat="43.59026" lon="3.52221">
        <ele>87</ele>
        <time>2022-02-22T11:56:40Z</time>
      </trkpt>
      <trkpt lat="43.59028" lon="3.52224">
        <ele>87</ele>
        <time>2022-02-22T11:56:43Z</time>
      </trkpt>
      <trkpt lat="43.5903" lon="3.52227">
        <ele>87</ele>
        <time>2022-02-22T11:56:48Z</time>
      </trkpt>
      <trkpt lat="43.59033" lon="3.52229">
        <ele>87</ele>
        <time>2022-02-22T11:56:51Z</time>
      </trkpt>
      <trkpt lat="43.59036" lon="3.52232">
        <ele>87</ele>
        <time>2022-02-22T11:56:53Z</time>
      </trkpt>
      <trkpt lat="43.59038" lon="3.52235">
        <ele>87</ele>
        <time>2022-02-22T11:56:57Z</time>
      </trkpt>
      <trkpt lat="43.59041" lon="3.52237">
        <ele>87</ele>
        <time>2022-02-22T11:57:00Z</time>
      </trkpt>
      <trkpt lat="43.59043" lon="3.5224">
        <ele>87</ele>
        <time>2022-02-22T11:57:03Z</time>
      </trkpt>
      <trkpt lat="43.59046" lon="3.52243">
        <ele>87</ele>
        <time>2022-02-22T11:57:06Z</time>
      </trkpt>
      <trkpt lat="43.59049" lon="3.52246">
        <ele>87</ele>
        <time>2022-02-22T11:57:09Z</time>
      </trkpt>
      <trkpt lat="43.59051" lon="3.52248">
        <ele>87</ele>
        <time>2022-02-22T11:57:13Z</time>
      </trkpt>
      <trkpt lat="43.59054" lon="3.52251">
        <ele>87</ele>
        <time>2022-02-22T11:57:17Z</time>
      </trkpt>
      <trkpt lat="43.59057" lon="3.52253">
        <ele>87</ele>
        <time>2022-02-22T11:57:31Z</time>
      </trkpt>
      <trkpt lat="43.5906" lon="3.52255">
        <ele>87</ele>
        <time>2022-02-22T11:57:35Z</time>
      </trkpt>
      <trkpt lat="43.59063" lon="3.52257">
        <ele>87</ele>
        <time>2022-02-22T11:57:38Z</time>
      </trkpt>
      <trkpt lat="43.59066" lon="3.5226">
        <ele>87</ele>
        <time>2022-02-22T11:57:41Z</time>
      </trkpt>
      <trkpt lat="43.59068" lon="3.52262">
        <ele>87</ele>
        <time>2022-02-22T11:57:44Z</time>
      </trkpt>
      <trkpt lat="43.59071" lon="3.52265">
        <ele>87</ele>
        <time>2022-02-22T11:57:47Z</time>
      </trkpt>
      <trkpt lat="43.59073" lon="3.52267">
        <ele>87</ele>
        <time>2022-02-22T11:57:51Z</time>
      </trkpt>
      <trkpt lat="43.59076" lon="3.52269">
        <ele>87</ele>
        <time>2022-02-22T11:57:55Z</time>
      </trkpt>
      <trkpt lat="43.59079" lon="3.52271">
        <ele>87</ele>
        <time>2022-02-22T11:58:00Z</time>
      </trkpt>
      <trkpt lat="43.59082" lon="3.52274">
        <ele>87</ele>
        <time>2022-02-22T11:58:04Z</time>
      </trkpt>
      <trkpt lat="43.59085" lon="3.52275">
        <ele>87</ele>
        <time>2022-02-22T11:58:16Z</time>
      </trkpt>
      <trkpt lat="43.59088" lon="3.52276">
        <ele>87</ele>
        <time>2022-02-22T11:58:18Z</time>
      </trkpt>
      <trkpt lat="43.59091" lon="3.52278">
        <ele>87</ele>
        <time>2022-02-22T11:58:21Z</time>
      </trkpt>
      <trkpt lat="43.59094" lon="3.5228">
        <ele>87</ele>
        <time>2022-02-22T11:58:24Z</time>
      </trkpt>
      <trkpt lat="43.59097" lon="3.52282">
        <ele>87</ele>
        <time>2022-02-22T11:58:29Z</time>
      </trkpt>
      <trkpt lat="43.59099" lon="3.52283">
        <ele>87</ele>
        <time>2022-02-22T11:58:32Z</time>
      </trkpt>
      <trkpt lat="43.59102" lon="3.52284">
        <ele>87</ele>
        <time>2022-02-22T11:58:35Z</time>
      </trkpt>
      <trkpt lat="43.59105" lon="3.52284">
        <ele>87</ele>
        <time>2022-02-22T11:58:40Z</time>
      </trkpt>
      <trkpt lat="43.59108" lon="3.52285">
        <ele>87</ele>
        <time>2022-02-22T11:58:43Z</time>
      </trkpt>
      <trkpt lat="43.59111" lon="3.52287">
        <ele>87</ele>
        <time>2022-02-22T11:58:46Z</time>
      </trkpt>
      <trkpt lat="43.59114" lon="3.52289">
        <ele>87</ele>
        <time>2022-02-22T11:58:50Z</time>
      </trkpt>
      <trkpt lat="43.59117" lon="3.52288">
        <ele>87</ele>
        <time>2022-02-22T11:58:54Z</time>
      </trkpt>
      <trkpt lat="43.5912" lon="3.52288">
        <ele>87</ele>
        <time>2022-02-22T11:59:01Z</time>
      </trkpt>
      <trkpt lat="43.59123" lon="3.52289">
        <ele>87</ele>
        <time>2022-02-22T11:59:04Z</time>
      </trkpt>
      <trkpt lat="43.59127" lon="3.52289">
        <ele>87</ele>
        <time>2022-02-22T11:59:07Z</time>
      </trkpt>
      <trkpt lat="43.5913" lon="3.52288">
        <ele>87</ele>
        <time>2022-02-22T11:59:12Z</time>
      </trkpt>
      <trkpt lat="43.59133" lon="3.52287">
        <ele>87</ele>
        <time>2022-02-22T11:59:15Z</time>
      </trkpt>
      <trkpt lat="43.59136" lon="3.52288">
        <ele>87</ele>
        <time>2022-02-22T11:59:19Z</time>
      </trkpt>
      <trkpt lat="43.59139" lon="3.52288">
        <ele>87</ele>
        <time>2022-02-22T11:59:23Z</time>
      </trkpt>
      <trkpt lat="43.59142" lon="3.52288">
        <ele>87</ele>
        <time>2022-02-22T11:59:26Z</time>
      </trkpt>
      <trkpt lat="43.59145" lon="3.52287">
        <ele>87</ele>
        <time>2022-02-22T11:59:31Z</time>
      </trkpt>
      <trkpt lat="43.59148" lon="3.52286">
        <ele>87</ele>
        <time>2022-02-22T11:59:38Z</time>
      </trkpt>
      <trkpt lat="43.59151" lon="3.52284">
        <ele>87</ele>
        <time>2022-02-22T11:59:41Z</time>
      </trkpt>
      <trkpt lat="43.59152" lon="3.52281">
        <ele>87</ele>
        <time>2022-02-22T11:59:44Z</time>
      </trkpt>
      <trkpt lat="43.59155" lon="3.52279">
        <ele>87</ele>
        <time>2022-02-22T11:59:48Z</time>
      </trkpt>
      <trkpt lat="43.59157" lon="3.52276">
        <ele>87</ele>
        <time>2022-02-22T11:59:53Z</time>
      </trkpt>
      <trkpt lat="43.5916" lon="3.52275">
        <ele>87</ele>
        <time>2022-02-22T11:59:57Z</time>
      </trkpt>
      <trkpt lat="43.59163" lon="3.52276">
        <ele>87</ele>
        <time>2022-02-22T12:00:01Z</time>
      </trkpt>
      <trkpt lat="43.59166" lon="3.52276">
        <ele>87</ele>
        <time>2022-02-22T12:00:04Z</time>
      </trkpt>
      <trkpt lat="43.59169" lon="3.52276">
        <ele>87</ele>
        <time>2022-02-22T12:00:06Z</time>
      </trkpt>
      <trkpt lat="43.59172" lon="3.52276">
        <ele>87</ele>
        <time>2022-02-22T12:00:08Z</time>
      </trkpt>
      <trkpt lat="43.59174" lon="3.52277">
        <ele>87</ele>
        <time>2022-02-22T12:00:11Z</time>
      </trkpt>
      <trkpt lat="43.59177" lon="3.52278">
        <ele>87</ele>
        <time>2022-02-22T12:00:14Z</time>
      </trkpt>
      <trkpt lat="43.59181" lon="3.52279">
        <ele>87</ele>
        <time>2022-02-22T12:00:17Z</time>
      </trkpt>
      <trkpt lat="43.59183" lon="3.52281">
        <ele>87</ele>
        <time>2022-02-22T12:00:20Z</time>
      </trkpt>
      <trkpt lat="43.59186" lon="3.52283">
        <ele>87</ele>
        <time>2022-02-22T12:00:23Z</time>
      </trkpt>
      <trkpt lat="43.59188" lon="3.52285">
        <ele>87</ele>
        <time>2022-02-22T12:00:26Z</time>
      </trkpt>
      <trkpt lat="43.59191" lon="3.52288">
        <ele>87</ele>
        <time>2022-02-22T12:00:29Z</time>
      </trkpt>
      <trkpt lat="43.59193" lon="3.52291">
        <ele>87</ele>
        <time>2022-02-22T12:00:31Z</time>
      </trkpt>
      <trkpt lat="43.59196" lon="3.52294">
        <ele>87</ele>
        <time>2022-02-22T12:00:34Z</time>
      </trkpt>
      <trkpt lat="43.59197" lon="3.52297">
        <ele>87</ele>
        <time>2022-02-22T12:00:38Z</time>
      </trkpt>
      <trkpt lat="43.59198" lon="3.52302">
        <ele>87</ele>
        <time>2022-02-22T12:00:41Z</time>
      </trkpt>
      <trkpt lat="43.59198" lon="3.52306">
        <ele>87</ele>
        <time>2022-02-22T12:00:44Z</time>
      </trkpt>
      <trkpt lat="43.59199" lon="3.5231">
        <ele>87</ele>
        <time>2022-02-22T12:00:48Z</time>
      </trkpt>
      <trkpt lat="43.59199" lon="3.52315">
        <ele>87</ele>
        <time>2022-02-22T12:00:52Z</time>
      </trkpt>
      <trkpt lat="43.59197" lon="3.52317">
        <ele>87</ele>
        <time>2022-02-22T12:00:56Z</time>
      </trkpt>
      <trkpt lat="43.59197" lon="3.52316">
        <ele>87</ele>
        <time>2022-02-22T12:01:07Z</time>
      </trkpt>
      <trkpt lat="43.59199" lon="3.52314">
        <ele>87</ele>
        <time>2022-02-22T12:01:09Z</time>
      </trkpt>
      <trkpt lat="43.59201" lon="3.52314">
        <ele>87</ele>
        <time>2022-02-22T12:01:11Z</time>
      </trkpt>
      <trkpt lat="43.59204" lon="3.52312">
        <ele>87</ele>
        <time>2022-02-22T12:01:15Z</time>
      </trkpt>
      <trkpt lat="43.59206" lon="3.5231">
        <ele>87</ele>
        <time>2022-02-22T12:01:21Z</time>
      </trkpt>
      <trkpt lat="43.59208" lon="3.52306">
        <ele>87</ele>
        <time>2022-02-22T12:01:24Z</time>
      </trkpt>
      <trkpt lat="43.59208" lon="3.52303">
        <ele>87</ele>
        <time>2022-02-22T12:01:26Z</time>
      </trkpt>
      <trkpt lat="43.5921" lon="3.52298">
        <ele>87</ele>
        <time>2022-02-22T12:01:29Z</time>
      </trkpt>
      <trkpt lat="43.59211" lon="3.52294">
        <ele>87</ele>
        <time>2022-02-22T12:01:32Z</time>
      </trkpt>
      <trkpt lat="43.59213" lon="3.5229">
        <ele>87</ele>
        <time>2022-02-22T12:01:36Z</time>
      </trkpt>
      <trkpt lat="43.59215" lon="3.52287">
        <ele>87</ele>
        <time>2022-02-22T12:01:39Z</time>
      </trkpt>
      <trkpt lat="43.59218" lon="3.52284">
        <ele>87</ele>
        <time>2022-02-22T12:01:42Z</time>
      </trkpt>
      <trkpt lat="43.5922" lon="3.5228">
        <ele>87</ele>
        <time>2022-02-22T12:01:45Z</time>
      </trkpt>
      <trkpt lat="43.59222" lon="3.52277">
        <ele>87</ele>
        <time>2022-02-22T12:01:48Z</time>
      </trkpt>
      <trkpt lat="43.59224" lon="3.52273">
        <ele>87</ele>
        <time>2022-02-22T12:01:51Z</time>
      </trkpt>
      <trkpt lat="43.59226" lon="3.52271">
        <ele>87</ele>
        <time>2022-02-22T12:01:53Z</time>
      </trkpt>
      <trkpt lat="43.59229" lon="3.52269">
        <ele>87</ele>
        <time>2022-02-22T12:02:00Z</time>
      </trkpt>
      <trkpt lat="43.59231" lon="3.5227">
        <ele>87</ele>
        <time>2022-02-22T12:02:16Z</time>
      </trkpt>
      <trkpt lat="43.59234" lon="3.5227">
        <ele>87</ele>
        <time>2022-02-22T12:02:22Z</time>
      </trkpt>
      <trkpt lat="43.59237" lon="3.52271">
        <ele>87</ele>
        <time>2022-02-22T12:02:30Z</time>
      </trkpt>
      <trkpt lat="43.59239" lon="3.52274">
        <ele>87</ele>
        <time>2022-02-22T12:02:47Z</time>
      </trkpt>
      <trkpt lat="43.59239" lon="3.52279">
        <ele>87</ele>
        <time>2022-02-22T12:02:56Z</time>
      </trkpt>
      <trkpt lat="43.59241" lon="3.52281">
        <ele>87</ele>
        <time>2022-02-22T12:03:13Z</time>
      </trkpt>
      <trkpt lat="43.59242" lon="3.52285">
        <ele>87</ele>
        <time>2022-02-22T12:03:18Z</time>
      </trkpt>
      <trkpt lat="43.59242" lon="3.52289">
        <ele>87</ele>
        <time>2022-02-22T12:03:23Z</time>
      </trkpt>
      <trkpt lat="43.59242" lon="3.52293">
        <ele>87</ele>
        <time>2022-02-22T12:03:30Z</time>
      </trkpt>
      <trkpt lat="43.59242" lon="3.52297">
        <ele>87</ele>
        <time>2022-02-22T12:03:38Z</time>
      </trkpt>
      <trkpt lat="43.59241" lon="3.52301">
        <ele>87</ele>
        <time>2022-02-22T12:03:40Z</time>
      </trkpt>
      <trkpt lat="43.59241" lon="3.52305">
        <ele>87</ele>
        <time>2022-02-22T12:03:42Z</time>
      </trkpt>
      <trkpt lat="43.5924" lon="3.52309">
        <ele>87</ele>
        <time>2022-02-22T12:03:44Z</time>
      </trkpt>
      <trkpt lat="43.59239" lon="3.52313">
        <ele>87</ele>
        <time>2022-02-22T12:03:53Z</time>
      </trkpt>
      <trkpt lat="43.59237" lon="3.52317">
        <ele>87</ele>
        <time>2022-02-22T12:03:56Z</time>
      </trkpt>
      <trkpt lat="43.59236" lon="3.5232">
        <ele>87</ele>
        <time>2022-02-22T12:03:59Z</time>
      </trkpt>
      <trkpt lat="43.59234" lon="3.52324">
        <ele>87</ele>
        <time>2022-02-22T12:04:03Z</time>
      </trkpt>
      <trkpt lat="43.59234" lon="3.52327">
        <ele>87</ele>
        <time>2022-02-22T12:04:05Z</time>
      </trkpt>
      <trkpt lat="43.59234" lon="3.52331">
        <ele>87</ele>
        <time>2022-02-22T12:04:08Z</time>
      </trkpt>
      <trkpt lat="43.59234" lon="3.52334">
        <ele>87</ele>
        <time>2022-02-22T12:04:11Z</time>
      </trkpt>
      <trkpt lat="43.59233" lon="3.52339">
        <ele>87</ele>
        <time>2022-02-22T12:04:14Z</time>
      </trkpt>
      <trkpt lat="43.59232" lon="3.52343">
        <ele>87</ele>
        <time>2022-02-22T12:04:17Z</time>
      </trkpt>
      <trkpt lat="43.59228" lon="3.52346">
        <ele>87</ele>
        <time>2022-02-22T12:04:20Z</time>
      </trkpt>
      <trkpt lat="43.59226" lon="3.5235">
        <ele>87</ele>
        <time>2022-02-22T12:04:23Z</time>
      </trkpt>
      <trkpt lat="43.59225" lon="3.52353">
        <ele>87</ele>
        <time>2022-02-22T12:04:25Z</time>
      </trkpt>
      <trkpt lat="43.59226" lon="3.52357">
        <ele>87</ele>
        <time>2022-02-22T12:04:27Z</time>
      </trkpt>
      <trkpt lat="43.59226" lon="3.5236">
        <ele>87</ele>
        <time>2022-02-22T12:04:30Z</time>
      </trkpt>
      <trkpt lat="43.59227" lon="3.52364">
        <ele>87</ele>
        <time>2022-02-22T12:04:33Z</time>
      </trkpt>
      <trkpt lat="43.59227" lon="3.52368">
        <ele>87</ele>
        <time>2022-02-22T12:04:37Z</time>
      </trkpt>
      <trkpt lat="43.59228" lon="3.52371">
        <ele>87</ele>
        <time>2022-02-22T12:04:40Z</time>
      </trkpt>
      <trkpt lat="43.59229" lon="3.52376">
        <ele>87</ele>
        <time>2022-02-22T12:04:43Z</time>
      </trkpt>
      <trkpt lat="43.59229" lon="3.5238">
        <ele>87</ele>
        <time>2022-02-22T12:04:49Z</time>
      </trkpt>
      <trkpt lat="43.59231" lon="3.52383">
        <ele>87</ele>
        <time>2022-02-22T12:04:52Z</time>
      </trkpt>
      <trkpt lat="43.59232" lon="3.52386">
        <ele>87</ele>
        <time>2022-02-22T12:04:55Z</time>
      </trkpt>
      <trkpt lat="43.59234" lon="3.5239">
        <ele>87</ele>
        <time>2022-02-22T12:04:58Z</time>
      </trkpt>
      <trkpt lat="43.59236" lon="3.52392">
        <ele>87</ele>
        <time>2022-02-22T12:05:01Z</time>
      </trkpt>
      <trkpt lat="43.59239" lon="3.52393">
        <ele>87</ele>
        <time>2022-02-22T12:05:10Z</time>
      </trkpt>
      <trkpt lat="43.59242" lon="3.52393">
        <ele>87</ele>
        <time>2022-02-22T12:05:15Z</time>
      </trkpt>
      <trkpt lat="43.59245" lon="3.52392">
        <ele>87</ele>
        <time>2022-02-22T12:05:19Z</time>
      </trkpt>
      <trkpt lat="43.59248" lon="3.5239">
        <ele>87</ele>
        <time>2022-02-22T12:05:23Z</time>
      </trkpt>
      <trkpt lat="43.5925" lon="3.52388">
        <ele>87</ele>
        <time>2022-02-22T12:05:25Z</time>
      </trkpt>
      <trkpt lat="43.59255" lon="3.52389">
        <ele>87</ele>
        <time>2022-02-22T12:05:47Z</time>
      </trkpt>
      <trkpt lat="43.59259" lon="3.5239">
        <ele>87</ele>
        <time>2022-02-22T12:05:49Z</time>
      </trkpt>
      <trkpt lat="43.59262" lon="3.52389">
        <ele>87</ele>
        <time>2022-02-22T12:05:52Z</time>
      </trkpt>
      <trkpt lat="43.59264" lon="3.52386">
        <ele>87</ele>
        <time>2022-02-22T12:05:55Z</time>
      </trkpt>
      <trkpt lat="43.59266" lon="3.52383">
        <ele>87</ele>
        <time>2022-02-22T12:05:58Z</time>
      </trkpt>
      <trkpt lat="43.59268" lon="3.52379">
        <ele>87</ele>
        <time>2022-02-22T12:06:02Z</time>
      </trkpt>
      <trkpt lat="43.59272" lon="3.52378">
        <ele>87</ele>
        <time>2022-02-22T12:06:04Z</time>
      </trkpt>
      <trkpt lat="43.59274" lon="3.52377">
        <ele>87</ele>
        <time>2022-02-22T12:06:06Z</time>
      </trkpt>
      <trkpt lat="43.59278" lon="3.52375">
        <ele>87</ele>
        <time>2022-02-22T12:06:09Z</time>
      </trkpt>
      <trkpt lat="43.59281" lon="3.52372">
        <ele>87</ele>
        <time>2022-02-22T12:06:12Z</time>
      </trkpt>
      <trkpt lat="43.59284" lon="3.5237">
        <ele>87</ele>
        <time>2022-02-22T12:06:18Z</time>
      </trkpt>
      <trkpt lat="43.59284" lon="3.52367">
        <ele>87</ele>
        <time>2022-02-22T12:06:23Z</time>
      </trkpt>
      <trkpt lat="43.59287" lon="3.52366">
        <ele>87</ele>
        <time>2022-02-22T12:06:30Z</time>
      </trkpt>
      <trkpt lat="43.59289" lon="3.52367">
        <ele>87</ele>
        <time>2022-02-22T12:06:37Z</time>
      </trkpt>
      <trkpt lat="43.59292" lon="3.52369">
        <ele>87</ele>
        <time>2022-02-22T12:07:00Z</time>
      </trkpt>
      <trkpt lat="43.59293" lon="3.52367">
        <ele>87</ele>
        <time>2022-02-22T12:07:10Z</time>
      </trkpt>
      <trkpt lat="43.59294" lon="3.52365">
        <ele>87</ele>
        <time>2022-02-22T12:07:30Z</time>
      </trkpt>
      <trkpt lat="43.59296" lon="3.52362">
        <ele>87</ele>
        <time>2022-02-22T12:07:33Z</time>
      </trkpt>
      <trkpt lat="43.59295" lon="3.52364">
        <ele>87</ele>
        <time>2022-02-22T12:07:44Z</time>
      </trkpt>
      <trkpt lat="43.59293" lon="3.52366">
        <ele>87</ele>
        <time>2022-02-22T12:07:47Z</time>
      </trkpt>
      <trkpt lat="43.59291" lon="3.52369">
        <ele>87</ele>
        <time>2022-02-22T12:07:51Z</time>
      </trkpt>
      <trkpt lat="43.59289" lon="3.52367">
        <ele>87</ele>
        <time>2022-02-22T12:07:59Z</time>
      </trkpt>
      <trkpt lat="43.59287" lon="3.52364">
        <ele>87</ele>
        <time>2022-02-22T12:08:02Z</time>
      </trkpt>
      <trkpt lat="43.59288" lon="3.5236">
        <ele>87</ele>
        <time>2022-02-22T12:08:06Z</time>
      </trkpt>
      <trkpt lat="43.59289" lon="3.52356">
        <ele>87</ele>
        <time>2022-02-22T12:08:09Z</time>
      </trkpt>
      <trkpt lat="43.59288" lon="3.52353">
        <ele>87</ele>
        <time>2022-02-22T12:08:12Z</time>
      </trkpt>
      <trkpt lat="43.59285" lon="3.52351">
        <ele>87</ele>
        <time>2022-02-22T12:08:15Z</time>
      </trkpt>
      <trkpt lat="43.59283" lon="3.52349">
        <ele>87</ele>
        <time>2022-02-22T12:08:21Z</time>
      </trkpt>
      <trkpt lat="43.5928" lon="3.52347">
        <ele>87</ele>
        <time>2022-02-22T12:08:26Z</time>
      </trkpt>
      <trkpt lat="43.59278" lon="3.52344">
        <ele>87</ele>
        <time>2022-02-22T12:08:30Z</time>
      </trkpt>
      <trkpt lat="43.59275" lon="3.52342">
        <ele>87</ele>
        <time>2022-02-22T12:08:35Z</time>
      </trkpt>
      <trkpt lat="43.59276" lon="3.52339">
        <ele>87</ele>
        <time>2022-02-22T12:08:40Z</time>
      </trkpt>
      <trkpt lat="43.59278" lon="3.52336">
        <ele>87</ele>
        <time>2022-02-22T12:08:43Z</time>
      </trkpt>
      <trkpt lat="43.59278" lon="3.52332">
        <ele>87</ele>
        <time>2022-02-22T12:08:46Z</time>
      </trkpt>
      <trkpt lat="43.59278" lon="3.52329">
        <ele>87</ele>
        <time>2022-02-22T12:08:49Z</time>
      </trkpt>
      <trkpt lat="43.59276" lon="3.52326">
        <ele>87</ele>
        <time>2022-02-22T12:08:52Z</time>
      </trkpt>
      <trkpt lat="43.59273" lon="3.52324">
        <ele>87</ele>
        <time>2022-02-22T12:08:55Z</time>
      </trkpt>
      <trkpt lat="43.5927" lon="3.52322">
        <ele>87</ele>
        <time>2022-02-22T12:09:00Z</time>
      </trkpt>
      <trkpt lat="43.59266" lon="3.52319">
        <ele>87</ele>
        <time>2022-02-22T12:09:03Z</time>
      </trkpt>
      <trkpt lat="43.59263" lon="3.52319">
        <ele>87</ele>
        <time>2022-02-22T12:09:09Z</time>
      </trkpt>
      <trkpt lat="43.59257" lon="3.52319">
        <ele>87</ele>
        <time>2022-02-22T12:09:44Z</time>
      </trkpt>
      <trkpt lat="43.59253" lon="3.52321">
        <ele>87</ele>
        <time>2022-02-22T12:09:49Z</time>
      </trkpt>
      <trkpt lat="43.5925" lon="3.52324">
        <ele>87</ele>
        <time>2022-02-22T12:09:52Z</time>
      </trkpt>
      <trkpt lat="43.59247" lon="3.52327">
        <ele>87</ele>
        <time>2022-02-22T12:09:56Z</time>
      </trkpt>
      <trkpt lat="43.59247" lon="3.5233">
        <ele>87</ele>
        <time>2022-02-22T12:10:12Z</time>
      </trkpt>
      <trkpt lat="43.59248" lon="3.52333">
        <ele>87</ele>
        <time>2022-02-22T12:10:15Z</time>
      </trkpt>
      <trkpt lat="43.59249" lon="3.52337">
        <ele>87</ele>
        <time>2022-02-22T12:10:18Z</time>
      </trkpt>
      <trkpt lat="43.59251" lon="3.5234">
        <ele>87</ele>
        <time>2022-02-22T12:10:20Z</time>
      </trkpt>
      <trkpt lat="43.59253" lon="3.52343">
        <ele>87</ele>
        <time>2022-02-22T12:10:24Z</time>
      </trkpt>
      <trkpt lat="43.59256" lon="3.52342">
        <ele>87</ele>
        <time>2022-02-22T12:10:29Z</time>
      </trkpt>
      <trkpt lat="43.59259" lon="3.52341">
        <ele>87</ele>
        <time>2022-02-22T12:10:34Z</time>
      </trkpt>
      <trkpt lat="43.59262" lon="3.52339">
        <ele>87</ele>
        <time>2022-02-22T12:10:39Z</time>
      </trkpt>
      <trkpt lat="43.59265" lon="3.52339">
        <ele>87</ele>
        <time>2022-02-22T12:10:43Z</time>
      </trkpt>
      <trkpt lat="43.59267" lon="3.52339">
        <ele>87</ele>
        <time>2022-02-22T12:10:46Z</time>
      </trkpt>
      <trkpt lat="43.5927" lon="3.52337">
        <ele>87</ele>
        <time>2022-02-22T12:11:15Z</time>
      </trkpt>
      <trkpt lat="43.59274" lon="3.52339">
        <ele>87</ele>
        <time>2022-02-22T12:12:05Z</time>
      </trkpt>
      <trkpt lat="43.59278" lon="3.52339">
        <ele>87</ele>
        <time>2022-02-22T12:12:09Z</time>
      </trkpt>
      <trkpt lat="43.59282" lon="3.52341">
        <ele>87</ele>
        <time>2022-02-22T12:12:39Z</time>
      </trkpt>
      <trkpt lat="43.59284" lon="3.52344">
        <ele>87</ele>
        <time>2022-02-22T12:12:44Z</time>
      </trkpt>
      <trkpt lat="43.59285" lon="3.52347">
        <ele>87</ele>
        <time>2022-02-22T12:12:50Z</time>
      </trkpt>
      <trkpt lat="43.59286" lon="3.52351">
        <ele>87</ele>
        <time>2022-02-22T12:12:53Z</time>
      </trkpt>
      <trkpt lat="43.59285" lon="3.52354">
        <ele>87</ele>
        <time>2022-02-22T12:12:56Z</time>
      </trkpt>
      <trkpt lat="43.59283" lon="3.52357">
        <ele>87</ele>
        <time>2022-02-22T12:12:59Z</time>
      </trkpt>
      <trkpt lat="43.5928" lon="3.52361">
        <ele>87</ele>
        <time>2022-02-22T12:13:15Z</time>
      </trkpt>
      <trkpt lat="43.59277" lon="3.52364">
        <ele>87</ele>
        <time>2022-02-22T12:13:18Z</time>
      </trkpt>
      <trkpt lat="43.59276" lon="3.52368">
        <ele>87</ele>
        <time>2022-02-22T12:13:21Z</time>
      </trkpt>
      <trkpt lat="43.59278" lon="3.52371">
        <ele>87</ele>
        <time>2022-02-22T12:13:25Z</time>
      </trkpt>
      <trkpt lat="43.5928" lon="3.52372">
        <ele>87</ele>
        <time>2022-02-22T12:13:33Z</time>
      </trkpt>
      <trkpt lat="43.59282" lon="3.52371">
        <ele>87</ele>
        <time>2022-02-22T12:13:36Z</time>
      </trkpt>
      <trkpt lat="43.59285" lon="3.52369">
        <ele>87</ele>
        <time>2022-02-22T12:13:39Z</time>
      </trkpt>
      <trkpt lat="43.59285" lon="3.52365">
        <ele>87</ele>
        <time>2022-02-22T12:13:42Z</time>
      </trkpt>
      <trkpt lat="43.59282" lon="3.52363">
        <ele>87</ele>
        <time>2022-02-22T12:14:15Z</time>
      </trkpt>
      <trkpt lat="43.59281" lon="3.52365">
        <ele>87</ele>
        <time>2022-02-22T12:14:19Z</time>
      </trkpt>
      <trkpt lat="43.59279" lon="3.52368">
        <ele>87</ele>
        <time>2022-02-22T12:14:25Z</time>
      </trkpt>
      <trkpt lat="43.59277" lon="3.52371">
        <ele>87</ele>
        <time>2022-02-22T12:14:27Z</time>
      </trkpt>
      <trkpt lat="43.59275" lon="3.52374">
        <ele>87</ele>
        <time>2022-02-22T12:14:32Z</time>
      </trkpt>
      <trkpt lat="43.59273" lon="3.52377">
        <ele>87</ele>
        <time>2022-02-22T12:14:36Z</time>
      </trkpt>
      <trkpt lat="43.59271" lon="3.5238">
        <ele>87</ele>
        <time>2022-02-22T12:14:41Z</time>
      </trkpt>
      <trkpt lat="43.59268" lon="3.52381">
        <ele>87</ele>
        <time>2022-02-22T12:14:47Z</time>
      </trkpt>
      <trkpt lat="43.59268" lon="3.52379">
        <ele>87</ele>
        <time>2022-02-22T12:14:57Z</time>
      </trkpt>
      <trkpt lat="43.5927" lon="3.52378">
        <ele>87</ele>
        <time>2022-02-22T12:15:00Z</time>
      </trkpt>
      <trkpt lat="43.59272" lon="3.52377">
        <ele>87</ele>
        <time>2022-02-22T12:15:02Z</time>
      </trkpt>
      <trkpt lat="43.59276" lon="3.52376">
        <ele>87</ele>
        <time>2022-02-22T12:15:04Z</time>
      </trkpt>
      <trkpt lat="43.59279" lon="3.52376">
        <ele>87</ele>
        <time>2022-02-22T12:15:07Z</time>
      </trkpt>
      <trkpt lat="43.59283" lon="3.52374">
        <ele>87</ele>
        <time>2022-02-22T12:15:10Z</time>
      </trkpt>
      <trkpt lat="43.59285" lon="3.52372">
        <ele>87</ele>
        <time>2022-02-22T12:15:12Z</time>
      </trkpt>
      <trkpt lat="43.59288" lon="3.52369">
        <ele>87</ele>
        <time>2022-02-22T12:15:15Z</time>
      </trkpt>
      <trkpt lat="43.59288" lon="3.52365">
        <ele>87</ele>
        <time>2022-02-22T12:15:17Z</time>
      </trkpt>
      <trkpt lat="43.5929" lon="3.52365">
        <ele>87</ele>
        <time>2022-02-22T12:15:27Z</time>
      </trkpt>
      <trkpt lat="43.59292" lon="3.52363">
        <ele>87</ele>
        <time>2022-02-22T12:15:32Z</time>
      </trkpt>
      <trkpt lat="43.59294" lon="3.52361">
        <ele>87</ele>
        <time>2022-02-22T12:15:36Z</time>
      </trkpt>
      <trkpt lat="43.59296" lon="3.52357">
        <ele>87</ele>
        <time>2022-02-22T12:15:41Z</time>
      </trkpt>
      <trkpt lat="43.59299" lon="3.52355">
        <ele>87</ele>
        <time>2022-02-22T12:15:45Z</time>
      </trkpt>
      <trkpt lat="43.59301" lon="3.52355">
        <ele>87</ele>
        <time>2022-02-22T12:15:51Z</time>
      </trkpt>
      <trkpt lat="43.59301" lon="3.52357">
        <ele>87</ele>
        <time>2022-02-22T12:15:57Z</time>
      </trkpt>
      <trkpt lat="43.593" lon="3.5236">
        <ele>87</ele>
        <time>2022-02-22T12:16:02Z</time>
      </trkpt>
      <trkpt lat="43.59299" lon="3.52363">
        <ele>87</ele>
        <time>2022-02-22T12:16:07Z</time>
      </trkpt>
      <trkpt lat="43.59296" lon="3.52365">
        <ele>87</ele>
        <time>2022-02-22T12:16:10Z</time>
      </trkpt>
      <trkpt lat="43.59294" lon="3.52368">
        <ele>87</ele>
        <time>2022-02-22T12:16:13Z</time>
      </trkpt>
      <trkpt lat="43.59295" lon="3.52371">
        <ele>87</ele>
        <time>2022-02-22T12:16:19Z</time>
      </trkpt>
      <trkpt lat="43.59296" lon="3.52374">
        <ele>87</ele>
        <time>2022-02-22T12:16:29Z</time>
      </trkpt>
      <trkpt lat="43.59295" lon="3.52377">
        <ele>87</ele>
        <time>2022-02-22T12:16:34Z</time>
      </trkpt>
      <trkpt lat="43.59293" lon="3.5238">
        <ele>87</ele>
        <time>2022-02-22T12:16:44Z</time>
      </trkpt>
      <trkpt lat="43.59291" lon="3.52382">
        <ele>87</ele>
        <time>2022-02-22T12:16:49Z</time>
      </trkpt>
      <trkpt lat="43.59292" lon="3.52382">
        <ele>87</ele>
        <time>2022-02-22T12:17:14Z</time>
      </trkpt>
      <trkpt lat="43.59293" lon="3.52379">
        <ele>87</ele>
        <time>2022-02-22T12:17:18Z</time>
      </trkpt>
      <trkpt lat="43.59295" lon="3.52377">
        <ele>87</ele>
        <time>2022-02-22T12:17:21Z</time>
      </trkpt>
      <trkpt lat="43.59296" lon="3.52373">
        <ele>87</ele>
        <time>2022-02-22T12:17:25Z</time>
      </trkpt>
      <trkpt lat="43.59297" lon="3.5237">
        <ele>87</ele>
        <time>2022-02-22T12:17:28Z</time>
      </trkpt>
      <trkpt lat="43.59298" lon="3.52366">
        <ele>87</ele>
        <time>2022-02-22T12:17:32Z</time>
      </trkpt>
      <trkpt lat="43.593" lon="3.52363">
        <ele>87</ele>
        <time>2022-02-22T12:17:36Z</time>
      </trkpt>
      <trkpt lat="43.593" lon="3.52364">
        <ele>87</ele>
        <time>2022-02-22T12:17:48Z</time>
      </trkpt>
      <trkpt lat="43.59298" lon="3.52366">
        <ele>87</ele>
        <time>2022-02-22T12:17:51Z</time>
      </trkpt>
      <trkpt lat="43.59296" lon="3.52369">
        <ele>87</ele>
        <time>2022-02-22T12:17:54Z</time>
      </trkpt>
      <trkpt lat="43.59294" lon="3.52372">
        <ele>87</ele>
        <time>2022-02-22T12:17:57Z</time>
      </trkpt>
      <trkpt lat="43.59293" lon="3.52376">
        <ele>87</ele>
        <time>2022-02-22T12:18:01Z</time>
      </trkpt>
      <trkpt lat="43.59292" lon="3.5238">
        <ele>87</ele>
        <time>2022-02-22T12:18:25Z</time>
      </trkpt>
      <trkpt lat="43.5929" lon="3.52383">
        <ele>87</ele>
        <time>2022-02-22T12:18:30Z</time>
      </trkpt>
      <trkpt lat="43.59287" lon="3.52386">
        <ele>87</ele>
        <time>2022-02-22T12:18:33Z</time>
      </trkpt>
      <trkpt lat="43.59285" lon="3.52389">
        <ele>87</ele>
        <time>2022-02-22T12:18:36Z</time>
      </trkpt>
      <trkpt lat="43.59285" lon="3.52389">
        <ele>87</ele>
        <time>2022-02-22T12:18:46Z</time>
      </trkpt>
      <trkpt lat="43.59287" lon="3.52388">
        <ele>87</ele>
        <time>2022-02-22T12:18:48Z</time>
      </trkpt>
      <trkpt lat="43.59289" lon="3.52385">
        <ele>87</ele>
        <time>2022-02-22T12:18:50Z</time>
      </trkpt>
      <trkpt lat="43.59291" lon="3.52382">
        <ele>87</ele>
        <time>2022-02-22T12:18:53Z</time>
      </trkpt>
      <trkpt lat="43.59293" lon="3.5238">
        <ele>87</ele>
        <time>2022-02-22T12:18:56Z</time>
      </trkpt>
      <trkpt lat="43.59295" lon="3.52378">
        <ele>87</ele>
        <time>2022-02-22T12:18:59Z</time>
      </trkpt>
      <trkpt lat="43.59297" lon="3.52375">
        <ele>87</ele>
        <time>2022-02-22T12:19:05Z</time>
      </trkpt>
      <trkpt lat="43.59298" lon="3.52372">
        <ele>87</ele>
        <time>2022-02-22T12:19:08Z</time>
      </trkpt>
      <trkpt lat="43.593" lon="3.52369">
        <ele>87</ele>
        <time>2022-02-22T12:19:11Z</time>
      </trkpt>
      <trkpt lat="43.59302" lon="3.52365">
        <ele>87</ele>
        <time>2022-02-22T12:19:14Z</time>
      </trkpt>
      <trkpt lat="43.59304" lon="3.52361">
        <ele>87</ele>
        <time>2022-02-22T12:19:17Z</time>
      </trkpt>
      <trkpt lat="43.59305" lon="3.52358">
        <ele>87</ele>
        <time>2022-02-22T12:19:20Z</time>
      </trkpt>
      <trkpt lat="43.59308" lon="3.52355">
        <ele>87</ele>
        <time>2022-02-22T12:19:23Z</time>
      </trkpt>
      <trkpt lat="43.5931" lon="3.52352">
        <ele>87</ele>
        <time>2022-02-22T12:19:25Z</time>
      </trkpt>
      <trkpt lat="43.59311" lon="3.52349">
        <ele>87</ele>
        <time>2022-02-22T12:19:33Z</time>
      </trkpt>
      <trkpt lat="43.59312" lon="3.52345">
        <ele>87</ele>
        <time>2022-02-22T12:19:39Z</time>
      </trkpt>
      <trkpt lat="43.59314" lon="3.52341">
        <ele>87</ele>
        <time>2022-02-22T12:19:42Z</time>
      </trkpt>
      <trkpt lat="43.59316" lon="3.52339">
        <ele>87</ele>
        <time>2022-02-22T12:19:48Z</time>
      </trkpt>
      <trkpt lat="43.59315" lon="3.5234">
        <ele>87</ele>
        <time>2022-02-22T12:20:14Z</time>
      </trkpt>
      <trkpt lat="43.59316" lon="3.52339">
        <ele>87</ele>
        <time>2022-02-22T12:20:36Z</time>
      </trkpt>
      <trkpt lat="43.59319" lon="3.52338">
        <ele>87</ele>
        <time>2022-02-22T12:20:44Z</time>
      </trkpt>
      <trkpt lat="43.59319" lon="3.5234">
        <ele>87</ele>
        <time>2022-02-22T12:21:00Z</time>
      </trkpt>
      <trkpt lat="43.59319" lon="3.52344">
        <ele>87</ele>
        <time>2022-02-22T12:21:04Z</time>
      </trkpt>
      <trkpt lat="43.5932" lon="3.52348">
        <ele>87</ele>
        <time>2022-02-22T12:21:08Z</time>
      </trkpt>
      <trkpt lat="43.5932" lon="3.52351">
        <ele>87</ele>
        <time>2022-02-22T12:21:12Z</time>
      </trkpt>
      <trkpt lat="43.59322" lon="3.52355">
        <ele>87</ele>
        <time>2022-02-22T12:21:52Z</time>
      </trkpt>
      <trkpt lat="43.59323" lon="3.52358">
        <ele>87</ele>
        <time>2022-02-22T12:21:55Z</time>
      </trkpt>
      <trkpt lat="43.59324" lon="3.52362">
        <ele>87</ele>
        <time>2022-02-22T12:21:58Z</time>
      </trkpt>
      <trkpt lat="43.59325" lon="3.52365">
        <ele>87</ele>
        <time>2022-02-22T12:22:02Z</time>
      </trkpt>
      <trkpt lat="43.59326" lon="3.52369">
        <ele>87</ele>
        <time>2022-02-22T12:22:05Z</time>
      </trkpt>
      <trkpt lat="43.59327" lon="3.52373">
        <ele>87</ele>
        <time>2022-02-22T12:22:08Z</time>
      </trkpt>
      <trkpt lat="43.59328" lon="3.52378">
        <ele>87</ele>
        <time>2022-02-22T12:22:11Z</time>
      </trkpt>
      <trkpt lat="43.5933" lon="3.52382">
        <ele>87</ele>
        <time>2022-02-22T12:22:14Z</time>
      </trkpt>
      <trkpt lat="43.5933" lon="3.52386">
        <ele>87</ele>
        <time>2022-02-22T12:22:19Z</time>
      </trkpt>
      <trkpt lat="43.59331" lon="3.5239">
        <ele>87</ele>
        <time>2022-02-22T12:22:23Z</time>
      </trkpt>
      <trkpt lat="43.59332" lon="3.52394">
        <ele>87</ele>
        <time>2022-02-22T12:22:29Z</time>
      </trkpt>
      <trkpt lat="43.59334" lon="3.52398">
        <ele>87</ele>
        <time>2022-02-22T12:22:46Z</time>
      </trkpt>
      <trkpt lat="43.59334" lon="3.52402">
        <ele>87</ele>
        <time>2022-02-22T12:22:54Z</time>
      </trkpt>
      <trkpt lat="43.59334" lon="3.52406">
        <ele>87</ele>
        <time>2022-02-22T12:22:58Z</time>
      </trkpt>
      <trkpt lat="43.59333" lon="3.5241">
        <ele>87</ele>
        <time>2022-02-22T12:23:02Z</time>
      </trkpt>
      <trkpt lat="43.59331" lon="3.52413">
        <ele>87</ele>
        <time>2022-02-22T12:23:06Z</time>
      </trkpt>
      <trkpt lat="43.59329" lon="3.52417">
        <ele>87</ele>
        <time>2022-02-22T12:23:09Z</time>
      </trkpt>
      <trkpt lat="43.59327" lon="3.52419">
        <ele>87</ele>
        <time>2022-02-22T12:23:12Z</time>
      </trkpt>
      <trkpt lat="43.59325" lon="3.52422">
        <ele>87</ele>
        <time>2022-02-22T12:23:18Z</time>
      </trkpt>
      <trkpt lat="43.59322" lon="3.52424">
        <ele>87</ele>
        <time>2022-02-22T12:23:21Z</time>
      </trkpt>
      <trkpt lat="43.5932" lon="3.52427">
        <ele>87</ele>
        <time>2022-02-22T12:23:24Z</time>
      </trkpt>
      <trkpt lat="43.59318" lon="3.5243">
        <ele>87</ele>
        <time>2022-02-22T12:23:27Z</time>
      </trkpt>
      <trkpt lat="43.59315" lon="3.52432">
        <ele>87</ele>
        <time>2022-02-22T12:23:30Z</time>
      </trkpt>
      <trkpt lat="43.59315" lon="3.52436">
        <ele>87</ele>
        <time>2022-02-22T12:23:39Z</time>
      </trkpt>
      <trkpt lat="43.59315" lon="3.5244">
        <ele>87</ele>
        <time>2022-02-22T12:23:41Z</time>
      </trkpt>
      <trkpt lat="43.59314" lon="3.52443">
        <ele>87</ele>
        <time>2022-02-22T12:24:07Z</time>
      </trkpt>
      <trkpt lat="43.59312" lon="3.52446">
        <ele>87</ele>
        <time>2022-02-22T12:24:19Z</time>
      </trkpt>
      <trkpt lat="43.59313" lon="3.52446">
        <ele>87</ele>
        <time>2022-02-22T12:26:23Z</time>
      </trkpt>
      <trkpt lat="43.59313" lon="3.52442">
        <ele>87</ele>
        <time>2022-02-22T12:26:48Z</time>
      </trkpt>
      <trkpt lat="43.59316" lon="3.52441">
        <ele>87</ele>
        <time>2022-02-22T12:26:54Z</time>
      </trkpt>
      <trkpt lat="43.59318" lon="3.5244">
        <ele>87</ele>
        <time>2022-02-22T12:26:57Z</time>
      </trkpt>
      <trkpt lat="43.59321" lon="3.52439">
        <ele>87</ele>
        <time>2022-02-22T12:27:01Z</time>
      </trkpt>
      <trkpt lat="43.59325" lon="3.52439">
        <ele>87</ele>
        <time>2022-02-22T12:27:05Z</time>
      </trkpt>
      <trkpt lat="43.59328" lon="3.52439">
        <ele>87</ele>
        <time>2022-02-22T12:27:09Z</time>
      </trkpt>
      <trkpt lat="43.5933" lon="3.5244">
        <ele>87</ele>
        <time>2022-02-22T12:27:12Z</time>
      </trkpt>
      <trkpt lat="43.59333" lon="3.52441">
        <ele>87</ele>
        <time>2022-02-22T12:27:16Z</time>
      </trkpt>
      <trkpt lat="43.59335" lon="3.52441">
        <ele>87</ele>
        <time>2022-02-22T12:27:19Z</time>
      </trkpt>
      <trkpt lat="43.59338" lon="3.52441">
        <ele>87</ele>
        <time>2022-02-22T12:27:23Z</time>
      </trkpt>
      <trkpt lat="43.59341" lon="3.5244">
        <ele>87</ele>
        <time>2022-02-22T12:27:26Z</time>
      </trkpt>
      <trkpt lat="43.59344" lon="3.52439">
        <ele>87</ele>
        <time>2022-02-22T12:27:30Z</time>
      </trkpt>
      <trkpt lat="43.59347" lon="3.52438">
        <ele>87</ele>
        <time>2022-02-22T12:27:35Z</time>
      </trkpt>
      <trkpt lat="43.59351" lon="3.52437">
        <ele>87</ele>
        <time>2022-02-22T12:27:38Z</time>
      </trkpt>
      <trkpt lat="43.59354" lon="3.52436">
        <ele>87</ele>
        <time>2022-02-22T12:27:41Z</time>
      </trkpt>
      <trkpt lat="43.59357" lon="3.52434">
        <ele>87</ele>
        <time>2022-02-22T12:27:43Z</time>
      </trkpt>
      <trkpt lat="43.5936" lon="3.52432">
        <ele>87</ele>
        <time>2022-02-22T12:27:46Z</time>
      </trkpt>
      <trkpt lat="43.59363" lon="3.52431">
        <ele>87</ele>
        <time>2022-02-22T12:27:50Z</time>
      </trkpt>
      <trkpt lat="43.59367" lon="3.5243">
        <ele>87</ele>
        <time>2022-02-22T12:27:53Z</time>
      </trkpt>
      <trkpt lat="43.5937" lon="3.5243">
        <ele>87</ele>
        <time>2022-02-22T12:27:56Z</time>
      </trkpt>
      <trkpt lat="43.59373" lon="3.5243">
        <ele>87</ele>
        <time>2022-02-22T12:27:59Z</time>
      </trkpt>
      <trkpt lat="43.59376" lon="3.52429">
        <ele>87</ele>
        <time>2022-02-22T12:28:03Z</time>
      </trkpt>
      <trkpt lat="43.59379" lon="3.52429">
        <ele>87</ele>
        <time>2022-02-22T12:28:06Z</time>
      </trkpt>
      <trkpt lat="43.59382" lon="3.52428">
        <ele>87</ele>
        <time>2022-02-22T12:28:11Z</time>
      </trkpt>
      <trkpt lat="43.59385" lon="3.52428">
        <ele>87</ele>
        <time>2022-02-22T12:28:14Z</time>
      </trkpt>
      <trkpt lat="43.59388" lon="3.52429">
        <ele>87</ele>
        <time>2022-02-22T12:28:18Z</time>
      </trkpt>
      <trkpt lat="43.5939" lon="3.52431">
        <ele>87</ele>
        <time>2022-02-22T12:28:25Z</time>
      </trkpt>
      <trkpt lat="43.59392" lon="3.52434">
        <ele>87</ele>
        <time>2022-02-22T12:28:33Z</time>
      </trkpt>
      <trkpt lat="43.59395" lon="3.52436">
        <ele>87</ele>
        <time>2022-02-22T12:28:36Z</time>
      </trkpt>
      <trkpt lat="43.59398" lon="3.52437">
        <ele>87</ele>
        <time>2022-02-22T12:31:58Z</time>
      </trkpt>
      <trkpt lat="43.59401" lon="3.52436">
        <ele>87</ele>
        <time>2022-02-22T12:32:05Z</time>
      </trkpt>
      <trkpt lat="43.59404" lon="3.52435">
        <ele>87</ele>
        <time>2022-02-22T12:32:12Z</time>
      </trkpt>
      <trkpt lat="43.59407" lon="3.52435">
        <ele>87</ele>
        <time>2022-02-22T12:32:16Z</time>
      </trkpt>
      <trkpt lat="43.5941" lon="3.52433">
        <ele>87</ele>
        <time>2022-02-22T12:32:20Z</time>
      </trkpt>
      <trkpt lat="43.59412" lon="3.52434">
        <ele>87</ele>
        <time>2022-02-22T12:32:24Z</time>
      </trkpt>
      <trkpt lat="43.59415" lon="3.52435">
        <ele>87</ele>
        <time>2022-02-22T12:32:27Z</time>
      </trkpt>
      <trkpt lat="43.59418" lon="3.52435">
        <ele>87</ele>
        <time>2022-02-22T12:32:30Z</time>
      </trkpt>
      <trkpt lat="43.59421" lon="3.52437">
        <ele>87</ele>
        <time>2022-02-22T12:32:34Z</time>
      </trkpt>
      <trkpt lat="43.59424" lon="3.52439">
        <ele>87</ele>
        <time>2022-02-22T12:32:38Z</time>
      </trkpt>
      <trkpt lat="43.59427" lon="3.52441">
        <ele>87</ele>
        <time>2022-02-22T12:32:41Z</time>
      </trkpt>
      <trkpt lat="43.59429" lon="3.52444">
        <ele>87</ele>
        <time>2022-02-22T12:32:45Z</time>
      </trkpt>
      <trkpt lat="43.5943" lon="3.52447">
        <ele>87</ele>
        <time>2022-02-22T12:32:58Z</time>
      </trkpt>
      <trkpt lat="43.59432" lon="3.52448">
        <ele>87</ele>
        <time>2022-02-22T12:33:03Z</time>
      </trkpt>
      <trkpt lat="43.59431" lon="3.52448">
        <ele>87</ele>
        <time>2022-02-22T12:33:24Z</time>
      </trkpt>
      <trkpt lat="43.59429" lon="3.52447">
        <ele>87</ele>
        <time>2022-02-22T12:33:28Z</time>
      </trkpt>
      <trkpt lat="43.59426" lon="3.52447">
        <ele>87</ele>
        <time>2022-02-22T12:33:32Z</time>
      </trkpt>
      <trkpt lat="43.59424" lon="3.52445">
        <ele>87</ele>
        <time>2022-02-22T12:33:35Z</time>
      </trkpt>
      <trkpt lat="43.5942" lon="3.52445">
        <ele>87</ele>
        <time>2022-02-22T12:33:39Z</time>
      </trkpt>
      <trkpt lat="43.59417" lon="3.52445">
        <ele>87</ele>
        <time>2022-02-22T12:33:43Z</time>
      </trkpt>
      <trkpt lat="43.59414" lon="3.52446">
        <ele>87</ele>
        <time>2022-02-22T12:33:46Z</time>
      </trkpt>
      <trkpt lat="43.59411" lon="3.52447">
        <ele>87</ele>
        <time>2022-02-22T12:33:49Z</time>
      </trkpt>
      <trkpt lat="43.59409" lon="3.52447">
        <ele>87</ele>
        <time>2022-02-22T12:33:52Z</time>
      </trkpt>
      <trkpt lat="43.59406" lon="3.52447">
        <ele>87</ele>
        <time>2022-02-22T12:33:56Z</time>
      </trkpt>
      <trkpt lat="43.59403" lon="3.52448">
        <ele>87</ele>
        <time>2022-02-22T12:34:00Z</time>
      </trkpt>
      <trkpt lat="43.594" lon="3.5245">
        <ele>87</ele>
        <time>2022-02-22T12:34:04Z</time>
      </trkpt>
      <trkpt lat="43.59397" lon="3.52451">
        <ele>87</ele>
        <time>2022-02-22T12:34:09Z</time>
      </trkpt>
      <trkpt lat="43.59394" lon="3.52452">
        <ele>87</ele>
        <time>2022-02-22T12:34:15Z</time>
      </trkpt>
      <trkpt lat="43.59391" lon="3.52453">
        <ele>87</ele>
        <time>2022-02-22T12:34:19Z</time>
      </trkpt>
      <trkpt lat="43.59388" lon="3.52455">
        <ele>87</ele>
        <time>2022-02-22T12:34:22Z</time>
      </trkpt>
      <trkpt lat="43.59386" lon="3.52458">
        <ele>87</ele>
        <time>2022-02-22T12:34:26Z</time>
      </trkpt>
      <trkpt lat="43.59384" lon="3.52461">
        <ele>87</ele>
        <time>2022-02-22T12:34:29Z</time>
      </trkpt>
      <trkpt lat="43.59383" lon="3.52464">
        <ele>87</ele>
        <time>2022-02-22T12:35:15Z</time>
      </trkpt>
      <trkpt lat="43.59381" lon="3.52468">
        <ele>87</ele>
        <time>2022-02-22T12:35:19Z</time>
      </trkpt>
      <trkpt lat="43.59379" lon="3.52471">
        <ele>87</ele>
        <time>2022-02-22T12:35:22Z</time>
      </trkpt>
      <trkpt lat="43.59376" lon="3.52472">
        <ele>87</ele>
        <time>2022-02-22T12:35:24Z</time>
      </trkpt>
      <trkpt lat="43.59373" lon="3.52474">
        <ele>87</ele>
        <time>2022-02-22T12:35:27Z</time>
      </trkpt>
      <trkpt lat="43.5937" lon="3.52475">
        <ele>87</ele>
        <time>2022-02-22T12:35:40Z</time>
      </trkpt>
      <trkpt lat="43.59366" lon="3.52476">
        <ele>87</ele>
        <time>2022-02-22T12:35:43Z</time>
      </trkpt>
      <trkpt lat="43.59364" lon="3.52479">
        <ele>87</ele>
        <time>2022-02-22T12:36:08Z</time>
      </trkpt>
      <trkpt lat="43.59363" lon="3.52483">
        <ele>87</ele>
        <time>2022-02-22T12:36:12Z</time>
      </trkpt>
      <trkpt lat="43.59364" lon="3.52486">
        <ele>87</ele>
        <time>2022-02-22T12:36:15Z</time>
      </trkpt>
      <trkpt lat="43.59364" lon="3.5249">
        <ele>87</ele>
        <time>2022-02-22T12:36:18Z</time>
      </trkpt>
      <trkpt lat="43.59364" lon="3.52494">
        <ele>87</ele>
        <time>2022-02-22T12:36:21Z</time>
      </trkpt>
      <trkpt lat="43.59365" lon="3.52498">
        <ele>87</ele>
        <time>2022-02-22T12:36:25Z</time>
      </trkpt>
      <trkpt lat="43.59365" lon="3.52502">
        <ele>87</ele>
        <time>2022-02-22T12:36:29Z</time>
      </trkpt>
      <trkpt lat="43.59365" lon="3.52507">
        <ele>87</ele>
        <time>2022-02-22T12:36:32Z</time>
      </trkpt>
      <trkpt lat="43.59365" lon="3.52511">
        <ele>87</ele>
        <time>2022-02-22T12:36:35Z</time>
      </trkpt>
      <trkpt lat="43.59365" lon="3.52515">
        <ele>87</ele>
        <time>2022-02-22T12:36:39Z</time>
      </trkpt>
      <trkpt lat="43.59366" lon="3.52519">
        <ele>87</ele>
        <time>2022-02-22T12:36:44Z</time>
      </trkpt>
      <trkpt lat="43.59367" lon="3.52522">
        <ele>87</ele>
        <time>2022-02-22T12:36:47Z</time>
      </trkpt>
      <trkpt lat="43.59368" lon="3.52526">
        <ele>87</ele>
        <time>2022-02-22T12:36:51Z</time>
      </trkpt>
      <trkpt lat="43.59369" lon="3.5253">
        <ele>87</ele>
        <time>2022-02-22T12:36:54Z</time>
      </trkpt>
      <trkpt lat="43.59369" lon="3.52534">
        <ele>87</ele>
        <time>2022-02-22T12:36:57Z</time>
      </trkpt>
      <trkpt lat="43.5937" lon="3.52538">
        <ele>87</ele>
        <time>2022-02-22T12:37:01Z</time>
      </trkpt>
      <trkpt lat="43.59371" lon="3.52542">
        <ele>87</ele>
        <time>2022-02-22T12:37:04Z</time>
      </trkpt>
      <trkpt lat="43.59371" lon="3.52547">
        <ele>87</ele>
        <time>2022-02-22T12:37:09Z</time>
      </trkpt>
      <trkpt lat="43.59372" lon="3.52551">
        <ele>87</ele>
        <time>2022-02-22T12:37:15Z</time>
      </trkpt>
      <trkpt lat="43.59373" lon="3.52555">
        <ele>87</ele>
        <time>2022-02-22T12:37:18Z</time>
      </trkpt>
      <trkpt lat="43.59374" lon="3.5256">
        <ele>87</ele>
        <time>2022-02-22T12:37:21Z</time>
      </trkpt>
      <trkpt lat="43.59374" lon="3.52564">
        <ele>87</ele>
        <time>2022-02-22T12:37:24Z</time>
      </trkpt>
      <trkpt lat="43.59374" lon="3.52568">
        <ele>87</ele>
        <time>2022-02-22T12:37:31Z</time>
      </trkpt>
      <trkpt lat="43.59376" lon="3.52571">
        <ele>87</ele>
        <time>2022-02-22T12:37:41Z</time>
      </trkpt>
      <trkpt lat="43.59378" lon="3.52573">
        <ele>87</ele>
        <time>2022-02-22T12:37:45Z</time>
      </trkpt>
      <trkpt lat="43.5938" lon="3.52577">
        <ele>87</ele>
        <time>2022-02-22T12:37:49Z</time>
      </trkpt>
      <trkpt lat="43.59381" lon="3.52581">
        <ele>87</ele>
        <time>2022-02-22T12:37:52Z</time>
      </trkpt>
      <trkpt lat="43.59383" lon="3.52584">
        <ele>87</ele>
        <time>2022-02-22T12:37:56Z</time>
      </trkpt>
      <trkpt lat="43.59383" lon="3.52587">
        <ele>87</ele>
        <time>2022-02-22T12:38:06Z</time>
      </trkpt>
      <trkpt lat="43.59383" lon="3.52592">
        <ele>87</ele>
        <time>2022-02-22T12:38:09Z</time>
      </trkpt>
      <trkpt lat="43.59385" lon="3.52596">
        <ele>87</ele>
        <time>2022-02-22T12:38:13Z</time>
      </trkpt>
      <trkpt lat="43.59386" lon="3.526">
        <ele>87</ele>
        <time>2022-02-22T12:38:17Z</time>
      </trkpt>
      <trkpt lat="43.59388" lon="3.52603">
        <ele>87</ele>
        <time>2022-02-22T12:38:20Z</time>
      </trkpt>
      <trkpt lat="43.5939" lon="3.52607">
        <ele>87</ele>
        <time>2022-02-22T12:38:23Z</time>
      </trkpt>
      <trkpt lat="43.5939" lon="3.52611">
        <ele>87</ele>
        <time>2022-02-22T12:38:26Z</time>
      </trkpt>
      <trkpt lat="43.5939" lon="3.52614">
        <ele>87</ele>
        <time>2022-02-22T12:38:30Z</time>
      </trkpt>
      <trkpt lat="43.5939" lon="3.52618">
        <ele>87</ele>
        <time>2022-02-22T12:38:34Z</time>
      </trkpt>
      <trkpt lat="43.59392" lon="3.52622">
        <ele>87</ele>
        <time>2022-02-22T12:38:37Z</time>
      </trkpt>
      <trkpt lat="43.59393" lon="3.52626">
        <ele>87</ele>
        <time>2022-02-22T12:38:40Z</time>
      </trkpt>
      <trkpt lat="43.59394" lon="3.52631">
        <ele>87</ele>
        <time>2022-02-22T12:38:43Z</time>
      </trkpt>
      <trkpt lat="43.59395" lon="3.52635">
        <ele>87</ele>
        <time>2022-02-22T12:38:47Z</time>
      </trkpt>
      <trkpt lat="43.59396" lon="3.5264">
        <ele>87</ele>
        <time>2022-02-22T12:38:50Z</time>
      </trkpt>
      <trkpt lat="43.59396" lon="3.52644">
        <ele>87</ele>
        <time>2022-02-22T12:38:53Z</time>
      </trkpt>
      <trkpt lat="43.59396" lon="3.52649">
        <ele>87</ele>
        <time>2022-02-22T12:38:57Z</time>
      </trkpt>
      <trkpt lat="43.59397" lon="3.52653">
        <ele>87</ele>
        <time>2022-02-22T12:39:00Z</time>
      </trkpt>
      <trkpt lat="43.59397" lon="3.52658">
        <ele>87</ele>
        <time>2022-02-22T12:39:04Z</time>
      </trkpt>
      <trkpt lat="43.59398" lon="3.52663">
        <ele>87</ele>
        <time>2022-02-22T12:39:07Z</time>
      </trkpt>
      <trkpt lat="43.59399" lon="3.52667">
        <ele>87</ele>
        <time>2022-02-22T12:39:11Z</time>
      </trkpt>
      <trkpt lat="43.594" lon="3.52671">
        <ele>87</ele>
        <time>2022-02-22T12:39:15Z</time>
      </trkpt>
      <trkpt lat="43.59401" lon="3.52675">
        <ele>87</ele>
        <time>2022-02-22T12:39:30Z</time>
      </trkpt>
      <trkpt lat="43.59403" lon="3.52679">
        <ele>87</ele>
        <time>2022-02-22T12:39:33Z</time>
      </trkpt>
      <trkpt lat="43.59406" lon="3.52681">
        <ele>87</ele>
        <time>2022-02-22T12:39:39Z</time>
      </trkpt>
      <trkpt lat="43.59408" lon="3.52682">
        <ele>87</ele>
        <time>2022-02-22T12:39:43Z</time>
      </trkpt>
      <trkpt lat="43.59411" lon="3.5268">
        <ele>87</ele>
        <time>2022-02-22T12:39:47Z</time>
      </trkpt>
      <trkpt lat="43.59414" lon="3.52677">
        <ele>87</ele>
        <time>2022-02-22T12:39:51Z</time>
      </trkpt>
      <trkpt lat="43.59416" lon="3.52673">
        <ele>87</ele>
        <time>2022-02-22T12:39:54Z</time>
      </trkpt>
      <trkpt lat="43.59417" lon="3.52669">
        <ele>87</ele>
        <time>2022-02-22T12:39:57Z</time>
      </trkpt>
      <trkpt lat="43.59418" lon="3.52665">
        <ele>87</ele>
        <time>2022-02-22T12:40:01Z</time>
      </trkpt>
      <trkpt lat="43.59419" lon="3.52661">
        <ele>87</ele>
        <time>2022-02-22T12:40:04Z</time>
      </trkpt>
      <trkpt lat="43.59419" lon="3.52657">
        <ele>87</ele>
        <time>2022-02-22T12:40:07Z</time>
      </trkpt>
      <trkpt lat="43.5942" lon="3.52652">
        <ele>87</ele>
        <time>2022-02-22T12:40:10Z</time>
      </trkpt>
      <trkpt lat="43.5942" lon="3.52648">
        <ele>87</ele>
        <time>2022-02-22T12:40:14Z</time>
      </trkpt>
      <trkpt lat="43.59422" lon="3.52647">
        <ele>87</ele>
        <time>2022-02-22T12:40:22Z</time>
      </trkpt>
      <trkpt lat="43.59425" lon="3.52646">
        <ele>87</ele>
        <time>2022-02-22T12:40:26Z</time>
      </trkpt>
      <trkpt lat="43.59428" lon="3.52646">
        <ele>87</ele>
        <time>2022-02-22T12:40:31Z</time>
      </trkpt>
      <trkpt lat="43.59431" lon="3.52646">
        <ele>87</ele>
        <time>2022-02-22T12:40:34Z</time>
      </trkpt>
      <trkpt lat="43.59435" lon="3.52646">
        <ele>87</ele>
        <time>2022-02-22T12:40:37Z</time>
      </trkpt>
      <trkpt lat="43.59438" lon="3.52646">
        <ele>87</ele>
        <time>2022-02-22T12:40:41Z</time>
      </trkpt>
      <trkpt lat="43.59441" lon="3.52646">
        <ele>87</ele>
        <time>2022-02-22T12:40:45Z</time>
      </trkpt>
      <trkpt lat="43.59445" lon="3.52646">
        <ele>87</ele>
        <time>2022-02-22T12:40:49Z</time>
      </trkpt>
      <trkpt lat="43.59448" lon="3.52646">
        <ele>87</ele>
        <time>2022-02-22T12:40:54Z</time>
      </trkpt>
      <trkpt lat="43.59451" lon="3.52647">
        <ele>87</ele>
        <time>2022-02-22T12:40:59Z</time>
      </trkpt>
      <trkpt lat="43.59454" lon="3.52647">
        <ele>87</ele>
        <time>2022-02-22T12:41:02Z</time>
      </trkpt>
      <trkpt lat="43.59457" lon="3.52647">
        <ele>87</ele>
        <time>2022-02-22T12:41:05Z</time>
      </trkpt>
      <trkpt lat="43.59461" lon="3.52648">
        <ele>87</ele>
        <time>2022-02-22T12:41:09Z</time>
      </trkpt>
      <trkpt lat="43.59464" lon="3.52647">
        <ele>87</ele>
        <time>2022-02-22T12:41:13Z</time>
      </trkpt>
      <trkpt lat="43.59468" lon="3.52647">
        <ele>87</ele>
        <time>2022-02-22T12:43:33Z</time>
      </trkpt>
      <trkpt lat="43.5947" lon="3.52644">
        <ele>87</ele>
        <time>2022-02-22T12:43:48Z</time>
      </trkpt>
      <trkpt lat="43.59473" lon="3.52644">
        <ele>87</ele>
        <time>2022-02-22T12:43:51Z</time>
      </trkpt>
      <trkpt lat="43.59476" lon="3.52644">
        <ele>87</ele>
        <time>2022-02-22T12:43:54Z</time>
      </trkpt>
      <trkpt lat="43.5948" lon="3.52645">
        <ele>87</ele>
        <time>2022-02-22T12:43:57Z</time>
      </trkpt>
      <trkpt lat="43.59483" lon="3.52646">
        <ele>87</ele>
        <time>2022-02-22T12:44:00Z</time>
      </trkpt>
      <trkpt lat="43.59487" lon="3.52646">
        <ele>87</ele>
        <time>2022-02-22T12:44:04Z</time>
      </trkpt>
      <trkpt lat="43.5949" lon="3.52646">
        <ele>87</ele>
        <time>2022-02-22T12:44:08Z</time>
      </trkpt>
      <trkpt lat="43.59493" lon="3.52647">
        <ele>87</ele>
        <time>2022-02-22T12:44:11Z</time>
      </trkpt>
      <trkpt lat="43.59496" lon="3.52647">
        <ele>87</ele>
        <time>2022-02-22T12:44:14Z</time>
      </trkpt>
      <trkpt lat="43.59499" lon="3.52646">
        <ele>87</ele>
        <time>2022-02-22T12:44:17Z</time>
      </trkpt>
      <trkpt lat="43.59502" lon="3.52645">
        <ele>87</ele>
        <time>2022-02-22T12:44:19Z</time>
      </trkpt>
      <trkpt lat="43.59505" lon="3.52644">
        <ele>87</ele>
        <time>2022-02-22T12:44:23Z</time>
      </trkpt>
      <trkpt lat="43.59508" lon="3.52642">
        <ele>87</ele>
        <time>2022-02-22T12:44:27Z</time>
      </trkpt>
      <trkpt lat="43.59511" lon="3.5264">
        <ele>87</ele>
        <time>2022-02-22T12:44:29Z</time>
      </trkpt>
      <trkpt lat="43.59514" lon="3.52637">
        <ele>87</ele>
        <time>2022-02-22T12:44:31Z</time>
      </trkpt>
      <trkpt lat="43.59516" lon="3.52634">
        <ele>87</ele>
        <time>2022-02-22T12:44:33Z</time>
      </trkpt>
      <trkpt lat="43.59518" lon="3.52631">
        <ele>87</ele>
        <time>2022-02-22T12:44:36Z</time>
      </trkpt>
      <trkpt lat="43.59521" lon="3.5263">
        <ele>87</ele>
        <time>2022-02-22T12:44:39Z</time>
      </trkpt>
      <trkpt lat="43.59523" lon="3.52629">
        <ele>87</ele>
        <time>2022-02-22T12:44:43Z</time>
      </trkpt>
      <trkpt lat="43.59526" lon="3.52628">
        <ele>87</ele>
        <time>2022-02-22T12:44:47Z</time>
      </trkpt>
      <trkpt lat="43.59529" lon="3.52628">
        <ele>87</ele>
        <time>2022-02-22T12:44:51Z</time>
      </trkpt>
      <trkpt lat="43.59532" lon="3.52629">
        <ele>87</ele>
        <time>2022-02-22T12:44:54Z</time>
      </trkpt>
      <trkpt lat="43.59535" lon="3.52631">
        <ele>87</ele>
        <time>2022-02-22T12:44:57Z</time>
      </trkpt>
      <trkpt lat="43.59539" lon="3.52633">
        <ele>87</ele>
        <time>2022-02-22T12:45:00Z</time>
      </trkpt>
      <trkpt lat="43.59542" lon="3.52634">
        <ele>87</ele>
        <time>2022-02-22T12:45:03Z</time>
      </trkpt>
      <trkpt lat="43.59545" lon="3.52635">
        <ele>87</ele>
        <time>2022-02-22T12:45:06Z</time>
      </trkpt>
      <trkpt lat="43.59549" lon="3.52636">
        <ele>87</ele>
        <time>2022-02-22T12:45:09Z</time>
      </trkpt>
      <trkpt lat="43.59552" lon="3.52636">
        <ele>87</ele>
        <time>2022-02-22T12:45:12Z</time>
      </trkpt>
      <trkpt lat="43.59555" lon="3.52638">
        <ele>87</ele>
        <time>2022-02-22T12:45:16Z</time>
      </trkpt>
      <trkpt lat="43.59558" lon="3.52639">
        <ele>87</ele>
        <time>2022-02-22T12:45:20Z</time>
      </trkpt>
      <trkpt lat="43.5956" lon="3.52641">
        <ele>87</ele>
        <time>2022-02-22T12:45:23Z</time>
      </trkpt>
      <trkpt lat="43.59563" lon="3.52643">
        <ele>87</ele>
        <time>2022-02-22T12:45:26Z</time>
      </trkpt>
      <trkpt lat="43.59565" lon="3.52645">
        <ele>87</ele>
        <time>2022-02-22T12:45:29Z</time>
      </trkpt>
      <trkpt lat="43.59567" lon="3.52648">
        <ele>87</ele>
        <time>2022-02-22T12:45:33Z</time>
      </trkpt>
      <trkpt lat="43.5957" lon="3.5265">
        <ele>87</ele>
        <time>2022-02-22T12:45:36Z</time>
      </trkpt>
      <trkpt lat="43.59572" lon="3.52654">
        <ele>87</ele>
        <time>2022-02-22T12:45:39Z</time>
      </trkpt>
      <trkpt lat="43.59574" lon="3.52657">
        <ele>87</ele>
        <time>2022-02-22T12:45:42Z</time>
      </trkpt>
      <trkpt lat="43.59576" lon="3.52659">
        <ele>87</ele>
        <time>2022-02-22T12:45:45Z</time>
      </trkpt>
      <trkpt lat="43.59579" lon="3.52661">
        <ele>87</ele>
        <time>2022-02-22T12:46:02Z</time>
      </trkpt>
      <trkpt lat="43.59582" lon="3.52664">
        <ele>87</ele>
        <time>2022-02-22T12:46:06Z</time>
      </trkpt>
      <trkpt lat="43.59583" lon="3.52667">
        <ele>87</ele>
        <time>2022-02-22T12:46:10Z</time>
      </trkpt>
      <trkpt lat="43.59583" lon="3.52671">
        <ele>87</ele>
        <time>2022-02-22T12:46:15Z</time>
      </trkpt>
      <trkpt lat="43.59581" lon="3.52674">
        <ele>87</ele>
        <time>2022-02-22T12:46:19Z</time>
      </trkpt>
      <trkpt lat="43.5958" lon="3.52678">
        <ele>87</ele>
        <time>2022-02-22T12:46:23Z</time>
      </trkpt>
      <trkpt lat="43.5958" lon="3.52682">
        <ele>87</ele>
        <time>2022-02-22T12:46:29Z</time>
      </trkpt>
      <trkpt lat="43.5958" lon="3.52686">
        <ele>87</ele>
        <time>2022-02-22T12:46:35Z</time>
      </trkpt>
      <trkpt lat="43.5958" lon="3.5269">
        <ele>87</ele>
        <time>2022-02-22T12:46:38Z</time>
      </trkpt>
      <trkpt lat="43.59582" lon="3.52694">
        <ele>87</ele>
        <time>2022-02-22T12:46:41Z</time>
      </trkpt>
      <trkpt lat="43.59584" lon="3.52697">
        <ele>87</ele>
        <time>2022-02-22T12:46:44Z</time>
      </trkpt>
      <trkpt lat="43.59586" lon="3.527">
        <ele>87</ele>
        <time>2022-02-22T12:46:48Z</time>
      </trkpt>
      <trkpt lat="43.59589" lon="3.52703">
        <ele>87</ele>
        <time>2022-02-22T12:46:51Z</time>
      </trkpt>
      <trkpt lat="43.59592" lon="3.52706">
        <ele>87</ele>
        <time>2022-02-22T12:46:54Z</time>
      </trkpt>
      <trkpt lat="43.59595" lon="3.52709">
        <ele>87</ele>
        <time>2022-02-22T12:46:57Z</time>
      </trkpt>
      <trkpt lat="43.59597" lon="3.52712">
        <ele>87</ele>
        <time>2022-02-22T12:47:00Z</time>
      </trkpt>
      <trkpt lat="43.59599" lon="3.52715">
        <ele>87</ele>
        <time>2022-02-22T12:47:02Z</time>
      </trkpt>
      <trkpt lat="43.59602" lon="3.52717">
        <ele>87</ele>
        <time>2022-02-22T12:47:05Z</time>
      </trkpt>
      <trkpt lat="43.59604" lon="3.5272">
        <ele>87</ele>
        <time>2022-02-22T12:47:08Z</time>
      </trkpt>
      <trkpt lat="43.59606" lon="3.52722">
        <ele>87</ele>
        <time>2022-02-22T12:47:11Z</time>
      </trkpt>
      <trkpt lat="43.59609" lon="3.52725">
        <ele>87</ele>
        <time>2022-02-22T12:47:13Z</time>
      </trkpt>
      <trkpt lat="43.59611" lon="3.52727">
        <ele>87</ele>
        <time>2022-02-22T12:47:16Z</time>
      </trkpt>
      <trkpt lat="43.59614" lon="3.52729">
        <ele>87</ele>
        <time>2022-02-22T12:47:18Z</time>
      </trkpt>
      <trkpt lat="43.59617" lon="3.5273">
        <ele>87</ele>
        <time>2022-02-22T12:47:22Z</time>
      </trkpt>
      <trkpt lat="43.5962" lon="3.52732">
        <ele>87</ele>
        <time>2022-02-22T12:47:25Z</time>
      </trkpt>
      <trkpt lat="43.59622" lon="3.52734">
        <ele>87</ele>
        <time>2022-02-22T12:47:28Z</time>
      </trkpt>
      <trkpt lat="43.59625" lon="3.52737">
        <ele>87</ele>
        <time>2022-02-22T12:47:30Z</time>
      </trkpt>
      <trkpt lat="43.59627" lon="3.52739">
        <ele>87</ele>
        <time>2022-02-22T12:47:33Z</time>
      </trkpt>
      <trkpt lat="43.5963" lon="3.52742">
        <ele>87</ele>
        <time>2022-02-22T12:47:36Z</time>
      </trkpt>
      <trkpt lat="43.59633" lon="3.52744">
        <ele>87</ele>
        <time>2022-02-22T12:47:40Z</time>
      </trkpt>
      <trkpt lat="43.59635" lon="3.52745">
        <ele>87</ele>
        <time>2022-02-22T12:47:44Z</time>
      </trkpt>
      <trkpt lat="43.59638" lon="3.52746">
        <ele>87</ele>
        <time>2022-02-22T12:47:47Z</time>
      </trkpt>
      <trkpt lat="43.59641" lon="3.52748">
        <ele>87</ele>
        <time>2022-02-22T12:47:51Z</time>
      </trkpt>
      <trkpt lat="43.59644" lon="3.5275">
        <ele>87</ele>
        <time>2022-02-22T12:47:58Z</time>
      </trkpt>
      <trkpt lat="43.59647" lon="3.52752">
        <ele>87</ele>
        <time>2022-02-22T12:48:01Z</time>
      </trkpt>
      <trkpt lat="43.59648" lon="3.52755">
        <ele>87</ele>
        <time>2022-02-22T12:48:06Z</time>
      </trkpt>
      <trkpt lat="43.59647" lon="3.52759">
        <ele>87</ele>
        <time>2022-02-22T12:48:10Z</time>
      </trkpt>
      <trkpt lat="43.59646" lon="3.52762">
        <ele>87</ele>
        <time>2022-02-22T12:48:18Z</time>
      </trkpt>
      <trkpt lat="43.59646" lon="3.52766">
        <ele>87</ele>
        <time>2022-02-22T12:48:22Z</time>
      </trkpt>
      <trkpt lat="43.59646" lon="3.52769">
        <ele>87</ele>
        <time>2022-02-22T12:48:25Z</time>
      </trkpt>
      <trkpt lat="43.59648" lon="3.52773">
        <ele>87</ele>
        <time>2022-02-22T12:48:31Z</time>
      </trkpt>
      <trkpt lat="43.59651" lon="3.52776">
        <ele>87</ele>
        <time>2022-02-22T12:48:34Z</time>
      </trkpt>
      <trkpt lat="43.59652" lon="3.5278">
        <ele>87</ele>
        <time>2022-02-22T12:48:37Z</time>
      </trkpt>
      <trkpt lat="43.59654" lon="3.52783">
        <ele>87</ele>
        <time>2022-02-22T12:48:40Z</time>
      </trkpt>
      <trkpt lat="43.59656" lon="3.52786">
        <ele>87</ele>
        <time>2022-02-22T12:48:44Z</time>
      </trkpt>
      <trkpt lat="43.59658" lon="3.52789">
        <ele>87</ele>
        <time>2022-02-22T12:48:47Z</time>
      </trkpt>
      <trkpt lat="43.59661" lon="3.52791">
        <ele>87</ele>
        <time>2022-02-22T12:48:49Z</time>
      </trkpt>
      <trkpt lat="43.59663" lon="3.52794">
        <ele>87</ele>
        <time>2022-02-22T12:48:53Z</time>
      </trkpt>
      <trkpt lat="43.59665" lon="3.52797">
        <ele>87</ele>
        <time>2022-02-22T12:48:58Z</time>
      </trkpt>
      <trkpt lat="43.59668" lon="3.52799">
        <ele>87</ele>
        <time>2022-02-22T12:49:02Z</time>
      </trkpt>
      <trkpt lat="43.59671" lon="3.52802">
        <ele>87</ele>
        <time>2022-02-22T12:49:05Z</time>
      </trkpt>
      <trkpt lat="43.59673" lon="3.52805">
        <ele>87</ele>
        <time>2022-02-22T12:49:08Z</time>
      </trkpt>
      <trkpt lat="43.59675" lon="3.52808">
        <ele>87</ele>
        <time>2022-02-22T12:49:11Z</time>
      </trkpt>
      <trkpt lat="43.59678" lon="3.5281">
        <ele>87</ele>
        <time>2022-02-22T12:49:14Z</time>
      </trkpt>
      <trkpt lat="43.5968" lon="3.52813">
        <ele>87</ele>
        <time>2022-02-22T12:49:17Z</time>
      </trkpt>
      <trkpt lat="43.59682" lon="3.52815">
        <ele>87</ele>
        <time>2022-02-22T12:49:21Z</time>
      </trkpt>
      <trkpt lat="43.59685" lon="3.52817">
        <ele>87</ele>
        <time>2022-02-22T12:49:23Z</time>
      </trkpt>
      <trkpt lat="43.59688" lon="3.52817">
        <ele>87</ele>
        <time>2022-02-22T12:49:28Z</time>
      </trkpt>
      <trkpt lat="43.59691" lon="3.52816">
        <ele>87</ele>
        <time>2022-02-22T12:49:31Z</time>
      </trkpt>
      <trkpt lat="43.59694" lon="3.52815">
        <ele>87</ele>
        <time>2022-02-22T12:49:34Z</time>
      </trkpt>
      <trkpt lat="43.59697" lon="3.52816">
        <ele>87</ele>
        <time>2022-02-22T12:49:37Z</time>
      </trkpt>
      <trkpt lat="43.597" lon="3.52817">
        <ele>87</ele>
        <time>2022-02-22T12:49:40Z</time>
      </trkpt>
      <trkpt lat="43.59704" lon="3.52817">
        <ele>87</ele>
        <time>2022-02-22T12:49:45Z</time>
      </trkpt>
      <trkpt lat="43.59707" lon="3.52818">
        <ele>87</ele>
        <time>2022-02-22T12:49:48Z</time>
      </trkpt>
      <trkpt lat="43.5971" lon="3.52819">
        <ele>87</ele>
        <time>2022-02-22T12:49:51Z</time>
      </trkpt>
      <trkpt lat="43.59714" lon="3.52819">
        <ele>87</ele>
        <time>2022-02-22T12:49:54Z</time>
      </trkpt>
      <trkpt lat="43.59717" lon="3.5282">
        <ele>87</ele>
        <time>2022-02-22T12:49:57Z</time>
      </trkpt>
      <trkpt lat="43.5972" lon="3.52822">
        <ele>87</ele>
        <time>2022-02-22T12:50:02Z</time>
      </trkpt>
      <trkpt lat="43.59723" lon="3.52823">
        <ele>87</ele>
        <time>2022-02-22T12:50:06Z</time>
      </trkpt>
      <trkpt lat="43.59727" lon="3.52823">
        <ele>87</ele>
        <time>2022-02-22T12:50:08Z</time>
      </trkpt>
      <trkpt lat="43.5973" lon="3.52824">
        <ele>87</ele>
        <time>2022-02-22T12:50:11Z</time>
      </trkpt>
      <trkpt lat="43.59734" lon="3.52824">
        <ele>87</ele>
        <time>2022-02-22T12:50:14Z</time>
      </trkpt>
      <trkpt lat="43.59737" lon="3.52823">
        <ele>87</ele>
        <time>2022-02-22T12:50:17Z</time>
      </trkpt>
      <trkpt lat="43.5974" lon="3.52823">
        <ele>87</ele>
        <time>2022-02-22T12:50:20Z</time>
      </trkpt>
      <trkpt lat="43.59744" lon="3.52823">
        <ele>87</ele>
        <time>2022-02-22T12:50:25Z</time>
      </trkpt>
      <trkpt lat="43.59746" lon="3.52824">
        <ele>87</ele>
        <time>2022-02-22T12:50:29Z</time>
      </trkpt>
      <trkpt lat="43.59749" lon="3.52824">
        <ele>87</ele>
        <time>2022-02-22T12:50:32Z</time>
      </trkpt>
      <trkpt lat="43.59753" lon="3.52824">
        <ele>87</ele>
        <time>2022-02-22T12:50:35Z</time>
      </trkpt>
      <trkpt lat="43.59756" lon="3.52825">
        <ele>87</ele>
        <time>2022-02-22T12:50:38Z</time>
      </trkpt>
      <trkpt lat="43.59759" lon="3.52827">
        <ele>87</ele>
        <time>2022-02-22T12:50:41Z</time>
      </trkpt>
      <trkpt lat="43.59762" lon="3.5283">
        <ele>87</ele>
        <time>2022-02-22T12:50:44Z</time>
      </trkpt>
      <trkpt lat="43.59765" lon="3.52832">
        <ele>87</ele>
        <time>2022-02-22T12:50:47Z</time>
      </trkpt>
      <trkpt lat="43.59767" lon="3.52835">
        <ele>87</ele>
        <time>2022-02-22T12:50:57Z</time>
      </trkpt>
      <trkpt lat="43.5977" lon="3.52837">
        <ele>87</ele>
        <time>2022-02-22T12:51:02Z</time>
      </trkpt>
      <trkpt lat="43.59772" lon="3.5284">
        <ele>87</ele>
        <time>2022-02-22T12:51:08Z</time>
      </trkpt>
      <trkpt lat="43.59775" lon="3.52841">
        <ele>87</ele>
        <time>2022-02-22T12:51:13Z</time>
      </trkpt>
      <trkpt lat="43.59778" lon="3.52842">
        <ele>87</ele>
        <time>2022-02-22T12:51:16Z</time>
      </trkpt>
      <trkpt lat="43.59781" lon="3.52843">
        <ele>87</ele>
        <time>2022-02-22T12:51:19Z</time>
      </trkpt>
      <trkpt lat="43.59785" lon="3.52843">
        <ele>87</ele>
        <time>2022-02-22T12:51:30Z</time>
      </trkpt>
      <trkpt lat="43.59788" lon="3.52845">
        <ele>87</ele>
        <time>2022-02-22T12:51:34Z</time>
      </trkpt>
      <trkpt lat="43.5979" lon="3.52848">
        <ele>87</ele>
        <time>2022-02-22T12:51:37Z</time>
      </trkpt>
      <trkpt lat="43.59793" lon="3.52851">
        <ele>87</ele>
        <time>2022-02-22T12:51:40Z</time>
      </trkpt>
      <trkpt lat="43.59795" lon="3.52854">
        <ele>87</ele>
        <time>2022-02-22T12:51:43Z</time>
      </trkpt>
      <trkpt lat="43.59797" lon="3.52857">
        <ele>87</ele>
        <time>2022-02-22T12:51:46Z</time>
      </trkpt>
      <trkpt lat="43.598" lon="3.52859">
        <ele>87</ele>
        <time>2022-02-22T12:51:50Z</time>
      </trkpt>
      <trkpt lat="43.59802" lon="3.52861">
        <ele>87</ele>
        <time>2022-02-22T12:51:54Z</time>
      </trkpt>
      <trkpt lat="43.59805" lon="3.52864">
        <ele>87</ele>
        <time>2022-02-22T12:51:56Z</time>
      </trkpt>
      <trkpt lat="43.59808" lon="3.52866">
        <ele>87</ele>
        <time>2022-02-22T12:52:00Z</time>
      </trkpt>
      <trkpt lat="43.59811" lon="3.52868">
        <ele>87</ele>
        <time>2022-02-22T12:52:03Z</time>
      </trkpt>
      <trkpt lat="43.59814" lon="3.5287">
        <ele>87</ele>
        <time>2022-02-22T12:52:06Z</time>
      </trkpt>
      <trkpt lat="43.59817" lon="3.52871">
        <ele>87</ele>
        <time>2022-02-22T12:52:09Z</time>
      </trkpt>
      <trkpt lat="43.5982" lon="3.52872">
        <ele>87</ele>
        <time>2022-02-22T12:52:15Z</time>
      </trkpt>
      <trkpt lat="43.59823" lon="3.52873">
        <ele>87</ele>
        <time>2022-02-22T12:52:19Z</time>
      </trkpt>
      <trkpt lat="43.59826" lon="3.52874">
        <ele>87</ele>
        <time>2022-02-22T12:52:23Z</time>
      </trkpt>
      <trkpt lat="43.5983" lon="3.52875">
        <ele>87</ele>
        <time>2022-02-22T12:52:28Z</time>
      </trkpt>
      <trkpt lat="43.59832" lon="3.52876">
        <ele>87</ele>
        <time>2022-02-22T12:52:31Z</time>
      </trkpt>
      <trkpt lat="43.59836" lon="3.52877">
        <ele>87</ele>
        <time>2022-02-22T12:52:35Z</time>
      </trkpt>
      <trkpt lat="43.59839" lon="3.52877">
        <ele>87</ele>
        <time>2022-02-22T12:52:39Z</time>
      </trkpt>
      <trkpt lat="43.59842" lon="3.52878">
        <ele>87</ele>
        <time>2022-02-22T12:52:43Z</time>
      </trkpt>
      <trkpt lat="43.59845" lon="3.52879">
        <ele>87</ele>
        <time>2022-02-22T12:52:46Z</time>
      </trkpt>
      <trkpt lat="43.59848" lon="3.52881">
        <ele>87</ele>
        <time>2022-02-22T12:52:49Z</time>
      </trkpt>
      <trkpt lat="43.59851" lon="3.52883">
        <ele>87</ele>
        <time>2022-02-22T12:52:52Z</time>
      </trkpt>
      <trkpt lat="43.59853" lon="3.52886">
        <ele>87</ele>
        <time>2022-02-22T12:52:55Z</time>
      </trkpt>
      <trkpt lat="43.59854" lon="3.52889">
        <ele>87</ele>
        <time>2022-02-22T12:52:58Z</time>
      </trkpt>
      <trkpt lat="43.59857" lon="3.52892">
        <ele>87</ele>
        <time>2022-02-22T12:53:01Z</time>
      </trkpt>
      <trkpt lat="43.59859" lon="3.52896">
        <ele>87</ele>
        <time>2022-02-22T12:53:04Z</time>
      </trkpt>
      <trkpt lat="43.59861" lon="3.52899">
        <ele>87</ele>
        <time>2022-02-22T12:53:07Z</time>
      </trkpt>
      <trkpt lat="43.59863" lon="3.52903">
        <ele>87</ele>
        <time>2022-02-22T12:53:09Z</time>
      </trkpt>
      <trkpt lat="43.59864" lon="3.52907">
        <ele>87</ele>
        <time>2022-02-22T12:53:12Z</time>
      </trkpt>
      <trkpt lat="43.59865" lon="3.52911">
        <ele>87</ele>
        <time>2022-02-22T12:53:15Z</time>
      </trkpt>
      <trkpt lat="43.59867" lon="3.52915">
        <ele>87</ele>
        <time>2022-02-22T12:53:18Z</time>
      </trkpt>
      <trkpt lat="43.59869" lon="3.52919">
        <ele>87</ele>
        <time>2022-02-22T12:53:21Z</time>
      </trkpt>
      <trkpt lat="43.59871" lon="3.52922">
        <ele>87</ele>
        <time>2022-02-22T12:53:24Z</time>
      </trkpt>
      <trkpt lat="43.59873" lon="3.52926">
        <ele>87</ele>
        <time>2022-02-22T12:53:27Z</time>
      </trkpt>
      <trkpt lat="43.59875" lon="3.52929">
        <ele>87</ele>
        <time>2022-02-22T12:53:30Z</time>
      </trkpt>
      <trkpt lat="43.59877" lon="3.52932">
        <ele>87</ele>
        <time>2022-02-22T12:53:32Z</time>
      </trkpt>
      <trkpt lat="43.59879" lon="3.52935">
        <ele>87</ele>
        <time>2022-02-22T12:53:35Z</time>
      </trkpt>
      <trkpt lat="43.59881" lon="3.52938">
        <ele>87</ele>
        <time>2022-02-22T12:53:38Z</time>
      </trkpt>
      <trkpt lat="43.59883" lon="3.52942">
        <ele>87</ele>
        <time>2022-02-22T12:53:42Z</time>
      </trkpt>
      <trkpt lat="43.59885" lon="3.52945">
        <ele>87</ele>
        <time>2022-02-22T12:53:44Z</time>
      </trkpt>
      <trkpt lat="43.59886" lon="3.52949">
        <ele>87</ele>
        <time>2022-02-22T12:53:47Z</time>
      </trkpt>
      <trkpt lat="43.59887" lon="3.52953">
        <ele>87</ele>
        <time>2022-02-22T12:53:50Z</time>
      </trkpt>
      <trkpt lat="43.59889" lon="3.52957">
        <ele>87</ele>
        <time>2022-02-22T12:53:54Z</time>
      </trkpt>
      <trkpt lat="43.59891" lon="3.5296">
        <ele>87</ele>
        <time>2022-02-22T12:53:57Z</time>
      </trkpt>
      <trkpt lat="43.59893" lon="3.52963">
        <ele>87</ele>
        <time>2022-02-22T12:54:00Z</time>
      </trkpt>
      <trkpt lat="43.59895" lon="3.52967">
        <ele>87</ele>
        <time>2022-02-22T12:54:03Z</time>
      </trkpt>
      <trkpt lat="43.59897" lon="3.5297">
        <ele>87</ele>
        <time>2022-02-22T12:54:07Z</time>
      </trkpt>
      <trkpt lat="43.599" lon="3.52972">
        <ele>87</ele>
        <time>2022-02-22T12:54:10Z</time>
      </trkpt>
      <trkpt lat="43.59903" lon="3.52974">
        <ele>87</ele>
        <time>2022-02-22T12:54:13Z</time>
      </trkpt>
      <trkpt lat="43.59906" lon="3.52976">
        <ele>87</ele>
        <time>2022-02-22T12:54:16Z</time>
      </trkpt>
      <trkpt lat="43.59908" lon="3.52979">
        <ele>87</ele>
        <time>2022-02-22T12:54:19Z</time>
      </trkpt>
      <trkpt lat="43.59911" lon="3.52981">
        <ele>87</ele>
        <time>2022-02-22T12:54:22Z</time>
      </trkpt>
      <trkpt lat="43.59913" lon="3.52985">
        <ele>87</ele>
        <time>2022-02-22T12:54:27Z</time>
      </trkpt>
      <trkpt lat="43.59915" lon="3.52988">
        <ele>87</ele>
        <time>2022-02-22T12:54:30Z</time>
      </trkpt>
      <trkpt lat="43.59917" lon="3.5299">
        <ele>87</ele>
        <time>2022-02-22T12:54:36Z</time>
      </trkpt>
      <trkpt lat="43.5992" lon="3.52993">
        <ele>87</ele>
        <time>2022-02-22T12:54:40Z</time>
      </trkpt>
      <trkpt lat="43.59922" lon="3.52996">
        <ele>87</ele>
        <time>2022-02-22T12:54:55Z</time>
      </trkpt>
      <trkpt lat="43.59923" lon="3.53">
        <ele>87</ele>
        <time>2022-02-22T12:55:00Z</time>
      </trkpt>
      <trkpt lat="43.59924" lon="3.53004">
        <ele>87</ele>
        <time>2022-02-22T12:55:03Z</time>
      </trkpt>
      <trkpt lat="43.59926" lon="3.53008">
        <ele>87</ele>
        <time>2022-02-22T12:55:06Z</time>
      </trkpt>
      <trkpt lat="43.59928" lon="3.53012">
        <ele>87</ele>
        <time>2022-02-22T12:55:09Z</time>
      </trkpt>
      <trkpt lat="43.59929" lon="3.53015">
        <ele>87</ele>
        <time>2022-02-22T12:55:12Z</time>
      </trkpt>
      <trkpt lat="43.59931" lon="3.53018">
        <ele>87</ele>
        <time>2022-02-22T12:55:15Z</time>
      </trkpt>
      <trkpt lat="43.59933" lon="3.53021">
        <ele>87</ele>
        <time>2022-02-22T12:55:22Z</time>
      </trkpt>
      <trkpt lat="43.59935" lon="3.53025">
        <ele>87</ele>
        <time>2022-02-22T12:55:26Z</time>
      </trkpt>
      <trkpt lat="43.59936" lon="3.53029">
        <ele>87</ele>
        <time>2022-02-22T12:55:29Z</time>
      </trkpt>
      <trkpt lat="43.59937" lon="3.53033">
        <ele>87</ele>
        <time>2022-02-22T12:55:32Z</time>
      </trkpt>
      <trkpt lat="43.59937" lon="3.53038">
        <ele>87</ele>
        <time>2022-02-22T12:55:35Z</time>
      </trkpt>
      <trkpt lat="43.59937" lon="3.53042">
        <ele>87</ele>
        <time>2022-02-22T12:55:38Z</time>
      </trkpt>
      <trkpt lat="43.59938" lon="3.53046">
        <ele>87</ele>
        <time>2022-02-22T12:55:41Z</time>
      </trkpt>
      <trkpt lat="43.59938" lon="3.53051">
        <ele>87</ele>
        <time>2022-02-22T12:55:44Z</time>
      </trkpt>
      <trkpt lat="43.59938" lon="3.53055">
        <ele>87</ele>
        <time>2022-02-22T12:55:47Z</time>
      </trkpt>
      <trkpt lat="43.59939" lon="3.5306">
        <ele>87</ele>
        <time>2022-02-22T12:55:50Z</time>
      </trkpt>
      <trkpt lat="43.5994" lon="3.53065">
        <ele>87</ele>
        <time>2022-02-22T12:55:53Z</time>
      </trkpt>
      <trkpt lat="43.5994" lon="3.53069">
        <ele>87</ele>
        <time>2022-02-22T12:55:56Z</time>
      </trkpt>
      <trkpt lat="43.5994" lon="3.53074">
        <ele>87</ele>
        <time>2022-02-22T12:55:59Z</time>
      </trkpt>
      <trkpt lat="43.59941" lon="3.53078">
        <ele>87</ele>
        <time>2022-02-22T12:56:02Z</time>
      </trkpt>
      <trkpt lat="43.59941" lon="3.53083">
        <ele>87</ele>
        <time>2022-02-22T12:56:05Z</time>
      </trkpt>
      <trkpt lat="43.59943" lon="3.53087">
        <ele>87</ele>
        <time>2022-02-22T12:56:08Z</time>
      </trkpt>
      <trkpt lat="43.59943" lon="3.53091">
        <ele>87</ele>
        <time>2022-02-22T12:56:11Z</time>
      </trkpt>
      <trkpt lat="43.59944" lon="3.53095">
        <ele>87</ele>
        <time>2022-02-22T12:56:14Z</time>
      </trkpt>
      <trkpt lat="43.59945" lon="3.53098">
        <ele>87</ele>
        <time>2022-02-22T12:56:17Z</time>
      </trkpt>
      <trkpt lat="43.59946" lon="3.53102">
        <ele>87</ele>
        <time>2022-02-22T12:56:20Z</time>
      </trkpt>
      <trkpt lat="43.59947" lon="3.53107">
        <ele>87</ele>
        <time>2022-02-22T12:56:33Z</time>
      </trkpt>
      <trkpt lat="43.59948" lon="3.53112">
        <ele>87</ele>
        <time>2022-02-22T12:56:36Z</time>
      </trkpt>
      <trkpt lat="43.5995" lon="3.53115">
        <ele>87</ele>
        <time>2022-02-22T12:56:39Z</time>
      </trkpt>
      <trkpt lat="43.59951" lon="3.53119">
        <ele>87</ele>
        <time>2022-02-22T12:56:42Z</time>
      </trkpt>
      <trkpt lat="43.59953" lon="3.53123">
        <ele>87</ele>
        <time>2022-02-22T12:56:45Z</time>
      </trkpt>
      <trkpt lat="43.59954" lon="3.53127">
        <ele>87</ele>
        <time>2022-02-22T12:56:48Z</time>
      </trkpt>
      <trkpt lat="43.59955" lon="3.53131">
        <ele>87</ele>
        <time>2022-02-22T12:56:53Z</time>
      </trkpt>
      <trkpt lat="43.59956" lon="3.53135">
        <ele>87</ele>
        <time>2022-02-22T12:56:56Z</time>
      </trkpt>
      <trkpt lat="43.59957" lon="3.5314">
        <ele>87</ele>
        <time>2022-02-22T12:56:59Z</time>
      </trkpt>
      <trkpt lat="43.59959" lon="3.53144">
        <ele>87</ele>
        <time>2022-02-22T12:57:03Z</time>
      </trkpt>
      <trkpt lat="43.5996" lon="3.53147">
        <ele>87</ele>
        <time>2022-02-22T12:57:08Z</time>
      </trkpt>
      <trkpt lat="43.59962" lon="3.53151">
        <ele>87</ele>
        <time>2022-02-22T12:57:12Z</time>
      </trkpt>
      <trkpt lat="43.59963" lon="3.53155">
        <ele>87</ele>
        <time>2022-02-22T12:57:24Z</time>
      </trkpt>
      <trkpt lat="43.59964" lon="3.5316">
        <ele>87</ele>
        <time>2022-02-22T12:57:27Z</time>
      </trkpt>
      <trkpt lat="43.59964" lon="3.53164">
        <ele>87</ele>
        <time>2022-02-22T12:57:56Z</time>
      </trkpt>
      <trkpt lat="43.59966" lon="3.53169">
        <ele>87</ele>
        <time>2022-02-22T12:57:59Z</time>
      </trkpt>
      <trkpt lat="43.59968" lon="3.53173">
        <ele>87</ele>
        <time>2022-02-22T12:58:02Z</time>
      </trkpt>
      <trkpt lat="43.59968" lon="3.53177">
        <ele>87</ele>
        <time>2022-02-22T12:58:05Z</time>
      </trkpt>
      <trkpt lat="43.59969" lon="3.53181">
        <ele>87</ele>
        <time>2022-02-22T12:58:08Z</time>
      </trkpt>
      <trkpt lat="43.59969" lon="3.53185">
        <ele>87</ele>
        <time>2022-02-22T12:58:12Z</time>
      </trkpt>
      <trkpt lat="43.59969" lon="3.5319">
        <ele>87</ele>
        <time>2022-02-22T12:58:34Z</time>
      </trkpt>
      <trkpt lat="43.5997" lon="3.53194">
        <ele>87</ele>
        <time>2022-02-22T12:58:39Z</time>
      </trkpt>
      <trkpt lat="43.59972" lon="3.53197">
        <ele>87</ele>
        <time>2022-02-22T12:58:42Z</time>
      </trkpt>
      <trkpt lat="43.59974" lon="3.53201">
        <ele>87</ele>
        <time>2022-02-22T12:58:45Z</time>
      </trkpt>
      <trkpt lat="43.59976" lon="3.53204">
        <ele>87</ele>
        <time>2022-02-22T12:58:48Z</time>
      </trkpt>
      <trkpt lat="43.59978" lon="3.53208">
        <ele>87</ele>
        <time>2022-02-22T12:58:51Z</time>
      </trkpt>
      <trkpt lat="43.5998" lon="3.53211">
        <ele>87</ele>
        <time>2022-02-22T12:58:55Z</time>
      </trkpt>
      <trkpt lat="43.59982" lon="3.53214">
        <ele>87</ele>
        <time>2022-02-22T12:58:58Z</time>
      </trkpt>
      <trkpt lat="43.59984" lon="3.53217">
        <ele>87</ele>
        <time>2022-02-22T12:59:02Z</time>
      </trkpt>
      <trkpt lat="43.59987" lon="3.53219">
        <ele>87</ele>
        <time>2022-02-22T12:59:06Z</time>
      </trkpt>
      <trkpt lat="43.5999" lon="3.53221">
        <ele>87</ele>
        <time>2022-02-22T12:59:12Z</time>
      </trkpt>
      <trkpt lat="43.59993" lon="3.53222">
        <ele>87</ele>
        <time>2022-02-22T12:59:18Z</time>
      </trkpt>
      <trkpt lat="43.59996" lon="3.53223">
        <ele>87</ele>
        <time>2022-02-22T12:59:23Z</time>
      </trkpt>
      <trkpt lat="43.59999" lon="3.53224">
        <ele>87</ele>
        <time>2022-02-22T12:59:26Z</time>
      </trkpt>
      <trkpt lat="43.60002" lon="3.53226">
        <ele>87</ele>
        <time>2022-02-22T12:59:29Z</time>
      </trkpt>
      <trkpt lat="43.60004" lon="3.53228">
        <ele>87</ele>
        <time>2022-02-22T12:59:33Z</time>
      </trkpt>
      <trkpt lat="43.60007" lon="3.53231">
        <ele>87</ele>
        <time>2022-02-22T13:00:00Z</time>
      </trkpt>
      <trkpt lat="43.6001" lon="3.53234">
        <ele>87</ele>
        <time>2022-02-22T13:00:03Z</time>
      </trkpt>
      <trkpt lat="43.60012" lon="3.53236">
        <ele>87</ele>
        <time>2022-02-22T13:00:06Z</time>
      </trkpt>
      <trkpt lat="43.60015" lon="3.53238">
        <ele>87</ele>
        <time>2022-02-22T13:00:09Z</time>
      </trkpt>
      <trkpt lat="43.60018" lon="3.5324">
        <ele>87</ele>
        <time>2022-02-22T13:00:49Z</time>
      </trkpt>
      <trkpt lat="43.60019" lon="3.53244">
        <ele>87</ele>
        <time>2022-02-22T13:00:53Z</time>
      </trkpt>
      <trkpt lat="43.60021" lon="3.53247">
        <ele>87</ele>
        <time>2022-02-22T13:00:56Z</time>
      </trkpt>
      <trkpt lat="43.60023" lon="3.5325">
        <ele>87</ele>
        <time>2022-02-22T13:00:59Z</time>
      </trkpt>
      <trkpt lat="43.60024" lon="3.53254">
        <ele>87</ele>
        <time>2022-02-22T13:01:03Z</time>
      </trkpt>
      <trkpt lat="43.60023" lon="3.53257">
        <ele>87</ele>
        <time>2022-02-22T13:01:10Z</time>
      </trkpt>
      <trkpt lat="43.60021" lon="3.5326">
        <ele>87</ele>
        <time>2022-02-22T13:01:25Z</time>
      </trkpt>
      <trkpt lat="43.60021" lon="3.53263">
        <ele>87</ele>
        <time>2022-02-22T13:01:32Z</time>
      </trkpt>
      <trkpt lat="43.60019" lon="3.53265">
        <ele>87</ele>
        <time>2022-02-22T13:02:02Z</time>
      </trkpt>
      <trkpt lat="43.60016" lon="3.53267">
        <ele>87</ele>
        <time>2022-02-22T13:02:06Z</time>
      </trkpt>
      <trkpt lat="43.60014" lon="3.53268">
        <ele>87</ele>
        <time>2022-02-22T13:02:12Z</time>
      </trkpt>
      <trkpt lat="43.60011" lon="3.53269">
        <ele>87</ele>
        <time>2022-02-22T13:02:17Z</time>
      </trkpt>
      <trkpt lat="43.60012" lon="3.53269">
        <ele>87</ele>
        <time>2022-02-22T13:02:31Z</time>
      </trkpt>
      <trkpt lat="43.60014" lon="3.53268">
        <ele>87</ele>
        <time>2022-02-22T13:02:35Z</time>
      </trkpt>
      <trkpt lat="43.60017" lon="3.53266">
        <ele>87</ele>
        <time>2022-02-22T13:02:38Z</time>
      </trkpt>
      <trkpt lat="43.60019" lon="3.53262">
        <ele>87</ele>
        <time>2022-02-22T13:02:41Z</time>
      </trkpt>
      <trkpt lat="43.6002" lon="3.53259">
        <ele>87</ele>
        <time>2022-02-22T13:02:44Z</time>
      </trkpt>
      <trkpt lat="43.60022" lon="3.53255">
        <ele>87</ele>
        <time>2022-02-22T13:02:47Z</time>
      </trkpt>
      <trkpt lat="43.60022" lon="3.53251">
        <ele>87</ele>
        <time>2022-02-22T13:02:50Z</time>
      </trkpt>
      <trkpt lat="43.60021" lon="3.53247">
        <ele>87</ele>
        <time>2022-02-22T13:02:53Z</time>
      </trkpt>
      <trkpt lat="43.60019" lon="3.53243">
        <ele>87</ele>
        <time>2022-02-22T13:02:56Z</time>
      </trkpt>
      <trkpt lat="43.60017" lon="3.53239">
        <ele>87</ele>
        <time>2022-02-22T13:02:59Z</time>
      </trkpt>
      <trkpt lat="43.60015" lon="3.53237">
        <ele>87</ele>
        <time>2022-02-22T13:03:01Z</time>
      </trkpt>
      <trkpt lat="43.60013" lon="3.53234">
        <ele>87</ele>
        <time>2022-02-22T13:03:05Z</time>
      </trkpt>
      <trkpt lat="43.6001" lon="3.53232">
        <ele>87</ele>
        <time>2022-02-22T13:03:09Z</time>
      </trkpt>
      <trkpt lat="43.60007" lon="3.53229">
        <ele>87</ele>
        <time>2022-02-22T13:03:12Z</time>
      </trkpt>
      <trkpt lat="43.60005" lon="3.53227">
        <ele>87</ele>
        <time>2022-02-22T13:03:15Z</time>
      </trkpt>
      <trkpt lat="43.60002" lon="3.53226">
        <ele>87</ele>
        <time>2022-02-22T13:03:19Z</time>
      </trkpt>
      <trkpt lat="43.59999" lon="3.53224">
        <ele>87</ele>
        <time>2022-02-22T13:03:22Z</time>
      </trkpt>
      <trkpt lat="43.59996" lon="3.53223">
        <ele>87</ele>
        <time>2022-02-22T13:03:25Z</time>
      </trkpt>
      <trkpt lat="43.59993" lon="3.53222">
        <ele>87</ele>
        <time>2022-02-22T13:03:30Z</time>
      </trkpt>
      <trkpt lat="43.5999" lon="3.5322">
        <ele>87</ele>
        <time>2022-02-22T13:03:34Z</time>
      </trkpt>
      <trkpt lat="43.59988" lon="3.53218">
        <ele>87</ele>
        <time>2022-02-22T13:03:38Z</time>
      </trkpt>
      <trkpt lat="43.59986" lon="3.53215">
        <ele>87</ele>
        <time>2022-02-22T13:03:42Z</time>
      </trkpt>
      <trkpt lat="43.59985" lon="3.53211">
        <ele>87</ele>
        <time>2022-02-22T13:03:45Z</time>
      </trkpt>
      <trkpt lat="43.59984" lon="3.53207">
        <ele>87</ele>
        <time>2022-02-22T13:03:49Z</time>
      </trkpt>
      <trkpt lat="43.59984" lon="3.53203">
        <ele>87</ele>
        <time>2022-02-22T13:03:55Z</time>
      </trkpt>
      <trkpt lat="43.59985" lon="3.53198">
        <ele>87</ele>
        <time>2022-02-22T13:03:59Z</time>
      </trkpt>
      <trkpt lat="43.59986" lon="3.53194">
        <ele>87</ele>
        <time>2022-02-22T13:04:02Z</time>
      </trkpt>
      <trkpt lat="43.59987" lon="3.5319">
        <ele>87</ele>
        <time>2022-02-22T13:04:06Z</time>
      </trkpt>
      <trkpt lat="43.59987" lon="3.53186">
        <ele>87</ele>
        <time>2022-02-22T13:04:11Z</time>
      </trkpt>
      <trkpt lat="43.59986" lon="3.53182">
        <ele>87</ele>
        <time>2022-02-22T13:04:16Z</time>
      </trkpt>
      <trkpt lat="43.59984" lon="3.53179">
        <ele>87</ele>
        <time>2022-02-22T13:04:27Z</time>
      </trkpt>
      <trkpt lat="43.59982" lon="3.53176">
        <ele>87</ele>
        <time>2022-02-22T13:04:30Z</time>
      </trkpt>
      <trkpt lat="43.59978" lon="3.53175">
        <ele>87</ele>
        <time>2022-02-22T13:04:33Z</time>
      </trkpt>
      <trkpt lat="43.59975" lon="3.53174">
        <ele>87</ele>
        <time>2022-02-22T13:04:36Z</time>
      </trkpt>
      <trkpt lat="43.59972" lon="3.53173">
        <ele>87</ele>
        <time>2022-02-22T13:04:40Z</time>
      </trkpt>
      <trkpt lat="43.5997" lon="3.53171">
        <ele>87</ele>
        <time>2022-02-22T13:04:46Z</time>
      </trkpt>
      <trkpt lat="43.59967" lon="3.53169">
        <ele>87</ele>
        <time>2022-02-22T13:04:49Z</time>
      </trkpt>
      <trkpt lat="43.59965" lon="3.53166">
        <ele>87</ele>
        <time>2022-02-22T13:04:52Z</time>
      </trkpt>
      <trkpt lat="43.59965" lon="3.53162">
        <ele>87</ele>
        <time>2022-02-22T13:04:55Z</time>
      </trkpt>
      <trkpt lat="43.59964" lon="3.53158">
        <ele>87</ele>
        <time>2022-02-22T13:04:58Z</time>
      </trkpt>
      <trkpt lat="43.59964" lon="3.53154">
        <ele>87</ele>
        <time>2022-02-22T13:05:01Z</time>
      </trkpt>
      <trkpt lat="43.59962" lon="3.5315">
        <ele>87</ele>
        <time>2022-02-22T13:05:04Z</time>
      </trkpt>
      <trkpt lat="43.59961" lon="3.53146">
        <ele>87</ele>
        <time>2022-02-22T13:05:08Z</time>
      </trkpt>
      <trkpt lat="43.59959" lon="3.53142">
        <ele>87</ele>
        <time>2022-02-22T13:05:11Z</time>
      </trkpt>
      <trkpt lat="43.59958" lon="3.53138">
        <ele>87</ele>
        <time>2022-02-22T13:05:14Z</time>
      </trkpt>
      <trkpt lat="43.59956" lon="3.53134">
        <ele>87</ele>
        <time>2022-02-22T13:05:17Z</time>
      </trkpt>
      <trkpt lat="43.59955" lon="3.5313">
        <ele>87</ele>
        <time>2022-02-22T13:05:20Z</time>
      </trkpt>
      <trkpt lat="43.59953" lon="3.53125">
        <ele>87</ele>
        <time>2022-02-22T13:05:28Z</time>
      </trkpt>
      <trkpt lat="43.59952" lon="3.53122">
        <ele>87</ele>
        <time>2022-02-22T13:05:34Z</time>
      </trkpt>
      <trkpt lat="43.59951" lon="3.53118">
        <ele>87</ele>
        <time>2022-02-22T13:05:37Z</time>
      </trkpt>
      <trkpt lat="43.59949" lon="3.53113">
        <ele>87</ele>
        <time>2022-02-22T13:05:41Z</time>
      </trkpt>
      <trkpt lat="43.59948" lon="3.53109">
        <ele>87</ele>
        <time>2022-02-22T13:05:45Z</time>
      </trkpt>
      <trkpt lat="43.59948" lon="3.53104">
        <ele>87</ele>
        <time>2022-02-22T13:05:48Z</time>
      </trkpt>
      <trkpt lat="43.59946" lon="3.531">
        <ele>87</ele>
        <time>2022-02-22T13:05:52Z</time>
      </trkpt>
      <trkpt lat="43.59945" lon="3.53096">
        <ele>87</ele>
        <time>2022-02-22T13:05:55Z</time>
      </trkpt>
      <trkpt lat="43.59944" lon="3.53092">
        <ele>87</ele>
        <time>2022-02-22T13:05:58Z</time>
      </trkpt>
      <trkpt lat="43.59943" lon="3.53087">
        <ele>87</ele>
        <time>2022-02-22T13:06:01Z</time>
      </trkpt>
      <trkpt lat="43.59942" lon="3.53083">
        <ele>87</ele>
        <time>2022-02-22T13:06:04Z</time>
      </trkpt>
      <trkpt lat="43.59941" lon="3.53079">
        <ele>87</ele>
        <time>2022-02-22T13:06:07Z</time>
      </trkpt>
      <trkpt lat="43.5994" lon="3.53074">
        <ele>87</ele>
        <time>2022-02-22T13:06:10Z</time>
      </trkpt>
      <trkpt lat="43.5994" lon="3.5307">
        <ele>87</ele>
        <time>2022-02-22T13:06:13Z</time>
      </trkpt>
      <trkpt lat="43.59939" lon="3.53066">
        <ele>87</ele>
        <time>2022-02-22T13:06:17Z</time>
      </trkpt>
      <trkpt lat="43.59939" lon="3.53061">
        <ele>87</ele>
        <time>2022-02-22T13:06:20Z</time>
      </trkpt>
      <trkpt lat="43.59939" lon="3.53056">
        <ele>87</ele>
        <time>2022-02-22T13:06:23Z</time>
      </trkpt>
      <trkpt lat="43.59939" lon="3.53052">
        <ele>87</ele>
        <time>2022-02-22T13:06:26Z</time>
      </trkpt>
      <trkpt lat="43.59939" lon="3.53048">
        <ele>87</ele>
        <time>2022-02-22T13:06:29Z</time>
      </trkpt>
      <trkpt lat="43.59939" lon="3.53043">
        <ele>87</ele>
        <time>2022-02-22T13:06:32Z</time>
      </trkpt>
      <trkpt lat="43.59938" lon="3.53039">
        <ele>87</ele>
        <time>2022-02-22T13:06:41Z</time>
      </trkpt>
      <trkpt lat="43.59938" lon="3.53035">
        <ele>87</ele>
        <time>2022-02-22T13:06:47Z</time>
      </trkpt>
      <trkpt lat="43.59937" lon="3.53031">
        <ele>87</ele>
        <time>2022-02-22T13:06:51Z</time>
      </trkpt>
      <trkpt lat="43.59936" lon="3.53027">
        <ele>87</ele>
        <time>2022-02-22T13:06:54Z</time>
      </trkpt>
      <trkpt lat="43.59935" lon="3.53023">
        <ele>87</ele>
        <time>2022-02-22T13:06:57Z</time>
      </trkpt>
      <trkpt lat="43.59933" lon="3.53019">
        <ele>87</ele>
        <time>2022-02-22T13:07:00Z</time>
      </trkpt>
      <trkpt lat="43.59932" lon="3.53016">
        <ele>87</ele>
        <time>2022-02-22T13:07:03Z</time>
      </trkpt>
      <trkpt lat="43.5993" lon="3.53012">
        <ele>87</ele>
        <time>2022-02-22T13:07:06Z</time>
      </trkpt>
      <trkpt lat="43.59929" lon="3.53008">
        <ele>87</ele>
        <time>2022-02-22T13:07:09Z</time>
      </trkpt>
      <trkpt lat="43.59928" lon="3.53005">
        <ele>87</ele>
        <time>2022-02-22T13:07:12Z</time>
      </trkpt>
      <trkpt lat="43.59926" lon="3.53002">
        <ele>87</ele>
        <time>2022-02-22T13:07:21Z</time>
      </trkpt>
      <trkpt lat="43.59924" lon="3.52998">
        <ele>87</ele>
        <time>2022-02-22T13:07:25Z</time>
      </trkpt>
      <trkpt lat="43.59922" lon="3.52995">
        <ele>87</ele>
        <time>2022-02-22T13:07:28Z</time>
      </trkpt>
      <trkpt lat="43.59919" lon="3.52993">
        <ele>87</ele>
        <time>2022-02-22T13:07:31Z</time>
      </trkpt>
      <trkpt lat="43.59917" lon="3.5299">
        <ele>87</ele>
        <time>2022-02-22T13:07:34Z</time>
      </trkpt>
      <trkpt lat="43.59915" lon="3.52987">
        <ele>87</ele>
        <time>2022-02-22T13:07:37Z</time>
      </trkpt>
      <trkpt lat="43.59912" lon="3.52985">
        <ele>87</ele>
        <time>2022-02-22T13:07:39Z</time>
      </trkpt>
      <trkpt lat="43.59909" lon="3.52982">
        <ele>87</ele>
        <time>2022-02-22T13:07:41Z</time>
      </trkpt>
      <trkpt lat="43.59906" lon="3.52981">
        <ele>87</ele>
        <time>2022-02-22T13:07:43Z</time>
      </trkpt>
      <trkpt lat="43.59903" lon="3.52978">
        <ele>87</ele>
        <time>2022-02-22T13:07:46Z</time>
      </trkpt>
      <trkpt lat="43.59901" lon="3.52975">
        <ele>87</ele>
        <time>2022-02-22T13:07:49Z</time>
      </trkpt>
      <trkpt lat="43.59899" lon="3.52972">
        <ele>87</ele>
        <time>2022-02-22T13:07:52Z</time>
      </trkpt>
      <trkpt lat="43.59897" lon="3.52968">
        <ele>87</ele>
        <time>2022-02-22T13:07:56Z</time>
      </trkpt>
      <trkpt lat="43.59895" lon="3.52965">
        <ele>87</ele>
        <time>2022-02-22T13:07:59Z</time>
      </trkpt>
      <trkpt lat="43.59892" lon="3.52961">
        <ele>87</ele>
        <time>2022-02-22T13:08:02Z</time>
      </trkpt>
      <trkpt lat="43.5989" lon="3.52959">
        <ele>87</ele>
        <time>2022-02-22T13:08:04Z</time>
      </trkpt>
      <trkpt lat="43.59888" lon="3.52956">
        <ele>87</ele>
        <time>2022-02-22T13:08:07Z</time>
      </trkpt>
      <trkpt lat="43.59887" lon="3.52952">
        <ele>87</ele>
        <time>2022-02-22T13:08:10Z</time>
      </trkpt>
      <trkpt lat="43.59885" lon="3.52948">
        <ele>87</ele>
        <time>2022-02-22T13:08:13Z</time>
      </trkpt>
      <trkpt lat="43.59883" lon="3.52945">
        <ele>87</ele>
        <time>2022-02-22T13:08:16Z</time>
      </trkpt>
      <trkpt lat="43.59881" lon="3.52941">
        <ele>87</ele>
        <time>2022-02-22T13:08:19Z</time>
      </trkpt>
      <trkpt lat="43.59878" lon="3.52937">
        <ele>87</ele>
        <time>2022-02-22T13:08:21Z</time>
      </trkpt>
      <trkpt lat="43.59876" lon="3.52934">
        <ele>87</ele>
        <time>2022-02-22T13:08:24Z</time>
      </trkpt>
      <trkpt lat="43.59874" lon="3.5293">
        <ele>87</ele>
        <time>2022-02-22T13:08:27Z</time>
      </trkpt>
      <trkpt lat="43.59872" lon="3.52926">
        <ele>87</ele>
        <time>2022-02-22T13:08:30Z</time>
      </trkpt>
      <trkpt lat="43.5987" lon="3.52923">
        <ele>87</ele>
        <time>2022-02-22T13:08:33Z</time>
      </trkpt>
      <trkpt lat="43.59867" lon="3.5292">
        <ele>87</ele>
        <time>2022-02-22T13:08:36Z</time>
      </trkpt>
      <trkpt lat="43.59866" lon="3.52916">
        <ele>87</ele>
        <time>2022-02-22T13:08:39Z</time>
      </trkpt>
      <trkpt lat="43.59864" lon="3.52912">
        <ele>87</ele>
        <time>2022-02-22T13:08:42Z</time>
      </trkpt>
      <trkpt lat="43.59863" lon="3.52908">
        <ele>87</ele>
        <time>2022-02-22T13:08:45Z</time>
      </trkpt>
      <trkpt lat="43.59862" lon="3.52903">
        <ele>87</ele>
        <time>2022-02-22T13:08:48Z</time>
      </trkpt>
      <trkpt lat="43.5986" lon="3.52899">
        <ele>87</ele>
        <time>2022-02-22T13:08:52Z</time>
      </trkpt>
      <trkpt lat="43.59858" lon="3.52896">
        <ele>87</ele>
        <time>2022-02-22T13:08:55Z</time>
      </trkpt>
      <trkpt lat="43.59856" lon="3.52892">
        <ele>87</ele>
        <time>2022-02-22T13:08:58Z</time>
      </trkpt>
      <trkpt lat="43.59853" lon="3.5289">
        <ele>87</ele>
        <time>2022-02-22T13:09:01Z</time>
      </trkpt>
      <trkpt lat="43.59851" lon="3.52888">
        <ele>87</ele>
        <time>2022-02-22T13:09:04Z</time>
      </trkpt>
      <trkpt lat="43.59848" lon="3.52887">
        <ele>87</ele>
        <time>2022-02-22T13:09:07Z</time>
      </trkpt>
      <trkpt lat="43.59845" lon="3.52885">
        <ele>87</ele>
        <time>2022-02-22T13:09:10Z</time>
      </trkpt>
      <trkpt lat="43.59842" lon="3.52883">
        <ele>87</ele>
        <time>2022-02-22T13:09:13Z</time>
      </trkpt>
      <trkpt lat="43.5984" lon="3.52882">
        <ele>87</ele>
        <time>2022-02-22T13:09:15Z</time>
      </trkpt>
      <trkpt lat="43.59837" lon="3.52881">
        <ele>87</ele>
        <time>2022-02-22T13:09:17Z</time>
      </trkpt>
      <trkpt lat="43.59834" lon="3.5288">
        <ele>87</ele>
        <time>2022-02-22T13:09:19Z</time>
      </trkpt>
      <trkpt lat="43.59831" lon="3.52879">
        <ele>87</ele>
        <time>2022-02-22T13:09:22Z</time>
      </trkpt>
      <trkpt lat="43.59828" lon="3.52878">
        <ele>87</ele>
        <time>2022-02-22T13:09:24Z</time>
      </trkpt>
      <trkpt lat="43.59825" lon="3.52877">
        <ele>87</ele>
        <time>2022-02-22T13:09:27Z</time>
      </trkpt>
      <trkpt lat="43.59822" lon="3.52876">
        <ele>87</ele>
        <time>2022-02-22T13:09:31Z</time>
      </trkpt>
      <trkpt lat="43.59819" lon="3.52875">
        <ele>87</ele>
        <time>2022-02-22T13:09:34Z</time>
      </trkpt>
      <trkpt lat="43.59816" lon="3.52873">
        <ele>87</ele>
        <time>2022-02-22T13:09:37Z</time>
      </trkpt>
      <trkpt lat="43.59813" lon="3.52872">
        <ele>87</ele>
        <time>2022-02-22T13:09:40Z</time>
      </trkpt>
      <trkpt lat="43.5981" lon="3.52871">
        <ele>87</ele>
        <time>2022-02-22T13:09:42Z</time>
      </trkpt>
      <trkpt lat="43.59807" lon="3.52869">
        <ele>87</ele>
        <time>2022-02-22T13:09:45Z</time>
      </trkpt>
      <trkpt lat="43.59805" lon="3.52866">
        <ele>87</ele>
        <time>2022-02-22T13:09:48Z</time>
      </trkpt>
      <trkpt lat="43.59803" lon="3.52863">
        <ele>87</ele>
        <time>2022-02-22T13:09:52Z</time>
      </trkpt>
      <trkpt lat="43.59802" lon="3.52859">
        <ele>87</ele>
        <time>2022-02-22T13:10:22Z</time>
      </trkpt>
      <trkpt lat="43.59801" lon="3.52855">
        <ele>87</ele>
        <time>2022-02-22T13:10:24Z</time>
      </trkpt>
      <trkpt lat="43.59802" lon="3.52851">
        <ele>87</ele>
        <time>2022-02-22T13:10:48Z</time>
      </trkpt>
      <trkpt lat="43.59802" lon="3.52847">
        <ele>87</ele>
        <time>2022-02-22T13:11:27Z</time>
      </trkpt>
      <trkpt lat="43.59801" lon="3.52844">
        <ele>87</ele>
        <time>2022-02-22T13:11:30Z</time>
      </trkpt>
      <trkpt lat="43.59799" lon="3.52842">
        <ele>87</ele>
        <time>2022-02-22T13:11:33Z</time>
      </trkpt>
      <trkpt lat="43.59796" lon="3.52841">
        <ele>87</ele>
        <time>2022-02-22T13:11:39Z</time>
      </trkpt>
      <trkpt lat="43.59793" lon="3.52841">
        <ele>87</ele>
        <time>2022-02-22T13:11:42Z</time>
      </trkpt>
      <trkpt lat="43.5979" lon="3.52841">
        <ele>87</ele>
        <time>2022-02-22T13:11:45Z</time>
      </trkpt>
      <trkpt lat="43.59787" lon="3.52842">
        <ele>87</ele>
        <time>2022-02-22T13:11:51Z</time>
      </trkpt>
      <trkpt lat="43.59788" lon="3.52841">
        <ele>87</ele>
        <time>2022-02-22T13:12:11Z</time>
      </trkpt>
      <trkpt lat="43.59791" lon="3.52841">
        <ele>87</ele>
        <time>2022-02-22T13:12:16Z</time>
      </trkpt>
      <trkpt lat="43.59793" lon="3.52841">
        <ele>87</ele>
        <time>2022-02-22T13:12:20Z</time>
      </trkpt>
      <trkpt lat="43.59796" lon="3.52842">
        <ele>87</ele>
        <time>2022-02-22T13:12:24Z</time>
      </trkpt>
      <trkpt lat="43.59798" lon="3.52844">
        <ele>87</ele>
        <time>2022-02-22T13:12:27Z</time>
      </trkpt>
      <trkpt lat="43.59801" lon="3.52846">
        <ele>87</ele>
        <time>2022-02-22T13:12:31Z</time>
      </trkpt>
      <trkpt lat="43.59801" lon="3.52844">
        <ele>87</ele>
        <time>2022-02-22T13:12:49Z</time>
      </trkpt>
      <trkpt lat="43.59798" lon="3.52843">
        <ele>87</ele>
        <time>2022-02-22T13:12:52Z</time>
      </trkpt>
      <trkpt lat="43.59796" lon="3.52842">
        <ele>87</ele>
        <time>2022-02-22T13:12:54Z</time>
      </trkpt>
      <trkpt lat="43.59793" lon="3.52842">
        <ele>87</ele>
        <time>2022-02-22T13:12:56Z</time>
      </trkpt>
      <trkpt lat="43.5979" lon="3.52843">
        <ele>87</ele>
        <time>2022-02-22T13:12:59Z</time>
      </trkpt>
      <trkpt lat="43.59787" lon="3.52842">
        <ele>87</ele>
        <time>2022-02-22T13:13:12Z</time>
      </trkpt>
      <trkpt lat="43.59784" lon="3.52841">
        <ele>87</ele>
        <time>2022-02-22T13:13:16Z</time>
      </trkpt>
      <trkpt lat="43.59782" lon="3.52841">
        <ele>87</ele>
        <time>2022-02-22T13:13:19Z</time>
      </trkpt>
      <trkpt lat="43.59779" lon="3.52841">
        <ele>87</ele>
        <time>2022-02-22T13:13:23Z</time>
      </trkpt>
      <trkpt lat="43.59776" lon="3.5284">
        <ele>87</ele>
        <time>2022-02-22T13:13:28Z</time>
      </trkpt>
      <trkpt lat="43.59773" lon="3.52839">
        <ele>87</ele>
        <time>2022-02-22T13:13:33Z</time>
      </trkpt>
      <trkpt lat="43.59771" lon="3.52837">
        <ele>87</ele>
        <time>2022-02-22T13:13:37Z</time>
      </trkpt>
      <trkpt lat="43.59768" lon="3.52835">
        <ele>87</ele>
        <time>2022-02-22T13:13:41Z</time>
      </trkpt>
      <trkpt lat="43.59765" lon="3.52833">
        <ele>87</ele>
        <time>2022-02-22T13:13:44Z</time>
      </trkpt>
      <trkpt lat="43.59763" lon="3.5283">
        <ele>87</ele>
        <time>2022-02-22T13:13:47Z</time>
      </trkpt>
      <trkpt lat="43.59761" lon="3.52828">
        <ele>87</ele>
        <time>2022-02-22T13:13:50Z</time>
      </trkpt>
      <trkpt lat="43.59758" lon="3.52826">
        <ele>87</ele>
        <time>2022-02-22T13:13:52Z</time>
      </trkpt>
      <trkpt lat="43.59755" lon="3.52826">
        <ele>87</ele>
        <time>2022-02-22T13:13:55Z</time>
      </trkpt>
      <trkpt lat="43.59752" lon="3.52827">
        <ele>87</ele>
        <time>2022-02-22T13:13:58Z</time>
      </trkpt>
      <trkpt lat="43.59748" lon="3.52826">
        <ele>87</ele>
        <time>2022-02-22T13:14:01Z</time>
      </trkpt>
      <trkpt lat="43.59745" lon="3.52825">
        <ele>87</ele>
        <time>2022-02-22T13:14:04Z</time>
      </trkpt>
      <trkpt lat="43.59741" lon="3.52825">
        <ele>87</ele>
        <time>2022-02-22T13:14:08Z</time>
      </trkpt>
      <trkpt lat="43.59738" lon="3.52825">
        <ele>87</ele>
        <time>2022-02-22T13:14:11Z</time>
      </trkpt>
      <trkpt lat="43.59735" lon="3.52825">
        <ele>87</ele>
        <time>2022-02-22T13:14:14Z</time>
      </trkpt>
      <trkpt lat="43.59732" lon="3.52823">
        <ele>87</ele>
        <time>2022-02-22T13:14:19Z</time>
      </trkpt>
      <trkpt lat="43.59729" lon="3.52823">
        <ele>87</ele>
        <time>2022-02-22T13:14:23Z</time>
      </trkpt>
      <trkpt lat="43.59725" lon="3.52823">
        <ele>87</ele>
        <time>2022-02-22T13:14:26Z</time>
      </trkpt>
      <trkpt lat="43.59722" lon="3.52823">
        <ele>87</ele>
        <time>2022-02-22T13:14:30Z</time>
      </trkpt>
      <trkpt lat="43.59719" lon="3.52822">
        <ele>87</ele>
        <time>2022-02-22T13:14:33Z</time>
      </trkpt>
      <trkpt lat="43.59716" lon="3.52821">
        <ele>87</ele>
        <time>2022-02-22T13:14:35Z</time>
      </trkpt>
      <trkpt lat="43.59713" lon="3.5282">
        <ele>87</ele>
        <time>2022-02-22T13:14:38Z</time>
      </trkpt>
      <trkpt lat="43.59709" lon="3.52819">
        <ele>87</ele>
        <time>2022-02-22T13:14:41Z</time>
      </trkpt>
      <trkpt lat="43.59706" lon="3.52819">
        <ele>87</ele>
        <time>2022-02-22T13:14:44Z</time>
      </trkpt>
      <trkpt lat="43.59703" lon="3.52819">
        <ele>87</ele>
        <time>2022-02-22T13:14:48Z</time>
      </trkpt>
      <trkpt lat="43.597" lon="3.52817">
        <ele>87</ele>
        <time>2022-02-22T13:14:52Z</time>
      </trkpt>
      <trkpt lat="43.59697" lon="3.52817">
        <ele>87</ele>
        <time>2022-02-22T13:14:56Z</time>
      </trkpt>
      <trkpt lat="43.59694" lon="3.52818">
        <ele>87</ele>
        <time>2022-02-22T13:14:59Z</time>
      </trkpt>
      <trkpt lat="43.59691" lon="3.52819">
        <ele>87</ele>
        <time>2022-02-22T13:15:02Z</time>
      </trkpt>
      <trkpt lat="43.59687" lon="3.52818">
        <ele>87</ele>
        <time>2022-02-22T13:15:06Z</time>
      </trkpt>
      <trkpt lat="43.59684" lon="3.52817">
        <ele>87</ele>
        <time>2022-02-22T13:15:09Z</time>
      </trkpt>
      <trkpt lat="43.59681" lon="3.52815">
        <ele>87</ele>
        <time>2022-02-22T13:15:12Z</time>
      </trkpt>
      <trkpt lat="43.59679" lon="3.52813">
        <ele>87</ele>
        <time>2022-02-22T13:15:15Z</time>
      </trkpt>
      <trkpt lat="43.59676" lon="3.52811">
        <ele>87</ele>
        <time>2022-02-22T13:15:18Z</time>
      </trkpt>
      <trkpt lat="43.59674" lon="3.52808">
        <ele>87</ele>
        <time>2022-02-22T13:15:22Z</time>
      </trkpt>
      <trkpt lat="43.59672" lon="3.52805">
        <ele>87</ele>
        <time>2022-02-22T13:15:26Z</time>
      </trkpt>
      <trkpt lat="43.59669" lon="3.52803">
        <ele>87</ele>
        <time>2022-02-22T13:15:30Z</time>
      </trkpt>
      <trkpt lat="43.59667" lon="3.528">
        <ele>87</ele>
        <time>2022-02-22T13:15:33Z</time>
      </trkpt>
      <trkpt lat="43.59665" lon="3.52797">
        <ele>87</ele>
        <time>2022-02-22T13:15:36Z</time>
      </trkpt>
      <trkpt lat="43.59662" lon="3.52794">
        <ele>87</ele>
        <time>2022-02-22T13:15:39Z</time>
      </trkpt>
      <trkpt lat="43.5966" lon="3.52791">
        <ele>87</ele>
        <time>2022-02-22T13:15:42Z</time>
      </trkpt>
      <trkpt lat="43.59657" lon="3.52789">
        <ele>87</ele>
        <time>2022-02-22T13:15:45Z</time>
      </trkpt>
      <trkpt lat="43.59655" lon="3.52787">
        <ele>87</ele>
        <time>2022-02-22T13:15:50Z</time>
      </trkpt>
      <trkpt lat="43.59653" lon="3.52783">
        <ele>87</ele>
        <time>2022-02-22T13:15:53Z</time>
      </trkpt>
      <trkpt lat="43.59651" lon="3.52779">
        <ele>87</ele>
        <time>2022-02-22T13:15:56Z</time>
      </trkpt>
      <trkpt lat="43.59649" lon="3.52776">
        <ele>87</ele>
        <time>2022-02-22T13:16:00Z</time>
      </trkpt>
      <trkpt lat="43.59646" lon="3.52775">
        <ele>87</ele>
        <time>2022-02-22T13:16:07Z</time>
      </trkpt>
      <trkpt lat="43.59645" lon="3.52772">
        <ele>87</ele>
        <time>2022-02-22T13:16:11Z</time>
      </trkpt>
      <trkpt lat="43.59645" lon="3.52768">
        <ele>87</ele>
        <time>2022-02-22T13:16:13Z</time>
      </trkpt>
      <trkpt lat="43.59646" lon="3.52765">
        <ele>87</ele>
        <time>2022-02-22T13:16:15Z</time>
      </trkpt>
      <trkpt lat="43.59646" lon="3.52761">
        <ele>87</ele>
        <time>2022-02-22T13:16:19Z</time>
      </trkpt>
      <trkpt lat="43.59646" lon="3.52756">
        <ele>87</ele>
        <time>2022-02-22T13:16:24Z</time>
      </trkpt>
      <trkpt lat="43.59646" lon="3.52752">
        <ele>87</ele>
        <time>2022-02-22T13:16:29Z</time>
      </trkpt>
      <trkpt lat="43.59644" lon="3.52749">
        <ele>87</ele>
        <time>2022-02-22T13:16:33Z</time>
      </trkpt>
      <trkpt lat="43.59642" lon="3.52747">
        <ele>87</ele>
        <time>2022-02-22T13:16:36Z</time>
      </trkpt>
      <trkpt lat="43.59639" lon="3.52746">
        <ele>87</ele>
        <time>2022-02-22T13:16:40Z</time>
      </trkpt>
      <trkpt lat="43.59636" lon="3.52745">
        <ele>87</ele>
        <time>2022-02-22T13:16:43Z</time>
      </trkpt>
      <trkpt lat="43.59632" lon="3.52744">
        <ele>87</ele>
        <time>2022-02-22T13:16:46Z</time>
      </trkpt>
      <trkpt lat="43.59629" lon="3.52741">
        <ele>87</ele>
        <time>2022-02-22T13:16:50Z</time>
      </trkpt>
      <trkpt lat="43.59627" lon="3.52739">
        <ele>87</ele>
        <time>2022-02-22T13:16:53Z</time>
      </trkpt>
      <trkpt lat="43.59624" lon="3.52736">
        <ele>87</ele>
        <time>2022-02-22T13:16:56Z</time>
      </trkpt>
      <trkpt lat="43.59622" lon="3.52733">
        <ele>87</ele>
        <time>2022-02-22T13:16:59Z</time>
      </trkpt>
      <trkpt lat="43.59618" lon="3.52732">
        <ele>87</ele>
        <time>2022-02-22T13:17:02Z</time>
      </trkpt>
      <trkpt lat="43.59615" lon="3.5273">
        <ele>87</ele>
        <time>2022-02-22T13:17:05Z</time>
      </trkpt>
      <trkpt lat="43.59612" lon="3.52728">
        <ele>87</ele>
        <time>2022-02-22T13:17:08Z</time>
      </trkpt>
      <trkpt lat="43.59609" lon="3.52726">
        <ele>87</ele>
        <time>2022-02-22T13:17:11Z</time>
      </trkpt>
      <trkpt lat="43.59606" lon="3.52725">
        <ele>87</ele>
        <time>2022-02-22T13:17:14Z</time>
      </trkpt>
      <trkpt lat="43.59604" lon="3.52722">
        <ele>87</ele>
        <time>2022-02-22T13:17:17Z</time>
      </trkpt>
      <trkpt lat="43.59602" lon="3.52718">
        <ele>87</ele>
        <time>2022-02-22T13:17:20Z</time>
      </trkpt>
      <trkpt lat="43.59599" lon="3.52716">
        <ele>87</ele>
        <time>2022-02-22T13:17:22Z</time>
      </trkpt>
      <trkpt lat="43.59597" lon="3.52712">
        <ele>87</ele>
        <time>2022-02-22T13:17:25Z</time>
      </trkpt>
      <trkpt lat="43.59594" lon="3.5271">
        <ele>87</ele>
        <time>2022-02-22T13:17:28Z</time>
      </trkpt>
      <trkpt lat="43.59591" lon="3.52707">
        <ele>87</ele>
        <time>2022-02-22T13:17:31Z</time>
      </trkpt>
      <trkpt lat="43.59589" lon="3.52703">
        <ele>87</ele>
        <time>2022-02-22T13:17:35Z</time>
      </trkpt>
      <trkpt lat="43.59587" lon="3.52701">
        <ele>87</ele>
        <time>2022-02-22T13:17:40Z</time>
      </trkpt>
      <trkpt lat="43.59585" lon="3.52697">
        <ele>87</ele>
        <time>2022-02-22T13:17:44Z</time>
      </trkpt>
      <trkpt lat="43.59583" lon="3.52693">
        <ele>87</ele>
        <time>2022-02-22T13:17:48Z</time>
      </trkpt>
      <trkpt lat="43.59582" lon="3.52689">
        <ele>87</ele>
        <time>2022-02-22T13:17:51Z</time>
      </trkpt>
      <trkpt lat="43.59581" lon="3.52685">
        <ele>87</ele>
        <time>2022-02-22T13:17:54Z</time>
      </trkpt>
      <trkpt lat="43.59581" lon="3.52681">
        <ele>87</ele>
        <time>2022-02-22T13:17:58Z</time>
      </trkpt>
      <trkpt lat="43.59582" lon="3.52676">
        <ele>87</ele>
        <time>2022-02-22T13:18:02Z</time>
      </trkpt>
      <trkpt lat="43.59583" lon="3.52672">
        <ele>87</ele>
        <time>2022-02-22T13:18:05Z</time>
      </trkpt>
      <trkpt lat="43.59583" lon="3.52668">
        <ele>87</ele>
        <time>2022-02-22T13:18:08Z</time>
      </trkpt>
      <trkpt lat="43.59583" lon="3.52664">
        <ele>87</ele>
        <time>2022-02-22T13:18:15Z</time>
      </trkpt>
      <trkpt lat="43.59582" lon="3.5266">
        <ele>87</ele>
        <time>2022-02-22T13:18:18Z</time>
      </trkpt>
      <trkpt lat="43.59582" lon="3.52656">
        <ele>87</ele>
        <time>2022-02-22T13:18:24Z</time>
      </trkpt>
      <trkpt lat="43.59582" lon="3.52652">
        <ele>87</ele>
        <time>2022-02-22T13:18:29Z</time>
      </trkpt>
      <trkpt lat="43.59581" lon="3.52648">
        <ele>87</ele>
        <time>2022-02-22T13:18:31Z</time>
      </trkpt>
      <trkpt lat="43.5958" lon="3.52645">
        <ele>87</ele>
        <time>2022-02-22T13:18:34Z</time>
      </trkpt>
      <trkpt lat="43.59579" lon="3.52641">
        <ele>87</ele>
        <time>2022-02-22T13:18:38Z</time>
      </trkpt>
      <trkpt lat="43.59577" lon="3.52636">
        <ele>87</ele>
        <time>2022-02-22T13:18:58Z</time>
      </trkpt>
      <trkpt lat="43.59574" lon="3.52636">
        <ele>87</ele>
        <time>2022-02-22T13:19:01Z</time>
      </trkpt>
      <trkpt lat="43.59571" lon="3.52637">
        <ele>87</ele>
        <time>2022-02-22T13:19:04Z</time>
      </trkpt>
      <trkpt lat="43.59568" lon="3.52638">
        <ele>87</ele>
        <time>2022-02-22T13:19:07Z</time>
      </trkpt>
      <trkpt lat="43.59566" lon="3.52639">
        <ele>87</ele>
        <time>2022-02-22T13:19:10Z</time>
      </trkpt>
      <trkpt lat="43.59563" lon="3.52638">
        <ele>87</ele>
        <time>2022-02-22T13:19:14Z</time>
      </trkpt>
      <trkpt lat="43.5956" lon="3.52637">
        <ele>87</ele>
        <time>2022-02-22T13:19:18Z</time>
      </trkpt>
      <trkpt lat="43.59557" lon="3.52636">
        <ele>87</ele>
        <time>2022-02-22T13:19:22Z</time>
      </trkpt>
      <trkpt lat="43.59554" lon="3.52634">
        <ele>87</ele>
        <time>2022-02-22T13:19:25Z</time>
      </trkpt>
      <trkpt lat="43.59551" lon="3.52633">
        <ele>87</ele>
        <time>2022-02-22T13:19:28Z</time>
      </trkpt>
      <trkpt lat="43.59548" lon="3.52632">
        <ele>87</ele>
        <time>2022-02-22T13:19:31Z</time>
      </trkpt>
      <trkpt lat="43.59545" lon="3.52631">
        <ele>87</ele>
        <time>2022-02-22T13:19:33Z</time>
      </trkpt>
      <trkpt lat="43.59542" lon="3.5263">
        <ele>87</ele>
        <time>2022-02-22T13:19:36Z</time>
      </trkpt>
      <trkpt lat="43.5954" lon="3.52629">
        <ele>87</ele>
        <time>2022-02-22T13:19:39Z</time>
      </trkpt>
      <trkpt lat="43.59537" lon="3.52627">
        <ele>87</ele>
        <time>2022-02-22T13:19:42Z</time>
      </trkpt>
      <trkpt lat="43.59534" lon="3.52627">
        <ele>87</ele>
        <time>2022-02-22T13:19:45Z</time>
      </trkpt>
      <trkpt lat="43.59531" lon="3.52626">
        <ele>87</ele>
        <time>2022-02-22T13:19:48Z</time>
      </trkpt>
      <trkpt lat="43.59528" lon="3.52626">
        <ele>87</ele>
        <time>2022-02-22T13:19:51Z</time>
      </trkpt>
      <trkpt lat="43.59525" lon="3.52625">
        <ele>87</ele>
        <time>2022-02-22T13:19:54Z</time>
      </trkpt>
      <trkpt lat="43.59522" lon="3.52623">
        <ele>87</ele>
        <time>2022-02-22T13:19:58Z</time>
      </trkpt>
      <trkpt lat="43.5952" lon="3.52621">
        <ele>87</ele>
        <time>2022-02-22T13:20:06Z</time>
      </trkpt>
      <trkpt lat="43.59517" lon="3.5262">
        <ele>87</ele>
        <time>2022-02-22T13:20:09Z</time>
      </trkpt>
      <trkpt lat="43.59514" lon="3.52617">
        <ele>87</ele>
        <time>2022-02-22T13:20:13Z</time>
      </trkpt>
      <trkpt lat="43.59512" lon="3.52615">
        <ele>87</ele>
        <time>2022-02-22T13:20:17Z</time>
      </trkpt>
      <trkpt lat="43.59509" lon="3.52613">
        <ele>87</ele>
        <time>2022-02-22T13:20:22Z</time>
      </trkpt>
      <trkpt lat="43.59507" lon="3.52611">
        <ele>87</ele>
        <time>2022-02-22T13:20:25Z</time>
      </trkpt>
      <trkpt lat="43.59503" lon="3.52609">
        <ele>87</ele>
        <time>2022-02-22T13:20:28Z</time>
      </trkpt>
      <trkpt lat="43.595" lon="3.52606">
        <ele>87</ele>
        <time>2022-02-22T13:20:31Z</time>
      </trkpt>
      <trkpt lat="43.59497" lon="3.52605">
        <ele>87</ele>
        <time>2022-02-22T13:20:35Z</time>
      </trkpt>
      <trkpt lat="43.59493" lon="3.52604">
        <ele>87</ele>
        <time>2022-02-22T13:20:38Z</time>
      </trkpt>
      <trkpt lat="43.5949" lon="3.52602">
        <ele>87</ele>
        <time>2022-02-22T13:20:42Z</time>
      </trkpt>
      <trkpt lat="43.59486" lon="3.526">
        <ele>87</ele>
        <time>2022-02-22T13:20:45Z</time>
      </trkpt>
      <trkpt lat="43.59483" lon="3.52598">
        <ele>87</ele>
        <time>2022-02-22T13:20:48Z</time>
      </trkpt>
      <trkpt lat="43.5948" lon="3.52596">
        <ele>87</ele>
        <time>2022-02-22T13:20:50Z</time>
      </trkpt>
      <trkpt lat="43.59477" lon="3.52595">
        <ele>87</ele>
        <time>2022-02-22T13:20:53Z</time>
      </trkpt>
      <trkpt lat="43.59474" lon="3.52593">
        <ele>87</ele>
        <time>2022-02-22T13:20:56Z</time>
      </trkpt>
      <trkpt lat="43.59471" lon="3.52591">
        <ele>87</ele>
        <time>2022-02-22T13:20:59Z</time>
      </trkpt>
      <trkpt lat="43.59468" lon="3.52588">
        <ele>87</ele>
        <time>2022-02-22T13:21:02Z</time>
      </trkpt>
      <trkpt lat="43.59466" lon="3.52586">
        <ele>87</ele>
        <time>2022-02-22T13:21:05Z</time>
      </trkpt>
      <trkpt lat="43.59464" lon="3.52584">
        <ele>87</ele>
        <time>2022-02-22T13:21:08Z</time>
      </trkpt>
      <trkpt lat="43.59461" lon="3.52582">
        <ele>87</ele>
        <time>2022-02-22T13:21:12Z</time>
      </trkpt>
      <trkpt lat="43.59459" lon="3.52578">
        <ele>87</ele>
        <time>2022-02-22T13:21:16Z</time>
      </trkpt>
      <trkpt lat="43.59456" lon="3.52575">
        <ele>87</ele>
        <time>2022-02-22T13:21:21Z</time>
      </trkpt>
      <trkpt lat="43.59454" lon="3.52572">
        <ele>87</ele>
        <time>2022-02-22T13:21:24Z</time>
      </trkpt>
      <trkpt lat="43.59451" lon="3.52568">
        <ele>87</ele>
        <time>2022-02-22T13:21:27Z</time>
      </trkpt>
      <trkpt lat="43.59449" lon="3.52565">
        <ele>87</ele>
        <time>2022-02-22T13:21:30Z</time>
      </trkpt>
      <trkpt lat="43.59447" lon="3.52562">
        <ele>87</ele>
        <time>2022-02-22T13:21:33Z</time>
      </trkpt>
      <trkpt lat="43.59444" lon="3.52559">
        <ele>87</ele>
        <time>2022-02-22T13:21:36Z</time>
      </trkpt>
      <trkpt lat="43.59441" lon="3.52557">
        <ele>87</ele>
        <time>2022-02-22T13:21:39Z</time>
      </trkpt>
      <trkpt lat="43.59437" lon="3.52554">
        <ele>87</ele>
        <time>2022-02-22T13:21:42Z</time>
      </trkpt>
      <trkpt lat="43.59435" lon="3.52552">
        <ele>87</ele>
        <time>2022-02-22T13:21:44Z</time>
      </trkpt>
      <trkpt lat="43.59432" lon="3.5255">
        <ele>87</ele>
        <time>2022-02-22T13:21:47Z</time>
      </trkpt>
      <trkpt lat="43.59429" lon="3.52547">
        <ele>87</ele>
        <time>2022-02-22T13:21:51Z</time>
      </trkpt>
      <trkpt lat="43.59427" lon="3.52544">
        <ele>87</ele>
        <time>2022-02-22T13:21:54Z</time>
      </trkpt>
      <trkpt lat="43.59424" lon="3.52542">
        <ele>87</ele>
        <time>2022-02-22T13:21:57Z</time>
      </trkpt>
      <trkpt lat="43.59422" lon="3.5254">
        <ele>87</ele>
        <time>2022-02-22T13:21:59Z</time>
      </trkpt>
      <trkpt lat="43.59419" lon="3.52538">
        <ele>87</ele>
        <time>2022-02-22T13:22:01Z</time>
      </trkpt>
      <trkpt lat="43.59416" lon="3.52536">
        <ele>87</ele>
        <time>2022-02-22T13:22:03Z</time>
      </trkpt>
      <trkpt lat="43.59414" lon="3.52533">
        <ele>87</ele>
        <time>2022-02-22T13:22:06Z</time>
      </trkpt>
      <trkpt lat="43.59411" lon="3.5253">
        <ele>87</ele>
        <time>2022-02-22T13:22:11Z</time>
      </trkpt>
      <trkpt lat="43.59408" lon="3.52529">
        <ele>87</ele>
        <time>2022-02-22T13:22:15Z</time>
      </trkpt>
      <trkpt lat="43.59405" lon="3.52527">
        <ele>87</ele>
        <time>2022-02-22T13:22:18Z</time>
      </trkpt>
      <trkpt lat="43.59403" lon="3.52524">
        <ele>87</ele>
        <time>2022-02-22T13:22:21Z</time>
      </trkpt>
      <trkpt lat="43.594" lon="3.52522">
        <ele>87</ele>
        <time>2022-02-22T13:22:24Z</time>
      </trkpt>
      <trkpt lat="43.59398" lon="3.52519">
        <ele>87</ele>
        <time>2022-02-22T13:22:27Z</time>
      </trkpt>
      <trkpt lat="43.59396" lon="3.52515">
        <ele>87</ele>
        <time>2022-02-22T13:22:32Z</time>
      </trkpt>
      <trkpt lat="43.59394" lon="3.52512">
        <ele>87</ele>
        <time>2022-02-22T13:22:37Z</time>
      </trkpt>
      <trkpt lat="43.59391" lon="3.52507">
        <ele>87</ele>
        <time>2022-02-22T13:22:56Z</time>
      </trkpt>
      <trkpt lat="43.59389" lon="3.52503">
        <ele>87</ele>
        <time>2022-02-22T13:23:01Z</time>
      </trkpt>
      <trkpt lat="43.59388" lon="3.52499">
        <ele>87</ele>
        <time>2022-02-22T13:23:09Z</time>
      </trkpt>
      <trkpt lat="43.59386" lon="3.52497">
        <ele>87</ele>
        <time>2022-02-22T13:23:26Z</time>
      </trkpt>
      <trkpt lat="43.59387" lon="3.52492">
        <ele>87</ele>
        <time>2022-02-22T13:23:42Z</time>
      </trkpt>
      <trkpt lat="43.59389" lon="3.52489">
        <ele>87</ele>
        <time>2022-02-22T13:23:46Z</time>
      </trkpt>
      <trkpt lat="43.59391" lon="3.52486">
        <ele>87</ele>
        <time>2022-02-22T13:23:51Z</time>
      </trkpt>
      <trkpt lat="43.5939" lon="3.52484">
        <ele>87</ele>
        <time>2022-02-22T13:23:59Z</time>
      </trkpt>
      <trkpt lat="43.59389" lon="3.52483">
        <ele>87</ele>
        <time>2022-02-22T13:24:09Z</time>
      </trkpt>
      <trkpt lat="43.5939" lon="3.52483">
        <ele>87</ele>
        <time>2022-02-22T13:24:24Z</time>
      </trkpt>
      <trkpt lat="43.59389" lon="3.52482">
        <ele>87</ele>
        <time>2022-02-22T13:24:52Z</time>
      </trkpt>
      <trkpt lat="43.59387" lon="3.52483">
        <ele>87</ele>
        <time>2022-02-22T13:24:56Z</time>
      </trkpt>
      <trkpt lat="43.59387" lon="3.52487">
        <ele>87</ele>
        <time>2022-02-22T13:25:17Z</time>
      </trkpt>
      <trkpt lat="43.59386" lon="3.52491">
        <ele>87</ele>
        <time>2022-02-22T13:25:21Z</time>
      </trkpt>
      <trkpt lat="43.59385" lon="3.52495">
        <ele>87</ele>
        <time>2022-02-22T13:25:26Z</time>
      </trkpt>
      <trkpt lat="43.59386" lon="3.52498">
        <ele>87</ele>
        <time>2022-02-22T13:25:33Z</time>
      </trkpt>
      <trkpt lat="43.59386" lon="3.52503">
        <ele>87</ele>
        <time>2022-02-22T13:25:48Z</time>
      </trkpt>
      <trkpt lat="43.59386" lon="3.52507">
        <ele>87</ele>
        <time>2022-02-22T13:26:22Z</time>
      </trkpt>
      <trkpt lat="43.59385" lon="3.52509">
        <ele>87</ele>
        <time>2022-02-22T13:26:28Z</time>
      </trkpt>
      <trkpt lat="43.59382" lon="3.52511">
        <ele>87</ele>
        <time>2022-02-22T13:26:32Z</time>
      </trkpt>
      <trkpt lat="43.5938" lon="3.52512">
        <ele>87</ele>
        <time>2022-02-22T13:26:40Z</time>
      </trkpt>
      <trkpt lat="43.59377" lon="3.52514">
        <ele>87</ele>
        <time>2022-02-22T13:26:59Z</time>
      </trkpt>
      <trkpt lat="43.59377" lon="3.52517">
        <ele>87</ele>
        <time>2022-02-22T13:27:03Z</time>
      </trkpt>
      <trkpt lat="43.59377" lon="3.52521">
        <ele>87</ele>
        <time>2022-02-22T13:27:06Z</time>
      </trkpt>
      <trkpt lat="43.59377" lon="3.52525">
        <ele>87</ele>
        <time>2022-02-22T13:27:09Z</time>
      </trkpt>
      <trkpt lat="43.59377" lon="3.52529">
        <ele>87</ele>
        <time>2022-02-22T13:27:12Z</time>
      </trkpt>
      <trkpt lat="43.59379" lon="3.52533">
        <ele>87</ele>
        <time>2022-02-22T13:27:15Z</time>
      </trkpt>
      <trkpt lat="43.5938" lon="3.52537">
        <ele>87</ele>
        <time>2022-02-22T13:27:18Z</time>
      </trkpt>
      <trkpt lat="43.59381" lon="3.52541">
        <ele>87</ele>
        <time>2022-02-22T13:27:21Z</time>
      </trkpt>
      <trkpt lat="43.59382" lon="3.52545">
        <ele>87</ele>
        <time>2022-02-22T13:27:23Z</time>
      </trkpt>
      <trkpt lat="43.59383" lon="3.52549">
        <ele>87</ele>
        <time>2022-02-22T13:27:26Z</time>
      </trkpt>
      <trkpt lat="43.59386" lon="3.52552">
        <ele>87</ele>
        <time>2022-02-22T13:27:29Z</time>
      </trkpt>
      <trkpt lat="43.59389" lon="3.52554">
        <ele>87</ele>
        <time>2022-02-22T13:27:32Z</time>
      </trkpt>
      <trkpt lat="43.59391" lon="3.52557">
        <ele>87</ele>
        <time>2022-02-22T13:27:36Z</time>
      </trkpt>
      <trkpt lat="43.59394" lon="3.5256">
        <ele>87</ele>
        <time>2022-02-22T13:27:40Z</time>
      </trkpt>
      <trkpt lat="43.59395" lon="3.52563">
        <ele>87</ele>
        <time>2022-02-22T13:27:45Z</time>
      </trkpt>
      <trkpt lat="43.59398" lon="3.52566">
        <ele>87</ele>
        <time>2022-02-22T13:27:49Z</time>
      </trkpt>
      <trkpt lat="43.594" lon="3.52569">
        <ele>87</ele>
        <time>2022-02-22T13:27:53Z</time>
      </trkpt>
      <trkpt lat="43.59402" lon="3.52573">
        <ele>87</ele>
        <time>2022-02-22T13:27:57Z</time>
      </trkpt>
      <trkpt lat="43.59405" lon="3.52577">
        <ele>87</ele>
        <time>2022-02-22T13:28:01Z</time>
      </trkpt>
      <trkpt lat="43.59407" lon="3.5258">
        <ele>87</ele>
        <time>2022-02-22T13:28:04Z</time>
      </trkpt>
      <trkpt lat="43.59409" lon="3.52582">
        <ele>87</ele>
        <time>2022-02-22T13:28:07Z</time>
      </trkpt>
      <trkpt lat="43.59412" lon="3.52585">
        <ele>87</ele>
        <time>2022-02-22T13:28:11Z</time>
      </trkpt>
      <trkpt lat="43.59415" lon="3.52588">
        <ele>87</ele>
        <time>2022-02-22T13:28:14Z</time>
      </trkpt>
      <trkpt lat="43.59417" lon="3.52591">
        <ele>87</ele>
        <time>2022-02-22T13:28:17Z</time>
      </trkpt>
      <trkpt lat="43.5942" lon="3.52594">
        <ele>87</ele>
        <time>2022-02-22T13:28:20Z</time>
      </trkpt>
      <trkpt lat="43.59422" lon="3.52597">
        <ele>87</ele>
        <time>2022-02-22T13:28:23Z</time>
      </trkpt>
      <trkpt lat="43.59425" lon="3.526">
        <ele>87</ele>
        <time>2022-02-22T13:28:26Z</time>
      </trkpt>
      <trkpt lat="43.59427" lon="3.52603">
        <ele>87</ele>
        <time>2022-02-22T13:28:29Z</time>
      </trkpt>
      <trkpt lat="43.59429" lon="3.52605">
        <ele>87</ele>
        <time>2022-02-22T13:28:32Z</time>
      </trkpt>
      <trkpt lat="43.59432" lon="3.52608">
        <ele>87</ele>
        <time>2022-02-22T13:28:35Z</time>
      </trkpt>
      <trkpt lat="43.59435" lon="3.52611">
        <ele>87</ele>
        <time>2022-02-22T13:28:38Z</time>
      </trkpt>
      <trkpt lat="43.59438" lon="3.52613">
        <ele>87</ele>
        <time>2022-02-22T13:28:41Z</time>
      </trkpt>
      <trkpt lat="43.5944" lon="3.52615">
        <ele>87</ele>
        <time>2022-02-22T13:28:44Z</time>
      </trkpt>
      <trkpt lat="43.59442" lon="3.52618">
        <ele>87</ele>
        <time>2022-02-22T13:28:47Z</time>
      </trkpt>
      <trkpt lat="43.59444" lon="3.52621">
        <ele>87</ele>
        <time>2022-02-22T13:28:51Z</time>
      </trkpt>
      <trkpt lat="43.59446" lon="3.52624">
        <ele>87</ele>
        <time>2022-02-22T13:28:54Z</time>
      </trkpt>
      <trkpt lat="43.59448" lon="3.52628">
        <ele>87</ele>
        <time>2022-02-22T13:28:57Z</time>
      </trkpt>
      <trkpt lat="43.59451" lon="3.52631">
        <ele>87</ele>
        <time>2022-02-22T13:29:01Z</time>
      </trkpt>
      <trkpt lat="43.59453" lon="3.52634">
        <ele>87</ele>
        <time>2022-02-22T13:29:04Z</time>
      </trkpt>
      <trkpt lat="43.59456" lon="3.52637">
        <ele>87</ele>
        <time>2022-02-22T13:29:07Z</time>
      </trkpt>
      <trkpt lat="43.59455" lon="3.52641">
        <ele>87</ele>
        <time>2022-02-22T13:29:13Z</time>
      </trkpt>
      <trkpt lat="43.59454" lon="3.52643">
        <ele>87</ele>
        <time>2022-02-22T13:29:16Z</time>
      </trkpt>
      <trkpt lat="43.59451" lon="3.52644">
        <ele>87</ele>
        <time>2022-02-22T13:29:27Z</time>
      </trkpt>
      <trkpt lat="43.59448" lon="3.52644">
        <ele>87</ele>
        <time>2022-02-22T13:29:31Z</time>
      </trkpt>
      <trkpt lat="43.59445" lon="3.52645">
        <ele>87</ele>
        <time>2022-02-22T13:29:34Z</time>
      </trkpt>
      <trkpt lat="43.59442" lon="3.52647">
        <ele>87</ele>
        <time>2022-02-22T13:29:38Z</time>
      </trkpt>
      <trkpt lat="43.59439" lon="3.52647">
        <ele>87</ele>
        <time>2022-02-22T13:29:40Z</time>
      </trkpt>
      <trkpt lat="43.59435" lon="3.52646">
        <ele>87</ele>
        <time>2022-02-22T13:29:43Z</time>
      </trkpt>
      <trkpt lat="43.59432" lon="3.52646">
        <ele>87</ele>
        <time>2022-02-22T13:29:45Z</time>
      </trkpt>
      <trkpt lat="43.59429" lon="3.52645">
        <ele>87</ele>
        <time>2022-02-22T13:29:48Z</time>
      </trkpt>
      <trkpt lat="43.59426" lon="3.52646">
        <ele>87</ele>
        <time>2022-02-22T13:29:51Z</time>
      </trkpt>
      <trkpt lat="43.59422" lon="3.52647">
        <ele>87</ele>
        <time>2022-02-22T13:29:54Z</time>
      </trkpt>
      <trkpt lat="43.59418" lon="3.52648">
        <ele>87</ele>
        <time>2022-02-22T13:29:57Z</time>
      </trkpt>
      <trkpt lat="43.59416" lon="3.52646">
        <ele>87</ele>
        <time>2022-02-22T13:30:00Z</time>
      </trkpt>
      <trkpt lat="43.59414" lon="3.52643">
        <ele>87</ele>
        <time>2022-02-22T13:30:04Z</time>
      </trkpt>
      <trkpt lat="43.59411" lon="3.52639">
        <ele>87</ele>
        <time>2022-02-22T13:30:07Z</time>
      </trkpt>
      <trkpt lat="43.59409" lon="3.52635">
        <ele>87</ele>
        <time>2022-02-22T13:30:10Z</time>
      </trkpt>
      <trkpt lat="43.59408" lon="3.52631">
        <ele>87</ele>
        <time>2022-02-22T13:30:13Z</time>
      </trkpt>
      <trkpt lat="43.59406" lon="3.52626">
        <ele>87</ele>
        <time>2022-02-22T13:30:16Z</time>
      </trkpt>
      <trkpt lat="43.59404" lon="3.52623">
        <ele>87</ele>
        <time>2022-02-22T13:30:19Z</time>
      </trkpt>
      <trkpt lat="43.59402" lon="3.52619">
        <ele>87</ele>
        <time>2022-02-22T13:30:22Z</time>
      </trkpt>
      <trkpt lat="43.59401" lon="3.52615">
        <ele>87</ele>
        <time>2022-02-22T13:30:25Z</time>
      </trkpt>
      <trkpt lat="43.594" lon="3.52611">
        <ele>87</ele>
        <time>2022-02-22T13:30:28Z</time>
      </trkpt>
      <trkpt lat="43.59397" lon="3.52609">
        <ele>87</ele>
        <time>2022-02-22T13:30:31Z</time>
      </trkpt>
      <trkpt lat="43.59395" lon="3.52606">
        <ele>87</ele>
        <time>2022-02-22T13:30:33Z</time>
      </trkpt>
      <trkpt lat="43.59393" lon="3.52603">
        <ele>87</ele>
        <time>2022-02-22T13:30:37Z</time>
      </trkpt>
      <trkpt lat="43.5939" lon="3.52599">
        <ele>87</ele>
        <time>2022-02-22T13:30:41Z</time>
      </trkpt>
      <trkpt lat="43.59388" lon="3.52595">
        <ele>87</ele>
        <time>2022-02-22T13:30:44Z</time>
      </trkpt>
      <trkpt lat="43.59385" lon="3.52593">
        <ele>87</ele>
        <time>2022-02-22T13:30:47Z</time>
      </trkpt>
      <trkpt lat="43.59383" lon="3.5259">
        <ele>87</ele>
        <time>2022-02-22T13:30:50Z</time>
      </trkpt>
      <trkpt lat="43.59381" lon="3.52587">
        <ele>87</ele>
        <time>2022-02-22T13:30:53Z</time>
      </trkpt>
      <trkpt lat="43.5938" lon="3.52582">
        <ele>87</ele>
        <time>2022-02-22T13:30:57Z</time>
      </trkpt>
      <trkpt lat="43.5938" lon="3.52578">
        <ele>87</ele>
        <time>2022-02-22T13:31:01Z</time>
      </trkpt>
      <trkpt lat="43.59379" lon="3.52574">
        <ele>87</ele>
        <time>2022-02-22T13:31:03Z</time>
      </trkpt>
      <trkpt lat="43.59379" lon="3.52569">
        <ele>87</ele>
        <time>2022-02-22T13:31:06Z</time>
      </trkpt>
      <trkpt lat="43.59377" lon="3.52565">
        <ele>87</ele>
        <time>2022-02-22T13:31:09Z</time>
      </trkpt>
      <trkpt lat="43.59375" lon="3.52561">
        <ele>87</ele>
        <time>2022-02-22T13:31:12Z</time>
      </trkpt>
      <trkpt lat="43.59374" lon="3.52556">
        <ele>87</ele>
        <time>2022-02-22T13:31:15Z</time>
      </trkpt>
      <trkpt lat="43.59372" lon="3.52553">
        <ele>87</ele>
        <time>2022-02-22T13:31:18Z</time>
      </trkpt>
      <trkpt lat="43.5937" lon="3.52549">
        <ele>87</ele>
        <time>2022-02-22T13:31:21Z</time>
      </trkpt>
      <trkpt lat="43.59367" lon="3.52546">
        <ele>87</ele>
        <time>2022-02-22T13:31:24Z</time>
      </trkpt>
      <trkpt lat="43.59366" lon="3.52543">
        <ele>87</ele>
        <time>2022-02-22T13:31:27Z</time>
      </trkpt>
      <trkpt lat="43.59365" lon="3.52538">
        <ele>87</ele>
        <time>2022-02-22T13:31:30Z</time>
      </trkpt>
      <trkpt lat="43.59366" lon="3.52534">
        <ele>87</ele>
        <time>2022-02-22T13:31:33Z</time>
      </trkpt>
      <trkpt lat="43.59365" lon="3.5253">
        <ele>87</ele>
        <time>2022-02-22T13:31:37Z</time>
      </trkpt>
      <trkpt lat="43.59364" lon="3.52525">
        <ele>87</ele>
        <time>2022-02-22T13:31:40Z</time>
      </trkpt>
      <trkpt lat="43.59363" lon="3.52521">
        <ele>87</ele>
        <time>2022-02-22T13:31:42Z</time>
      </trkpt>
      <trkpt lat="43.59362" lon="3.52517">
        <ele>87</ele>
        <time>2022-02-22T13:31:44Z</time>
      </trkpt>
      <trkpt lat="43.59363" lon="3.52512">
        <ele>87</ele>
        <time>2022-02-22T13:31:47Z</time>
      </trkpt>
      <trkpt lat="43.59363" lon="3.52508">
        <ele>87</ele>
        <time>2022-02-22T13:31:49Z</time>
      </trkpt>
      <trkpt lat="43.59364" lon="3.52504">
        <ele>87</ele>
        <time>2022-02-22T13:31:51Z</time>
      </trkpt>
      <trkpt lat="43.59364" lon="3.525">
        <ele>87</ele>
        <time>2022-02-22T13:31:54Z</time>
      </trkpt>
      <trkpt lat="43.59366" lon="3.52496">
        <ele>87</ele>
        <time>2022-02-22T13:32:02Z</time>
      </trkpt>
      <trkpt lat="43.59365" lon="3.52495">
        <ele>87</ele>
        <time>2022-02-22T13:32:47Z</time>
      </trkpt>
      <trkpt lat="43.59363" lon="3.52495">
        <ele>87</ele>
        <time>2022-02-22T13:32:49Z</time>
      </trkpt>
      <trkpt lat="43.59362" lon="3.52492">
        <ele>87</ele>
        <time>2022-02-22T13:32:59Z</time>
      </trkpt>
      <trkpt lat="43.5936" lon="3.52489">
        <ele>87</ele>
        <time>2022-02-22T13:33:06Z</time>
      </trkpt>
      <trkpt lat="43.59361" lon="3.52485">
        <ele>87</ele>
        <time>2022-02-22T13:33:12Z</time>
      </trkpt>
      <trkpt lat="43.59362" lon="3.52481">
        <ele>87</ele>
        <time>2022-02-22T13:33:17Z</time>
      </trkpt>
      <trkpt lat="43.59363" lon="3.52478">
        <ele>87</ele>
        <time>2022-02-22T13:34:02Z</time>
      </trkpt>
      <trkpt lat="43.59365" lon="3.52475">
        <ele>87</ele>
        <time>2022-02-22T13:34:14Z</time>
      </trkpt>
      <trkpt lat="43.59368" lon="3.52473">
        <ele>87</ele>
        <time>2022-02-22T13:34:18Z</time>
      </trkpt>
      <trkpt lat="43.5937" lon="3.52473">
        <ele>87</ele>
        <time>2022-02-22T13:34:21Z</time>
      </trkpt>
      <trkpt lat="43.59373" lon="3.52472">
        <ele>87</ele>
        <time>2022-02-22T13:34:24Z</time>
      </trkpt>
      <trkpt lat="43.59376" lon="3.5247">
        <ele>87</ele>
        <time>2022-02-22T13:34:53Z</time>
      </trkpt>
      <trkpt lat="43.59379" lon="3.5247">
        <ele>87</ele>
        <time>2022-02-22T13:35:00Z</time>
      </trkpt>
      <trkpt lat="43.59378" lon="3.52468">
        <ele>87</ele>
        <time>2022-02-22T13:36:46Z</time>
      </trkpt>
      <trkpt lat="43.59379" lon="3.52464">
        <ele>87</ele>
        <time>2022-02-22T13:36:58Z</time>
      </trkpt>
      <trkpt lat="43.5938" lon="3.5246">
        <ele>87</ele>
        <time>2022-02-22T13:37:03Z</time>
      </trkpt>
      <trkpt lat="43.59382" lon="3.52457">
        <ele>87</ele>
        <time>2022-02-22T13:37:08Z</time>
      </trkpt>
      <trkpt lat="43.59385" lon="3.52455">
        <ele>87</ele>
        <time>2022-02-22T13:37:13Z</time>
      </trkpt>
      <trkpt lat="43.59388" lon="3.52453">
        <ele>87</ele>
        <time>2022-02-22T13:37:17Z</time>
      </trkpt>
      <trkpt lat="43.59391" lon="3.52452">
        <ele>87</ele>
        <time>2022-02-22T13:37:21Z</time>
      </trkpt>
      <trkpt lat="43.59394" lon="3.52451">
        <ele>87</ele>
        <time>2022-02-22T13:37:24Z</time>
      </trkpt>
      <trkpt lat="43.59397" lon="3.52449">
        <ele>87</ele>
        <time>2022-02-22T13:37:29Z</time>
      </trkpt>
      <trkpt lat="43.594" lon="3.52447">
        <ele>87</ele>
        <time>2022-02-22T13:37:34Z</time>
      </trkpt>
      <trkpt lat="43.59402" lon="3.52445">
        <ele>87</ele>
        <time>2022-02-22T13:37:38Z</time>
      </trkpt>
      <trkpt lat="43.59405" lon="3.52444">
        <ele>87</ele>
        <time>2022-02-22T13:37:46Z</time>
      </trkpt>
      <trkpt lat="43.59408" lon="3.52443">
        <ele>87</ele>
        <time>2022-02-22T13:37:50Z</time>
      </trkpt>
      <trkpt lat="43.59411" lon="3.52441">
        <ele>87</ele>
        <time>2022-02-22T13:37:54Z</time>
      </trkpt>
      <trkpt lat="43.59413" lon="3.5244">
        <ele>87</ele>
        <time>2022-02-22T13:37:57Z</time>
      </trkpt>
      <trkpt lat="43.59416" lon="3.5244">
        <ele>87</ele>
        <time>2022-02-22T13:38:01Z</time>
      </trkpt>
      <trkpt lat="43.5942" lon="3.52441">
        <ele>87</ele>
        <time>2022-02-22T13:38:04Z</time>
      </trkpt>
      <trkpt lat="43.59423" lon="3.52443">
        <ele>87</ele>
        <time>2022-02-22T13:38:06Z</time>
      </trkpt>
      <trkpt lat="43.59426" lon="3.52445">
        <ele>87</ele>
        <time>2022-02-22T13:38:08Z</time>
      </trkpt>
      <trkpt lat="43.59429" lon="3.52447">
        <ele>87</ele>
        <time>2022-02-22T13:38:12Z</time>
      </trkpt>
      <trkpt lat="43.59429" lon="3.52445">
        <ele>87</ele>
        <time>2022-02-22T13:38:20Z</time>
      </trkpt>
      <trkpt lat="43.59427" lon="3.52443">
        <ele>87</ele>
        <time>2022-02-22T13:38:25Z</time>
      </trkpt>
      <trkpt lat="43.59425" lon="3.5244">
        <ele>87</ele>
        <time>2022-02-22T13:38:30Z</time>
      </trkpt>
      <trkpt lat="43.59423" lon="3.52439">
        <ele>87</ele>
        <time>2022-02-22T13:38:34Z</time>
      </trkpt>
      <trkpt lat="43.5942" lon="3.52436">
        <ele>87</ele>
        <time>2022-02-22T13:38:38Z</time>
      </trkpt>
      <trkpt lat="43.59418" lon="3.52435">
        <ele>87</ele>
        <time>2022-02-22T13:38:41Z</time>
      </trkpt>
      <trkpt lat="43.59415" lon="3.52433">
        <ele>87</ele>
        <time>2022-02-22T13:38:44Z</time>
      </trkpt>
      <trkpt lat="43.59412" lon="3.52433">
        <ele>87</ele>
        <time>2022-02-22T13:38:46Z</time>
      </trkpt>
      <trkpt lat="43.59409" lon="3.52432">
        <ele>87</ele>
        <time>2022-02-22T13:38:49Z</time>
      </trkpt>
      <trkpt lat="43.59406" lon="3.5243">
        <ele>87</ele>
        <time>2022-02-22T13:38:52Z</time>
      </trkpt>
      <trkpt lat="43.59403" lon="3.5243">
        <ele>87</ele>
        <time>2022-02-22T13:38:57Z</time>
      </trkpt>
      <trkpt lat="43.594" lon="3.52429">
        <ele>87</ele>
        <time>2022-02-22T13:39:01Z</time>
      </trkpt>
      <trkpt lat="43.59397" lon="3.52426">
        <ele>87</ele>
        <time>2022-02-22T13:39:05Z</time>
      </trkpt>
      <trkpt lat="43.59394" lon="3.52424">
        <ele>87</ele>
        <time>2022-02-22T13:39:11Z</time>
      </trkpt>
      <trkpt lat="43.59391" lon="3.52424">
        <ele>87</ele>
        <time>2022-02-22T13:39:15Z</time>
      </trkpt>
      <trkpt lat="43.59388" lon="3.52423">
        <ele>87</ele>
        <time>2022-02-22T13:39:18Z</time>
      </trkpt>
      <trkpt lat="43.59385" lon="3.52424">
        <ele>87</ele>
        <time>2022-02-22T13:39:21Z</time>
      </trkpt>
      <trkpt lat="43.59382" lon="3.52424">
        <ele>87</ele>
        <time>2022-02-22T13:39:25Z</time>
      </trkpt>
      <trkpt lat="43.59379" lon="3.52423">
        <ele>87</ele>
        <time>2022-02-22T13:39:29Z</time>
      </trkpt>
      <trkpt lat="43.59375" lon="3.52423">
        <ele>87</ele>
        <time>2022-02-22T13:39:32Z</time>
      </trkpt>
      <trkpt lat="43.59371" lon="3.52423">
        <ele>87</ele>
        <time>2022-02-22T13:39:37Z</time>
      </trkpt>
      <trkpt lat="43.59368" lon="3.52424">
        <ele>87</ele>
        <time>2022-02-22T13:39:40Z</time>
      </trkpt>
      <trkpt lat="43.59365" lon="3.52427">
        <ele>87</ele>
        <time>2022-02-22T13:39:45Z</time>
      </trkpt>
      <trkpt lat="43.59362" lon="3.52428">
        <ele>87</ele>
        <time>2022-02-22T13:39:47Z</time>
      </trkpt>
      <trkpt lat="43.59359" lon="3.52429">
        <ele>87</ele>
        <time>2022-02-22T13:39:51Z</time>
      </trkpt>
      <trkpt lat="43.59356" lon="3.5243">
        <ele>87</ele>
        <time>2022-02-22T13:39:54Z</time>
      </trkpt>
      <trkpt lat="43.59352" lon="3.52431">
        <ele>87</ele>
        <time>2022-02-22T13:39:57Z</time>
      </trkpt>
      <trkpt lat="43.59349" lon="3.52432">
        <ele>87</ele>
        <time>2022-02-22T13:39:59Z</time>
      </trkpt>
      <trkpt lat="43.59346" lon="3.52434">
        <ele>87</ele>
        <time>2022-02-22T13:40:04Z</time>
      </trkpt>
      <trkpt lat="43.59343" lon="3.52433">
        <ele>87</ele>
        <time>2022-02-22T13:40:11Z</time>
      </trkpt>
      <trkpt lat="43.5934" lon="3.52433">
        <ele>87</ele>
        <time>2022-02-22T13:40:13Z</time>
      </trkpt>
      <trkpt lat="43.59337" lon="3.52435">
        <ele>87</ele>
        <time>2022-02-22T13:40:15Z</time>
      </trkpt>
      <trkpt lat="43.59334" lon="3.52437">
        <ele>87</ele>
        <time>2022-02-22T13:40:18Z</time>
      </trkpt>
      <trkpt lat="43.59332" lon="3.5244">
        <ele>87</ele>
        <time>2022-02-22T13:40:20Z</time>
      </trkpt>
      <trkpt lat="43.59329" lon="3.52443">
        <ele>87</ele>
        <time>2022-02-22T13:40:23Z</time>
      </trkpt>
      <trkpt lat="43.59327" lon="3.52447">
        <ele>87</ele>
        <time>2022-02-22T13:40:26Z</time>
      </trkpt>
      <trkpt lat="43.59324" lon="3.52449">
        <ele>87</ele>
        <time>2022-02-22T13:40:29Z</time>
      </trkpt>
      <trkpt lat="43.59321" lon="3.52451">
        <ele>87</ele>
        <time>2022-02-22T13:40:33Z</time>
      </trkpt>
      <trkpt lat="43.59318" lon="3.52451">
        <ele>87</ele>
        <time>2022-02-22T13:40:37Z</time>
      </trkpt>
      <trkpt lat="43.59315" lon="3.52448">
        <ele>87</ele>
        <time>2022-02-22T13:40:51Z</time>
      </trkpt>
      <trkpt lat="43.59311" lon="3.52439">
        <ele>87</ele>
        <time>2022-02-22T13:41:31Z</time>
      </trkpt>
      <trkpt lat="43.59312" lon="3.52436">
        <ele>87</ele>
        <time>2022-02-22T13:41:36Z</time>
      </trkpt>
      <trkpt lat="43.59314" lon="3.52434">
        <ele>87</ele>
        <time>2022-02-22T13:41:39Z</time>
      </trkpt>
      <trkpt lat="43.59316" lon="3.52432">
        <ele>87</ele>
        <time>2022-02-22T13:41:41Z</time>
      </trkpt>
      <trkpt lat="43.59319" lon="3.5243">
        <ele>87</ele>
        <time>2022-02-22T13:41:44Z</time>
      </trkpt>
      <trkpt lat="43.59321" lon="3.52427">
        <ele>87</ele>
        <time>2022-02-22T13:41:47Z</time>
      </trkpt>
      <trkpt lat="43.59323" lon="3.52424">
        <ele>87</ele>
        <time>2022-02-22T13:42:02Z</time>
      </trkpt>
      <trkpt lat="43.59324" lon="3.5242">
        <ele>87</ele>
        <time>2022-02-22T13:42:04Z</time>
      </trkpt>
      <trkpt lat="43.59324" lon="3.52415">
        <ele>87</ele>
        <time>2022-02-22T13:42:06Z</time>
      </trkpt>
      <trkpt lat="43.59325" lon="3.52411">
        <ele>87</ele>
        <time>2022-02-22T13:42:08Z</time>
      </trkpt>
      <trkpt lat="43.59327" lon="3.52407">
        <ele>87</ele>
        <time>2022-02-22T13:42:11Z</time>
      </trkpt>
      <trkpt lat="43.59328" lon="3.52403">
        <ele>87</ele>
        <time>2022-02-22T13:42:13Z</time>
      </trkpt>
      <trkpt lat="43.5933" lon="3.524">
        <ele>87</ele>
        <time>2022-02-22T13:42:16Z</time>
      </trkpt>
      <trkpt lat="43.59333" lon="3.52399">
        <ele>87</ele>
        <time>2022-02-22T13:42:19Z</time>
      </trkpt>
      <trkpt lat="43.59335" lon="3.52396">
        <ele>87</ele>
        <time>2022-02-22T13:42:33Z</time>
      </trkpt>
      <trkpt lat="43.59334" lon="3.52392">
        <ele>87</ele>
        <time>2022-02-22T13:42:36Z</time>
      </trkpt>
      <trkpt lat="43.59332" lon="3.52389">
        <ele>87</ele>
        <time>2022-02-22T13:42:41Z</time>
      </trkpt>
      <trkpt lat="43.59331" lon="3.52385">
        <ele>87</ele>
        <time>2022-02-22T13:42:50Z</time>
      </trkpt>
      <trkpt lat="43.59331" lon="3.52381">
        <ele>87</ele>
        <time>2022-02-22T13:42:55Z</time>
      </trkpt>
      <trkpt lat="43.59331" lon="3.52377">
        <ele>87</ele>
        <time>2022-02-22T13:42:58Z</time>
      </trkpt>
      <trkpt lat="43.59329" lon="3.52373">
        <ele>87</ele>
        <time>2022-02-22T13:43:01Z</time>
      </trkpt>
      <trkpt lat="43.59327" lon="3.52369">
        <ele>87</ele>
        <time>2022-02-22T13:43:04Z</time>
      </trkpt>
      <trkpt lat="43.59325" lon="3.52366">
        <ele>87</ele>
        <time>2022-02-22T13:43:06Z</time>
      </trkpt>
      <trkpt lat="43.59323" lon="3.52363">
        <ele>87</ele>
        <time>2022-02-22T13:43:08Z</time>
      </trkpt>
      <trkpt lat="43.59321" lon="3.52359">
        <ele>87</ele>
        <time>2022-02-22T13:43:11Z</time>
      </trkpt>
      <trkpt lat="43.5932" lon="3.52355">
        <ele>87</ele>
        <time>2022-02-22T13:43:14Z</time>
      </trkpt>
      <trkpt lat="43.59318" lon="3.52351">
        <ele>87</ele>
        <time>2022-02-22T13:43:17Z</time>
      </trkpt>
      <trkpt lat="43.59317" lon="3.52347">
        <ele>87</ele>
        <time>2022-02-22T13:43:21Z</time>
      </trkpt>
      <trkpt lat="43.59316" lon="3.52344">
        <ele>87</ele>
        <time>2022-02-22T13:43:27Z</time>
      </trkpt>
      <trkpt lat="43.59313" lon="3.52342">
        <ele>87</ele>
        <time>2022-02-22T13:43:31Z</time>
      </trkpt>
      <trkpt lat="43.59313" lon="3.52339">
        <ele>87</ele>
        <time>2022-02-22T13:43:34Z</time>
      </trkpt>
      <trkpt lat="43.59313" lon="3.52335">
        <ele>87</ele>
        <time>2022-02-22T13:43:37Z</time>
      </trkpt>
      <trkpt lat="43.59315" lon="3.52332">
        <ele>87</ele>
        <time>2022-02-22T13:43:40Z</time>
      </trkpt>
      <trkpt lat="43.59315" lon="3.52328">
        <ele>87</ele>
        <time>2022-02-22T13:43:44Z</time>
      </trkpt>
      <trkpt lat="43.59317" lon="3.52325">
        <ele>87</ele>
        <time>2022-02-22T13:43:47Z</time>
      </trkpt>
      <trkpt lat="43.59318" lon="3.52322">
        <ele>87</ele>
        <time>2022-02-22T13:43:49Z</time>
      </trkpt>
      <trkpt lat="43.5932" lon="3.52319">
        <ele>87</ele>
        <time>2022-02-22T13:43:51Z</time>
      </trkpt>
      <trkpt lat="43.59322" lon="3.52316">
        <ele>87</ele>
        <time>2022-02-22T13:43:53Z</time>
      </trkpt>
      <trkpt lat="43.59323" lon="3.52312">
        <ele>87</ele>
        <time>2022-02-22T13:43:55Z</time>
      </trkpt>
      <trkpt lat="43.59323" lon="3.52308">
        <ele>87</ele>
        <time>2022-02-22T13:43:58Z</time>
      </trkpt>
      <trkpt lat="43.59323" lon="3.52303">
        <ele>87</ele>
        <time>2022-02-22T13:44:01Z</time>
      </trkpt>
      <trkpt lat="43.59323" lon="3.52299">
        <ele>87</ele>
        <time>2022-02-22T13:44:04Z</time>
      </trkpt>
      <trkpt lat="43.59321" lon="3.52294">
        <ele>87</ele>
        <time>2022-02-22T13:44:07Z</time>
      </trkpt>
      <trkpt lat="43.59319" lon="3.5229">
        <ele>87</ele>
        <time>2022-02-22T13:44:10Z</time>
      </trkpt>
      <trkpt lat="43.59316" lon="3.52287">
        <ele>87</ele>
        <time>2022-02-22T13:44:12Z</time>
      </trkpt>
      <trkpt lat="43.59314" lon="3.52284">
        <ele>87</ele>
        <time>2022-02-22T13:44:15Z</time>
      </trkpt>
      <trkpt lat="43.59311" lon="3.5228">
        <ele>87</ele>
        <time>2022-02-22T13:44:19Z</time>
      </trkpt>
      <trkpt lat="43.59308" lon="3.52277">
        <ele>87</ele>
        <time>2022-02-22T13:44:23Z</time>
      </trkpt>
      <trkpt lat="43.59305" lon="3.52276">
        <ele>87</ele>
        <time>2022-02-22T13:44:25Z</time>
      </trkpt>
      <trkpt lat="43.59302" lon="3.52274">
        <ele>87</ele>
        <time>2022-02-22T13:44:28Z</time>
      </trkpt>
      <trkpt lat="43.593" lon="3.52272">
        <ele>87</ele>
        <time>2022-02-22T13:44:31Z</time>
      </trkpt>
      <trkpt lat="43.59299" lon="3.52268">
        <ele>87</ele>
        <time>2022-02-22T13:44:33Z</time>
      </trkpt>
      <trkpt lat="43.59297" lon="3.52266">
        <ele>87</ele>
        <time>2022-02-22T13:44:35Z</time>
      </trkpt>
      <trkpt lat="43.59295" lon="3.52264">
        <ele>87</ele>
        <time>2022-02-22T13:44:38Z</time>
      </trkpt>
      <trkpt lat="43.59293" lon="3.52263">
        <ele>87</ele>
        <time>2022-02-22T13:44:40Z</time>
      </trkpt>
      <trkpt lat="43.5929" lon="3.52262">
        <ele>87</ele>
        <time>2022-02-22T13:44:43Z</time>
      </trkpt>
      <trkpt lat="43.59287" lon="3.52259">
        <ele>87</ele>
        <time>2022-02-22T13:44:46Z</time>
      </trkpt>
      <trkpt lat="43.59283" lon="3.52258">
        <ele>87</ele>
        <time>2022-02-22T13:44:48Z</time>
      </trkpt>
      <trkpt lat="43.5928" lon="3.52256">
        <ele>87</ele>
        <time>2022-02-22T13:44:51Z</time>
      </trkpt>
      <trkpt lat="43.59277" lon="3.52255">
        <ele>87</ele>
        <time>2022-02-22T13:44:54Z</time>
      </trkpt>
      <trkpt lat="43.59273" lon="3.52255">
        <ele>87</ele>
        <time>2022-02-22T13:44:57Z</time>
      </trkpt>
      <trkpt lat="43.5927" lon="3.52254">
        <ele>87</ele>
        <time>2022-02-22T13:45:01Z</time>
      </trkpt>
      <trkpt lat="43.59267" lon="3.52255">
        <ele>87</ele>
        <time>2022-02-22T13:45:09Z</time>
      </trkpt>
      <trkpt lat="43.59264" lon="3.52255">
        <ele>87</ele>
        <time>2022-02-22T13:45:12Z</time>
      </trkpt>
      <trkpt lat="43.59261" lon="3.52256">
        <ele>87</ele>
        <time>2022-02-22T13:45:15Z</time>
      </trkpt>
      <trkpt lat="43.59258" lon="3.52256">
        <ele>87</ele>
        <time>2022-02-22T13:45:18Z</time>
      </trkpt>
      <trkpt lat="43.59255" lon="3.52256">
        <ele>87</ele>
        <time>2022-02-22T13:45:21Z</time>
      </trkpt>
      <trkpt lat="43.59251" lon="3.52256">
        <ele>87</ele>
        <time>2022-02-22T13:45:24Z</time>
      </trkpt>
      <trkpt lat="43.59248" lon="3.52256">
        <ele>87</ele>
        <time>2022-02-22T13:45:26Z</time>
      </trkpt>
      <trkpt lat="43.59245" lon="3.52255">
        <ele>87</ele>
        <time>2022-02-22T13:45:29Z</time>
      </trkpt>
      <trkpt lat="43.59242" lon="3.52252">
        <ele>87</ele>
        <time>2022-02-22T13:45:32Z</time>
      </trkpt>
      <trkpt lat="43.59239" lon="3.5225">
        <ele>87</ele>
        <time>2022-02-22T13:45:36Z</time>
      </trkpt>
      <trkpt lat="43.59236" lon="3.52249">
        <ele>87</ele>
        <time>2022-02-22T13:45:40Z</time>
      </trkpt>
      <trkpt lat="43.59232" lon="3.52248">
        <ele>87</ele>
        <time>2022-02-22T13:45:42Z</time>
      </trkpt>
      <trkpt lat="43.59229" lon="3.52247">
        <ele>87</ele>
        <time>2022-02-22T13:45:44Z</time>
      </trkpt>
      <trkpt lat="43.59226" lon="3.52246">
        <ele>87</ele>
        <time>2022-02-22T13:45:46Z</time>
      </trkpt>
      <trkpt lat="43.59224" lon="3.52248">
        <ele>87</ele>
        <time>2022-02-22T13:45:50Z</time>
      </trkpt>
      <trkpt lat="43.59221" lon="3.52248">
        <ele>87</ele>
        <time>2022-02-22T13:45:56Z</time>
      </trkpt>
      <trkpt lat="43.59218" lon="3.5225">
        <ele>87</ele>
        <time>2022-02-22T13:46:01Z</time>
      </trkpt>
      <trkpt lat="43.59215" lon="3.52251">
        <ele>87</ele>
        <time>2022-02-22T13:46:05Z</time>
      </trkpt>
      <trkpt lat="43.59212" lon="3.5225">
        <ele>87</ele>
        <time>2022-02-22T13:46:10Z</time>
      </trkpt>
      <trkpt lat="43.59209" lon="3.5225">
        <ele>87</ele>
        <time>2022-02-22T13:46:13Z</time>
      </trkpt>
      <trkpt lat="43.59206" lon="3.52248">
        <ele>87</ele>
        <time>2022-02-22T13:46:16Z</time>
      </trkpt>
      <trkpt lat="43.59205" lon="3.52245">
        <ele>87</ele>
        <time>2022-02-22T13:46:19Z</time>
      </trkpt>
      <trkpt lat="43.59202" lon="3.52242">
        <ele>87</ele>
        <time>2022-02-22T13:46:22Z</time>
      </trkpt>
      <trkpt lat="43.59199" lon="3.52241">
        <ele>87</ele>
        <time>2022-02-22T13:46:25Z</time>
      </trkpt>
      <trkpt lat="43.59197" lon="3.52238">
        <ele>87</ele>
        <time>2022-02-22T13:46:27Z</time>
      </trkpt>
      <trkpt lat="43.59193" lon="3.52236">
        <ele>87</ele>
        <time>2022-02-22T13:46:30Z</time>
      </trkpt>
      <trkpt lat="43.59191" lon="3.52232">
        <ele>87</ele>
        <time>2022-02-22T13:46:33Z</time>
      </trkpt>
      <trkpt lat="43.59189" lon="3.52229">
        <ele>87</ele>
        <time>2022-02-22T13:46:35Z</time>
      </trkpt>
      <trkpt lat="43.59186" lon="3.52225">
        <ele>87</ele>
        <time>2022-02-22T13:46:37Z</time>
      </trkpt>
      <trkpt lat="43.59185" lon="3.52222">
        <ele>87</ele>
        <time>2022-02-22T13:46:41Z</time>
      </trkpt>
      <trkpt lat="43.59183" lon="3.52218">
        <ele>87</ele>
        <time>2022-02-22T13:46:44Z</time>
      </trkpt>
      <trkpt lat="43.59181" lon="3.52214">
        <ele>87</ele>
        <time>2022-02-22T13:46:47Z</time>
      </trkpt>
      <trkpt lat="43.59179" lon="3.52211">
        <ele>87</ele>
        <time>2022-02-22T13:46:50Z</time>
      </trkpt>
      <trkpt lat="43.59178" lon="3.52205">
        <ele>87</ele>
        <time>2022-02-22T13:46:53Z</time>
      </trkpt>
      <trkpt lat="43.59178" lon="3.52201">
        <ele>87</ele>
        <time>2022-02-22T13:46:55Z</time>
      </trkpt>
      <trkpt lat="43.59176" lon="3.52197">
        <ele>87</ele>
        <time>2022-02-22T13:46:58Z</time>
      </trkpt>
      <trkpt lat="43.59174" lon="3.52194">
        <ele>87</ele>
        <time>2022-02-22T13:47:00Z</time>
      </trkpt>
      <trkpt lat="43.59172" lon="3.52192">
        <ele>87</ele>
        <time>2022-02-22T13:47:03Z</time>
      </trkpt>
      <trkpt lat="43.5917" lon="3.52189">
        <ele>87</ele>
        <time>2022-02-22T13:47:08Z</time>
      </trkpt>
      <trkpt lat="43.59168" lon="3.52185">
        <ele>87</ele>
        <time>2022-02-22T13:47:11Z</time>
      </trkpt>
      <trkpt lat="43.59167" lon="3.52181">
        <ele>87</ele>
        <time>2022-02-22T13:47:14Z</time>
      </trkpt>
      <trkpt lat="43.59165" lon="3.52177">
        <ele>87</ele>
        <time>2022-02-22T13:47:17Z</time>
      </trkpt>
      <trkpt lat="43.59163" lon="3.52174">
        <ele>87</ele>
        <time>2022-02-22T13:47:20Z</time>
      </trkpt>
      <trkpt lat="43.59162" lon="3.52171">
        <ele>87</ele>
        <time>2022-02-22T13:47:23Z</time>
      </trkpt>
      <trkpt lat="43.5916" lon="3.52167">
        <ele>87</ele>
        <time>2022-02-22T13:47:26Z</time>
      </trkpt>
      <trkpt lat="43.59158" lon="3.52164">
        <ele>87</ele>
        <time>2022-02-22T13:47:29Z</time>
      </trkpt>
      <trkpt lat="43.59155" lon="3.52162">
        <ele>87</ele>
        <time>2022-02-22T13:47:32Z</time>
      </trkpt>
      <trkpt lat="43.59152" lon="3.5216">
        <ele>87</ele>
        <time>2022-02-22T13:47:35Z</time>
      </trkpt>
      <trkpt lat="43.59149" lon="3.52159">
        <ele>87</ele>
        <time>2022-02-22T13:47:37Z</time>
      </trkpt>
      <trkpt lat="43.59145" lon="3.52158">
        <ele>87</ele>
        <time>2022-02-22T13:47:40Z</time>
      </trkpt>
      <trkpt lat="43.59141" lon="3.52158">
        <ele>87</ele>
        <time>2022-02-22T13:47:43Z</time>
      </trkpt>
      <trkpt lat="43.5914" lon="3.52155">
        <ele>87</ele>
        <time>2022-02-22T13:47:46Z</time>
      </trkpt>
      <trkpt lat="43.59137" lon="3.52152">
        <ele>87</ele>
        <time>2022-02-22T13:47:49Z</time>
      </trkpt>
      <trkpt lat="43.59135" lon="3.52149">
        <ele>87</ele>
        <time>2022-02-22T13:47:52Z</time>
      </trkpt>
      <trkpt lat="43.59132" lon="3.52147">
        <ele>87</ele>
        <time>2022-02-22T13:47:55Z</time>
      </trkpt>
      <trkpt lat="43.59129" lon="3.52144">
        <ele>87</ele>
        <time>2022-02-22T13:47:57Z</time>
      </trkpt>
      <trkpt lat="43.59127" lon="3.52143">
        <ele>87</ele>
        <time>2022-02-22T13:48:00Z</time>
      </trkpt>
      <trkpt lat="43.59123" lon="3.52141">
        <ele>87</ele>
        <time>2022-02-22T13:48:03Z</time>
      </trkpt>
      <trkpt lat="43.59121" lon="3.5214">
        <ele>87</ele>
        <time>2022-02-22T13:48:06Z</time>
      </trkpt>
      <trkpt lat="43.59117" lon="3.52139">
        <ele>87</ele>
        <time>2022-02-22T13:48:10Z</time>
      </trkpt>
      <trkpt lat="43.59114" lon="3.52138">
        <ele>87</ele>
        <time>2022-02-22T13:48:13Z</time>
      </trkpt>
      <trkpt lat="43.59111" lon="3.52136">
        <ele>87</ele>
        <time>2022-02-22T13:48:16Z</time>
      </trkpt>
      <trkpt lat="43.59107" lon="3.52136">
        <ele>87</ele>
        <time>2022-02-22T13:48:19Z</time>
      </trkpt>
      <trkpt lat="43.59103" lon="3.52136">
        <ele>87</ele>
        <time>2022-02-22T13:48:22Z</time>
      </trkpt>
      <trkpt lat="43.591" lon="3.52135">
        <ele>87</ele>
        <time>2022-02-22T13:48:25Z</time>
      </trkpt>
      <trkpt lat="43.59097" lon="3.52134">
        <ele>87</ele>
        <time>2022-02-22T13:48:28Z</time>
      </trkpt>
      <trkpt lat="43.59094" lon="3.52133">
        <ele>87</ele>
        <time>2022-02-22T13:48:31Z</time>
      </trkpt>
      <trkpt lat="43.59091" lon="3.52132">
        <ele>87</ele>
        <time>2022-02-22T13:48:34Z</time>
      </trkpt>
      <trkpt lat="43.59088" lon="3.5213">
        <ele>87</ele>
        <time>2022-02-22T13:48:36Z</time>
      </trkpt>
      <trkpt lat="43.59085" lon="3.52129">
        <ele>87</ele>
        <time>2022-02-22T13:48:42Z</time>
      </trkpt>
      <trkpt lat="43.59082" lon="3.52128">
        <ele>87</ele>
        <time>2022-02-22T13:48:45Z</time>
      </trkpt>
      <trkpt lat="43.59079" lon="3.52127">
        <ele>87</ele>
        <time>2022-02-22T13:48:48Z</time>
      </trkpt>
      <trkpt lat="43.59076" lon="3.52126">
        <ele>87</ele>
        <time>2022-02-22T13:48:51Z</time>
      </trkpt>
      <trkpt lat="43.59072" lon="3.52125">
        <ele>87</ele>
        <time>2022-02-22T13:48:53Z</time>
      </trkpt>
      <trkpt lat="43.59069" lon="3.52124">
        <ele>87</ele>
        <time>2022-02-22T13:48:56Z</time>
      </trkpt>
      <trkpt lat="43.59066" lon="3.52123">
        <ele>87</ele>
        <time>2022-02-22T13:48:59Z</time>
      </trkpt>
      <trkpt lat="43.59063" lon="3.52121">
        <ele>87</ele>
        <time>2022-02-22T13:49:02Z</time>
      </trkpt>
      <trkpt lat="43.5906" lon="3.52119">
        <ele>87</ele>
        <time>2022-02-22T13:49:06Z</time>
      </trkpt>
      <trkpt lat="43.59057" lon="3.52118">
        <ele>87</ele>
        <time>2022-02-22T13:49:09Z</time>
      </trkpt>
      <trkpt lat="43.59054" lon="3.52117">
        <ele>87</ele>
        <time>2022-02-22T13:49:12Z</time>
      </trkpt>
      <trkpt lat="43.5905" lon="3.52117">
        <ele>87</ele>
        <time>2022-02-22T13:49:15Z</time>
      </trkpt>
      <trkpt lat="43.59047" lon="3.52116">
        <ele>87</ele>
        <time>2022-02-22T13:49:18Z</time>
      </trkpt>
      <trkpt lat="43.59044" lon="3.52115">
        <ele>87</ele>
        <time>2022-02-22T13:49:21Z</time>
      </trkpt>
      <trkpt lat="43.5904" lon="3.52114">
        <ele>87</ele>
        <time>2022-02-22T13:49:24Z</time>
      </trkpt>
      <trkpt lat="43.59037" lon="3.52113">
        <ele>87</ele>
        <time>2022-02-22T13:49:29Z</time>
      </trkpt>
      <trkpt lat="43.59034" lon="3.52111">
        <ele>87</ele>
        <time>2022-02-22T13:49:33Z</time>
      </trkpt>
      <trkpt lat="43.59031" lon="3.52109">
        <ele>87</ele>
        <time>2022-02-22T13:49:36Z</time>
      </trkpt>
      <trkpt lat="43.59028" lon="3.52108">
        <ele>87</ele>
        <time>2022-02-22T13:49:39Z</time>
      </trkpt>
      <trkpt lat="43.59025" lon="3.52108">
        <ele>87</ele>
        <time>2022-02-22T13:49:42Z</time>
      </trkpt>
      <trkpt lat="43.59021" lon="3.52108">
        <ele>87</ele>
        <time>2022-02-22T13:49:45Z</time>
      </trkpt>
      <trkpt lat="43.59018" lon="3.52108">
        <ele>87</ele>
        <time>2022-02-22T13:49:48Z</time>
      </trkpt>
      <trkpt lat="43.59015" lon="3.52106">
        <ele>87</ele>
        <time>2022-02-22T13:49:51Z</time>
      </trkpt>
      <trkpt lat="43.59012" lon="3.52105">
        <ele>87</ele>
        <time>2022-02-22T13:49:54Z</time>
      </trkpt>
      <trkpt lat="43.59009" lon="3.52104">
        <ele>87</ele>
        <time>2022-02-22T13:49:57Z</time>
      </trkpt>
      <trkpt lat="43.59006" lon="3.52103">
        <ele>87</ele>
        <time>2022-02-22T13:50:00Z</time>
      </trkpt>
      <trkpt lat="43.59003" lon="3.52102">
        <ele>87</ele>
        <time>2022-02-22T13:50:03Z</time>
      </trkpt>
      <trkpt lat="43.58999" lon="3.52101">
        <ele>87</ele>
        <time>2022-02-22T13:50:07Z</time>
      </trkpt>
      <trkpt lat="43.58996" lon="3.521">
        <ele>87</ele>
        <time>2022-02-22T13:50:10Z</time>
      </trkpt>
      <trkpt lat="43.58993" lon="3.521">
        <ele>87</ele>
        <time>2022-02-22T13:50:12Z</time>
      </trkpt>
      <trkpt lat="43.5899" lon="3.521">
        <ele>87</ele>
        <time>2022-02-22T13:50:14Z</time>
      </trkpt>
      <trkpt lat="43.58986" lon="3.521">
        <ele>87</ele>
        <time>2022-02-22T13:50:17Z</time>
      </trkpt>
      <trkpt lat="43.58983" lon="3.52099">
        <ele>87</ele>
        <time>2022-02-22T13:50:20Z</time>
      </trkpt>
      <trkpt lat="43.58979" lon="3.52098">
        <ele>87</ele>
        <time>2022-02-22T13:50:23Z</time>
      </trkpt>
      <trkpt lat="43.58976" lon="3.52097">
        <ele>87</ele>
        <time>2022-02-22T13:50:26Z</time>
      </trkpt>
      <trkpt lat="43.58973" lon="3.52096">
        <ele>87</ele>
        <time>2022-02-22T13:50:29Z</time>
      </trkpt>
      <trkpt lat="43.5897" lon="3.52095">
        <ele>87</ele>
        <time>2022-02-22T13:50:32Z</time>
      </trkpt>
      <trkpt lat="43.58967" lon="3.52093">
        <ele>87</ele>
        <time>2022-02-22T13:50:35Z</time>
      </trkpt>
      <trkpt lat="43.58963" lon="3.52092">
        <ele>87</ele>
        <time>2022-02-22T13:50:38Z</time>
      </trkpt>
      <trkpt lat="43.5896" lon="3.52091">
        <ele>87</ele>
        <time>2022-02-22T13:50:41Z</time>
      </trkpt>
      <trkpt lat="43.58957" lon="3.52089">
        <ele>87</ele>
        <time>2022-02-22T13:50:44Z</time>
      </trkpt>
      <trkpt lat="43.58954" lon="3.52087">
        <ele>87</ele>
        <time>2022-02-22T13:50:47Z</time>
      </trkpt>
      <trkpt lat="43.58951" lon="3.52085">
        <ele>87</ele>
        <time>2022-02-22T13:50:50Z</time>
      </trkpt>
      <trkpt lat="43.58948" lon="3.52083">
        <ele>87</ele>
        <time>2022-02-22T13:50:53Z</time>
      </trkpt>
      <trkpt lat="43.58944" lon="3.52081">
        <ele>87</ele>
        <time>2022-02-22T13:50:56Z</time>
      </trkpt>
      <trkpt lat="43.58941" lon="3.52079">
        <ele>87</ele>
        <time>2022-02-22T13:50:58Z</time>
      </trkpt>
      <trkpt lat="43.58938" lon="3.52078">
        <ele>87</ele>
        <time>2022-02-22T13:51:01Z</time>
      </trkpt>
      <trkpt lat="43.58935" lon="3.52076">
        <ele>87</ele>
        <time>2022-02-22T13:51:04Z</time>
      </trkpt>
      <trkpt lat="43.58932" lon="3.52074">
        <ele>87</ele>
        <time>2022-02-22T13:51:08Z</time>
      </trkpt>
      <trkpt lat="43.58931" lon="3.5207">
        <ele>87</ele>
        <time>2022-02-22T13:51:12Z</time>
      </trkpt>
      <trkpt lat="43.5893" lon="3.52066">
        <ele>87</ele>
        <time>2022-02-22T13:51:15Z</time>
      </trkpt>
      <trkpt lat="43.5893" lon="3.52062">
        <ele>87</ele>
        <time>2022-02-22T13:51:19Z</time>
      </trkpt>
      <trkpt lat="43.58931" lon="3.52058">
        <ele>87</ele>
        <time>2022-02-22T13:51:26Z</time>
      </trkpt>
      <trkpt lat="43.58932" lon="3.52054">
        <ele>87</ele>
        <time>2022-02-22T13:51:29Z</time>
      </trkpt>
      <trkpt lat="43.58933" lon="3.52049">
        <ele>87</ele>
        <time>2022-02-22T13:51:32Z</time>
      </trkpt>
      <trkpt lat="43.58934" lon="3.52045">
        <ele>87</ele>
        <time>2022-02-22T13:51:35Z</time>
      </trkpt>
      <trkpt lat="43.58934" lon="3.5204">
        <ele>87</ele>
        <time>2022-02-22T13:51:38Z</time>
      </trkpt>
      <trkpt lat="43.58936" lon="3.52036">
        <ele>87</ele>
        <time>2022-02-22T13:51:41Z</time>
      </trkpt>
      <trkpt lat="43.58936" lon="3.52031">
        <ele>87</ele>
        <time>2022-02-22T13:51:43Z</time>
      </trkpt>
      <trkpt lat="43.58937" lon="3.52027">
        <ele>87</ele>
        <time>2022-02-22T13:51:46Z</time>
      </trkpt>
      <trkpt lat="43.58938" lon="3.52022">
        <ele>87</ele>
        <time>2022-02-22T13:51:49Z</time>
      </trkpt>
      <trkpt lat="43.58937" lon="3.52017">
        <ele>87</ele>
        <time>2022-02-22T13:51:52Z</time>
      </trkpt>
      <trkpt lat="43.58937" lon="3.52012">
        <ele>87</ele>
        <time>2022-02-22T13:51:54Z</time>
      </trkpt>
      <trkpt lat="43.58936" lon="3.52008">
        <ele>87</ele>
        <time>2022-02-22T13:51:57Z</time>
      </trkpt>
      <trkpt lat="43.58936" lon="3.52004">
        <ele>87</ele>
        <time>2022-02-22T13:51:59Z</time>
      </trkpt>
      <trkpt lat="43.58935" lon="3.51999">
        <ele>87</ele>
        <time>2022-02-22T13:52:02Z</time>
      </trkpt>
      <trkpt lat="43.58936" lon="3.51995">
        <ele>87</ele>
        <time>2022-02-22T13:52:05Z</time>
      </trkpt>
      <trkpt lat="43.58937" lon="3.5199">
        <ele>87</ele>
        <time>2022-02-22T13:52:08Z</time>
      </trkpt>
      <trkpt lat="43.58937" lon="3.51986">
        <ele>87</ele>
        <time>2022-02-22T13:52:11Z</time>
      </trkpt>
      <trkpt lat="43.58938" lon="3.51981">
        <ele>87</ele>
        <time>2022-02-22T13:52:14Z</time>
      </trkpt>
      <trkpt lat="43.58937" lon="3.51976">
        <ele>87</ele>
        <time>2022-02-22T13:52:17Z</time>
      </trkpt>
      <trkpt lat="43.58937" lon="3.51972">
        <ele>87</ele>
        <time>2022-02-22T13:52:21Z</time>
      </trkpt>
      <trkpt lat="43.58937" lon="3.51967">
        <ele>87</ele>
        <time>2022-02-22T13:52:24Z</time>
      </trkpt>
      <trkpt lat="43.58936" lon="3.51962">
        <ele>87</ele>
        <time>2022-02-22T13:52:27Z</time>
      </trkpt>
      <trkpt lat="43.58935" lon="3.51958">
        <ele>87</ele>
        <time>2022-02-22T13:52:30Z</time>
      </trkpt>
      <trkpt lat="43.58933" lon="3.51954">
        <ele>87</ele>
        <time>2022-02-22T13:52:33Z</time>
      </trkpt>
      <trkpt lat="43.58931" lon="3.5195">
        <ele>87</ele>
        <time>2022-02-22T13:52:36Z</time>
      </trkpt>
      <trkpt lat="43.5893" lon="3.51946">
        <ele>87</ele>
        <time>2022-02-22T13:52:39Z</time>
      </trkpt>
      <trkpt lat="43.58929" lon="3.51942">
        <ele>87</ele>
        <time>2022-02-22T13:52:42Z</time>
      </trkpt>
      <trkpt lat="43.58927" lon="3.51937">
        <ele>87</ele>
        <time>2022-02-22T13:52:45Z</time>
      </trkpt>
      <trkpt lat="43.58925" lon="3.51932">
        <ele>87</ele>
        <time>2022-02-22T13:52:48Z</time>
      </trkpt>
      <trkpt lat="43.58924" lon="3.51928">
        <ele>87</ele>
        <time>2022-02-22T13:52:52Z</time>
      </trkpt>
      <trkpt lat="43.58922" lon="3.51923">
        <ele>87</ele>
        <time>2022-02-22T13:52:55Z</time>
      </trkpt>
      <trkpt lat="43.58921" lon="3.51919">
        <ele>87</ele>
        <time>2022-02-22T13:52:58Z</time>
      </trkpt>
      <trkpt lat="43.58919" lon="3.51915">
        <ele>87</ele>
        <time>2022-02-22T13:53:01Z</time>
      </trkpt>
      <trkpt lat="43.58918" lon="3.51911">
        <ele>87</ele>
        <time>2022-02-22T13:53:05Z</time>
      </trkpt>
      <trkpt lat="43.58916" lon="3.51907">
        <ele>87</ele>
        <time>2022-02-22T13:53:08Z</time>
      </trkpt>
      <trkpt lat="43.58914" lon="3.51903">
        <ele>87</ele>
        <time>2022-02-22T13:53:11Z</time>
      </trkpt>
      <trkpt lat="43.58912" lon="3.519">
        <ele>87</ele>
        <time>2022-02-22T13:53:13Z</time>
      </trkpt>
      <trkpt lat="43.58911" lon="3.51896">
        <ele>87</ele>
        <time>2022-02-22T13:53:16Z</time>
      </trkpt>
      <trkpt lat="43.58909" lon="3.51892">
        <ele>87</ele>
        <time>2022-02-22T13:53:19Z</time>
      </trkpt>
      <trkpt lat="43.58907" lon="3.51889">
        <ele>87</ele>
        <time>2022-02-22T13:53:22Z</time>
      </trkpt>
      <trkpt lat="43.58905" lon="3.51885">
        <ele>87</ele>
        <time>2022-02-22T13:53:26Z</time>
      </trkpt>
      <trkpt lat="43.58904" lon="3.51881">
        <ele>87</ele>
        <time>2022-02-22T13:53:29Z</time>
      </trkpt>
      <trkpt lat="43.58902" lon="3.51878">
        <ele>87</ele>
        <time>2022-02-22T13:53:31Z</time>
      </trkpt>
      <trkpt lat="43.589" lon="3.51875">
        <ele>87</ele>
        <time>2022-02-22T13:53:34Z</time>
      </trkpt>
      <trkpt lat="43.58898" lon="3.51871">
        <ele>87</ele>
        <time>2022-02-22T13:53:37Z</time>
      </trkpt>
      <trkpt lat="43.58896" lon="3.51867">
        <ele>87</ele>
        <time>2022-02-22T13:53:40Z</time>
      </trkpt>
      <trkpt lat="43.58894" lon="3.51864">
        <ele>87</ele>
        <time>2022-02-22T13:53:43Z</time>
      </trkpt>
      <trkpt lat="43.58892" lon="3.5186">
        <ele>87</ele>
        <time>2022-02-22T13:53:46Z</time>
      </trkpt>
      <trkpt lat="43.58889" lon="3.51857">
        <ele>87</ele>
        <time>2022-02-22T13:53:49Z</time>
      </trkpt>
      <trkpt lat="43.58888" lon="3.51853">
        <ele>87</ele>
        <time>2022-02-22T13:53:52Z</time>
      </trkpt>
      <trkpt lat="43.58886" lon="3.51849">
        <ele>87</ele>
        <time>2022-02-22T13:53:55Z</time>
      </trkpt>
      <trkpt lat="43.58884" lon="3.51846">
        <ele>87</ele>
        <time>2022-02-22T13:53:57Z</time>
      </trkpt>
      <trkpt lat="43.58883" lon="3.51842">
        <ele>87</ele>
        <time>2022-02-22T13:54:00Z</time>
      </trkpt>
      <trkpt lat="43.58881" lon="3.51838">
        <ele>87</ele>
        <time>2022-02-22T13:54:04Z</time>
      </trkpt>
      <trkpt lat="43.58879" lon="3.51835">
        <ele>87</ele>
        <time>2022-02-22T13:54:07Z</time>
      </trkpt>
      <trkpt lat="43.58878" lon="3.51831">
        <ele>87</ele>
        <time>2022-02-22T13:54:10Z</time>
      </trkpt>
      <trkpt lat="43.58876" lon="3.51827">
        <ele>87</ele>
        <time>2022-02-22T13:54:13Z</time>
      </trkpt>
      <trkpt lat="43.58875" lon="3.51823">
        <ele>87</ele>
        <time>2022-02-22T13:54:16Z</time>
      </trkpt>
      <trkpt lat="43.58874" lon="3.5182">
        <ele>87</ele>
        <time>2022-02-22T13:54:19Z</time>
      </trkpt>
      <trkpt lat="43.58872" lon="3.51816">
        <ele>87</ele>
        <time>2022-02-22T13:54:23Z</time>
      </trkpt>
      <trkpt lat="43.58871" lon="3.51812">
        <ele>87</ele>
        <time>2022-02-22T13:54:26Z</time>
      </trkpt>
      <trkpt lat="43.5887" lon="3.51808">
        <ele>87</ele>
        <time>2022-02-22T13:54:32Z</time>
      </trkpt>
      <trkpt lat="43.5887" lon="3.51804">
        <ele>87</ele>
        <time>2022-02-22T13:54:37Z</time>
      </trkpt>
      <trkpt lat="43.5887" lon="3.51799">
        <ele>87</ele>
        <time>2022-02-22T13:54:40Z</time>
      </trkpt>
      <trkpt lat="43.58871" lon="3.51795">
        <ele>87</ele>
        <time>2022-02-22T13:54:44Z</time>
      </trkpt>
      <trkpt lat="43.58871" lon="3.51791">
        <ele>87</ele>
        <time>2022-02-22T13:54:47Z</time>
      </trkpt>
      <trkpt lat="43.58871" lon="3.51787">
        <ele>87</ele>
        <time>2022-02-22T13:54:50Z</time>
      </trkpt>
      <trkpt lat="43.58871" lon="3.51783">
        <ele>87</ele>
        <time>2022-02-22T13:54:58Z</time>
      </trkpt>
      <trkpt lat="43.58869" lon="3.51778">
        <ele>87</ele>
        <time>2022-02-22T13:55:35Z</time>
      </trkpt>
      <trkpt lat="43.58867" lon="3.51774">
        <ele>87</ele>
        <time>2022-02-22T13:55:38Z</time>
      </trkpt>
      <trkpt lat="43.58866" lon="3.5177">
        <ele>87</ele>
        <time>2022-02-22T13:55:41Z</time>
      </trkpt>
      <trkpt lat="43.58864" lon="3.51765">
        <ele>87</ele>
        <time>2022-02-22T13:55:45Z</time>
      </trkpt>
      <trkpt lat="43.58862" lon="3.51761">
        <ele>87</ele>
        <time>2022-02-22T13:55:48Z</time>
      </trkpt>
      <trkpt lat="43.58861" lon="3.51756">
        <ele>87</ele>
        <time>2022-02-22T13:55:51Z</time>
      </trkpt>
      <trkpt lat="43.5886" lon="3.51752">
        <ele>87</ele>
        <time>2022-02-22T13:55:55Z</time>
      </trkpt>
      <trkpt lat="43.5886" lon="3.51748">
        <ele>87</ele>
        <time>2022-02-22T13:55:58Z</time>
      </trkpt>
      <trkpt lat="43.5886" lon="3.51744">
        <ele>87</ele>
        <time>2022-02-22T13:56:01Z</time>
      </trkpt>
      <trkpt lat="43.5886" lon="3.51739">
        <ele>87</ele>
        <time>2022-02-22T13:56:04Z</time>
      </trkpt>
      <trkpt lat="43.58861" lon="3.51734">
        <ele>87</ele>
        <time>2022-02-22T13:56:07Z</time>
      </trkpt>
      <trkpt lat="43.58861" lon="3.5173">
        <ele>87</ele>
        <time>2022-02-22T13:56:10Z</time>
      </trkpt>
      <trkpt lat="43.58863" lon="3.51725">
        <ele>87</ele>
        <time>2022-02-22T13:56:13Z</time>
      </trkpt>
      <trkpt lat="43.58864" lon="3.51721">
        <ele>87</ele>
        <time>2022-02-22T13:56:16Z</time>
      </trkpt>
      <trkpt lat="43.58866" lon="3.51716">
        <ele>87</ele>
        <time>2022-02-22T13:56:19Z</time>
      </trkpt>
      <trkpt lat="43.58867" lon="3.51712">
        <ele>87</ele>
        <time>2022-02-22T13:56:23Z</time>
      </trkpt>
      <trkpt lat="43.58869" lon="3.51708">
        <ele>87</ele>
        <time>2022-02-22T13:56:28Z</time>
      </trkpt>
      <trkpt lat="43.58871" lon="3.51704">
        <ele>87</ele>
        <time>2022-02-22T13:56:31Z</time>
      </trkpt>
      <trkpt lat="43.58872" lon="3.517">
        <ele>87</ele>
        <time>2022-02-22T13:56:34Z</time>
      </trkpt>
      <trkpt lat="43.58874" lon="3.51697">
        <ele>87</ele>
        <time>2022-02-22T13:56:36Z</time>
      </trkpt>
      <trkpt lat="43.58877" lon="3.51693">
        <ele>87</ele>
        <time>2022-02-22T13:56:39Z</time>
      </trkpt>
      <trkpt lat="43.58879" lon="3.5169">
        <ele>87</ele>
        <time>2022-02-22T13:56:42Z</time>
      </trkpt>
      <trkpt lat="43.5888" lon="3.51687">
        <ele>87</ele>
        <time>2022-02-22T13:56:45Z</time>
      </trkpt>
      <trkpt lat="43.58881" lon="3.51683">
        <ele>87</ele>
        <time>2022-02-22T13:56:48Z</time>
      </trkpt>
      <trkpt lat="43.58882" lon="3.51678">
        <ele>87</ele>
        <time>2022-02-22T13:56:51Z</time>
      </trkpt>
      <trkpt lat="43.58884" lon="3.51674">
        <ele>87</ele>
        <time>2022-02-22T13:56:54Z</time>
      </trkpt>
      <trkpt lat="43.58885" lon="3.51668">
        <ele>87</ele>
        <time>2022-02-22T13:56:57Z</time>
      </trkpt>
      <trkpt lat="43.58887" lon="3.51664">
        <ele>87</ele>
        <time>2022-02-22T13:57:00Z</time>
      </trkpt>
      <trkpt lat="43.58889" lon="3.51659">
        <ele>87</ele>
        <time>2022-02-22T13:57:03Z</time>
      </trkpt>
      <trkpt lat="43.58891" lon="3.51655">
        <ele>87</ele>
        <time>2022-02-22T13:57:06Z</time>
      </trkpt>
      <trkpt lat="43.58893" lon="3.51651">
        <ele>87</ele>
        <time>2022-02-22T13:57:09Z</time>
      </trkpt>
      <trkpt lat="43.58894" lon="3.51647">
        <ele>87</ele>
        <time>2022-02-22T13:57:12Z</time>
      </trkpt>
      <trkpt lat="43.58896" lon="3.51643">
        <ele>87</ele>
        <time>2022-02-22T13:57:15Z</time>
      </trkpt>
      <trkpt lat="43.58897" lon="3.51639">
        <ele>87</ele>
        <time>2022-02-22T13:57:18Z</time>
      </trkpt>
      <trkpt lat="43.58899" lon="3.51636">
        <ele>87</ele>
        <time>2022-02-22T13:57:20Z</time>
      </trkpt>
      <trkpt lat="43.58901" lon="3.51633">
        <ele>87</ele>
        <time>2022-02-22T13:57:22Z</time>
      </trkpt>
      <trkpt lat="43.58903" lon="3.51629">
        <ele>87</ele>
        <time>2022-02-22T13:57:25Z</time>
      </trkpt>
      <trkpt lat="43.58905" lon="3.51625">
        <ele>87</ele>
        <time>2022-02-22T13:57:28Z</time>
      </trkpt>
      <trkpt lat="43.58907" lon="3.51621">
        <ele>87</ele>
        <time>2022-02-22T13:57:30Z</time>
      </trkpt>
      <trkpt lat="43.58908" lon="3.51617">
        <ele>87</ele>
        <time>2022-02-22T13:57:33Z</time>
      </trkpt>
      <trkpt lat="43.5891" lon="3.51612">
        <ele>87</ele>
        <time>2022-02-22T13:57:36Z</time>
      </trkpt>
      <trkpt lat="43.58912" lon="3.51607">
        <ele>87</ele>
        <time>2022-02-22T13:57:39Z</time>
      </trkpt>
      <trkpt lat="43.58913" lon="3.51603">
        <ele>87</ele>
        <time>2022-02-22T13:57:42Z</time>
      </trkpt>
      <trkpt lat="43.58914" lon="3.51599">
        <ele>87</ele>
        <time>2022-02-22T13:57:45Z</time>
      </trkpt>
      <trkpt lat="43.58915" lon="3.51594">
        <ele>87</ele>
        <time>2022-02-22T13:57:48Z</time>
      </trkpt>
      <trkpt lat="43.58916" lon="3.51591">
        <ele>87</ele>
        <time>2022-02-22T13:57:50Z</time>
      </trkpt>
      <trkpt lat="43.58918" lon="3.51587">
        <ele>87</ele>
        <time>2022-02-22T13:57:52Z</time>
      </trkpt>
      <trkpt lat="43.58918" lon="3.51583">
        <ele>87</ele>
        <time>2022-02-22T13:57:55Z</time>
      </trkpt>
      <trkpt lat="43.5892" lon="3.51579">
        <ele>87</ele>
        <time>2022-02-22T13:57:58Z</time>
      </trkpt>
      <trkpt lat="43.58921" lon="3.51575">
        <ele>87</ele>
        <time>2022-02-22T13:58:01Z</time>
      </trkpt>
      <trkpt lat="43.58923" lon="3.5157">
        <ele>87</ele>
        <time>2022-02-22T13:58:04Z</time>
      </trkpt>
      <trkpt lat="43.58925" lon="3.51565">
        <ele>87</ele>
        <time>2022-02-22T13:58:07Z</time>
      </trkpt>
      <trkpt lat="43.58926" lon="3.51561">
        <ele>87</ele>
        <time>2022-02-22T13:58:10Z</time>
      </trkpt>
      <trkpt lat="43.58926" lon="3.51556">
        <ele>87</ele>
        <time>2022-02-22T13:58:13Z</time>
      </trkpt>
      <trkpt lat="43.58928" lon="3.51552">
        <ele>87</ele>
        <time>2022-02-22T13:58:16Z</time>
      </trkpt>
      <trkpt lat="43.58929" lon="3.51547">
        <ele>87</ele>
        <time>2022-02-22T13:58:19Z</time>
      </trkpt>
      <trkpt lat="43.5893" lon="3.51542">
        <ele>87</ele>
        <time>2022-02-22T13:58:22Z</time>
      </trkpt>
      <trkpt lat="43.5893" lon="3.51537">
        <ele>87</ele>
        <time>2022-02-22T13:58:25Z</time>
      </trkpt>
      <trkpt lat="43.58931" lon="3.51532">
        <ele>87</ele>
        <time>2022-02-22T13:58:28Z</time>
      </trkpt>
      <trkpt lat="43.58932" lon="3.51527">
        <ele>87</ele>
        <time>2022-02-22T13:58:31Z</time>
      </trkpt>
      <trkpt lat="43.58932" lon="3.51522">
        <ele>87</ele>
        <time>2022-02-22T13:58:34Z</time>
      </trkpt>
      <trkpt lat="43.58933" lon="3.51518">
        <ele>87</ele>
        <time>2022-02-22T13:58:37Z</time>
      </trkpt>
      <trkpt lat="43.58932" lon="3.51514">
        <ele>87</ele>
        <time>2022-02-22T13:58:40Z</time>
      </trkpt>
      <trkpt lat="43.58932" lon="3.51509">
        <ele>87</ele>
        <time>2022-02-22T13:58:43Z</time>
      </trkpt>
      <trkpt lat="43.58933" lon="3.51504">
        <ele>87</ele>
        <time>2022-02-22T13:58:46Z</time>
      </trkpt>
      <trkpt lat="43.58934" lon="3.51499">
        <ele>87</ele>
        <time>2022-02-22T13:58:49Z</time>
      </trkpt>
      <trkpt lat="43.58934" lon="3.51494">
        <ele>87</ele>
        <time>2022-02-22T13:58:52Z</time>
      </trkpt>
      <trkpt lat="43.58935" lon="3.5149">
        <ele>87</ele>
        <time>2022-02-22T13:58:55Z</time>
      </trkpt>
      <trkpt lat="43.58937" lon="3.51485">
        <ele>87</ele>
        <time>2022-02-22T13:58:58Z</time>
      </trkpt>
      <trkpt lat="43.58938" lon="3.5148">
        <ele>87</ele>
        <time>2022-02-22T13:59:01Z</time>
      </trkpt>
      <trkpt lat="43.58938" lon="3.51476">
        <ele>87</ele>
        <time>2022-02-22T13:59:03Z</time>
      </trkpt>
      <trkpt lat="43.58939" lon="3.51472">
        <ele>87</ele>
        <time>2022-02-22T13:59:05Z</time>
      </trkpt>
      <trkpt lat="43.58939" lon="3.51468">
        <ele>87</ele>
        <time>2022-02-22T13:59:07Z</time>
      </trkpt>
      <trkpt lat="43.5894" lon="3.51463">
        <ele>87</ele>
        <time>2022-02-22T13:59:10Z</time>
      </trkpt>
      <trkpt lat="43.58942" lon="3.51458">
        <ele>87</ele>
        <time>2022-02-22T13:59:13Z</time>
      </trkpt>
      <trkpt lat="43.58942" lon="3.51454">
        <ele>87</ele>
        <time>2022-02-22T13:59:15Z</time>
      </trkpt>
      <trkpt lat="43.58942" lon="3.51449">
        <ele>87</ele>
        <time>2022-02-22T13:59:18Z</time>
      </trkpt>
      <trkpt lat="43.58943" lon="3.51444">
        <ele>87</ele>
        <time>2022-02-22T13:59:21Z</time>
      </trkpt>
      <trkpt lat="43.58943" lon="3.51439">
        <ele>87</ele>
        <time>2022-02-22T13:59:24Z</time>
      </trkpt>
      <trkpt lat="43.58943" lon="3.51434">
        <ele>87</ele>
        <time>2022-02-22T13:59:27Z</time>
      </trkpt>
      <trkpt lat="43.58942" lon="3.51429">
        <ele>87</ele>
        <time>2022-02-22T13:59:30Z</time>
      </trkpt>
      <trkpt lat="43.58941" lon="3.51425">
        <ele>87</ele>
        <time>2022-02-22T13:59:32Z</time>
      </trkpt>
      <trkpt lat="43.5894" lon="3.51421">
        <ele>87</ele>
        <time>2022-02-22T13:59:34Z</time>
      </trkpt>
      <trkpt lat="43.58939" lon="3.51417">
        <ele>87</ele>
        <time>2022-02-22T13:59:37Z</time>
      </trkpt>
      <trkpt lat="43.58937" lon="3.51413">
        <ele>87</ele>
        <time>2022-02-22T13:59:40Z</time>
      </trkpt>
      <trkpt lat="43.58935" lon="3.51409">
        <ele>87</ele>
        <time>2022-02-22T13:59:43Z</time>
      </trkpt>
      <trkpt lat="43.58933" lon="3.51407">
        <ele>87</ele>
        <time>2022-02-22T13:59:45Z</time>
      </trkpt>
      <trkpt lat="43.5893" lon="3.51405">
        <ele>87</ele>
        <time>2022-02-22T13:59:48Z</time>
      </trkpt>
      <trkpt lat="43.58926" lon="3.51404">
        <ele>87</ele>
        <time>2022-02-22T13:59:54Z</time>
      </trkpt>
      <trkpt lat="43.58923" lon="3.51402">
        <ele>87</ele>
        <time>2022-02-22T13:59:57Z</time>
      </trkpt>
      <trkpt lat="43.5892" lon="3.51399">
        <ele>87</ele>
        <time>2022-02-22T14:00:00Z</time>
      </trkpt>
      <trkpt lat="43.58917" lon="3.51397">
        <ele>87</ele>
        <time>2022-02-22T14:00:03Z</time>
      </trkpt>
      <trkpt lat="43.58915" lon="3.51395">
        <ele>87</ele>
        <time>2022-02-22T14:00:06Z</time>
      </trkpt>
      <trkpt lat="43.58912" lon="3.51393">
        <ele>87</ele>
        <time>2022-02-22T14:00:08Z</time>
      </trkpt>
      <trkpt lat="43.58909" lon="3.51391">
        <ele>87</ele>
        <time>2022-02-22T14:00:11Z</time>
      </trkpt>
      <trkpt lat="43.58906" lon="3.51388">
        <ele>87</ele>
        <time>2022-02-22T14:00:15Z</time>
      </trkpt>
      <trkpt lat="43.58904" lon="3.51386">
        <ele>87</ele>
        <time>2022-02-22T14:00:17Z</time>
      </trkpt>
      <trkpt lat="43.58901" lon="3.51384">
        <ele>87</ele>
        <time>2022-02-22T14:00:20Z</time>
      </trkpt>
      <trkpt lat="43.58899" lon="3.51382">
        <ele>87</ele>
        <time>2022-02-22T14:00:23Z</time>
      </trkpt>
      <trkpt lat="43.58896" lon="3.51379">
        <ele>87</ele>
        <time>2022-02-22T14:00:26Z</time>
      </trkpt>
      <trkpt lat="43.58894" lon="3.51376">
        <ele>87</ele>
        <time>2022-02-22T14:00:29Z</time>
      </trkpt>
      <trkpt lat="43.58892" lon="3.51373">
        <ele>87</ele>
        <time>2022-02-22T14:00:31Z</time>
      </trkpt>
      <trkpt lat="43.58889" lon="3.51369">
        <ele>87</ele>
        <time>2022-02-22T14:00:34Z</time>
      </trkpt>
      <trkpt lat="43.58887" lon="3.51366">
        <ele>87</ele>
        <time>2022-02-22T14:00:37Z</time>
      </trkpt>
      <trkpt lat="43.58884" lon="3.51363">
        <ele>87</ele>
        <time>2022-02-22T14:00:40Z</time>
      </trkpt>
      <trkpt lat="43.58882" lon="3.5136">
        <ele>87</ele>
        <time>2022-02-22T14:00:43Z</time>
      </trkpt>
      <trkpt lat="43.58879" lon="3.51357">
        <ele>87</ele>
        <time>2022-02-22T14:00:46Z</time>
      </trkpt>
      <trkpt lat="43.58877" lon="3.51353">
        <ele>87</ele>
        <time>2022-02-22T14:00:49Z</time>
      </trkpt>
      <trkpt lat="43.58875" lon="3.51349">
        <ele>87</ele>
        <time>2022-02-22T14:00:51Z</time>
      </trkpt>
      <trkpt lat="43.58874" lon="3.51346">
        <ele>87</ele>
        <time>2022-02-22T14:00:54Z</time>
      </trkpt>
      <trkpt lat="43.58872" lon="3.51341">
        <ele>87</ele>
        <time>2022-02-22T14:00:58Z</time>
      </trkpt>
      <trkpt lat="43.58871" lon="3.51337">
        <ele>87</ele>
        <time>2022-02-22T14:01:01Z</time>
      </trkpt>
      <trkpt lat="43.5887" lon="3.51333">
        <ele>87</ele>
        <time>2022-02-22T14:01:05Z</time>
      </trkpt>
      <trkpt lat="43.5887" lon="3.51328">
        <ele>87</ele>
        <time>2022-02-22T14:01:08Z</time>
      </trkpt>
      <trkpt lat="43.5887" lon="3.51323">
        <ele>87</ele>
        <time>2022-02-22T14:01:11Z</time>
      </trkpt>
      <trkpt lat="43.58868" lon="3.51319">
        <ele>87</ele>
        <time>2022-02-22T14:01:15Z</time>
      </trkpt>
      <trkpt lat="43.58867" lon="3.51315">
        <ele>87</ele>
        <time>2022-02-22T14:01:20Z</time>
      </trkpt>
      <trkpt lat="43.58868" lon="3.51311">
        <ele>87</ele>
        <time>2022-02-22T14:01:23Z</time>
      </trkpt>
      <trkpt lat="43.58869" lon="3.51307">
        <ele>87</ele>
        <time>2022-02-22T14:01:26Z</time>
      </trkpt>
      <trkpt lat="43.5887" lon="3.51304">
        <ele>87</ele>
        <time>2022-02-22T14:01:29Z</time>
      </trkpt>
      <trkpt lat="43.58872" lon="3.513">
        <ele>87</ele>
        <time>2022-02-22T14:01:32Z</time>
      </trkpt>
      <trkpt lat="43.58873" lon="3.51296">
        <ele>87</ele>
        <time>2022-02-22T14:01:35Z</time>
      </trkpt>
      <trkpt lat="43.58875" lon="3.51292">
        <ele>87</ele>
        <time>2022-02-22T14:01:38Z</time>
      </trkpt>
      <trkpt lat="43.58876" lon="3.51288">
        <ele>87</ele>
        <time>2022-02-22T14:01:42Z</time>
      </trkpt>
      <trkpt lat="43.58877" lon="3.51283">
        <ele>87</ele>
        <time>2022-02-22T14:01:45Z</time>
      </trkpt>
      <trkpt lat="43.58878" lon="3.51279">
        <ele>87</ele>
        <time>2022-02-22T14:01:48Z</time>
      </trkpt>
      <trkpt lat="43.58879" lon="3.51274">
        <ele>87</ele>
        <time>2022-02-22T14:01:51Z</time>
      </trkpt>
      <trkpt lat="43.5888" lon="3.5127">
        <ele>87</ele>
        <time>2022-02-22T14:01:53Z</time>
      </trkpt>
      <trkpt lat="43.58882" lon="3.51266">
        <ele>87</ele>
        <time>2022-02-22T14:01:55Z</time>
      </trkpt>
      <trkpt lat="43.58884" lon="3.51263">
        <ele>87</ele>
        <time>2022-02-22T14:01:58Z</time>
      </trkpt>
      <trkpt lat="43.58885" lon="3.5126">
        <ele>87</ele>
        <time>2022-02-22T14:02:00Z</time>
      </trkpt>
      <trkpt lat="43.58887" lon="3.51256">
        <ele>87</ele>
        <time>2022-02-22T14:02:02Z</time>
      </trkpt>
      <trkpt lat="43.58888" lon="3.51252">
        <ele>87</ele>
        <time>2022-02-22T14:02:04Z</time>
      </trkpt>
      <trkpt lat="43.58888" lon="3.51248">
        <ele>87</ele>
        <time>2022-02-22T14:02:07Z</time>
      </trkpt>
      <trkpt lat="43.58888" lon="3.51243">
        <ele>87</ele>
        <time>2022-02-22T14:02:10Z</time>
      </trkpt>
      <trkpt lat="43.58889" lon="3.51239">
        <ele>87</ele>
        <time>2022-02-22T14:02:13Z</time>
      </trkpt>
      <trkpt lat="43.58889" lon="3.51234">
        <ele>87</ele>
        <time>2022-02-22T14:02:17Z</time>
      </trkpt>
      <trkpt lat="43.58889" lon="3.5123">
        <ele>87</ele>
        <time>2022-02-22T14:02:20Z</time>
      </trkpt>
      <trkpt lat="43.58889" lon="3.51225">
        <ele>87</ele>
        <time>2022-02-22T14:02:23Z</time>
      </trkpt>
      <trkpt lat="43.58889" lon="3.5122">
        <ele>87</ele>
        <time>2022-02-22T14:02:26Z</time>
      </trkpt>
      <trkpt lat="43.58889" lon="3.51216">
        <ele>87</ele>
        <time>2022-02-22T14:02:28Z</time>
      </trkpt>
      <trkpt lat="43.58889" lon="3.51211">
        <ele>87</ele>
        <time>2022-02-22T14:02:31Z</time>
      </trkpt>
      <trkpt lat="43.58889" lon="3.51206">
        <ele>87</ele>
        <time>2022-02-22T14:02:34Z</time>
      </trkpt>
      <trkpt lat="43.58889" lon="3.51201">
        <ele>87</ele>
        <time>2022-02-22T14:02:37Z</time>
      </trkpt>
      <trkpt lat="43.58889" lon="3.51196">
        <ele>87</ele>
        <time>2022-02-22T14:02:40Z</time>
      </trkpt>
      <trkpt lat="43.58889" lon="3.51192">
        <ele>87</ele>
        <time>2022-02-22T14:02:43Z</time>
      </trkpt>
      <trkpt lat="43.58889" lon="3.51187">
        <ele>87</ele>
        <time>2022-02-22T14:02:46Z</time>
      </trkpt>
      <trkpt lat="43.58888" lon="3.51183">
        <ele>87</ele>
        <time>2022-02-22T14:02:49Z</time>
      </trkpt>
      <trkpt lat="43.58888" lon="3.51179">
        <ele>87</ele>
        <time>2022-02-22T14:02:52Z</time>
      </trkpt>
      <trkpt lat="43.58886" lon="3.51175">
        <ele>87</ele>
        <time>2022-02-22T14:02:55Z</time>
      </trkpt>
      <trkpt lat="43.58885" lon="3.5117">
        <ele>87</ele>
        <time>2022-02-22T14:02:58Z</time>
      </trkpt>
      <trkpt lat="43.58884" lon="3.51166">
        <ele>87</ele>
        <time>2022-02-22T14:03:01Z</time>
      </trkpt>
      <trkpt lat="43.58883" lon="3.51162">
        <ele>87</ele>
        <time>2022-02-22T14:03:04Z</time>
      </trkpt>
      <trkpt lat="43.58882" lon="3.51159">
        <ele>87</ele>
        <time>2022-02-22T14:03:08Z</time>
      </trkpt>
      <trkpt lat="43.5888" lon="3.51155">
        <ele>87</ele>
        <time>2022-02-22T14:03:11Z</time>
      </trkpt>
      <trkpt lat="43.58877" lon="3.51152">
        <ele>87</ele>
        <time>2022-02-22T14:03:13Z</time>
      </trkpt>
      <trkpt lat="43.58875" lon="3.51149">
        <ele>87</ele>
        <time>2022-02-22T14:03:15Z</time>
      </trkpt>
      <trkpt lat="43.58872" lon="3.51146">
        <ele>87</ele>
        <time>2022-02-22T14:03:17Z</time>
      </trkpt>
      <trkpt lat="43.58869" lon="3.51144">
        <ele>87</ele>
        <time>2022-02-22T14:03:19Z</time>
      </trkpt>
      <trkpt lat="43.58867" lon="3.51143">
        <ele>87</ele>
        <time>2022-02-22T14:03:21Z</time>
      </trkpt>
      <trkpt lat="43.58864" lon="3.51141">
        <ele>87</ele>
        <time>2022-02-22T14:03:24Z</time>
      </trkpt>
      <trkpt lat="43.58861" lon="3.51139">
        <ele>87</ele>
        <time>2022-02-22T14:03:26Z</time>
      </trkpt>
      <trkpt lat="43.58858" lon="3.51137">
        <ele>87</ele>
        <time>2022-02-22T14:03:29Z</time>
      </trkpt>
      <trkpt lat="43.58855" lon="3.51135">
        <ele>87</ele>
        <time>2022-02-22T14:03:32Z</time>
      </trkpt>
      <trkpt lat="43.58853" lon="3.51133">
        <ele>87</ele>
        <time>2022-02-22T14:03:35Z</time>
      </trkpt>
      <trkpt lat="43.5885" lon="3.51132">
        <ele>87</ele>
        <time>2022-02-22T14:03:38Z</time>
      </trkpt>
      <trkpt lat="43.58847" lon="3.51131">
        <ele>87</ele>
        <time>2022-02-22T14:03:43Z</time>
      </trkpt>
      <trkpt lat="43.58844" lon="3.5113">
        <ele>87</ele>
        <time>2022-02-22T14:03:49Z</time>
      </trkpt>
      <trkpt lat="43.58841" lon="3.5113">
        <ele>87</ele>
        <time>2022-02-22T14:03:52Z</time>
      </trkpt>
      <trkpt lat="43.58838" lon="3.51128">
        <ele>87</ele>
        <time>2022-02-22T14:03:56Z</time>
      </trkpt>
      <trkpt lat="43.58836" lon="3.51125">
        <ele>87</ele>
        <time>2022-02-22T14:04:01Z</time>
      </trkpt>
      <trkpt lat="43.5883" lon="3.51125">
        <ele>87</ele>
        <time>2022-02-22T14:04:47Z</time>
      </trkpt>
      <trkpt lat="43.58827" lon="3.51123">
        <ele>87</ele>
        <time>2022-02-22T14:04:51Z</time>
      </trkpt>
      <trkpt lat="43.58825" lon="3.5112">
        <ele>87</ele>
        <time>2022-02-22T14:04:55Z</time>
      </trkpt>
      <trkpt lat="43.58822" lon="3.51117">
        <ele>87</ele>
        <time>2022-02-22T14:04:59Z</time>
      </trkpt>
      <trkpt lat="43.5882" lon="3.51114">
        <ele>87</ele>
        <time>2022-02-22T14:05:03Z</time>
      </trkpt>
      <trkpt lat="43.58818" lon="3.51111">
        <ele>87</ele>
        <time>2022-02-22T14:05:06Z</time>
      </trkpt>
      <trkpt lat="43.58816" lon="3.51108">
        <ele>87</ele>
        <time>2022-02-22T14:05:08Z</time>
      </trkpt>
      <trkpt lat="43.58814" lon="3.51105">
        <ele>87</ele>
        <time>2022-02-22T14:05:11Z</time>
      </trkpt>
      <trkpt lat="43.58812" lon="3.51102">
        <ele>87</ele>
        <time>2022-02-22T14:05:14Z</time>
      </trkpt>
      <trkpt lat="43.58809" lon="3.51101">
        <ele>87</ele>
        <time>2022-02-22T14:05:18Z</time>
      </trkpt>
      <trkpt lat="43.58807" lon="3.51099">
        <ele>87</ele>
        <time>2022-02-22T14:05:21Z</time>
      </trkpt>
      <trkpt lat="43.58803" lon="3.51098">
        <ele>87</ele>
        <time>2022-02-22T14:05:24Z</time>
      </trkpt>
      <trkpt lat="43.58799" lon="3.51096">
        <ele>87</ele>
        <time>2022-02-22T14:05:27Z</time>
      </trkpt>
      <trkpt lat="43.58797" lon="3.51093">
        <ele>87</ele>
        <time>2022-02-22T14:05:30Z</time>
      </trkpt>
      <trkpt lat="43.58795" lon="3.5109">
        <ele>87</ele>
        <time>2022-02-22T14:05:32Z</time>
      </trkpt>
      <trkpt lat="43.58792" lon="3.51086">
        <ele>87</ele>
        <time>2022-02-22T14:05:35Z</time>
      </trkpt>
      <trkpt lat="43.58789" lon="3.51084">
        <ele>87</ele>
        <time>2022-02-22T14:05:38Z</time>
      </trkpt>
      <trkpt lat="43.58785" lon="3.51081">
        <ele>87</ele>
        <time>2022-02-22T14:05:41Z</time>
      </trkpt>
      <trkpt lat="43.58782" lon="3.5108">
        <ele>87</ele>
        <time>2022-02-22T14:05:43Z</time>
      </trkpt>
      <trkpt lat="43.58779" lon="3.51078">
        <ele>87</ele>
        <time>2022-02-22T14:05:45Z</time>
      </trkpt>
      <trkpt lat="43.58777" lon="3.51075">
        <ele>87</ele>
        <time>2022-02-22T14:05:47Z</time>
      </trkpt>
      <trkpt lat="43.58774" lon="3.51073">
        <ele>87</ele>
        <time>2022-02-22T14:05:50Z</time>
      </trkpt>
      <trkpt lat="43.58771" lon="3.51071">
        <ele>87</ele>
        <time>2022-02-22T14:05:53Z</time>
      </trkpt>
      <trkpt lat="43.58767" lon="3.51071">
        <ele>87</ele>
        <time>2022-02-22T14:05:56Z</time>
      </trkpt>
      <trkpt lat="43.58764" lon="3.51071">
        <ele>87</ele>
        <time>2022-02-22T14:05:59Z</time>
      </trkpt>
      <trkpt lat="43.5876" lon="3.5107">
        <ele>87</ele>
        <time>2022-02-22T14:06:02Z</time>
      </trkpt>
      <trkpt lat="43.58757" lon="3.5107">
        <ele>87</ele>
        <time>2022-02-22T14:06:06Z</time>
      </trkpt>
      <trkpt lat="43.58754" lon="3.5107">
        <ele>87</ele>
        <time>2022-02-22T14:06:09Z</time>
      </trkpt>
      <trkpt lat="43.58751" lon="3.5107">
        <ele>87</ele>
        <time>2022-02-22T14:06:12Z</time>
      </trkpt>
      <trkpt lat="43.58748" lon="3.51069">
        <ele>87</ele>
        <time>2022-02-22T14:06:19Z</time>
      </trkpt>
      <trkpt lat="43.58745" lon="3.51069">
        <ele>87</ele>
        <time>2022-02-22T14:06:24Z</time>
      </trkpt>
      <trkpt lat="43.58742" lon="3.51069">
        <ele>87</ele>
        <time>2022-02-22T14:06:27Z</time>
      </trkpt>
      <trkpt lat="43.58739" lon="3.51069">
        <ele>87</ele>
        <time>2022-02-22T14:06:31Z</time>
      </trkpt>
      <trkpt lat="43.58735" lon="3.51069">
        <ele>87</ele>
        <time>2022-02-22T14:06:35Z</time>
      </trkpt>
      <trkpt lat="43.58732" lon="3.51068">
        <ele>87</ele>
        <time>2022-02-22T14:06:40Z</time>
      </trkpt>
      <trkpt lat="43.58729" lon="3.51068">
        <ele>87</ele>
        <time>2022-02-22T14:06:47Z</time>
      </trkpt>
      <trkpt lat="43.58725" lon="3.51068">
        <ele>87</ele>
        <time>2022-02-22T14:06:51Z</time>
      </trkpt>
      <trkpt lat="43.58722" lon="3.51067">
        <ele>87</ele>
        <time>2022-02-22T14:06:54Z</time>
      </trkpt>
      <trkpt lat="43.58719" lon="3.51066">
        <ele>87</ele>
        <time>2022-02-22T14:06:57Z</time>
      </trkpt>
      <trkpt lat="43.58717" lon="3.51064">
        <ele>87</ele>
        <time>2022-02-22T14:06:59Z</time>
      </trkpt>
      <trkpt lat="43.58714" lon="3.51062">
        <ele>87</ele>
        <time>2022-02-22T14:07:01Z</time>
      </trkpt>
      <trkpt lat="43.58712" lon="3.5106">
        <ele>87</ele>
        <time>2022-02-22T14:07:04Z</time>
      </trkpt>
      <trkpt lat="43.58709" lon="3.51056">
        <ele>87</ele>
        <time>2022-02-22T14:07:07Z</time>
      </trkpt>
      <trkpt lat="43.58706" lon="3.51054">
        <ele>87</ele>
        <time>2022-02-22T14:07:10Z</time>
      </trkpt>
      <trkpt lat="43.58704" lon="3.51051">
        <ele>87</ele>
        <time>2022-02-22T14:07:13Z</time>
      </trkpt>
      <trkpt lat="43.58701" lon="3.51048">
        <ele>87</ele>
        <time>2022-02-22T14:07:19Z</time>
      </trkpt>
      <trkpt lat="43.58699" lon="3.51044">
        <ele>87</ele>
        <time>2022-02-22T14:07:32Z</time>
      </trkpt>
      <trkpt lat="43.58697" lon="3.51041">
        <ele>87</ele>
        <time>2022-02-22T14:07:37Z</time>
      </trkpt>
      <trkpt lat="43.58694" lon="3.5104">
        <ele>87</ele>
        <time>2022-02-22T14:07:45Z</time>
      </trkpt>
      <trkpt lat="43.58692" lon="3.51036">
        <ele>87</ele>
        <time>2022-02-22T14:07:50Z</time>
      </trkpt>
      <trkpt lat="43.58691" lon="3.51033">
        <ele>87</ele>
        <time>2022-02-22T14:07:54Z</time>
      </trkpt>
      <trkpt lat="43.58689" lon="3.51029">
        <ele>87</ele>
        <time>2022-02-22T14:07:59Z</time>
      </trkpt>
      <trkpt lat="43.58688" lon="3.51025">
        <ele>87</ele>
        <time>2022-02-22T14:08:03Z</time>
      </trkpt>
      <trkpt lat="43.58686" lon="3.51021">
        <ele>87</ele>
        <time>2022-02-22T14:08:07Z</time>
      </trkpt>
      <trkpt lat="43.58684" lon="3.51017">
        <ele>87</ele>
        <time>2022-02-22T14:08:12Z</time>
      </trkpt>
      <trkpt lat="43.58684" lon="3.51013">
        <ele>87</ele>
        <time>2022-02-22T14:08:17Z</time>
      </trkpt>
      <trkpt lat="43.58684" lon="3.5101">
        <ele>87</ele>
        <time>2022-02-22T14:08:25Z</time>
      </trkpt>
      <trkpt lat="43.58682" lon="3.51007">
        <ele>87</ele>
        <time>2022-02-22T14:08:30Z</time>
      </trkpt>
      <trkpt lat="43.58684" lon="3.51006">
        <ele>87</ele>
        <time>2022-02-22T14:08:52Z</time>
      </trkpt>
      <trkpt lat="43.58686" lon="3.51006">
        <ele>87</ele>
        <time>2022-02-22T14:08:57Z</time>
      </trkpt>
      <trkpt lat="43.58689" lon="3.51001">
        <ele>87</ele>
        <time>2022-02-22T14:09:15Z</time>
      </trkpt>
      <trkpt lat="43.58692" lon="3.50999">
        <ele>87</ele>
        <time>2022-02-22T14:09:21Z</time>
      </trkpt>
      <trkpt lat="43.58695" lon="3.50999">
        <ele>87</ele>
        <time>2022-02-22T14:09:24Z</time>
      </trkpt>
      <trkpt lat="43.58698" lon="3.51001">
        <ele>87</ele>
        <time>2022-02-22T14:09:30Z</time>
      </trkpt>
      <trkpt lat="43.587" lon="3.51004">
        <ele>87</ele>
        <time>2022-02-22T14:09:35Z</time>
      </trkpt>
      <trkpt lat="43.58701" lon="3.51007">
        <ele>87</ele>
        <time>2022-02-22T14:09:40Z</time>
      </trkpt>
      <trkpt lat="43.58704" lon="3.51008">
        <ele>87</ele>
        <time>2022-02-22T14:09:48Z</time>
      </trkpt>
      <trkpt lat="43.58707" lon="3.51007">
        <ele>87</ele>
        <time>2022-02-22T14:09:56Z</time>
      </trkpt>
      <trkpt lat="43.58711" lon="3.51002">
        <ele>87</ele>
        <time>2022-02-22T14:10:30Z</time>
      </trkpt>
      <trkpt lat="43.58715" lon="3.51">
        <ele>87</ele>
        <time>2022-02-22T14:10:38Z</time>
      </trkpt>
      <trkpt lat="43.58718" lon="3.50998">
        <ele>87</ele>
        <time>2022-02-22T14:10:42Z</time>
      </trkpt>
      <trkpt lat="43.58721" lon="3.50999">
        <ele>87</ele>
        <time>2022-02-22T14:10:47Z</time>
      </trkpt>
      <trkpt lat="43.58723" lon="3.51001">
        <ele>87</ele>
        <time>2022-02-22T14:10:51Z</time>
      </trkpt>
      <trkpt lat="43.58725" lon="3.51004">
        <ele>87</ele>
        <time>2022-02-22T14:10:55Z</time>
      </trkpt>
      <trkpt lat="43.58725" lon="3.51008">
        <ele>87</ele>
        <time>2022-02-22T14:10:58Z</time>
      </trkpt>
      <trkpt lat="43.58727" lon="3.51012">
        <ele>87</ele>
        <time>2022-02-22T14:11:02Z</time>
      </trkpt>
      <trkpt lat="43.58729" lon="3.51015">
        <ele>87</ele>
        <time>2022-02-22T14:11:05Z</time>
      </trkpt>
      <trkpt lat="43.58732" lon="3.51017">
        <ele>87</ele>
        <time>2022-02-22T14:11:08Z</time>
      </trkpt>
      <trkpt lat="43.58735" lon="3.51021">
        <ele>87</ele>
        <time>2022-02-22T14:11:12Z</time>
      </trkpt>
      <trkpt lat="43.58737" lon="3.51024">
        <ele>87</ele>
        <time>2022-02-22T14:11:16Z</time>
      </trkpt>
      <trkpt lat="43.58738" lon="3.51028">
        <ele>87</ele>
        <time>2022-02-22T14:11:20Z</time>
      </trkpt>
      <trkpt lat="43.5874" lon="3.5103">
        <ele>87</ele>
        <time>2022-02-22T14:11:27Z</time>
      </trkpt>
      <trkpt lat="43.58742" lon="3.51033">
        <ele>87</ele>
        <time>2022-02-22T14:11:32Z</time>
      </trkpt>
      <trkpt lat="43.58744" lon="3.51035">
        <ele>87</ele>
        <time>2022-02-22T14:11:37Z</time>
      </trkpt>
      <trkpt lat="43.58747" lon="3.51036">
        <ele>87</ele>
        <time>2022-02-22T14:11:40Z</time>
      </trkpt>
      <trkpt lat="43.5875" lon="3.51036">
        <ele>87</ele>
        <time>2022-02-22T14:11:42Z</time>
      </trkpt>
      <trkpt lat="43.58753" lon="3.51036">
        <ele>87</ele>
        <time>2022-02-22T14:11:45Z</time>
      </trkpt>
      <trkpt lat="43.58755" lon="3.51034">
        <ele>87</ele>
        <time>2022-02-22T14:11:49Z</time>
      </trkpt>
      <trkpt lat="43.58756" lon="3.5103">
        <ele>87</ele>
        <time>2022-02-22T14:11:52Z</time>
      </trkpt>
      <trkpt lat="43.58758" lon="3.51027">
        <ele>87</ele>
        <time>2022-02-22T14:11:55Z</time>
      </trkpt>
      <trkpt lat="43.5876" lon="3.51025">
        <ele>87</ele>
        <time>2022-02-22T14:12:00Z</time>
      </trkpt>
      <trkpt lat="43.58763" lon="3.51023">
        <ele>87</ele>
        <time>2022-02-22T14:12:04Z</time>
      </trkpt>
      <trkpt lat="43.58766" lon="3.51022">
        <ele>87</ele>
        <time>2022-02-22T14:12:08Z</time>
      </trkpt>
      <trkpt lat="43.5877" lon="3.51021">
        <ele>87</ele>
        <time>2022-02-22T14:12:12Z</time>
      </trkpt>
      <trkpt lat="43.58773" lon="3.5102">
        <ele>87</ele>
        <time>2022-02-22T14:12:15Z</time>
      </trkpt>
      <trkpt lat="43.58775" lon="3.51018">
        <ele>87</ele>
        <time>2022-02-22T14:12:21Z</time>
      </trkpt>
      <trkpt lat="43.58777" lon="3.51015">
        <ele>87</ele>
        <time>2022-02-22T14:12:24Z</time>
      </trkpt>
      <trkpt lat="43.58778" lon="3.51011">
        <ele>87</ele>
        <time>2022-02-22T14:12:27Z</time>
      </trkpt>
      <trkpt lat="43.58779" lon="3.51007">
        <ele>87</ele>
        <time>2022-02-22T14:12:32Z</time>
      </trkpt>
      <trkpt lat="43.58781" lon="3.51004">
        <ele>87</ele>
        <time>2022-02-22T14:12:36Z</time>
      </trkpt>
      <trkpt lat="43.58784" lon="3.51003">
        <ele>87</ele>
        <time>2022-02-22T14:12:40Z</time>
      </trkpt>
      <trkpt lat="43.58786" lon="3.51001">
        <ele>87</ele>
        <time>2022-02-22T14:12:44Z</time>
      </trkpt>
      <trkpt lat="43.58791" lon="3.50998">
        <ele>87</ele>
        <time>2022-02-22T14:12:59Z</time>
      </trkpt>
      <trkpt lat="43.58794" lon="3.50996">
        <ele>87</ele>
        <time>2022-02-22T14:13:01Z</time>
      </trkpt>
      <trkpt lat="43.58798" lon="3.50994">
        <ele>87</ele>
        <time>2022-02-22T14:13:05Z</time>
      </trkpt>
      <trkpt lat="43.588" lon="3.50992">
        <ele>87</ele>
        <time>2022-02-22T14:13:07Z</time>
      </trkpt>
      <trkpt lat="43.58803" lon="3.50989">
        <ele>87</ele>
        <time>2022-02-22T14:13:10Z</time>
      </trkpt>
      <trkpt lat="43.58802" lon="3.50986">
        <ele>87</ele>
        <time>2022-02-22T14:13:13Z</time>
      </trkpt>
      <trkpt lat="43.58802" lon="3.50982">
        <ele>87</ele>
        <time>2022-02-22T14:13:17Z</time>
      </trkpt>
      <trkpt lat="43.58801" lon="3.50978">
        <ele>87</ele>
        <time>2022-02-22T14:13:20Z</time>
      </trkpt>
      <trkpt lat="43.58801" lon="3.50974">
        <ele>87</ele>
        <time>2022-02-22T14:13:24Z</time>
      </trkpt>
      <trkpt lat="43.58802" lon="3.5097">
        <ele>87</ele>
        <time>2022-02-22T14:13:29Z</time>
      </trkpt>
      <trkpt lat="43.58804" lon="3.50967">
        <ele>87</ele>
        <time>2022-02-22T14:14:16Z</time>
      </trkpt>
      <trkpt lat="43.58806" lon="3.50964">
        <ele>87</ele>
        <time>2022-02-22T14:14:24Z</time>
      </trkpt>
      <trkpt lat="43.58808" lon="3.50963">
        <ele>87</ele>
        <time>2022-02-22T14:14:30Z</time>
      </trkpt>
      <trkpt lat="43.58811" lon="3.50962">
        <ele>87</ele>
        <time>2022-02-22T14:14:37Z</time>
      </trkpt>
      <trkpt lat="43.58814" lon="3.50961">
        <ele>87</ele>
        <time>2022-02-22T14:14:44Z</time>
      </trkpt>
      <trkpt lat="43.58816" lon="3.50961">
        <ele>87</ele>
        <time>2022-02-22T14:14:48Z</time>
      </trkpt>
      <trkpt lat="43.58819" lon="3.50961">
        <ele>87</ele>
        <time>2022-02-22T14:14:54Z</time>
      </trkpt>
      <trkpt lat="43.58822" lon="3.5096">
        <ele>87</ele>
        <time>2022-02-22T14:14:59Z</time>
      </trkpt>
      <trkpt lat="43.58825" lon="3.50959">
        <ele>87</ele>
        <time>2022-02-22T14:15:03Z</time>
      </trkpt>
      <trkpt lat="43.58828" lon="3.50957">
        <ele>87</ele>
        <time>2022-02-22T14:15:07Z</time>
      </trkpt>
      <trkpt lat="43.5883" lon="3.50954">
        <ele>87</ele>
        <time>2022-02-22T14:15:09Z</time>
      </trkpt>
      <trkpt lat="43.58833" lon="3.50952">
        <ele>87</ele>
        <time>2022-02-22T14:15:14Z</time>
      </trkpt>
      <trkpt lat="43.58835" lon="3.50951">
        <ele>87</ele>
        <time>2022-02-22T14:15:18Z</time>
      </trkpt>
      <trkpt lat="43.58837" lon="3.50948">
        <ele>87</ele>
        <time>2022-02-22T14:15:22Z</time>
      </trkpt>
      <trkpt lat="43.58839" lon="3.50944">
        <ele>87</ele>
        <time>2022-02-22T14:15:25Z</time>
      </trkpt>
      <trkpt lat="43.58842" lon="3.50941">
        <ele>87</ele>
        <time>2022-02-22T14:15:28Z</time>
      </trkpt>
      <trkpt lat="43.58844" lon="3.50938">
        <ele>87</ele>
        <time>2022-02-22T14:15:31Z</time>
      </trkpt>
      <trkpt lat="43.58845" lon="3.50935">
        <ele>87</ele>
        <time>2022-02-22T14:15:34Z</time>
      </trkpt>
      <trkpt lat="43.58846" lon="3.50931">
        <ele>87</ele>
        <time>2022-02-22T14:15:37Z</time>
      </trkpt>
      <trkpt lat="43.58847" lon="3.50927">
        <ele>87</ele>
        <time>2022-02-22T14:15:41Z</time>
      </trkpt>
      <trkpt lat="43.58848" lon="3.50923">
        <ele>87</ele>
        <time>2022-02-22T14:15:45Z</time>
      </trkpt>
      <trkpt lat="43.5885" lon="3.50919">
        <ele>87</ele>
        <time>2022-02-22T14:15:49Z</time>
      </trkpt>
      <trkpt lat="43.58851" lon="3.50915">
        <ele>87</ele>
        <time>2022-02-22T14:15:54Z</time>
      </trkpt>
      <trkpt lat="43.58853" lon="3.50912">
        <ele>87</ele>
        <time>2022-02-22T14:15:57Z</time>
      </trkpt>
      <trkpt lat="43.58854" lon="3.50908">
        <ele>87</ele>
        <time>2022-02-22T14:16:00Z</time>
      </trkpt>
      <trkpt lat="43.58856" lon="3.50905">
        <ele>87</ele>
        <time>2022-02-22T14:16:08Z</time>
      </trkpt>
      <trkpt lat="43.58859" lon="3.50903">
        <ele>87</ele>
        <time>2022-02-22T14:16:12Z</time>
      </trkpt>
      <trkpt lat="43.58862" lon="3.509">
        <ele>87</ele>
        <time>2022-02-22T14:16:15Z</time>
      </trkpt>
      <trkpt lat="43.58864" lon="3.50898">
        <ele>87</ele>
        <time>2022-02-22T14:16:21Z</time>
      </trkpt>
      <trkpt lat="43.58863" lon="3.50892">
        <ele>87</ele>
        <time>2022-02-22T14:16:32Z</time>
      </trkpt>
      <trkpt lat="43.58861" lon="3.5089">
        <ele>87</ele>
        <time>2022-02-22T14:16:35Z</time>
      </trkpt>
      <trkpt lat="43.58858" lon="3.50889">
        <ele>87</ele>
        <time>2022-02-22T14:16:37Z</time>
      </trkpt>
      <trkpt lat="43.58855" lon="3.50888">
        <ele>87</ele>
        <time>2022-02-22T14:16:40Z</time>
      </trkpt>
      <trkpt lat="43.58852" lon="3.50887">
        <ele>87</ele>
        <time>2022-02-22T14:16:42Z</time>
      </trkpt>
      <trkpt lat="43.58849" lon="3.50886">
        <ele>87</ele>
        <time>2022-02-22T14:16:44Z</time>
      </trkpt>
      <trkpt lat="43.58846" lon="3.50883">
        <ele>87</ele>
        <time>2022-02-22T14:16:46Z</time>
      </trkpt>
      <trkpt lat="43.58843" lon="3.5088">
        <ele>87</ele>
        <time>2022-02-22T14:16:49Z</time>
      </trkpt>
      <trkpt lat="43.5884" lon="3.50879">
        <ele>87</ele>
        <time>2022-02-22T14:16:52Z</time>
      </trkpt>
      <trkpt lat="43.58837" lon="3.50876">
        <ele>87</ele>
        <time>2022-02-22T14:16:55Z</time>
      </trkpt>
      <trkpt lat="43.58834" lon="3.50874">
        <ele>87</ele>
        <time>2022-02-22T14:16:58Z</time>
      </trkpt>
      <trkpt lat="43.58831" lon="3.50872">
        <ele>87</ele>
        <time>2022-02-22T14:17:01Z</time>
      </trkpt>
      <trkpt lat="43.58827" lon="3.50872">
        <ele>87</ele>
        <time>2022-02-22T14:17:05Z</time>
      </trkpt>
      <trkpt lat="43.58824" lon="3.50872">
        <ele>87</ele>
        <time>2022-02-22T14:17:09Z</time>
      </trkpt>
      <trkpt lat="43.5882" lon="3.50871">
        <ele>87</ele>
        <time>2022-02-22T14:17:13Z</time>
      </trkpt>
      <trkpt lat="43.58817" lon="3.5087">
        <ele>87</ele>
        <time>2022-02-22T14:17:15Z</time>
      </trkpt>
      <trkpt lat="43.58814" lon="3.50868">
        <ele>87</ele>
        <time>2022-02-22T14:17:18Z</time>
      </trkpt>
      <trkpt lat="43.58811" lon="3.50866">
        <ele>87</ele>
        <time>2022-02-22T14:17:22Z</time>
      </trkpt>
      <trkpt lat="43.58808" lon="3.50864">
        <ele>87</ele>
        <time>2022-02-22T14:17:25Z</time>
      </trkpt>
      <trkpt lat="43.58804" lon="3.50862">
        <ele>87</ele>
        <time>2022-02-22T14:17:28Z</time>
      </trkpt>
      <trkpt lat="43.58802" lon="3.5086">
        <ele>87</ele>
        <time>2022-02-22T14:17:30Z</time>
      </trkpt>
      <trkpt lat="43.58798" lon="3.50858">
        <ele>87</ele>
        <time>2022-02-22T14:17:33Z</time>
      </trkpt>
      <trkpt lat="43.58795" lon="3.50856">
        <ele>87</ele>
        <time>2022-02-22T14:17:36Z</time>
      </trkpt>
      <trkpt lat="43.58791" lon="3.50854">
        <ele>87</ele>
        <time>2022-02-22T14:17:39Z</time>
      </trkpt>
      <trkpt lat="43.58788" lon="3.50851">
        <ele>87</ele>
        <time>2022-02-22T14:17:42Z</time>
      </trkpt>
      <trkpt lat="43.58785" lon="3.50849">
        <ele>87</ele>
        <time>2022-02-22T14:17:45Z</time>
      </trkpt>
      <trkpt lat="43.58782" lon="3.50847">
        <ele>87</ele>
        <time>2022-02-22T14:17:48Z</time>
      </trkpt>
      <trkpt lat="43.58779" lon="3.50846">
        <ele>87</ele>
        <time>2022-02-22T14:17:51Z</time>
      </trkpt>
      <trkpt lat="43.58776" lon="3.50845">
        <ele>87</ele>
        <time>2022-02-22T14:17:53Z</time>
      </trkpt>
      <trkpt lat="43.58773" lon="3.50843">
        <ele>87</ele>
        <time>2022-02-22T14:17:57Z</time>
      </trkpt>
      <trkpt lat="43.5877" lon="3.50843">
        <ele>87</ele>
        <time>2022-02-22T14:17:59Z</time>
      </trkpt>
      <trkpt lat="43.58767" lon="3.50841">
        <ele>87</ele>
        <time>2022-02-22T14:18:02Z</time>
      </trkpt>
      <trkpt lat="43.58763" lon="3.50839">
        <ele>87</ele>
        <time>2022-02-22T14:18:05Z</time>
      </trkpt>
      <trkpt lat="43.5876" lon="3.50838">
        <ele>87</ele>
        <time>2022-02-22T14:18:08Z</time>
      </trkpt>
      <trkpt lat="43.58757" lon="3.50837">
        <ele>87</ele>
        <time>2022-02-22T14:18:11Z</time>
      </trkpt>
      <trkpt lat="43.58754" lon="3.50838">
        <ele>87</ele>
        <time>2022-02-22T14:18:16Z</time>
      </trkpt>
      <trkpt lat="43.58751" lon="3.50838">
        <ele>87</ele>
        <time>2022-02-22T14:18:19Z</time>
      </trkpt>
      <trkpt lat="43.58747" lon="3.50838">
        <ele>87</ele>
        <time>2022-02-22T14:18:21Z</time>
      </trkpt>
      <trkpt lat="43.58743" lon="3.50838">
        <ele>87</ele>
        <time>2022-02-22T14:18:23Z</time>
      </trkpt>
      <trkpt lat="43.5874" lon="3.50838">
        <ele>87</ele>
        <time>2022-02-22T14:18:26Z</time>
      </trkpt>
      <trkpt lat="43.58736" lon="3.50839">
        <ele>87</ele>
        <time>2022-02-22T14:18:29Z</time>
      </trkpt>
      <trkpt lat="43.58733" lon="3.50841">
        <ele>87</ele>
        <time>2022-02-22T14:18:32Z</time>
      </trkpt>
      <trkpt lat="43.5873" lon="3.50843">
        <ele>87</ele>
        <time>2022-02-22T14:18:35Z</time>
      </trkpt>
      <trkpt lat="43.58727" lon="3.50843">
        <ele>87</ele>
        <time>2022-02-22T14:18:38Z</time>
      </trkpt>
      <trkpt lat="43.58724" lon="3.50842">
        <ele>87</ele>
        <time>2022-02-22T14:18:40Z</time>
      </trkpt>
      <trkpt lat="43.58721" lon="3.50841">
        <ele>87</ele>
        <time>2022-02-22T14:18:43Z</time>
      </trkpt>
      <trkpt lat="43.58718" lon="3.5084">
        <ele>87</ele>
        <time>2022-02-22T14:18:45Z</time>
      </trkpt>
      <trkpt lat="43.58714" lon="3.50839">
        <ele>87</ele>
        <time>2022-02-22T14:18:48Z</time>
      </trkpt>
      <trkpt lat="43.58711" lon="3.50839">
        <ele>87</ele>
        <time>2022-02-22T14:18:51Z</time>
      </trkpt>
      <trkpt lat="43.58708" lon="3.50839">
        <ele>87</ele>
        <time>2022-02-22T14:18:54Z</time>
      </trkpt>
      <trkpt lat="43.58705" lon="3.50838">
        <ele>87</ele>
        <time>2022-02-22T14:18:56Z</time>
      </trkpt>
      <trkpt lat="43.58702" lon="3.50837">
        <ele>87</ele>
        <time>2022-02-22T14:18:59Z</time>
      </trkpt>
      <trkpt lat="43.58699" lon="3.50838">
        <ele>87</ele>
        <time>2022-02-22T14:19:01Z</time>
      </trkpt>
      <trkpt lat="43.58696" lon="3.50839">
        <ele>87</ele>
        <time>2022-02-22T14:19:06Z</time>
      </trkpt>
      <trkpt lat="43.58693" lon="3.5084">
        <ele>87</ele>
        <time>2022-02-22T14:19:09Z</time>
      </trkpt>
      <trkpt lat="43.5869" lon="3.50841">
        <ele>87</ele>
        <time>2022-02-22T14:19:12Z</time>
      </trkpt>
      <trkpt lat="43.58688" lon="3.50841">
        <ele>87</ele>
        <time>2022-02-22T14:19:15Z</time>
      </trkpt>
      <trkpt lat="43.58685" lon="3.50841">
        <ele>87</ele>
        <time>2022-02-22T14:19:18Z</time>
      </trkpt>
      <trkpt lat="43.58682" lon="3.50841">
        <ele>87</ele>
        <time>2022-02-22T14:19:21Z</time>
      </trkpt>
      <trkpt lat="43.58678" lon="3.5084">
        <ele>87</ele>
        <time>2022-02-22T14:19:24Z</time>
      </trkpt>
      <trkpt lat="43.58675" lon="3.50841">
        <ele>87</ele>
        <time>2022-02-22T14:19:28Z</time>
      </trkpt>
      <trkpt lat="43.58672" lon="3.50841">
        <ele>87</ele>
        <time>2022-02-22T14:19:31Z</time>
      </trkpt>
      <trkpt lat="43.58668" lon="3.50841">
        <ele>87</ele>
        <time>2022-02-22T14:19:35Z</time>
      </trkpt>
      <trkpt lat="43.58664" lon="3.50842">
        <ele>87</ele>
        <time>2022-02-22T14:19:38Z</time>
      </trkpt>
      <trkpt lat="43.58661" lon="3.50841">
        <ele>87</ele>
        <time>2022-02-22T14:19:41Z</time>
      </trkpt>
      <trkpt lat="43.58657" lon="3.50841">
        <ele>87</ele>
        <time>2022-02-22T14:19:43Z</time>
      </trkpt>
      <trkpt lat="43.58654" lon="3.50839">
        <ele>87</ele>
        <time>2022-02-22T14:19:45Z</time>
      </trkpt>
      <trkpt lat="43.58651" lon="3.50839">
        <ele>87</ele>
        <time>2022-02-22T14:19:48Z</time>
      </trkpt>
      <trkpt lat="43.58647" lon="3.50839">
        <ele>87</ele>
        <time>2022-02-22T14:19:51Z</time>
      </trkpt>
      <trkpt lat="43.58644" lon="3.5084">
        <ele>87</ele>
        <time>2022-02-22T14:19:54Z</time>
      </trkpt>
      <trkpt lat="43.58641" lon="3.50841">
        <ele>87</ele>
        <time>2022-02-22T14:19:58Z</time>
      </trkpt>
      <trkpt lat="43.58637" lon="3.50842">
        <ele>87</ele>
        <time>2022-02-22T14:20:02Z</time>
      </trkpt>
      <trkpt lat="43.58635" lon="3.50844">
        <ele>87</ele>
        <time>2022-02-22T14:20:06Z</time>
      </trkpt>
      <trkpt lat="43.58631" lon="3.50847">
        <ele>87</ele>
        <time>2022-02-22T14:20:09Z</time>
      </trkpt>
      <trkpt lat="43.58628" lon="3.50848">
        <ele>87</ele>
        <time>2022-02-22T14:20:13Z</time>
      </trkpt>
      <trkpt lat="43.58627" lon="3.5085">
        <ele>87</ele>
        <time>2022-02-22T14:20:21Z</time>
      </trkpt>
      <trkpt lat="43.58627" lon="3.50854">
        <ele>87</ele>
        <time>2022-02-22T14:20:28Z</time>
      </trkpt>
      <trkpt lat="43.58629" lon="3.50855">
        <ele>87</ele>
        <time>2022-02-22T14:21:31Z</time>
      </trkpt>
      <trkpt lat="43.58628" lon="3.50856">
        <ele>87</ele>
        <time>2022-02-22T14:21:51Z</time>
      </trkpt>
      <trkpt lat="43.58626" lon="3.50856">
        <ele>87</ele>
        <time>2022-02-22T14:21:58Z</time>
      </trkpt>
      <trkpt lat="43.58624" lon="3.50858">
        <ele>87</ele>
        <time>2022-02-22T14:22:20Z</time>
      </trkpt>
      <trkpt lat="43.58621" lon="3.50861">
        <ele>87</ele>
        <time>2022-02-22T14:22:32Z</time>
      </trkpt>
      <trkpt lat="43.58619" lon="3.50864">
        <ele>87</ele>
        <time>2022-02-22T14:22:46Z</time>
      </trkpt>
      <trkpt lat="43.58617" lon="3.50867">
        <ele>87</ele>
        <time>2022-02-22T14:22:48Z</time>
      </trkpt>
      <trkpt lat="43.58614" lon="3.50868">
        <ele>87</ele>
        <time>2022-02-22T14:22:51Z</time>
      </trkpt>
      <trkpt lat="43.58614" lon="3.50867">
        <ele>87</ele>
        <time>2022-02-22T14:22:55Z</time>
      </trkpt>
      <trkpt lat="43.58615" lon="3.50864">
        <ele>87</ele>
        <time>2022-02-22T14:23:00Z</time>
      </trkpt>
      <trkpt lat="43.58616" lon="3.50861">
        <ele>87</ele>
        <time>2022-02-22T14:23:14Z</time>
      </trkpt>
      <trkpt lat="43.58615" lon="3.50857">
        <ele>87</ele>
        <time>2022-02-22T14:23:17Z</time>
      </trkpt>
      <trkpt lat="43.58613" lon="3.50854">
        <ele>87</ele>
        <time>2022-02-22T14:23:19Z</time>
      </trkpt>
      <trkpt lat="43.5861" lon="3.50852">
        <ele>87</ele>
        <time>2022-02-22T14:23:22Z</time>
      </trkpt>
      <trkpt lat="43.58608" lon="3.50851">
        <ele>87</ele>
        <time>2022-02-22T14:23:31Z</time>
      </trkpt>
      <trkpt lat="43.58606" lon="3.50853">
        <ele>87</ele>
        <time>2022-02-22T14:23:43Z</time>
      </trkpt>
      <trkpt lat="43.58605" lon="3.50856">
        <ele>87</ele>
        <time>2022-02-22T14:23:46Z</time>
      </trkpt>
      <trkpt lat="43.58603" lon="3.50859">
        <ele>87</ele>
        <time>2022-02-22T14:23:50Z</time>
      </trkpt>
      <trkpt lat="43.58601" lon="3.50862">
        <ele>87</ele>
        <time>2022-02-22T14:23:55Z</time>
      </trkpt>
      <trkpt lat="43.58599" lon="3.50864">
        <ele>87</ele>
        <time>2022-02-22T14:24:06Z</time>
      </trkpt>
      <trkpt lat="43.58596" lon="3.50866">
        <ele>87</ele>
        <time>2022-02-22T14:24:14Z</time>
      </trkpt>
      <trkpt lat="43.58597" lon="3.50865">
        <ele>87</ele>
        <time>2022-02-22T14:24:23Z</time>
      </trkpt>
      <trkpt lat="43.58599" lon="3.50863">
        <ele>87</ele>
        <time>2022-02-22T14:24:26Z</time>
      </trkpt>
      <trkpt lat="43.58602" lon="3.50861">
        <ele>87</ele>
        <time>2022-02-22T14:24:29Z</time>
      </trkpt>
      <trkpt lat="43.58604" lon="3.50859">
        <ele>87</ele>
        <time>2022-02-22T14:24:33Z</time>
      </trkpt>
      <trkpt lat="43.58606" lon="3.50855">
        <ele>87</ele>
        <time>2022-02-22T14:24:36Z</time>
      </trkpt>
      <trkpt lat="43.58606" lon="3.50851">
        <ele>87</ele>
        <time>2022-02-22T14:24:54Z</time>
      </trkpt>
      <trkpt lat="43.58606" lon="3.50847">
        <ele>87</ele>
        <time>2022-02-22T14:24:57Z</time>
      </trkpt>
      <trkpt lat="43.58606" lon="3.50843">
        <ele>87</ele>
        <time>2022-02-22T14:25:00Z</time>
      </trkpt>
      <trkpt lat="43.58606" lon="3.50839">
        <ele>87</ele>
        <time>2022-02-22T14:25:05Z</time>
      </trkpt>
      <trkpt lat="43.58607" lon="3.50839">
        <ele>87</ele>
        <time>2022-02-22T14:25:56Z</time>
      </trkpt>
      <trkpt lat="43.58608" lon="3.50841">
        <ele>87</ele>
        <time>2022-02-22T14:25:59Z</time>
      </trkpt>
      <trkpt lat="43.58607" lon="3.50844">
        <ele>87</ele>
        <time>2022-02-22T14:26:04Z</time>
      </trkpt>
      <trkpt lat="43.58606" lon="3.50847">
        <ele>87</ele>
        <time>2022-02-22T14:26:07Z</time>
      </trkpt>
      <trkpt lat="43.58605" lon="3.50851">
        <ele>87</ele>
        <time>2022-02-22T14:26:10Z</time>
      </trkpt>
      <trkpt lat="43.58604" lon="3.50855">
        <ele>87</ele>
        <time>2022-02-22T14:26:14Z</time>
      </trkpt>
      <trkpt lat="43.58601" lon="3.50859">
        <ele>87</ele>
        <time>2022-02-22T14:26:18Z</time>
      </trkpt>
      <trkpt lat="43.58599" lon="3.50862">
        <ele>87</ele>
        <time>2022-02-22T14:26:21Z</time>
      </trkpt>
      <trkpt lat="43.58597" lon="3.50865">
        <ele>87</ele>
        <time>2022-02-22T14:26:24Z</time>
      </trkpt>
      <trkpt lat="43.58595" lon="3.50867">
        <ele>87</ele>
        <time>2022-02-22T14:26:26Z</time>
      </trkpt>
      <trkpt lat="43.58592" lon="3.5087">
        <ele>87</ele>
        <time>2022-02-22T14:26:29Z</time>
      </trkpt>
      <trkpt lat="43.5859" lon="3.50872">
        <ele>87</ele>
        <time>2022-02-22T14:26:33Z</time>
      </trkpt>
      <trkpt lat="43.58587" lon="3.50875">
        <ele>87</ele>
        <time>2022-02-22T14:26:36Z</time>
      </trkpt>
      <trkpt lat="43.58584" lon="3.50877">
        <ele>87</ele>
        <time>2022-02-22T14:26:39Z</time>
      </trkpt>
      <trkpt lat="43.58581" lon="3.50878">
        <ele>87</ele>
        <time>2022-02-22T14:26:42Z</time>
      </trkpt>
      <trkpt lat="43.58579" lon="3.50881">
        <ele>87</ele>
        <time>2022-02-22T14:26:46Z</time>
      </trkpt>
      <trkpt lat="43.58576" lon="3.50883">
        <ele>87</ele>
        <time>2022-02-22T14:26:49Z</time>
      </trkpt>
      <trkpt lat="43.58573" lon="3.50885">
        <ele>87</ele>
        <time>2022-02-22T14:26:52Z</time>
      </trkpt>
      <trkpt lat="43.5857" lon="3.50888">
        <ele>87</ele>
        <time>2022-02-22T14:26:55Z</time>
      </trkpt>
      <trkpt lat="43.58567" lon="3.50891">
        <ele>87</ele>
        <time>2022-02-22T14:26:58Z</time>
      </trkpt>
      <trkpt lat="43.58564" lon="3.50894">
        <ele>87</ele>
        <time>2022-02-22T14:27:01Z</time>
      </trkpt>
      <trkpt lat="43.58562" lon="3.50897">
        <ele>87</ele>
        <time>2022-02-22T14:27:05Z</time>
      </trkpt>
      <trkpt lat="43.58559" lon="3.50899">
        <ele>87</ele>
        <time>2022-02-22T14:27:08Z</time>
      </trkpt>
      <trkpt lat="43.58557" lon="3.50901">
        <ele>87</ele>
        <time>2022-02-22T14:27:11Z</time>
      </trkpt>
      <trkpt lat="43.58554" lon="3.50904">
        <ele>87</ele>
        <time>2022-02-22T14:27:15Z</time>
      </trkpt>
      <trkpt lat="43.58552" lon="3.50906">
        <ele>87</ele>
        <time>2022-02-22T14:27:18Z</time>
      </trkpt>
      <trkpt lat="43.58548" lon="3.50908">
        <ele>87</ele>
        <time>2022-02-22T14:27:21Z</time>
      </trkpt>
      <trkpt lat="43.58545" lon="3.50911">
        <ele>87</ele>
        <time>2022-02-22T14:27:24Z</time>
      </trkpt>
      <trkpt lat="43.58542" lon="3.50913">
        <ele>87</ele>
        <time>2022-02-22T14:27:27Z</time>
      </trkpt>
      <trkpt lat="43.58539" lon="3.50916">
        <ele>87</ele>
        <time>2022-02-22T14:27:31Z</time>
      </trkpt>
      <trkpt lat="43.58537" lon="3.50918">
        <ele>87</ele>
        <time>2022-02-22T14:27:34Z</time>
      </trkpt>
      <trkpt lat="43.58534" lon="3.5092">
        <ele>87</ele>
        <time>2022-02-22T14:27:37Z</time>
      </trkpt>
      <trkpt lat="43.58531" lon="3.50923">
        <ele>87</ele>
        <time>2022-02-22T14:27:40Z</time>
      </trkpt>
      <trkpt lat="43.58528" lon="3.50925">
        <ele>87</ele>
        <time>2022-02-22T14:27:43Z</time>
      </trkpt>
      <trkpt lat="43.58525" lon="3.50928">
        <ele>87</ele>
        <time>2022-02-22T14:27:46Z</time>
      </trkpt>
      <trkpt lat="43.58523" lon="3.50931">
        <ele>87</ele>
        <time>2022-02-22T14:27:49Z</time>
      </trkpt>
      <trkpt lat="43.5852" lon="3.50933">
        <ele>87</ele>
        <time>2022-02-22T14:27:52Z</time>
      </trkpt>
      <trkpt lat="43.58517" lon="3.50936">
        <ele>87</ele>
        <time>2022-02-22T14:27:55Z</time>
      </trkpt>
      <trkpt lat="43.58515" lon="3.50939">
        <ele>87</ele>
        <time>2022-02-22T14:27:58Z</time>
      </trkpt>
      <trkpt lat="43.58513" lon="3.50941">
        <ele>87</ele>
        <time>2022-02-22T14:28:01Z</time>
      </trkpt>
      <trkpt lat="43.5851" lon="3.50943">
        <ele>87</ele>
        <time>2022-02-22T14:28:04Z</time>
      </trkpt>
      <trkpt lat="43.58507" lon="3.50942">
        <ele>87</ele>
        <time>2022-02-22T14:28:07Z</time>
      </trkpt>
      <trkpt lat="43.58505" lon="3.50939">
        <ele>87</ele>
        <time>2022-02-22T14:28:10Z</time>
      </trkpt>
      <trkpt lat="43.58504" lon="3.50936">
        <ele>87</ele>
        <time>2022-02-22T14:28:13Z</time>
      </trkpt>
      <trkpt lat="43.58502" lon="3.50932">
        <ele>87</ele>
        <time>2022-02-22T14:28:17Z</time>
      </trkpt>
      <trkpt lat="43.58501" lon="3.50929">
        <ele>87</ele>
        <time>2022-02-22T14:28:20Z</time>
      </trkpt>
      <trkpt lat="43.58499" lon="3.50925">
        <ele>87</ele>
        <time>2022-02-22T14:28:23Z</time>
      </trkpt>
      <trkpt lat="43.58497" lon="3.50922">
        <ele>87</ele>
        <time>2022-02-22T14:28:26Z</time>
      </trkpt>
      <trkpt lat="43.58495" lon="3.5092">
        <ele>87</ele>
        <time>2022-02-22T14:28:29Z</time>
      </trkpt>
      <trkpt lat="43.58492" lon="3.50918">
        <ele>87</ele>
        <time>2022-02-22T14:28:32Z</time>
      </trkpt>
      <trkpt lat="43.58489" lon="3.50917">
        <ele>87</ele>
        <time>2022-02-22T14:28:35Z</time>
      </trkpt>
      <trkpt lat="43.58486" lon="3.50917">
        <ele>87</ele>
        <time>2022-02-22T14:28:38Z</time>
      </trkpt>
      <trkpt lat="43.58482" lon="3.50918">
        <ele>87</ele>
        <time>2022-02-22T14:28:42Z</time>
      </trkpt>
      <trkpt lat="43.58479" lon="3.50917">
        <ele>87</ele>
        <time>2022-02-22T14:28:44Z</time>
      </trkpt>
      <trkpt lat="43.58476" lon="3.50916">
        <ele>87</ele>
        <time>2022-02-22T14:28:46Z</time>
      </trkpt>
      <trkpt lat="43.58473" lon="3.50915">
        <ele>87</ele>
        <time>2022-02-22T14:28:48Z</time>
      </trkpt>
      <trkpt lat="43.58469" lon="3.50915">
        <ele>87</ele>
        <time>2022-02-22T14:28:51Z</time>
      </trkpt>
      <trkpt lat="43.58466" lon="3.50915">
        <ele>87</ele>
        <time>2022-02-22T14:28:54Z</time>
      </trkpt>
      <trkpt lat="43.58463" lon="3.50916">
        <ele>87</ele>
        <time>2022-02-22T14:28:58Z</time>
      </trkpt>
      <trkpt lat="43.58459" lon="3.50916">
        <ele>87</ele>
        <time>2022-02-22T14:29:02Z</time>
      </trkpt>
      <trkpt lat="43.58456" lon="3.50916">
        <ele>87</ele>
        <time>2022-02-22T14:29:05Z</time>
      </trkpt>
      <trkpt lat="43.58452" lon="3.50917">
        <ele>87</ele>
        <time>2022-02-22T14:29:08Z</time>
      </trkpt>
      <trkpt lat="43.58449" lon="3.50917">
        <ele>87</ele>
        <time>2022-02-22T14:29:12Z</time>
      </trkpt>
      <trkpt lat="43.58446" lon="3.50916">
        <ele>87</ele>
        <time>2022-02-22T14:29:16Z</time>
      </trkpt>
      <trkpt lat="43.58443" lon="3.50914">
        <ele>87</ele>
        <time>2022-02-22T14:29:19Z</time>
      </trkpt>
      <trkpt lat="43.5844" lon="3.50913">
        <ele>87</ele>
        <time>2022-02-22T14:29:22Z</time>
      </trkpt>
      <trkpt lat="43.58437" lon="3.50912">
        <ele>87</ele>
        <time>2022-02-22T14:29:25Z</time>
      </trkpt>
      <trkpt lat="43.58434" lon="3.50911">
        <ele>87</ele>
        <time>2022-02-22T14:29:27Z</time>
      </trkpt>
      <trkpt lat="43.58431" lon="3.50909">
        <ele>87</ele>
        <time>2022-02-22T14:29:31Z</time>
      </trkpt>
      <trkpt lat="43.58428" lon="3.50907">
        <ele>87</ele>
        <time>2022-02-22T14:29:34Z</time>
      </trkpt>
      <trkpt lat="43.58425" lon="3.50905">
        <ele>87</ele>
        <time>2022-02-22T14:29:37Z</time>
      </trkpt>
      <trkpt lat="43.58423" lon="3.50904">
        <ele>87</ele>
        <time>2022-02-22T14:29:40Z</time>
      </trkpt>
      <trkpt lat="43.5842" lon="3.50901">
        <ele>87</ele>
        <time>2022-02-22T14:29:43Z</time>
      </trkpt>
      <trkpt lat="43.58417" lon="3.50899">
        <ele>87</ele>
        <time>2022-02-22T14:29:46Z</time>
      </trkpt>
      <trkpt lat="43.58414" lon="3.50898">
        <ele>87</ele>
        <time>2022-02-22T14:29:49Z</time>
      </trkpt>
      <trkpt lat="43.58411" lon="3.50895">
        <ele>87</ele>
        <time>2022-02-22T14:29:52Z</time>
      </trkpt>
      <trkpt lat="43.58409" lon="3.50892">
        <ele>87</ele>
        <time>2022-02-22T14:29:56Z</time>
      </trkpt>
      <trkpt lat="43.58406" lon="3.50889">
        <ele>87</ele>
        <time>2022-02-22T14:30:00Z</time>
      </trkpt>
      <trkpt lat="43.58404" lon="3.50885">
        <ele>87</ele>
        <time>2022-02-22T14:30:04Z</time>
      </trkpt>
      <trkpt lat="43.58402" lon="3.50881">
        <ele>87</ele>
        <time>2022-02-22T14:30:06Z</time>
      </trkpt>
      <trkpt lat="43.584" lon="3.50878">
        <ele>87</ele>
        <time>2022-02-22T14:30:09Z</time>
      </trkpt>
      <trkpt lat="43.58398" lon="3.50875">
        <ele>87</ele>
        <time>2022-02-22T14:30:11Z</time>
      </trkpt>
      <trkpt lat="43.58396" lon="3.50872">
        <ele>87</ele>
        <time>2022-02-22T14:30:14Z</time>
      </trkpt>
      <trkpt lat="43.58393" lon="3.50868">
        <ele>87</ele>
        <time>2022-02-22T14:30:17Z</time>
      </trkpt>
      <trkpt lat="43.58391" lon="3.50866">
        <ele>87</ele>
        <time>2022-02-22T14:30:20Z</time>
      </trkpt>
      <trkpt lat="43.58388" lon="3.50863">
        <ele>87</ele>
        <time>2022-02-22T14:30:25Z</time>
      </trkpt>
      <trkpt lat="43.58386" lon="3.5086">
        <ele>87</ele>
        <time>2022-02-22T14:30:29Z</time>
      </trkpt>
      <trkpt lat="43.58385" lon="3.50856">
        <ele>87</ele>
        <time>2022-02-22T14:30:32Z</time>
      </trkpt>
      <trkpt lat="43.58384" lon="3.50852">
        <ele>87</ele>
        <time>2022-02-22T14:30:35Z</time>
      </trkpt>
      <trkpt lat="43.58381" lon="3.5085">
        <ele>87</ele>
        <time>2022-02-22T14:31:22Z</time>
      </trkpt>
      <trkpt lat="43.58378" lon="3.50848">
        <ele>87</ele>
        <time>2022-02-22T14:31:26Z</time>
      </trkpt>
      <trkpt lat="43.58376" lon="3.50845">
        <ele>87</ele>
        <time>2022-02-22T14:31:29Z</time>
      </trkpt>
      <trkpt lat="43.58374" lon="3.50841">
        <ele>87</ele>
        <time>2022-02-22T14:31:32Z</time>
      </trkpt>
      <trkpt lat="43.58372" lon="3.50838">
        <ele>87</ele>
        <time>2022-02-22T14:31:35Z</time>
      </trkpt>
      <trkpt lat="43.58369" lon="3.50836">
        <ele>87</ele>
        <time>2022-02-22T14:31:38Z</time>
      </trkpt>
      <trkpt lat="43.58366" lon="3.50833">
        <ele>87</ele>
        <time>2022-02-22T14:31:41Z</time>
      </trkpt>
      <trkpt lat="43.58364" lon="3.5083">
        <ele>87</ele>
        <time>2022-02-22T14:31:44Z</time>
      </trkpt>
      <trkpt lat="43.58361" lon="3.50828">
        <ele>87</ele>
        <time>2022-02-22T14:31:46Z</time>
      </trkpt>
      <trkpt lat="43.58359" lon="3.50825">
        <ele>87</ele>
        <time>2022-02-22T14:31:49Z</time>
      </trkpt>
      <trkpt lat="43.58356" lon="3.50823">
        <ele>87</ele>
        <time>2022-02-22T14:31:52Z</time>
      </trkpt>
      <trkpt lat="43.58354" lon="3.5082">
        <ele>87</ele>
        <time>2022-02-22T14:31:55Z</time>
      </trkpt>
      <trkpt lat="43.58351" lon="3.50818">
        <ele>87</ele>
        <time>2022-02-22T14:31:58Z</time>
      </trkpt>
      <trkpt lat="43.58348" lon="3.50816">
        <ele>87</ele>
        <time>2022-02-22T14:32:01Z</time>
      </trkpt>
      <trkpt lat="43.58345" lon="3.50814">
        <ele>87</ele>
        <time>2022-02-22T14:32:04Z</time>
      </trkpt>
      <trkpt lat="43.58341" lon="3.50812">
        <ele>87</ele>
        <time>2022-02-22T14:32:07Z</time>
      </trkpt>
      <trkpt lat="43.58338" lon="3.5081">
        <ele>87</ele>
        <time>2022-02-22T14:32:09Z</time>
      </trkpt>
      <trkpt lat="43.58336" lon="3.50807">
        <ele>87</ele>
        <time>2022-02-22T14:32:13Z</time>
      </trkpt>
      <trkpt lat="43.58334" lon="3.50804">
        <ele>87</ele>
        <time>2022-02-22T14:32:20Z</time>
      </trkpt>
      <trkpt lat="43.58333" lon="3.508">
        <ele>87</ele>
        <time>2022-02-22T14:32:24Z</time>
      </trkpt>
      <trkpt lat="43.58332" lon="3.50796">
        <ele>87</ele>
        <time>2022-02-22T14:32:28Z</time>
      </trkpt>
      <trkpt lat="43.58332" lon="3.50792">
        <ele>87</ele>
        <time>2022-02-22T14:32:32Z</time>
      </trkpt>
      <trkpt lat="43.58333" lon="3.50789">
        <ele>87</ele>
        <time>2022-02-22T14:32:38Z</time>
      </trkpt>
      <trkpt lat="43.58335" lon="3.50786">
        <ele>87</ele>
        <time>2022-02-22T14:32:52Z</time>
      </trkpt>
      <trkpt lat="43.58336" lon="3.50782">
        <ele>87</ele>
        <time>2022-02-22T14:32:55Z</time>
      </trkpt>
      <trkpt lat="43.58338" lon="3.50778">
        <ele>87</ele>
        <time>2022-02-22T14:32:59Z</time>
      </trkpt>
      <trkpt lat="43.58339" lon="3.50775">
        <ele>87</ele>
        <time>2022-02-22T14:33:02Z</time>
      </trkpt>
      <trkpt lat="43.58341" lon="3.50771">
        <ele>87</ele>
        <time>2022-02-22T14:33:05Z</time>
      </trkpt>
      <trkpt lat="43.58342" lon="3.50767">
        <ele>87</ele>
        <time>2022-02-22T14:33:08Z</time>
      </trkpt>
      <trkpt lat="43.58343" lon="3.50763">
        <ele>87</ele>
        <time>2022-02-22T14:33:11Z</time>
      </trkpt>
      <trkpt lat="43.58344" lon="3.50759">
        <ele>87</ele>
        <time>2022-02-22T14:33:15Z</time>
      </trkpt>
      <trkpt lat="43.58345" lon="3.50755">
        <ele>87</ele>
        <time>2022-02-22T14:33:19Z</time>
      </trkpt>
      <trkpt lat="43.58346" lon="3.5075">
        <ele>87</ele>
        <time>2022-02-22T14:33:22Z</time>
      </trkpt>
      <trkpt lat="43.58347" lon="3.50747">
        <ele>87</ele>
        <time>2022-02-22T14:33:25Z</time>
      </trkpt>
      <trkpt lat="43.58348" lon="3.50743">
        <ele>87</ele>
        <time>2022-02-22T14:33:29Z</time>
      </trkpt>
      <trkpt lat="43.58349" lon="3.5074">
        <ele>87</ele>
        <time>2022-02-22T14:33:32Z</time>
      </trkpt>
      <trkpt lat="43.5835" lon="3.50735">
        <ele>87</ele>
        <time>2022-02-22T14:33:35Z</time>
      </trkpt>
      <trkpt lat="43.5835" lon="3.50731">
        <ele>87</ele>
        <time>2022-02-22T14:33:40Z</time>
      </trkpt>
      <trkpt lat="43.58349" lon="3.50727">
        <ele>87</ele>
        <time>2022-02-22T14:33:44Z</time>
      </trkpt>
      <trkpt lat="43.58347" lon="3.50724">
        <ele>87</ele>
        <time>2022-02-22T14:33:48Z</time>
      </trkpt>
      <trkpt lat="43.58345" lon="3.50722">
        <ele>87</ele>
        <time>2022-02-22T14:33:53Z</time>
      </trkpt>
      <trkpt lat="43.58343" lon="3.5072">
        <ele>87</ele>
        <time>2022-02-22T14:33:57Z</time>
      </trkpt>
      <trkpt lat="43.5834" lon="3.50719">
        <ele>87</ele>
        <time>2022-02-22T14:34:00Z</time>
      </trkpt>
      <trkpt lat="43.58337" lon="3.50718">
        <ele>87</ele>
        <time>2022-02-22T14:34:04Z</time>
      </trkpt>
      <trkpt lat="43.58333" lon="3.50718">
        <ele>87</ele>
        <time>2022-02-22T14:34:08Z</time>
      </trkpt>
      <trkpt lat="43.5833" lon="3.50717">
        <ele>87</ele>
        <time>2022-02-22T14:34:14Z</time>
      </trkpt>
      <trkpt lat="43.58328" lon="3.50715">
        <ele>87</ele>
        <time>2022-02-22T14:34:32Z</time>
      </trkpt>
      <trkpt lat="43.58329" lon="3.50713">
        <ele>87</ele>
        <time>2022-02-22T14:34:38Z</time>
      </trkpt>
      <trkpt lat="43.58332" lon="3.50711">
        <ele>87</ele>
        <time>2022-02-22T14:34:42Z</time>
      </trkpt>
      <trkpt lat="43.58334" lon="3.50709">
        <ele>87</ele>
        <time>2022-02-22T14:34:45Z</time>
      </trkpt>
      <trkpt lat="43.58337" lon="3.50708">
        <ele>87</ele>
        <time>2022-02-22T14:34:48Z</time>
      </trkpt>
      <trkpt lat="43.5834" lon="3.50707">
        <ele>87</ele>
        <time>2022-02-22T14:34:52Z</time>
      </trkpt>
      <trkpt lat="43.58343" lon="3.50706">
        <ele>87</ele>
        <time>2022-02-22T14:34:59Z</time>
      </trkpt>
      <trkpt lat="43.58347" lon="3.50705">
        <ele>87</ele>
        <time>2022-02-22T14:35:02Z</time>
      </trkpt>
      <trkpt lat="43.5835" lon="3.50705">
        <ele>87</ele>
        <time>2022-02-22T14:35:05Z</time>
      </trkpt>
      <trkpt lat="43.58353" lon="3.50704">
        <ele>87</ele>
        <time>2022-02-22T14:35:08Z</time>
      </trkpt>
      <trkpt lat="43.58356" lon="3.50704">
        <ele>87</ele>
        <time>2022-02-22T14:35:11Z</time>
      </trkpt>
      <trkpt lat="43.58359" lon="3.50703">
        <ele>87</ele>
        <time>2022-02-22T14:35:15Z</time>
      </trkpt>
      <trkpt lat="43.58363" lon="3.50703">
        <ele>87</ele>
        <time>2022-02-22T14:35:18Z</time>
      </trkpt>
      <trkpt lat="43.58367" lon="3.50703">
        <ele>87</ele>
        <time>2022-02-22T14:35:21Z</time>
      </trkpt>
      <trkpt lat="43.5837" lon="3.50703">
        <ele>87</ele>
        <time>2022-02-22T14:35:24Z</time>
      </trkpt>
      <trkpt lat="43.58373" lon="3.50703">
        <ele>87</ele>
        <time>2022-02-22T14:35:27Z</time>
      </trkpt>
      <trkpt lat="43.58376" lon="3.50704">
        <ele>87</ele>
        <time>2022-02-22T14:35:30Z</time>
      </trkpt>
      <trkpt lat="43.58379" lon="3.50706">
        <ele>87</ele>
        <time>2022-02-22T14:35:34Z</time>
      </trkpt>
      <trkpt lat="43.58382" lon="3.50707">
        <ele>87</ele>
        <time>2022-02-22T14:35:37Z</time>
      </trkpt>
      <trkpt lat="43.58385" lon="3.50708">
        <ele>87</ele>
        <time>2022-02-22T14:35:40Z</time>
      </trkpt>
      <trkpt lat="43.58388" lon="3.50709">
        <ele>87</ele>
        <time>2022-02-22T14:35:43Z</time>
      </trkpt>
      <trkpt lat="43.58391" lon="3.50711">
        <ele>87</ele>
        <time>2022-02-22T14:35:46Z</time>
      </trkpt>
      <trkpt lat="43.58394" lon="3.50712">
        <ele>87</ele>
        <time>2022-02-22T14:35:49Z</time>
      </trkpt>
      <trkpt lat="43.58397" lon="3.50714">
        <ele>87</ele>
        <time>2022-02-22T14:35:52Z</time>
      </trkpt>
      <trkpt lat="43.58399" lon="3.50715">
        <ele>87</ele>
        <time>2022-02-22T14:35:55Z</time>
      </trkpt>
      <trkpt lat="43.58402" lon="3.50716">
        <ele>87</ele>
        <time>2022-02-22T14:36:01Z</time>
      </trkpt>
      <trkpt lat="43.58405" lon="3.50716">
        <ele>87</ele>
        <time>2022-02-22T14:36:07Z</time>
      </trkpt>
      <trkpt lat="43.58406" lon="3.50714">
        <ele>87</ele>
        <time>2022-02-22T14:36:15Z</time>
      </trkpt>
      <trkpt lat="43.58406" lon="3.5071">
        <ele>87</ele>
        <time>2022-02-22T14:36:19Z</time>
      </trkpt>
      <trkpt lat="43.58405" lon="3.50707">
        <ele>87</ele>
        <time>2022-02-22T14:36:22Z</time>
      </trkpt>
      <trkpt lat="43.58404" lon="3.50704">
        <ele>87</ele>
        <time>2022-02-22T14:36:25Z</time>
      </trkpt>
      <trkpt lat="43.58402" lon="3.507">
        <ele>87</ele>
        <time>2022-02-22T14:36:28Z</time>
      </trkpt>
      <trkpt lat="43.584" lon="3.50696">
        <ele>87</ele>
        <time>2022-02-22T14:36:31Z</time>
      </trkpt>
      <trkpt lat="43.58399" lon="3.50692">
        <ele>87</ele>
        <time>2022-02-22T14:36:34Z</time>
      </trkpt>
      <trkpt lat="43.58397" lon="3.50689">
        <ele>87</ele>
        <time>2022-02-22T14:36:38Z</time>
      </trkpt>
      <trkpt lat="43.58395" lon="3.50685">
        <ele>87</ele>
        <time>2022-02-22T14:36:42Z</time>
      </trkpt>
      <trkpt lat="43.58393" lon="3.50681">
        <ele>87</ele>
        <time>2022-02-22T14:36:45Z</time>
      </trkpt>
      <trkpt lat="43.58391" lon="3.50678">
        <ele>87</ele>
        <time>2022-02-22T14:36:49Z</time>
      </trkpt>
      <trkpt lat="43.5839" lon="3.50674">
        <ele>87</ele>
        <time>2022-02-22T14:36:53Z</time>
      </trkpt>
      <trkpt lat="43.58389" lon="3.5067">
        <ele>87</ele>
        <time>2022-02-22T14:36:58Z</time>
      </trkpt>
      <trkpt lat="43.58388" lon="3.50666">
        <ele>87</ele>
        <time>2022-02-22T14:37:03Z</time>
      </trkpt>
      <trkpt lat="43.58388" lon="3.50662">
        <ele>87</ele>
        <time>2022-02-22T14:37:08Z</time>
      </trkpt>
      <trkpt lat="43.58386" lon="3.50658">
        <ele>87</ele>
        <time>2022-02-22T14:37:12Z</time>
      </trkpt>
      <trkpt lat="43.58384" lon="3.50655">
        <ele>87</ele>
        <time>2022-02-22T14:37:18Z</time>
      </trkpt>
      <trkpt lat="43.58382" lon="3.50653">
        <ele>87</ele>
        <time>2022-02-22T14:37:21Z</time>
      </trkpt>
      <trkpt lat="43.5838" lon="3.5065">
        <ele>87</ele>
        <time>2022-02-22T14:37:25Z</time>
      </trkpt>
      <trkpt lat="43.58378" lon="3.50647">
        <ele>87</ele>
        <time>2022-02-22T14:37:31Z</time>
      </trkpt>
      <trkpt lat="43.58376" lon="3.50645">
        <ele>87</ele>
        <time>2022-02-22T14:37:39Z</time>
      </trkpt>
      <trkpt lat="43.58373" lon="3.50641">
        <ele>87</ele>
        <time>2022-02-22T14:37:43Z</time>
      </trkpt>
      <trkpt lat="43.58371" lon="3.50638">
        <ele>87</ele>
        <time>2022-02-22T14:37:47Z</time>
      </trkpt>
      <trkpt lat="43.58369" lon="3.50635">
        <ele>87</ele>
        <time>2022-02-22T14:37:51Z</time>
      </trkpt>
      <trkpt lat="43.58367" lon="3.50632">
        <ele>87</ele>
        <time>2022-02-22T14:37:55Z</time>
      </trkpt>
      <trkpt lat="43.58364" lon="3.5063">
        <ele>87</ele>
        <time>2022-02-22T14:37:59Z</time>
      </trkpt>
      <trkpt lat="43.58362" lon="3.50628">
        <ele>87</ele>
        <time>2022-02-22T14:38:02Z</time>
      </trkpt>
      <trkpt lat="43.58359" lon="3.50625">
        <ele>87</ele>
        <time>2022-02-22T14:38:06Z</time>
      </trkpt>
      <trkpt lat="43.58357" lon="3.50622">
        <ele>87</ele>
        <time>2022-02-22T14:38:13Z</time>
      </trkpt>
      <trkpt lat="43.58354" lon="3.5062">
        <ele>87</ele>
        <time>2022-02-22T14:38:17Z</time>
      </trkpt>
      <trkpt lat="43.5835" lon="3.50619">
        <ele>87</ele>
        <time>2022-02-22T14:38:20Z</time>
      </trkpt>
      <trkpt lat="43.58347" lon="3.50616">
        <ele>87</ele>
        <time>2022-02-22T14:38:24Z</time>
      </trkpt>
      <trkpt lat="43.58345" lon="3.50614">
        <ele>87</ele>
        <time>2022-02-22T14:38:28Z</time>
      </trkpt>
      <trkpt lat="43.58342" lon="3.50611">
        <ele>87</ele>
        <time>2022-02-22T14:38:31Z</time>
      </trkpt>
      <trkpt lat="43.58339" lon="3.50609">
        <ele>87</ele>
        <time>2022-02-22T14:38:34Z</time>
      </trkpt>
      <trkpt lat="43.58337" lon="3.50606">
        <ele>87</ele>
        <time>2022-02-22T14:38:37Z</time>
      </trkpt>
      <trkpt lat="43.58334" lon="3.50603">
        <ele>87</ele>
        <time>2022-02-22T14:38:41Z</time>
      </trkpt>
      <trkpt lat="43.58331" lon="3.50602">
        <ele>87</ele>
        <time>2022-02-22T14:38:45Z</time>
      </trkpt>
      <trkpt lat="43.58328" lon="3.506">
        <ele>87</ele>
        <time>2022-02-22T14:38:48Z</time>
      </trkpt>
      <trkpt lat="43.58325" lon="3.50597">
        <ele>87</ele>
        <time>2022-02-22T14:38:51Z</time>
      </trkpt>
      <trkpt lat="43.58322" lon="3.50595">
        <ele>87</ele>
        <time>2022-02-22T14:38:54Z</time>
      </trkpt>
      <trkpt lat="43.58319" lon="3.50594">
        <ele>87</ele>
        <time>2022-02-22T14:38:58Z</time>
      </trkpt>
      <trkpt lat="43.58316" lon="3.50593">
        <ele>87</ele>
        <time>2022-02-22T14:39:02Z</time>
      </trkpt>
      <trkpt lat="43.58313" lon="3.50592">
        <ele>87</ele>
        <time>2022-02-22T14:39:10Z</time>
      </trkpt>
      <trkpt lat="43.58312" lon="3.5059">
        <ele>87</ele>
        <time>2022-02-22T14:40:18Z</time>
      </trkpt>
      <trkpt lat="43.5831" lon="3.50587">
        <ele>87</ele>
        <time>2022-02-22T14:40:21Z</time>
      </trkpt>
      <trkpt lat="43.58308" lon="3.50585">
        <ele>87</ele>
        <time>2022-02-22T14:40:33Z</time>
      </trkpt>
      <trkpt lat="43.58306" lon="3.50581">
        <ele>87</ele>
        <time>2022-02-22T14:40:38Z</time>
      </trkpt>
      <trkpt lat="43.58304" lon="3.50577">
        <ele>87</ele>
        <time>2022-02-22T14:40:47Z</time>
      </trkpt>
      <trkpt lat="43.58303" lon="3.50573">
        <ele>87</ele>
        <time>2022-02-22T14:40:51Z</time>
      </trkpt>
      <trkpt lat="43.58302" lon="3.50569">
        <ele>87</ele>
        <time>2022-02-22T14:40:55Z</time>
      </trkpt>
      <trkpt lat="43.58299" lon="3.50565">
        <ele>87</ele>
        <time>2022-02-22T14:41:38Z</time>
      </trkpt>
      <trkpt lat="43.58298" lon="3.50561">
        <ele>87</ele>
        <time>2022-02-22T14:41:41Z</time>
      </trkpt>
      <trkpt lat="43.58297" lon="3.50558">
        <ele>87</ele>
        <time>2022-02-22T14:41:46Z</time>
      </trkpt>
      <trkpt lat="43.58295" lon="3.50557">
        <ele>87</ele>
        <time>2022-02-22T14:42:11Z</time>
      </trkpt>
      <trkpt lat="43.58292" lon="3.50557">
        <ele>87</ele>
        <time>2022-02-22T14:42:17Z</time>
      </trkpt>
      <trkpt lat="43.5829" lon="3.50555">
        <ele>87</ele>
        <time>2022-02-22T14:42:23Z</time>
      </trkpt>
      <trkpt lat="43.58288" lon="3.50552">
        <ele>87</ele>
        <time>2022-02-22T14:42:29Z</time>
      </trkpt>
      <trkpt lat="43.58287" lon="3.50549">
        <ele>87</ele>
        <time>2022-02-22T14:42:53Z</time>
      </trkpt>
      <trkpt lat="43.58287" lon="3.50545">
        <ele>87</ele>
        <time>2022-02-22T14:42:56Z</time>
      </trkpt>
      <trkpt lat="43.58286" lon="3.50542">
        <ele>87</ele>
        <time>2022-02-22T14:43:01Z</time>
      </trkpt>
      <trkpt lat="43.58284" lon="3.50539">
        <ele>87</ele>
        <time>2022-02-22T14:43:06Z</time>
      </trkpt>
      <trkpt lat="43.58282" lon="3.50535">
        <ele>87</ele>
        <time>2022-02-22T14:43:10Z</time>
      </trkpt>
      <trkpt lat="43.5828" lon="3.50531">
        <ele>87</ele>
        <time>2022-02-22T14:43:14Z</time>
      </trkpt>
      <trkpt lat="43.58279" lon="3.50528">
        <ele>87</ele>
        <time>2022-02-22T14:43:17Z</time>
      </trkpt>
      <trkpt lat="43.58277" lon="3.50524">
        <ele>87</ele>
        <time>2022-02-22T14:43:20Z</time>
      </trkpt>
      <trkpt lat="43.58276" lon="3.5052">
        <ele>87</ele>
        <time>2022-02-22T14:43:24Z</time>
      </trkpt>
      <trkpt lat="43.58274" lon="3.50516">
        <ele>87</ele>
        <time>2022-02-22T14:43:27Z</time>
      </trkpt>
      <trkpt lat="43.58273" lon="3.50512">
        <ele>87</ele>
        <time>2022-02-22T14:43:30Z</time>
      </trkpt>
      <trkpt lat="43.58271" lon="3.50508">
        <ele>87</ele>
        <time>2022-02-22T14:43:33Z</time>
      </trkpt>
      <trkpt lat="43.58269" lon="3.50505">
        <ele>87</ele>
        <time>2022-02-22T14:43:37Z</time>
      </trkpt>
      <trkpt lat="43.58266" lon="3.50502">
        <ele>87</ele>
        <time>2022-02-22T14:43:40Z</time>
      </trkpt>
      <trkpt lat="43.58263" lon="3.50499">
        <ele>87</ele>
        <time>2022-02-22T14:43:44Z</time>
      </trkpt>
      <trkpt lat="43.58261" lon="3.50496">
        <ele>87</ele>
        <time>2022-02-22T14:43:47Z</time>
      </trkpt>
      <trkpt lat="43.58258" lon="3.50493">
        <ele>87</ele>
        <time>2022-02-22T14:43:51Z</time>
      </trkpt>
      <trkpt lat="43.58255" lon="3.5049">
        <ele>87</ele>
        <time>2022-02-22T14:43:54Z</time>
      </trkpt>
      <trkpt lat="43.58252" lon="3.50488">
        <ele>87</ele>
        <time>2022-02-22T14:43:56Z</time>
      </trkpt>
      <trkpt lat="43.5825" lon="3.50485">
        <ele>87</ele>
        <time>2022-02-22T14:43:58Z</time>
      </trkpt>
      <trkpt lat="43.58248" lon="3.50482">
        <ele>87</ele>
        <time>2022-02-22T14:44:01Z</time>
      </trkpt>
      <trkpt lat="43.58246" lon="3.50479">
        <ele>87</ele>
        <time>2022-02-22T14:44:11Z</time>
      </trkpt>
      <trkpt lat="43.58243" lon="3.50477">
        <ele>87</ele>
        <time>2022-02-22T14:44:14Z</time>
      </trkpt>
      <trkpt lat="43.5824" lon="3.50474">
        <ele>87</ele>
        <time>2022-02-22T14:44:17Z</time>
      </trkpt>
      <trkpt lat="43.58238" lon="3.50471">
        <ele>87</ele>
        <time>2022-02-22T14:44:20Z</time>
      </trkpt>
      <trkpt lat="43.58235" lon="3.50468">
        <ele>87</ele>
        <time>2022-02-22T14:44:24Z</time>
      </trkpt>
      <trkpt lat="43.58232" lon="3.50466">
        <ele>87</ele>
        <time>2022-02-22T14:44:28Z</time>
      </trkpt>
      <trkpt lat="43.58229" lon="3.50463">
        <ele>87</ele>
        <time>2022-02-22T14:44:30Z</time>
      </trkpt>
      <trkpt lat="43.58226" lon="3.5046">
        <ele>87</ele>
        <time>2022-02-22T14:44:33Z</time>
      </trkpt>
      <trkpt lat="43.58224" lon="3.50457">
        <ele>87</ele>
        <time>2022-02-22T14:44:38Z</time>
      </trkpt>
      <trkpt lat="43.58222" lon="3.50454">
        <ele>87</ele>
        <time>2022-02-22T14:44:53Z</time>
      </trkpt>
      <trkpt lat="43.58219" lon="3.50451">
        <ele>87</ele>
        <time>2022-02-22T14:44:55Z</time>
      </trkpt>
      <trkpt lat="43.58216" lon="3.50449">
        <ele>87</ele>
        <time>2022-02-22T14:44:59Z</time>
      </trkpt>
      <trkpt lat="43.58214" lon="3.50446">
        <ele>87</ele>
        <time>2022-02-22T14:45:03Z</time>
      </trkpt>
      <trkpt lat="43.58212" lon="3.50443">
        <ele>87</ele>
        <time>2022-02-22T14:45:06Z</time>
      </trkpt>
      <trkpt lat="43.58209" lon="3.50442">
        <ele>87</ele>
        <time>2022-02-22T14:45:10Z</time>
      </trkpt>
      <trkpt lat="43.58205" lon="3.50439">
        <ele>87</ele>
        <time>2022-02-22T14:45:14Z</time>
      </trkpt>
      <trkpt lat="43.58203" lon="3.50436">
        <ele>87</ele>
        <time>2022-02-22T14:45:17Z</time>
      </trkpt>
      <trkpt lat="43.582" lon="3.50433">
        <ele>87</ele>
        <time>2022-02-22T14:45:20Z</time>
      </trkpt>
      <trkpt lat="43.58198" lon="3.5043">
        <ele>87</ele>
        <time>2022-02-22T14:45:23Z</time>
      </trkpt>
      <trkpt lat="43.58195" lon="3.50427">
        <ele>87</ele>
        <time>2022-02-22T14:45:26Z</time>
      </trkpt>
      <trkpt lat="43.58193" lon="3.50424">
        <ele>87</ele>
        <time>2022-02-22T14:45:30Z</time>
      </trkpt>
      <trkpt lat="43.58191" lon="3.50421">
        <ele>87</ele>
        <time>2022-02-22T14:45:33Z</time>
      </trkpt>
      <trkpt lat="43.58189" lon="3.50418">
        <ele>87</ele>
        <time>2022-02-22T14:45:36Z</time>
      </trkpt>
      <trkpt lat="43.58186" lon="3.50415">
        <ele>87</ele>
        <time>2022-02-22T14:45:39Z</time>
      </trkpt>
      <trkpt lat="43.58184" lon="3.50412">
        <ele>87</ele>
        <time>2022-02-22T14:45:42Z</time>
      </trkpt>
      <trkpt lat="43.58181" lon="3.5041">
        <ele>87</ele>
        <time>2022-02-22T14:45:45Z</time>
      </trkpt>
      <trkpt lat="43.58179" lon="3.50407">
        <ele>87</ele>
        <time>2022-02-22T14:45:48Z</time>
      </trkpt>
      <trkpt lat="43.58177" lon="3.50403">
        <ele>87</ele>
        <time>2022-02-22T14:45:56Z</time>
      </trkpt>
      <trkpt lat="43.58175" lon="3.50401">
        <ele>87</ele>
        <time>2022-02-22T14:46:04Z</time>
      </trkpt>
      <trkpt lat="43.58176" lon="3.504">
        <ele>87</ele>
        <time>2022-02-22T14:46:22Z</time>
      </trkpt>
      <trkpt lat="43.58177" lon="3.50397">
        <ele>87</ele>
        <time>2022-02-22T14:46:28Z</time>
      </trkpt>
      <trkpt lat="43.58177" lon="3.50393">
        <ele>87</ele>
        <time>2022-02-22T14:46:32Z</time>
      </trkpt>
      <trkpt lat="43.58175" lon="3.50389">
        <ele>87</ele>
        <time>2022-02-22T14:46:43Z</time>
      </trkpt>
      <trkpt lat="43.58174" lon="3.50385">
        <ele>87</ele>
        <time>2022-02-22T14:46:47Z</time>
      </trkpt>
      <trkpt lat="43.58173" lon="3.50382">
        <ele>87</ele>
        <time>2022-02-22T14:46:50Z</time>
      </trkpt>
      <trkpt lat="43.58173" lon="3.50377">
        <ele>87</ele>
        <time>2022-02-22T14:46:53Z</time>
      </trkpt>
      <trkpt lat="43.58173" lon="3.50373">
        <ele>87</ele>
        <time>2022-02-22T14:46:56Z</time>
      </trkpt>
      <trkpt lat="43.58172" lon="3.50369">
        <ele>87</ele>
        <time>2022-02-22T14:46:59Z</time>
      </trkpt>
      <trkpt lat="43.58172" lon="3.50365">
        <ele>87</ele>
        <time>2022-02-22T14:47:02Z</time>
      </trkpt>
      <trkpt lat="43.58171" lon="3.50361">
        <ele>87</ele>
        <time>2022-02-22T14:47:05Z</time>
      </trkpt>
      <trkpt lat="43.5817" lon="3.50356">
        <ele>87</ele>
        <time>2022-02-22T14:47:08Z</time>
      </trkpt>
      <trkpt lat="43.58169" lon="3.50351">
        <ele>87</ele>
        <time>2022-02-22T14:47:12Z</time>
      </trkpt>
      <trkpt lat="43.58169" lon="3.50347">
        <ele>87</ele>
        <time>2022-02-22T14:47:18Z</time>
      </trkpt>
      <trkpt lat="43.58167" lon="3.50342">
        <ele>87</ele>
        <time>2022-02-22T14:47:31Z</time>
      </trkpt>
      <trkpt lat="43.58165" lon="3.50338">
        <ele>87</ele>
        <time>2022-02-22T14:47:34Z</time>
      </trkpt>
      <trkpt lat="43.58162" lon="3.50335">
        <ele>87</ele>
        <time>2022-02-22T14:47:38Z</time>
      </trkpt>
      <trkpt lat="43.58159" lon="3.50333">
        <ele>87</ele>
        <time>2022-02-22T14:47:42Z</time>
      </trkpt>
      <trkpt lat="43.58157" lon="3.50332">
        <ele>87</ele>
        <time>2022-02-22T14:47:45Z</time>
      </trkpt>
      <trkpt lat="43.58153" lon="3.50332">
        <ele>87</ele>
        <time>2022-02-22T14:47:49Z</time>
      </trkpt>
      <trkpt lat="43.5815" lon="3.50333">
        <ele>87</ele>
        <time>2022-02-22T14:47:51Z</time>
      </trkpt>
      <trkpt lat="43.58147" lon="3.50334">
        <ele>87</ele>
        <time>2022-02-22T14:47:56Z</time>
      </trkpt>
      <trkpt lat="43.58144" lon="3.50334">
        <ele>87</ele>
        <time>2022-02-22T14:47:59Z</time>
      </trkpt>
      <trkpt lat="43.5814" lon="3.50336">
        <ele>87</ele>
        <time>2022-02-22T14:48:02Z</time>
      </trkpt>
      <trkpt lat="43.58137" lon="3.50337">
        <ele>87</ele>
        <time>2022-02-22T14:48:06Z</time>
      </trkpt>
      <trkpt lat="43.58134" lon="3.50337">
        <ele>87</ele>
        <time>2022-02-22T14:48:09Z</time>
      </trkpt>
      <trkpt lat="43.58131" lon="3.50337">
        <ele>87</ele>
        <time>2022-02-22T14:48:13Z</time>
      </trkpt>
      <trkpt lat="43.58128" lon="3.50336">
        <ele>87</ele>
        <time>2022-02-22T14:48:16Z</time>
      </trkpt>
      <trkpt lat="43.58125" lon="3.50335">
        <ele>87</ele>
        <time>2022-02-22T14:48:21Z</time>
      </trkpt>
      <trkpt lat="43.58122" lon="3.50333">
        <ele>87</ele>
        <time>2022-02-22T14:48:25Z</time>
      </trkpt>
      <trkpt lat="43.58119" lon="3.50331">
        <ele>87</ele>
        <time>2022-02-22T14:48:28Z</time>
      </trkpt>
      <trkpt lat="43.58115" lon="3.5033">
        <ele>87</ele>
        <time>2022-02-22T14:48:31Z</time>
      </trkpt>
      <trkpt lat="43.58112" lon="3.50329">
        <ele>87</ele>
        <time>2022-02-22T14:48:34Z</time>
      </trkpt>
      <trkpt lat="43.58109" lon="3.50329">
        <ele>87</ele>
        <time>2022-02-22T14:48:37Z</time>
      </trkpt>
      <trkpt lat="43.58106" lon="3.5033">
        <ele>87</ele>
        <time>2022-02-22T14:48:39Z</time>
      </trkpt>
      <trkpt lat="43.58103" lon="3.5033">
        <ele>87</ele>
        <time>2022-02-22T14:48:42Z</time>
      </trkpt>
      <trkpt lat="43.581" lon="3.50329">
        <ele>87</ele>
        <time>2022-02-22T14:48:45Z</time>
      </trkpt>
      <trkpt lat="43.58096" lon="3.5033">
        <ele>87</ele>
        <time>2022-02-22T14:48:48Z</time>
      </trkpt>
      <trkpt lat="43.58093" lon="3.5033">
        <ele>87</ele>
        <time>2022-02-22T14:48:51Z</time>
      </trkpt>
      <trkpt lat="43.5809" lon="3.50331">
        <ele>87</ele>
        <time>2022-02-22T14:48:54Z</time>
      </trkpt>
      <trkpt lat="43.58087" lon="3.50331">
        <ele>87</ele>
        <time>2022-02-22T14:49:00Z</time>
      </trkpt>
      <trkpt lat="43.58084" lon="3.50332">
        <ele>87</ele>
        <time>2022-02-22T14:49:03Z</time>
      </trkpt>
      <trkpt lat="43.5808" lon="3.50332">
        <ele>87</ele>
        <time>2022-02-22T14:49:06Z</time>
      </trkpt>
      <trkpt lat="43.58077" lon="3.50333">
        <ele>87</ele>
        <time>2022-02-22T14:49:09Z</time>
      </trkpt>
      <trkpt lat="43.58073" lon="3.50333">
        <ele>87</ele>
        <time>2022-02-22T14:49:12Z</time>
      </trkpt>
      <trkpt lat="43.5807" lon="3.50332">
        <ele>87</ele>
        <time>2022-02-22T14:49:15Z</time>
      </trkpt>
      <trkpt lat="43.58067" lon="3.5033">
        <ele>87</ele>
        <time>2022-02-22T14:49:18Z</time>
      </trkpt>
      <trkpt lat="43.58064" lon="3.50328">
        <ele>87</ele>
        <time>2022-02-22T14:49:21Z</time>
      </trkpt>
      <trkpt lat="43.58061" lon="3.50325">
        <ele>87</ele>
        <time>2022-02-22T14:49:24Z</time>
      </trkpt>
      <trkpt lat="43.58058" lon="3.50322">
        <ele>87</ele>
        <time>2022-02-22T14:49:27Z</time>
      </trkpt>
      <trkpt lat="43.58055" lon="3.50319">
        <ele>87</ele>
        <time>2022-02-22T14:49:30Z</time>
      </trkpt>
      <trkpt lat="43.58052" lon="3.50317">
        <ele>87</ele>
        <time>2022-02-22T14:49:33Z</time>
      </trkpt>
      <trkpt lat="43.58049" lon="3.50316">
        <ele>87</ele>
        <time>2022-02-22T14:49:36Z</time>
      </trkpt>
      <trkpt lat="43.58046" lon="3.50316">
        <ele>87</ele>
        <time>2022-02-22T14:49:40Z</time>
      </trkpt>
      <trkpt lat="43.58043" lon="3.50316">
        <ele>87</ele>
        <time>2022-02-22T14:49:43Z</time>
      </trkpt>
      <trkpt lat="43.5804" lon="3.50315">
        <ele>87</ele>
        <time>2022-02-22T14:49:46Z</time>
      </trkpt>
      <trkpt lat="43.58036" lon="3.50316">
        <ele>87</ele>
        <time>2022-02-22T14:49:49Z</time>
      </trkpt>
      <trkpt lat="43.58033" lon="3.50316">
        <ele>87</ele>
        <time>2022-02-22T14:49:52Z</time>
      </trkpt>
      <trkpt lat="43.5803" lon="3.50317">
        <ele>87</ele>
        <time>2022-02-22T14:49:55Z</time>
      </trkpt>
      <trkpt lat="43.58028" lon="3.50318">
        <ele>87</ele>
        <time>2022-02-22T14:49:59Z</time>
      </trkpt>
      <trkpt lat="43.58025" lon="3.50319">
        <ele>87</ele>
        <time>2022-02-22T14:50:03Z</time>
      </trkpt>
      <trkpt lat="43.58021" lon="3.5032">
        <ele>87</ele>
        <time>2022-02-22T14:50:06Z</time>
      </trkpt>
      <trkpt lat="43.58018" lon="3.5032">
        <ele>87</ele>
        <time>2022-02-22T14:50:09Z</time>
      </trkpt>
      <trkpt lat="43.58014" lon="3.50319">
        <ele>87</ele>
        <time>2022-02-22T14:50:12Z</time>
      </trkpt>
      <trkpt lat="43.58011" lon="3.50318">
        <ele>87</ele>
        <time>2022-02-22T14:50:15Z</time>
      </trkpt>
      <trkpt lat="43.58008" lon="3.50317">
        <ele>87</ele>
        <time>2022-02-22T14:50:18Z</time>
      </trkpt>
      <trkpt lat="43.58005" lon="3.50316">
        <ele>87</ele>
        <time>2022-02-22T14:50:21Z</time>
      </trkpt>
      <trkpt lat="43.58002" lon="3.50314">
        <ele>87</ele>
        <time>2022-02-22T14:50:24Z</time>
      </trkpt>
      <trkpt lat="43.57999" lon="3.50311">
        <ele>87</ele>
        <time>2022-02-22T14:50:28Z</time>
      </trkpt>
      <trkpt lat="43.57997" lon="3.50307">
        <ele>87</ele>
        <time>2022-02-22T14:50:31Z</time>
      </trkpt>
      <trkpt lat="43.57996" lon="3.50303">
        <ele>87</ele>
        <time>2022-02-22T14:50:37Z</time>
      </trkpt>
      <trkpt lat="43.57994" lon="3.50299">
        <ele>87</ele>
        <time>2022-02-22T14:50:41Z</time>
      </trkpt>
      <trkpt lat="43.57993" lon="3.50296">
        <ele>87</ele>
        <time>2022-02-22T14:50:45Z</time>
      </trkpt>
      <trkpt lat="43.57991" lon="3.50292">
        <ele>87</ele>
        <time>2022-02-22T14:50:48Z</time>
      </trkpt>
      <trkpt lat="43.57989" lon="3.50289">
        <ele>87</ele>
        <time>2022-02-22T14:50:51Z</time>
      </trkpt>
      <trkpt lat="43.57986" lon="3.50285">
        <ele>87</ele>
        <time>2022-02-22T14:50:54Z</time>
      </trkpt>
      <trkpt lat="43.57983" lon="3.50283">
        <ele>87</ele>
        <time>2022-02-22T14:50:57Z</time>
      </trkpt>
      <trkpt lat="43.5798" lon="3.50282">
        <ele>87</ele>
        <time>2022-02-22T14:51:00Z</time>
      </trkpt>
      <trkpt lat="43.57977" lon="3.50281">
        <ele>87</ele>
        <time>2022-02-22T14:51:04Z</time>
      </trkpt>
      <trkpt lat="43.57974" lon="3.50281">
        <ele>87</ele>
        <time>2022-02-22T14:51:07Z</time>
      </trkpt>
      <trkpt lat="43.57971" lon="3.50283">
        <ele>87</ele>
        <time>2022-02-22T14:51:10Z</time>
      </trkpt>
      <trkpt lat="43.57968" lon="3.50285">
        <ele>87</ele>
        <time>2022-02-22T14:51:13Z</time>
      </trkpt>
      <trkpt lat="43.57965" lon="3.50287">
        <ele>87</ele>
        <time>2022-02-22T14:51:19Z</time>
      </trkpt>
      <trkpt lat="43.57962" lon="3.50289">
        <ele>87</ele>
        <time>2022-02-22T14:51:28Z</time>
      </trkpt>
      <trkpt lat="43.57959" lon="3.5029">
        <ele>87</ele>
        <time>2022-02-22T14:51:31Z</time>
      </trkpt>
      <trkpt lat="43.57956" lon="3.50291">
        <ele>87</ele>
        <time>2022-02-22T14:51:35Z</time>
      </trkpt>
      <trkpt lat="43.57953" lon="3.5029">
        <ele>87</ele>
        <time>2022-02-22T14:51:39Z</time>
      </trkpt>
      <trkpt lat="43.57949" lon="3.50288">
        <ele>87</ele>
        <time>2022-02-22T14:51:42Z</time>
      </trkpt>
      <trkpt lat="43.57946" lon="3.50287">
        <ele>87</ele>
        <time>2022-02-22T14:51:44Z</time>
      </trkpt>
      <trkpt lat="43.57944" lon="3.50285">
        <ele>87</ele>
        <time>2022-02-22T14:51:47Z</time>
      </trkpt>
      <trkpt lat="43.57941" lon="3.50284">
        <ele>87</ele>
        <time>2022-02-22T14:51:50Z</time>
      </trkpt>
      <trkpt lat="43.57938" lon="3.50283">
        <ele>87</ele>
        <time>2022-02-22T14:51:53Z</time>
      </trkpt>
      <trkpt lat="43.57934" lon="3.50283">
        <ele>87</ele>
        <time>2022-02-22T14:51:56Z</time>
      </trkpt>
      <trkpt lat="43.57931" lon="3.50282">
        <ele>87</ele>
        <time>2022-02-22T14:51:59Z</time>
      </trkpt>
      <trkpt lat="43.57927" lon="3.50282">
        <ele>87</ele>
        <time>2022-02-22T14:52:02Z</time>
      </trkpt>
      <trkpt lat="43.57924" lon="3.50281">
        <ele>87</ele>
        <time>2022-02-22T14:52:05Z</time>
      </trkpt>
      <trkpt lat="43.57921" lon="3.5028">
        <ele>87</ele>
        <time>2022-02-22T14:52:08Z</time>
      </trkpt>
      <trkpt lat="43.57918" lon="3.50279">
        <ele>87</ele>
        <time>2022-02-22T14:52:11Z</time>
      </trkpt>
      <trkpt lat="43.57915" lon="3.50277">
        <ele>87</ele>
        <time>2022-02-22T14:52:14Z</time>
      </trkpt>
      <trkpt lat="43.57912" lon="3.50275">
        <ele>87</ele>
        <time>2022-02-22T14:52:17Z</time>
      </trkpt>
      <trkpt lat="43.5791" lon="3.50271">
        <ele>87</ele>
        <time>2022-02-22T14:52:20Z</time>
      </trkpt>
      <trkpt lat="43.57908" lon="3.50267">
        <ele>87</ele>
        <time>2022-02-22T14:52:22Z</time>
      </trkpt>
      <trkpt lat="43.57906" lon="3.50264">
        <ele>87</ele>
        <time>2022-02-22T14:52:25Z</time>
      </trkpt>
      <trkpt lat="43.57904" lon="3.5026">
        <ele>87</ele>
        <time>2022-02-22T14:52:28Z</time>
      </trkpt>
      <trkpt lat="43.57903" lon="3.50257">
        <ele>87</ele>
        <time>2022-02-22T14:52:31Z</time>
      </trkpt>
      <trkpt lat="43.57901" lon="3.50254">
        <ele>87</ele>
        <time>2022-02-22T14:52:34Z</time>
      </trkpt>
      <trkpt lat="43.57899" lon="3.50251">
        <ele>87</ele>
        <time>2022-02-22T14:52:37Z</time>
      </trkpt>
      <trkpt lat="43.57897" lon="3.50247">
        <ele>87</ele>
        <time>2022-02-22T14:52:40Z</time>
      </trkpt>
      <trkpt lat="43.57895" lon="3.50244">
        <ele>87</ele>
        <time>2022-02-22T14:52:43Z</time>
      </trkpt>
      <trkpt lat="43.57892" lon="3.50241">
        <ele>87</ele>
        <time>2022-02-22T14:52:47Z</time>
      </trkpt>
      <trkpt lat="43.5789" lon="3.5024">
        <ele>87</ele>
        <time>2022-02-22T14:52:50Z</time>
      </trkpt>
      <trkpt lat="43.57887" lon="3.50239">
        <ele>87</ele>
        <time>2022-02-22T14:52:54Z</time>
      </trkpt>
      <trkpt lat="43.57883" lon="3.50239">
        <ele>87</ele>
        <time>2022-02-22T14:52:57Z</time>
      </trkpt>
      <trkpt lat="43.5788" lon="3.50239">
        <ele>87</ele>
        <time>2022-02-22T14:53:00Z</time>
      </trkpt>
      <trkpt lat="43.57877" lon="3.50239">
        <ele>87</ele>
        <time>2022-02-22T14:53:03Z</time>
      </trkpt>
      <trkpt lat="43.57874" lon="3.5024">
        <ele>87</ele>
        <time>2022-02-22T14:53:06Z</time>
      </trkpt>
      <trkpt lat="43.5787" lon="3.5024">
        <ele>87</ele>
        <time>2022-02-22T14:53:10Z</time>
      </trkpt>
      <trkpt lat="43.57867" lon="3.50238">
        <ele>87</ele>
        <time>2022-02-22T14:53:13Z</time>
      </trkpt>
      <trkpt lat="43.57864" lon="3.50235">
        <ele>87</ele>
        <time>2022-02-22T14:53:16Z</time>
      </trkpt>
      <trkpt lat="43.57862" lon="3.50232">
        <ele>87</ele>
        <time>2022-02-22T14:53:19Z</time>
      </trkpt>
      <trkpt lat="43.5786" lon="3.50228">
        <ele>87</ele>
        <time>2022-02-22T14:53:22Z</time>
      </trkpt>
      <trkpt lat="43.57857" lon="3.50225">
        <ele>87</ele>
        <time>2022-02-22T14:53:25Z</time>
      </trkpt>
      <trkpt lat="43.57856" lon="3.50222">
        <ele>87</ele>
        <time>2022-02-22T14:53:28Z</time>
      </trkpt>
      <trkpt lat="43.57854" lon="3.50219">
        <ele>87</ele>
        <time>2022-02-22T14:53:31Z</time>
      </trkpt>
      <trkpt lat="43.57852" lon="3.50215">
        <ele>87</ele>
        <time>2022-02-22T14:53:34Z</time>
      </trkpt>
      <trkpt lat="43.5785" lon="3.50211">
        <ele>87</ele>
        <time>2022-02-22T14:53:37Z</time>
      </trkpt>
      <trkpt lat="43.57848" lon="3.50208">
        <ele>87</ele>
        <time>2022-02-22T14:53:40Z</time>
      </trkpt>
      <trkpt lat="43.57847" lon="3.50204">
        <ele>87</ele>
        <time>2022-02-22T14:53:44Z</time>
      </trkpt>
      <trkpt lat="43.57846" lon="3.502">
        <ele>87</ele>
        <time>2022-02-22T14:53:50Z</time>
      </trkpt>
      <trkpt lat="43.57845" lon="3.50195">
        <ele>87</ele>
        <time>2022-02-22T14:53:54Z</time>
      </trkpt>
      <trkpt lat="43.57844" lon="3.50191">
        <ele>87</ele>
        <time>2022-02-22T14:53:57Z</time>
      </trkpt>
      <trkpt lat="43.57843" lon="3.50188">
        <ele>87</ele>
        <time>2022-02-22T14:54:00Z</time>
      </trkpt>
      <trkpt lat="43.57841" lon="3.50184">
        <ele>87</ele>
        <time>2022-02-22T14:54:03Z</time>
      </trkpt>
      <trkpt lat="43.5784" lon="3.50181">
        <ele>87</ele>
        <time>2022-02-22T14:54:06Z</time>
      </trkpt>
      <trkpt lat="43.57838" lon="3.50177">
        <ele>87</ele>
        <time>2022-02-22T14:54:09Z</time>
      </trkpt>
      <trkpt lat="43.57837" lon="3.50174">
        <ele>87</ele>
        <time>2022-02-22T14:54:13Z</time>
      </trkpt>
      <trkpt lat="43.57836" lon="3.5017">
        <ele>87</ele>
        <time>2022-02-22T14:54:18Z</time>
      </trkpt>
      <trkpt lat="43.57835" lon="3.50165">
        <ele>87</ele>
        <time>2022-02-22T14:54:22Z</time>
      </trkpt>
      <trkpt lat="43.57835" lon="3.50161">
        <ele>87</ele>
        <time>2022-02-22T14:54:26Z</time>
      </trkpt>
      <trkpt lat="43.57834" lon="3.50157">
        <ele>87</ele>
        <time>2022-02-22T14:54:30Z</time>
      </trkpt>
      <trkpt lat="43.57835" lon="3.50152">
        <ele>87</ele>
        <time>2022-02-22T14:54:34Z</time>
      </trkpt>
      <trkpt lat="43.57835" lon="3.50148">
        <ele>87</ele>
        <time>2022-02-22T14:54:37Z</time>
      </trkpt>
      <trkpt lat="43.57836" lon="3.50144">
        <ele>87</ele>
        <time>2022-02-22T14:54:41Z</time>
      </trkpt>
      <trkpt lat="43.57837" lon="3.5014">
        <ele>87</ele>
        <time>2022-02-22T14:54:45Z</time>
      </trkpt>
      <trkpt lat="43.57838" lon="3.50136">
        <ele>87</ele>
        <time>2022-02-22T14:54:48Z</time>
      </trkpt>
      <trkpt lat="43.57839" lon="3.50132">
        <ele>87</ele>
        <time>2022-02-22T14:54:51Z</time>
      </trkpt>
      <trkpt lat="43.5784" lon="3.50128">
        <ele>87</ele>
        <time>2022-02-22T14:54:55Z</time>
      </trkpt>
      <trkpt lat="43.57841" lon="3.50123">
        <ele>87</ele>
        <time>2022-02-22T14:54:59Z</time>
      </trkpt>
      <trkpt lat="43.57842" lon="3.50119">
        <ele>87</ele>
        <time>2022-02-22T14:55:02Z</time>
      </trkpt>
      <trkpt lat="43.57844" lon="3.50115">
        <ele>87</ele>
        <time>2022-02-22T14:55:05Z</time>
      </trkpt>
      <trkpt lat="43.57845" lon="3.50111">
        <ele>87</ele>
        <time>2022-02-22T14:55:09Z</time>
      </trkpt>
      <trkpt lat="43.57846" lon="3.50107">
        <ele>87</ele>
        <time>2022-02-22T14:55:12Z</time>
      </trkpt>
      <trkpt lat="43.57847" lon="3.50103">
        <ele>87</ele>
        <time>2022-02-22T14:55:15Z</time>
      </trkpt>
      <trkpt lat="43.57847" lon="3.50099">
        <ele>87</ele>
        <time>2022-02-22T14:55:18Z</time>
      </trkpt>
      <trkpt lat="43.57847" lon="3.50094">
        <ele>87</ele>
        <time>2022-02-22T14:55:21Z</time>
      </trkpt>
      <trkpt lat="43.57846" lon="3.50089">
        <ele>87</ele>
        <time>2022-02-22T14:55:24Z</time>
      </trkpt>
      <trkpt lat="43.57844" lon="3.50086">
        <ele>87</ele>
        <time>2022-02-22T14:55:27Z</time>
      </trkpt>
      <trkpt lat="43.57842" lon="3.50082">
        <ele>87</ele>
        <time>2022-02-22T14:55:30Z</time>
      </trkpt>
      <trkpt lat="43.5784" lon="3.50079">
        <ele>87</ele>
        <time>2022-02-22T14:55:33Z</time>
      </trkpt>
      <trkpt lat="43.57838" lon="3.50076">
        <ele>87</ele>
        <time>2022-02-22T14:55:37Z</time>
      </trkpt>
      <trkpt lat="43.57836" lon="3.50073">
        <ele>87</ele>
        <time>2022-02-22T14:55:40Z</time>
      </trkpt>
      <trkpt lat="43.57833" lon="3.5007">
        <ele>87</ele>
        <time>2022-02-22T14:55:44Z</time>
      </trkpt>
      <trkpt lat="43.57831" lon="3.50067">
        <ele>87</ele>
        <time>2022-02-22T14:55:47Z</time>
      </trkpt>
      <trkpt lat="43.57829" lon="3.50063">
        <ele>87</ele>
        <time>2022-02-22T14:55:50Z</time>
      </trkpt>
      <trkpt lat="43.57827" lon="3.50059">
        <ele>87</ele>
        <time>2022-02-22T14:55:53Z</time>
      </trkpt>
      <trkpt lat="43.57825" lon="3.50055">
        <ele>87</ele>
        <time>2022-02-22T14:55:56Z</time>
      </trkpt>
      <trkpt lat="43.57824" lon="3.50051">
        <ele>87</ele>
        <time>2022-02-22T14:56:00Z</time>
      </trkpt>
      <trkpt lat="43.57823" lon="3.50047">
        <ele>87</ele>
        <time>2022-02-22T14:56:03Z</time>
      </trkpt>
      <trkpt lat="43.57822" lon="3.50043">
        <ele>87</ele>
        <time>2022-02-22T14:56:08Z</time>
      </trkpt>
      <trkpt lat="43.5782" lon="3.50039">
        <ele>87</ele>
        <time>2022-02-22T14:56:13Z</time>
      </trkpt>
      <trkpt lat="43.57818" lon="3.50036">
        <ele>87</ele>
        <time>2022-02-22T14:56:15Z</time>
      </trkpt>
      <trkpt lat="43.57816" lon="3.50033">
        <ele>87</ele>
        <time>2022-02-22T14:56:17Z</time>
      </trkpt>
      <trkpt lat="43.57814" lon="3.50029">
        <ele>87</ele>
        <time>2022-02-22T14:56:20Z</time>
      </trkpt>
      <trkpt lat="43.57812" lon="3.50026">
        <ele>87</ele>
        <time>2022-02-22T14:56:23Z</time>
      </trkpt>
      <trkpt lat="43.5781" lon="3.50023">
        <ele>87</ele>
        <time>2022-02-22T14:56:26Z</time>
      </trkpt>
      <trkpt lat="43.57808" lon="3.50019">
        <ele>87</ele>
        <time>2022-02-22T14:56:29Z</time>
      </trkpt>
      <trkpt lat="43.57805" lon="3.50016">
        <ele>87</ele>
        <time>2022-02-22T14:56:33Z</time>
      </trkpt>
      <trkpt lat="43.57802" lon="3.50013">
        <ele>87</ele>
        <time>2022-02-22T14:56:37Z</time>
      </trkpt>
      <trkpt lat="43.578" lon="3.5001">
        <ele>87</ele>
        <time>2022-02-22T14:56:40Z</time>
      </trkpt>
      <trkpt lat="43.57797" lon="3.50006">
        <ele>87</ele>
        <time>2022-02-22T14:56:43Z</time>
      </trkpt>
      <trkpt lat="43.57794" lon="3.50003">
        <ele>87</ele>
        <time>2022-02-22T14:56:47Z</time>
      </trkpt>
      <trkpt lat="43.57791" lon="3.5">
        <ele>87</ele>
        <time>2022-02-22T14:56:51Z</time>
      </trkpt>
      <trkpt lat="43.57788" lon="3.49997">
        <ele>87</ele>
        <time>2022-02-22T14:56:54Z</time>
      </trkpt>
      <trkpt lat="43.57786" lon="3.49994">
        <ele>87</ele>
        <time>2022-02-22T14:56:57Z</time>
      </trkpt>
      <trkpt lat="43.57783" lon="3.49991">
        <ele>87</ele>
        <time>2022-02-22T14:57:00Z</time>
      </trkpt>
      <trkpt lat="43.5778" lon="3.49988">
        <ele>87</ele>
        <time>2022-02-22T14:57:03Z</time>
      </trkpt>
      <trkpt lat="43.57777" lon="3.49986">
        <ele>87</ele>
        <time>2022-02-22T14:57:07Z</time>
      </trkpt>
      <trkpt lat="43.57774" lon="3.49984">
        <ele>87</ele>
        <time>2022-02-22T14:57:11Z</time>
      </trkpt>
      <trkpt lat="43.57771" lon="3.49981">
        <ele>87</ele>
        <time>2022-02-22T14:57:14Z</time>
      </trkpt>
      <trkpt lat="43.57768" lon="3.49979">
        <ele>87</ele>
        <time>2022-02-22T14:57:17Z</time>
      </trkpt>
      <trkpt lat="43.57765" lon="3.49976">
        <ele>87</ele>
        <time>2022-02-22T14:57:20Z</time>
      </trkpt>
      <trkpt lat="43.57762" lon="3.49973">
        <ele>87</ele>
        <time>2022-02-22T14:57:23Z</time>
      </trkpt>
      <trkpt lat="43.57759" lon="3.49971">
        <ele>87</ele>
        <time>2022-02-22T14:57:26Z</time>
      </trkpt>
      <trkpt lat="43.57756" lon="3.49969">
        <ele>87</ele>
        <time>2022-02-22T14:57:29Z</time>
      </trkpt>
      <trkpt lat="43.57754" lon="3.49967">
        <ele>87</ele>
        <time>2022-02-22T14:57:37Z</time>
      </trkpt>
      <trkpt lat="43.57751" lon="3.49965">
        <ele>87</ele>
        <time>2022-02-22T14:57:40Z</time>
      </trkpt>
      <trkpt lat="43.57748" lon="3.49964">
        <ele>87</ele>
        <time>2022-02-22T14:57:43Z</time>
      </trkpt>
      <trkpt lat="43.57745" lon="3.49962">
        <ele>87</ele>
        <time>2022-02-22T14:57:47Z</time>
      </trkpt>
      <trkpt lat="43.57741" lon="3.4996">
        <ele>87</ele>
        <time>2022-02-22T14:57:51Z</time>
      </trkpt>
      <trkpt lat="43.57738" lon="3.49958">
        <ele>87</ele>
        <time>2022-02-22T14:57:55Z</time>
      </trkpt>
      <trkpt lat="43.57736" lon="3.49956">
        <ele>87</ele>
        <time>2022-02-22T14:57:58Z</time>
      </trkpt>
      <trkpt lat="43.57733" lon="3.49954">
        <ele>87</ele>
        <time>2022-02-22T14:58:01Z</time>
      </trkpt>
      <trkpt lat="43.5773" lon="3.49952">
        <ele>87</ele>
        <time>2022-02-22T14:58:04Z</time>
      </trkpt>
      <trkpt lat="43.57727" lon="3.4995">
        <ele>87</ele>
        <time>2022-02-22T14:58:07Z</time>
      </trkpt>
      <trkpt lat="43.57725" lon="3.49948">
        <ele>87</ele>
        <time>2022-02-22T14:58:10Z</time>
      </trkpt>
      <trkpt lat="43.57722" lon="3.49947">
        <ele>87</ele>
        <time>2022-02-22T14:58:18Z</time>
      </trkpt>
      <trkpt lat="43.57719" lon="3.49947">
        <ele>87</ele>
        <time>2022-02-22T14:58:42Z</time>
      </trkpt>
      <trkpt lat="43.57716" lon="3.49947">
        <ele>87</ele>
        <time>2022-02-22T14:58:58Z</time>
      </trkpt>
      <trkpt lat="43.57713" lon="3.49947">
        <ele>87</ele>
        <time>2022-02-22T14:59:01Z</time>
      </trkpt>
      <trkpt lat="43.5771" lon="3.49948">
        <ele>87</ele>
        <time>2022-02-22T14:59:03Z</time>
      </trkpt>
      <trkpt lat="43.57707" lon="3.49949">
        <ele>87</ele>
        <time>2022-02-22T14:59:06Z</time>
      </trkpt>
      <trkpt lat="43.57704" lon="3.49949">
        <ele>87</ele>
        <time>2022-02-22T14:59:09Z</time>
      </trkpt>
      <trkpt lat="43.57701" lon="3.4995">
        <ele>87</ele>
        <time>2022-02-22T14:59:12Z</time>
      </trkpt>
      <trkpt lat="43.57697" lon="3.49951">
        <ele>87</ele>
        <time>2022-02-22T14:59:15Z</time>
      </trkpt>
      <trkpt lat="43.57694" lon="3.49951">
        <ele>87</ele>
        <time>2022-02-22T14:59:18Z</time>
      </trkpt>
      <trkpt lat="43.57691" lon="3.4995">
        <ele>87</ele>
        <time>2022-02-22T14:59:21Z</time>
      </trkpt>
      <trkpt lat="43.57687" lon="3.49949">
        <ele>87</ele>
        <time>2022-02-22T14:59:24Z</time>
      </trkpt>
      <trkpt lat="43.57684" lon="3.49947">
        <ele>87</ele>
        <time>2022-02-22T14:59:27Z</time>
      </trkpt>
      <trkpt lat="43.57681" lon="3.49945">
        <ele>87</ele>
        <time>2022-02-22T14:59:30Z</time>
      </trkpt>
      <trkpt lat="43.57678" lon="3.49943">
        <ele>87</ele>
        <time>2022-02-22T14:59:33Z</time>
      </trkpt>
      <trkpt lat="43.57674" lon="3.49941">
        <ele>87</ele>
        <time>2022-02-22T14:59:36Z</time>
      </trkpt>
      <trkpt lat="43.57672" lon="3.49939">
        <ele>87</ele>
        <time>2022-02-22T14:59:38Z</time>
      </trkpt>
      <trkpt lat="43.57668" lon="3.49937">
        <ele>87</ele>
        <time>2022-02-22T14:59:42Z</time>
      </trkpt>
      <trkpt lat="43.57665" lon="3.49933">
        <ele>87</ele>
        <time>2022-02-22T14:59:45Z</time>
      </trkpt>
      <trkpt lat="43.57663" lon="3.49931">
        <ele>87</ele>
        <time>2022-02-22T14:59:48Z</time>
      </trkpt>
      <trkpt lat="43.5766" lon="3.49929">
        <ele>87</ele>
        <time>2022-02-22T15:00:03Z</time>
      </trkpt>
      <trkpt lat="43.57656" lon="3.49927">
        <ele>87</ele>
        <time>2022-02-22T15:00:07Z</time>
      </trkpt>
      <trkpt lat="43.57653" lon="3.49925">
        <ele>87</ele>
        <time>2022-02-22T15:00:35Z</time>
      </trkpt>
      <trkpt lat="43.5765" lon="3.49924">
        <ele>87</ele>
        <time>2022-02-22T15:00:39Z</time>
      </trkpt>
      <trkpt lat="43.57646" lon="3.49922">
        <ele>87</ele>
        <time>2022-02-22T15:00:42Z</time>
      </trkpt>
      <trkpt lat="43.57643" lon="3.49919">
        <ele>87</ele>
        <time>2022-02-22T15:00:45Z</time>
      </trkpt>
      <trkpt lat="43.5764" lon="3.49917">
        <ele>87</ele>
        <time>2022-02-22T15:00:48Z</time>
      </trkpt>
      <trkpt lat="43.57637" lon="3.49915">
        <ele>87</ele>
        <time>2022-02-22T15:00:51Z</time>
      </trkpt>
      <trkpt lat="43.57633" lon="3.49914">
        <ele>87</ele>
        <time>2022-02-22T15:00:54Z</time>
      </trkpt>
      <trkpt lat="43.5763" lon="3.49912">
        <ele>87</ele>
        <time>2022-02-22T15:00:57Z</time>
      </trkpt>
      <trkpt lat="43.57628" lon="3.4991">
        <ele>87</ele>
        <time>2022-02-22T15:01:00Z</time>
      </trkpt>
      <trkpt lat="43.57625" lon="3.49907">
        <ele>87</ele>
        <time>2022-02-22T15:01:03Z</time>
      </trkpt>
      <trkpt lat="43.57622" lon="3.49905">
        <ele>87</ele>
        <time>2022-02-22T15:01:08Z</time>
      </trkpt>
      <trkpt lat="43.57619" lon="3.49903">
        <ele>87</ele>
        <time>2022-02-22T15:01:11Z</time>
      </trkpt>
      <trkpt lat="43.57616" lon="3.499">
        <ele>87</ele>
        <time>2022-02-22T15:01:13Z</time>
      </trkpt>
      <trkpt lat="43.57613" lon="3.49898">
        <ele>87</ele>
        <time>2022-02-22T15:01:16Z</time>
      </trkpt>
      <trkpt lat="43.5761" lon="3.49895">
        <ele>87</ele>
        <time>2022-02-22T15:01:19Z</time>
      </trkpt>
      <trkpt lat="43.57607" lon="3.49892">
        <ele>87</ele>
        <time>2022-02-22T15:01:22Z</time>
      </trkpt>
      <trkpt lat="43.57604" lon="3.4989">
        <ele>87</ele>
        <time>2022-02-22T15:01:26Z</time>
      </trkpt>
      <trkpt lat="43.57601" lon="3.49887">
        <ele>87</ele>
        <time>2022-02-22T15:01:28Z</time>
      </trkpt>
      <trkpt lat="43.57599" lon="3.49885">
        <ele>87</ele>
        <time>2022-02-22T15:01:31Z</time>
      </trkpt>
      <trkpt lat="43.57596" lon="3.49883">
        <ele>87</ele>
        <time>2022-02-22T15:01:41Z</time>
      </trkpt>
      <trkpt lat="43.57594" lon="3.4988">
        <ele>87</ele>
        <time>2022-02-22T15:02:07Z</time>
      </trkpt>
      <trkpt lat="43.57591" lon="3.49878">
        <ele>87</ele>
        <time>2022-02-22T15:02:10Z</time>
      </trkpt>
      <trkpt lat="43.57589" lon="3.49876">
        <ele>87</ele>
        <time>2022-02-22T15:02:13Z</time>
      </trkpt>
      <trkpt lat="43.57586" lon="3.49873">
        <ele>87</ele>
        <time>2022-02-22T15:02:16Z</time>
      </trkpt>
      <trkpt lat="43.57584" lon="3.49871">
        <ele>87</ele>
        <time>2022-02-22T15:02:19Z</time>
      </trkpt>
      <trkpt lat="43.57582" lon="3.49868">
        <ele>87</ele>
        <time>2022-02-22T15:02:22Z</time>
      </trkpt>
      <trkpt lat="43.57579" lon="3.49866">
        <ele>87</ele>
        <time>2022-02-22T15:02:24Z</time>
      </trkpt>
      <trkpt lat="43.57577" lon="3.49862">
        <ele>87</ele>
        <time>2022-02-22T15:02:27Z</time>
      </trkpt>
      <trkpt lat="43.57575" lon="3.49859">
        <ele>87</ele>
        <time>2022-02-22T15:02:30Z</time>
      </trkpt>
      <trkpt lat="43.57573" lon="3.49856">
        <ele>87</ele>
        <time>2022-02-22T15:02:32Z</time>
      </trkpt>
      <trkpt lat="43.57571" lon="3.49852">
        <ele>87</ele>
        <time>2022-02-22T15:02:35Z</time>
      </trkpt>
      <trkpt lat="43.5757" lon="3.49849">
        <ele>87</ele>
        <time>2022-02-22T15:02:38Z</time>
      </trkpt>
      <trkpt lat="43.57569" lon="3.49845">
        <ele>87</ele>
        <time>2022-02-22T15:02:43Z</time>
      </trkpt>
      <trkpt lat="43.57567" lon="3.49842">
        <ele>87</ele>
        <time>2022-02-22T15:02:46Z</time>
      </trkpt>
      <trkpt lat="43.57565" lon="3.49838">
        <ele>87</ele>
        <time>2022-02-22T15:02:49Z</time>
      </trkpt>
      <trkpt lat="43.57563" lon="3.49835">
        <ele>87</ele>
        <time>2022-02-22T15:02:52Z</time>
      </trkpt>
      <trkpt lat="43.57561" lon="3.49831">
        <ele>87</ele>
        <time>2022-02-22T15:02:56Z</time>
      </trkpt>
      <trkpt lat="43.57559" lon="3.49827">
        <ele>87</ele>
        <time>2022-02-22T15:02:59Z</time>
      </trkpt>
      <trkpt lat="43.57557" lon="3.49823">
        <ele>87</ele>
        <time>2022-02-22T15:03:02Z</time>
      </trkpt>
      <trkpt lat="43.57556" lon="3.49819">
        <ele>87</ele>
        <time>2022-02-22T15:03:05Z</time>
      </trkpt>
      <trkpt lat="43.57555" lon="3.49815">
        <ele>87</ele>
        <time>2022-02-22T15:03:08Z</time>
      </trkpt>
      <trkpt lat="43.57553" lon="3.49811">
        <ele>87</ele>
        <time>2022-02-22T15:03:11Z</time>
      </trkpt>
      <trkpt lat="43.57551" lon="3.49807">
        <ele>87</ele>
        <time>2022-02-22T15:03:15Z</time>
      </trkpt>
      <trkpt lat="43.57549" lon="3.49804">
        <ele>87</ele>
        <time>2022-02-22T15:03:18Z</time>
      </trkpt>
      <trkpt lat="43.57546" lon="3.498">
        <ele>87</ele>
        <time>2022-02-22T15:03:21Z</time>
      </trkpt>
      <trkpt lat="43.57544" lon="3.49798">
        <ele>87</ele>
        <time>2022-02-22T15:03:24Z</time>
      </trkpt>
      <trkpt lat="43.57541" lon="3.49797">
        <ele>87</ele>
        <time>2022-02-22T15:03:28Z</time>
      </trkpt>
      <trkpt lat="43.57538" lon="3.49795">
        <ele>87</ele>
        <time>2022-02-22T15:03:31Z</time>
      </trkpt>
      <trkpt lat="43.57534" lon="3.49794">
        <ele>87</ele>
        <time>2022-02-22T15:03:34Z</time>
      </trkpt>
      <trkpt lat="43.57531" lon="3.49794">
        <ele>87</ele>
        <time>2022-02-22T15:03:36Z</time>
      </trkpt>
      <trkpt lat="43.57528" lon="3.49794">
        <ele>87</ele>
        <time>2022-02-22T15:03:39Z</time>
      </trkpt>
      <trkpt lat="43.57524" lon="3.49794">
        <ele>87</ele>
        <time>2022-02-22T15:03:42Z</time>
      </trkpt>
      <trkpt lat="43.57521" lon="3.49794">
        <ele>87</ele>
        <time>2022-02-22T15:03:45Z</time>
      </trkpt>
      <trkpt lat="43.57517" lon="3.49794">
        <ele>87</ele>
        <time>2022-02-22T15:03:48Z</time>
      </trkpt>
      <trkpt lat="43.57514" lon="3.49794">
        <ele>87</ele>
        <time>2022-02-22T15:03:51Z</time>
      </trkpt>
      <trkpt lat="43.57511" lon="3.49794">
        <ele>87</ele>
        <time>2022-02-22T15:03:53Z</time>
      </trkpt>
      <trkpt lat="43.57508" lon="3.49795">
        <ele>87</ele>
        <time>2022-02-22T15:03:56Z</time>
      </trkpt>
      <trkpt lat="43.57505" lon="3.49795">
        <ele>87</ele>
        <time>2022-02-22T15:03:59Z</time>
      </trkpt>
      <trkpt lat="43.57501" lon="3.49795">
        <ele>87</ele>
        <time>2022-02-22T15:04:02Z</time>
      </trkpt>
      <trkpt lat="43.57497" lon="3.49794">
        <ele>87</ele>
        <time>2022-02-22T15:04:05Z</time>
      </trkpt>
      <trkpt lat="43.57494" lon="3.49793">
        <ele>87</ele>
        <time>2022-02-22T15:04:08Z</time>
      </trkpt>
      <trkpt lat="43.57491" lon="3.49792">
        <ele>87</ele>
        <time>2022-02-22T15:04:11Z</time>
      </trkpt>
      <trkpt lat="43.57487" lon="3.4979">
        <ele>87</ele>
        <time>2022-02-22T15:04:14Z</time>
      </trkpt>
      <trkpt lat="43.57485" lon="3.49787">
        <ele>87</ele>
        <time>2022-02-22T15:04:17Z</time>
      </trkpt>
      <trkpt lat="43.57484" lon="3.49783">
        <ele>87</ele>
        <time>2022-02-22T15:04:19Z</time>
      </trkpt>
      <trkpt lat="43.57483" lon="3.49779">
        <ele>87</ele>
        <time>2022-02-22T15:04:22Z</time>
      </trkpt>
      <trkpt lat="43.57483" lon="3.49775">
        <ele>87</ele>
        <time>2022-02-22T15:04:25Z</time>
      </trkpt>
      <trkpt lat="43.57482" lon="3.49771">
        <ele>87</ele>
        <time>2022-02-22T15:04:28Z</time>
      </trkpt>
      <trkpt lat="43.57482" lon="3.49765">
        <ele>87</ele>
        <time>2022-02-22T15:04:31Z</time>
      </trkpt>
      <trkpt lat="43.57482" lon="3.49761">
        <ele>87</ele>
        <time>2022-02-22T15:04:35Z</time>
      </trkpt>
      <trkpt lat="43.57481" lon="3.49756">
        <ele>87</ele>
        <time>2022-02-22T15:04:39Z</time>
      </trkpt>
      <trkpt lat="43.57481" lon="3.49752">
        <ele>87</ele>
        <time>2022-02-22T15:04:41Z</time>
      </trkpt>
      <trkpt lat="43.57479" lon="3.49748">
        <ele>87</ele>
        <time>2022-02-22T15:04:43Z</time>
      </trkpt>
      <trkpt lat="43.57478" lon="3.49745">
        <ele>87</ele>
        <time>2022-02-22T15:04:45Z</time>
      </trkpt>
      <trkpt lat="43.57476" lon="3.49741">
        <ele>87</ele>
        <time>2022-02-22T15:04:48Z</time>
      </trkpt>
      <trkpt lat="43.57474" lon="3.49738">
        <ele>87</ele>
        <time>2022-02-22T15:04:51Z</time>
      </trkpt>
      <trkpt lat="43.57471" lon="3.49735">
        <ele>87</ele>
        <time>2022-02-22T15:04:54Z</time>
      </trkpt>
      <trkpt lat="43.57469" lon="3.49733">
        <ele>87</ele>
        <time>2022-02-22T15:04:57Z</time>
      </trkpt>
      <trkpt lat="43.57466" lon="3.49731">
        <ele>87</ele>
        <time>2022-02-22T15:05:00Z</time>
      </trkpt>
      <trkpt lat="43.57463" lon="3.49729">
        <ele>87</ele>
        <time>2022-02-22T15:05:03Z</time>
      </trkpt>
      <trkpt lat="43.5746" lon="3.49727">
        <ele>87</ele>
        <time>2022-02-22T15:05:06Z</time>
      </trkpt>
      <trkpt lat="43.57457" lon="3.49726">
        <ele>87</ele>
        <time>2022-02-22T15:05:09Z</time>
      </trkpt>
      <trkpt lat="43.57454" lon="3.49726">
        <ele>87</ele>
        <time>2022-02-22T15:05:12Z</time>
      </trkpt>
      <trkpt lat="43.57451" lon="3.49725">
        <ele>87</ele>
        <time>2022-02-22T15:05:15Z</time>
      </trkpt>
      <trkpt lat="43.57448" lon="3.49724">
        <ele>87</ele>
        <time>2022-02-22T15:05:17Z</time>
      </trkpt>
      <trkpt lat="43.57445" lon="3.49722">
        <ele>87</ele>
        <time>2022-02-22T15:05:20Z</time>
      </trkpt>
      <trkpt lat="43.57443" lon="3.49719">
        <ele>87</ele>
        <time>2022-02-22T15:05:24Z</time>
      </trkpt>
      <trkpt lat="43.5744" lon="3.49716">
        <ele>87</ele>
        <time>2022-02-22T15:05:27Z</time>
      </trkpt>
      <trkpt lat="43.57438" lon="3.49712">
        <ele>87</ele>
        <time>2022-02-22T15:05:30Z</time>
      </trkpt>
      <trkpt lat="43.57436" lon="3.49708">
        <ele>87</ele>
        <time>2022-02-22T15:05:34Z</time>
      </trkpt>
      <trkpt lat="43.57435" lon="3.49704">
        <ele>87</ele>
        <time>2022-02-22T15:05:38Z</time>
      </trkpt>
      <trkpt lat="43.57436" lon="3.497">
        <ele>87</ele>
        <time>2022-02-22T15:05:52Z</time>
      </trkpt>
      <trkpt lat="43.57436" lon="3.49695">
        <ele>87</ele>
        <time>2022-02-22T15:05:55Z</time>
      </trkpt>
      <trkpt lat="43.57437" lon="3.49691">
        <ele>87</ele>
        <time>2022-02-22T15:05:57Z</time>
      </trkpt>
      <trkpt lat="43.57437" lon="3.49686">
        <ele>87</ele>
        <time>2022-02-22T15:06:00Z</time>
      </trkpt>
      <trkpt lat="43.57437" lon="3.49682">
        <ele>87</ele>
        <time>2022-02-22T15:06:04Z</time>
      </trkpt>
      <trkpt lat="43.57437" lon="3.49677">
        <ele>87</ele>
        <time>2022-02-22T15:06:07Z</time>
      </trkpt>
      <trkpt lat="43.57437" lon="3.49672">
        <ele>87</ele>
        <time>2022-02-22T15:06:10Z</time>
      </trkpt>
      <trkpt lat="43.57437" lon="3.49668">
        <ele>87</ele>
        <time>2022-02-22T15:06:15Z</time>
      </trkpt>
      <trkpt lat="43.57436" lon="3.49664">
        <ele>87</ele>
        <time>2022-02-22T15:06:18Z</time>
      </trkpt>
      <trkpt lat="43.57435" lon="3.49659">
        <ele>87</ele>
        <time>2022-02-22T15:06:21Z</time>
      </trkpt>
      <trkpt lat="43.57434" lon="3.49656">
        <ele>87</ele>
        <time>2022-02-22T15:06:24Z</time>
      </trkpt>
      <trkpt lat="43.57433" lon="3.49652">
        <ele>87</ele>
        <time>2022-02-22T15:06:27Z</time>
      </trkpt>
      <trkpt lat="43.57434" lon="3.49647">
        <ele>87</ele>
        <time>2022-02-22T15:06:30Z</time>
      </trkpt>
      <trkpt lat="43.57434" lon="3.49642">
        <ele>87</ele>
        <time>2022-02-22T15:06:34Z</time>
      </trkpt>
      <trkpt lat="43.57435" lon="3.49638">
        <ele>87</ele>
        <time>2022-02-22T15:06:38Z</time>
      </trkpt>
      <trkpt lat="43.57436" lon="3.49634">
        <ele>87</ele>
        <time>2022-02-22T15:06:41Z</time>
      </trkpt>
      <trkpt lat="43.57436" lon="3.4963">
        <ele>87</ele>
        <time>2022-02-22T15:06:45Z</time>
      </trkpt>
      <trkpt lat="43.57438" lon="3.49626">
        <ele>87</ele>
        <time>2022-02-22T15:06:49Z</time>
      </trkpt>
      <trkpt lat="43.57439" lon="3.49621">
        <ele>87</ele>
        <time>2022-02-22T15:06:52Z</time>
      </trkpt>
      <trkpt lat="43.5744" lon="3.49617">
        <ele>87</ele>
        <time>2022-02-22T15:06:55Z</time>
      </trkpt>
      <trkpt lat="43.57441" lon="3.49614">
        <ele>87</ele>
        <time>2022-02-22T15:06:58Z</time>
      </trkpt>
      <trkpt lat="43.57443" lon="3.49611">
        <ele>87</ele>
        <time>2022-02-22T15:07:02Z</time>
      </trkpt>
      <trkpt lat="43.57444" lon="3.49608">
        <ele>87</ele>
        <time>2022-02-22T15:07:04Z</time>
      </trkpt>
      <trkpt lat="43.57445" lon="3.49603">
        <ele>87</ele>
        <time>2022-02-22T15:07:07Z</time>
      </trkpt>
      <trkpt lat="43.57445" lon="3.49599">
        <ele>87</ele>
        <time>2022-02-22T15:07:10Z</time>
      </trkpt>
      <trkpt lat="43.57446" lon="3.49594">
        <ele>87</ele>
        <time>2022-02-22T15:07:13Z</time>
      </trkpt>
      <trkpt lat="43.57447" lon="3.4959">
        <ele>87</ele>
        <time>2022-02-22T15:07:16Z</time>
      </trkpt>
      <trkpt lat="43.57448" lon="3.49586">
        <ele>87</ele>
        <time>2022-02-22T15:07:19Z</time>
      </trkpt>
      <trkpt lat="43.57449" lon="3.49582">
        <ele>87</ele>
        <time>2022-02-22T15:07:22Z</time>
      </trkpt>
      <trkpt lat="43.5745" lon="3.49577">
        <ele>87</ele>
        <time>2022-02-22T15:07:24Z</time>
      </trkpt>
      <trkpt lat="43.57449" lon="3.49573">
        <ele>87</ele>
        <time>2022-02-22T15:07:26Z</time>
      </trkpt>
      <trkpt lat="43.57449" lon="3.49569">
        <ele>87</ele>
        <time>2022-02-22T15:07:29Z</time>
      </trkpt>
      <trkpt lat="43.5745" lon="3.49564">
        <ele>87</ele>
        <time>2022-02-22T15:07:32Z</time>
      </trkpt>
      <trkpt lat="43.57451" lon="3.49561">
        <ele>87</ele>
        <time>2022-02-22T15:07:36Z</time>
      </trkpt>
      <trkpt lat="43.57454" lon="3.49558">
        <ele>87</ele>
        <time>2022-02-22T15:07:40Z</time>
      </trkpt>
      <trkpt lat="43.57455" lon="3.49554">
        <ele>87</ele>
        <time>2022-02-22T15:07:44Z</time>
      </trkpt>
      <trkpt lat="43.57455" lon="3.49551">
        <ele>87</ele>
        <time>2022-02-22T15:07:46Z</time>
      </trkpt>
      <trkpt lat="43.57456" lon="3.49546">
        <ele>87</ele>
        <time>2022-02-22T15:07:49Z</time>
      </trkpt>
      <trkpt lat="43.57456" lon="3.49543">
        <ele>87</ele>
        <time>2022-02-22T15:07:53Z</time>
      </trkpt>
      <trkpt lat="43.57457" lon="3.49538">
        <ele>87</ele>
        <time>2022-02-22T15:07:56Z</time>
      </trkpt>
      <trkpt lat="43.57457" lon="3.49533">
        <ele>87</ele>
        <time>2022-02-22T15:07:59Z</time>
      </trkpt>
      <trkpt lat="43.57457" lon="3.49529">
        <ele>87</ele>
        <time>2022-02-22T15:08:01Z</time>
      </trkpt>
      <trkpt lat="43.57458" lon="3.49525">
        <ele>87</ele>
        <time>2022-02-22T15:08:04Z</time>
      </trkpt>
      <trkpt lat="43.57461" lon="3.49523">
        <ele>87</ele>
        <time>2022-02-22T15:08:08Z</time>
      </trkpt>
      <trkpt lat="43.57462" lon="3.4952">
        <ele>87</ele>
        <time>2022-02-22T15:08:13Z</time>
      </trkpt>
      <trkpt lat="43.57463" lon="3.49516">
        <ele>87</ele>
        <time>2022-02-22T15:08:16Z</time>
      </trkpt>
      <trkpt lat="43.57462" lon="3.49511">
        <ele>87</ele>
        <time>2022-02-22T15:08:19Z</time>
      </trkpt>
      <trkpt lat="43.57461" lon="3.49507">
        <ele>87</ele>
        <time>2022-02-22T15:08:25Z</time>
      </trkpt>
      <trkpt lat="43.57461" lon="3.49502">
        <ele>87</ele>
        <time>2022-02-22T15:08:28Z</time>
      </trkpt>
      <trkpt lat="43.57461" lon="3.49497">
        <ele>87</ele>
        <time>2022-02-22T15:08:31Z</time>
      </trkpt>
      <trkpt lat="43.57461" lon="3.49492">
        <ele>87</ele>
        <time>2022-02-22T15:08:34Z</time>
      </trkpt>
      <trkpt lat="43.5746" lon="3.49488">
        <ele>87</ele>
        <time>2022-02-22T15:08:39Z</time>
      </trkpt>
      <trkpt lat="43.57459" lon="3.49483">
        <ele>87</ele>
        <time>2022-02-22T15:08:42Z</time>
      </trkpt>
      <trkpt lat="43.57459" lon="3.49479">
        <ele>87</ele>
        <time>2022-02-22T15:08:45Z</time>
      </trkpt>
      <trkpt lat="43.57459" lon="3.49475">
        <ele>87</ele>
        <time>2022-02-22T15:08:48Z</time>
      </trkpt>
      <trkpt lat="43.57459" lon="3.4947">
        <ele>87</ele>
        <time>2022-02-22T15:08:51Z</time>
      </trkpt>
      <trkpt lat="43.57459" lon="3.49465">
        <ele>87</ele>
        <time>2022-02-22T15:08:54Z</time>
      </trkpt>
      <trkpt lat="43.57459" lon="3.49461">
        <ele>87</ele>
        <time>2022-02-22T15:08:57Z</time>
      </trkpt>
      <trkpt lat="43.57459" lon="3.49457">
        <ele>87</ele>
        <time>2022-02-22T15:09:01Z</time>
      </trkpt>
      <trkpt lat="43.57459" lon="3.49452">
        <ele>87</ele>
        <time>2022-02-22T15:09:05Z</time>
      </trkpt>
      <trkpt lat="43.57459" lon="3.49447">
        <ele>87</ele>
        <time>2022-02-22T15:09:08Z</time>
      </trkpt>
      <trkpt lat="43.5746" lon="3.49442">
        <ele>87</ele>
        <time>2022-02-22T15:09:11Z</time>
      </trkpt>
      <trkpt lat="43.57461" lon="3.49437">
        <ele>87</ele>
        <time>2022-02-22T15:09:14Z</time>
      </trkpt>
      <trkpt lat="43.57461" lon="3.49432">
        <ele>87</ele>
        <time>2022-02-22T15:09:17Z</time>
      </trkpt>
      <trkpt lat="43.57461" lon="3.49427">
        <ele>87</ele>
        <time>2022-02-22T15:09:20Z</time>
      </trkpt>
      <trkpt lat="43.57461" lon="3.49423">
        <ele>87</ele>
        <time>2022-02-22T15:09:24Z</time>
      </trkpt>
      <trkpt lat="43.57459" lon="3.49419">
        <ele>87</ele>
        <time>2022-02-22T15:09:28Z</time>
      </trkpt>
      <trkpt lat="43.57458" lon="3.49414">
        <ele>87</ele>
        <time>2022-02-22T15:09:32Z</time>
      </trkpt>
      <trkpt lat="43.57458" lon="3.4941">
        <ele>87</ele>
        <time>2022-02-22T15:09:35Z</time>
      </trkpt>
      <trkpt lat="43.57457" lon="3.49405">
        <ele>87</ele>
        <time>2022-02-22T15:09:38Z</time>
      </trkpt>
      <trkpt lat="43.57456" lon="3.49401">
        <ele>87</ele>
        <time>2022-02-22T15:09:40Z</time>
      </trkpt>
      <trkpt lat="43.57455" lon="3.49396">
        <ele>87</ele>
        <time>2022-02-22T15:09:43Z</time>
      </trkpt>
      <trkpt lat="43.57455" lon="3.49392">
        <ele>87</ele>
        <time>2022-02-22T15:09:46Z</time>
      </trkpt>
      <trkpt lat="43.57453" lon="3.49389">
        <ele>87</ele>
        <time>2022-02-22T15:09:49Z</time>
      </trkpt>
      <trkpt lat="43.57451" lon="3.49387">
        <ele>87</ele>
        <time>2022-02-22T15:09:51Z</time>
      </trkpt>
      <trkpt lat="43.57449" lon="3.49383">
        <ele>87</ele>
        <time>2022-02-22T15:09:56Z</time>
      </trkpt>
      <trkpt lat="43.5745" lon="3.49379">
        <ele>87</ele>
        <time>2022-02-22T15:09:59Z</time>
      </trkpt>
      <trkpt lat="43.57449" lon="3.49376">
        <ele>87</ele>
        <time>2022-02-22T15:10:02Z</time>
      </trkpt>
      <trkpt lat="43.57446" lon="3.49372">
        <ele>87</ele>
        <time>2022-02-22T15:10:04Z</time>
      </trkpt>
      <trkpt lat="43.57444" lon="3.49369">
        <ele>87</ele>
        <time>2022-02-22T15:10:06Z</time>
      </trkpt>
      <trkpt lat="43.57443" lon="3.49366">
        <ele>87</ele>
        <time>2022-02-22T15:10:09Z</time>
      </trkpt>
      <trkpt lat="43.57442" lon="3.49362">
        <ele>87</ele>
        <time>2022-02-22T15:10:13Z</time>
      </trkpt>
      <trkpt lat="43.57441" lon="3.49357">
        <ele>87</ele>
        <time>2022-02-22T15:10:15Z</time>
      </trkpt>
      <trkpt lat="43.5744" lon="3.49353">
        <ele>87</ele>
        <time>2022-02-22T15:10:17Z</time>
      </trkpt>
      <trkpt lat="43.5744" lon="3.49347">
        <ele>87</ele>
        <time>2022-02-22T15:10:19Z</time>
      </trkpt>
      <trkpt lat="43.5744" lon="3.49342">
        <ele>87</ele>
        <time>2022-02-22T15:10:24Z</time>
      </trkpt>
      <trkpt lat="43.5744" lon="3.49338">
        <ele>87</ele>
        <time>2022-02-22T15:10:31Z</time>
      </trkpt>
      <trkpt lat="43.5744" lon="3.49333">
        <ele>87</ele>
        <time>2022-02-22T15:10:35Z</time>
      </trkpt>
      <trkpt lat="43.57443" lon="3.49331">
        <ele>87</ele>
        <time>2022-02-22T15:10:37Z</time>
      </trkpt>
      <trkpt lat="43.57443" lon="3.49327">
        <ele>87</ele>
        <time>2022-02-22T15:10:40Z</time>
      </trkpt>
      <trkpt lat="43.57443" lon="3.49321">
        <ele>87</ele>
        <time>2022-02-22T15:10:43Z</time>
      </trkpt>
      <trkpt lat="43.57444" lon="3.49315">
        <ele>87</ele>
        <time>2022-02-22T15:10:45Z</time>
      </trkpt>
      <trkpt lat="43.57444" lon="3.4931">
        <ele>87</ele>
        <time>2022-02-22T15:10:47Z</time>
      </trkpt>
      <trkpt lat="43.57446" lon="3.49305">
        <ele>87</ele>
        <time>2022-02-22T15:10:50Z</time>
      </trkpt>
      <trkpt lat="43.57446" lon="3.49299">
        <ele>87</ele>
        <time>2022-02-22T15:10:52Z</time>
      </trkpt>
      <trkpt lat="43.57446" lon="3.49294">
        <ele>87</ele>
        <time>2022-02-22T15:10:54Z</time>
      </trkpt>
      <trkpt lat="43.57447" lon="3.4929">
        <ele>87</ele>
        <time>2022-02-22T15:10:56Z</time>
      </trkpt>
      <trkpt lat="43.57447" lon="3.49286">
        <ele>87</ele>
        <time>2022-02-22T15:11:00Z</time>
      </trkpt>
      <trkpt lat="43.57446" lon="3.49281">
        <ele>87</ele>
        <time>2022-02-22T15:11:04Z</time>
      </trkpt>
      <trkpt lat="43.57446" lon="3.49276">
        <ele>87</ele>
        <time>2022-02-22T15:11:07Z</time>
      </trkpt>
      <trkpt lat="43.57447" lon="3.49271">
        <ele>87</ele>
        <time>2022-02-22T15:11:10Z</time>
      </trkpt>
      <trkpt lat="43.57447" lon="3.49266">
        <ele>87</ele>
        <time>2022-02-22T15:11:13Z</time>
      </trkpt>
      <trkpt lat="43.57448" lon="3.49262">
        <ele>87</ele>
        <time>2022-02-22T15:11:16Z</time>
      </trkpt>
      <trkpt lat="43.57448" lon="3.49258">
        <ele>87</ele>
        <time>2022-02-22T15:11:20Z</time>
      </trkpt>
      <trkpt lat="43.57449" lon="3.49254">
        <ele>87</ele>
        <time>2022-02-22T15:11:24Z</time>
      </trkpt>
      <trkpt lat="43.5745" lon="3.4925">
        <ele>87</ele>
        <time>2022-02-22T15:11:27Z</time>
      </trkpt>
      <trkpt lat="43.5745" lon="3.49246">
        <ele>87</ele>
        <time>2022-02-22T15:11:29Z</time>
      </trkpt>
      <trkpt lat="43.5745" lon="3.49242">
        <ele>87</ele>
        <time>2022-02-22T15:11:32Z</time>
      </trkpt>
      <trkpt lat="43.57449" lon="3.49237">
        <ele>87</ele>
        <time>2022-02-22T15:11:35Z</time>
      </trkpt>
      <trkpt lat="43.5745" lon="3.49233">
        <ele>87</ele>
        <time>2022-02-22T15:11:37Z</time>
      </trkpt>
      <trkpt lat="43.57452" lon="3.4923">
        <ele>87</ele>
        <time>2022-02-22T15:11:40Z</time>
      </trkpt>
      <trkpt lat="43.57453" lon="3.49227">
        <ele>87</ele>
        <time>2022-02-22T15:11:43Z</time>
      </trkpt>
      <trkpt lat="43.57453" lon="3.49222">
        <ele>87</ele>
        <time>2022-02-22T15:11:46Z</time>
      </trkpt>
      <trkpt lat="43.57453" lon="3.49218">
        <ele>87</ele>
        <time>2022-02-22T15:11:49Z</time>
      </trkpt>
      <trkpt lat="43.57452" lon="3.49213">
        <ele>87</ele>
        <time>2022-02-22T15:11:52Z</time>
      </trkpt>
      <trkpt lat="43.57453" lon="3.49209">
        <ele>87</ele>
        <time>2022-02-22T15:11:55Z</time>
      </trkpt>
      <trkpt lat="43.57453" lon="3.49205">
        <ele>87</ele>
        <time>2022-02-22T15:11:57Z</time>
      </trkpt>
      <trkpt lat="43.57454" lon="3.49202">
        <ele>87</ele>
        <time>2022-02-22T15:11:59Z</time>
      </trkpt>
      <trkpt lat="43.57457" lon="3.492">
        <ele>87</ele>
        <time>2022-02-22T15:12:01Z</time>
      </trkpt>
      <trkpt lat="43.5746" lon="3.49199">
        <ele>87</ele>
        <time>2022-02-22T15:12:04Z</time>
      </trkpt>
      <trkpt lat="43.57462" lon="3.49196">
        <ele>87</ele>
        <time>2022-02-22T15:12:08Z</time>
      </trkpt>
      <trkpt lat="43.57463" lon="3.49193">
        <ele>87</ele>
        <time>2022-02-22T15:12:11Z</time>
      </trkpt>
      <trkpt lat="43.57462" lon="3.49189">
        <ele>87</ele>
        <time>2022-02-22T15:12:14Z</time>
      </trkpt>
      <trkpt lat="43.57462" lon="3.49185">
        <ele>87</ele>
        <time>2022-02-22T15:12:16Z</time>
      </trkpt>
      <trkpt lat="43.57462" lon="3.49181">
        <ele>87</ele>
        <time>2022-02-22T15:12:18Z</time>
      </trkpt>
      <trkpt lat="43.57464" lon="3.49177">
        <ele>87</ele>
        <time>2022-02-22T15:12:21Z</time>
      </trkpt>
      <trkpt lat="43.57465" lon="3.49173">
        <ele>87</ele>
        <time>2022-02-22T15:12:24Z</time>
      </trkpt>
      <trkpt lat="43.57467" lon="3.49168">
        <ele>87</ele>
        <time>2022-02-22T15:12:29Z</time>
      </trkpt>
      <trkpt lat="43.57468" lon="3.49163">
        <ele>87</ele>
        <time>2022-02-22T15:12:31Z</time>
      </trkpt>
      <trkpt lat="43.57467" lon="3.49159">
        <ele>87</ele>
        <time>2022-02-22T15:12:32Z</time>
      </trkpt>
      <trkpt lat="43.57466" lon="3.49155">
        <ele>87</ele>
        <time>2022-02-22T15:12:33Z</time>
      </trkpt>
      <trkpt lat="43.57464" lon="3.49149">
        <ele>87</ele>
        <time>2022-02-22T15:12:35Z</time>
      </trkpt>
      <trkpt lat="43.57463" lon="3.49143">
        <ele>87</ele>
        <time>2022-02-22T15:12:37Z</time>
      </trkpt>
      <trkpt lat="43.57462" lon="3.49138">
        <ele>87</ele>
        <time>2022-02-22T15:12:39Z</time>
      </trkpt>
      <trkpt lat="43.57463" lon="3.49134">
        <ele>87</ele>
        <time>2022-02-22T15:12:42Z</time>
      </trkpt>
      <trkpt lat="43.57464" lon="3.49131">
        <ele>87</ele>
        <time>2022-02-22T15:12:44Z</time>
      </trkpt>
      <trkpt lat="43.57465" lon="3.49127">
        <ele>87</ele>
        <time>2022-02-22T15:12:48Z</time>
      </trkpt>
      <trkpt lat="43.57468" lon="3.49128">
        <ele>87</ele>
        <time>2022-02-22T15:12:52Z</time>
      </trkpt>
      <trkpt lat="43.57468" lon="3.49126">
        <ele>87</ele>
        <time>2022-02-22T15:12:58Z</time>
      </trkpt>
      <trkpt lat="43.57468" lon="3.49123">
        <ele>87</ele>
        <time>2022-02-22T15:13:03Z</time>
      </trkpt>
      <trkpt lat="43.57469" lon="3.4912">
        <ele>87</ele>
        <time>2022-02-22T15:13:06Z</time>
      </trkpt>
      <trkpt lat="43.57472" lon="3.49118">
        <ele>87</ele>
        <time>2022-02-22T15:13:10Z</time>
      </trkpt>
      <trkpt lat="43.57474" lon="3.49115">
        <ele>87</ele>
        <time>2022-02-22T15:13:14Z</time>
      </trkpt>
      <trkpt lat="43.57477" lon="3.49112">
        <ele>87</ele>
        <time>2022-02-22T15:13:18Z</time>
      </trkpt>
      <trkpt lat="43.57479" lon="3.49108">
        <ele>87</ele>
        <time>2022-02-22T15:13:20Z</time>
      </trkpt>
      <trkpt lat="43.57481" lon="3.49104">
        <ele>87</ele>
        <time>2022-02-22T15:13:22Z</time>
      </trkpt>
      <trkpt lat="43.57482" lon="3.491">
        <ele>87</ele>
        <time>2022-02-22T15:13:24Z</time>
      </trkpt>
      <trkpt lat="43.57484" lon="3.49095">
        <ele>87</ele>
        <time>2022-02-22T15:13:27Z</time>
      </trkpt>
      <trkpt lat="43.57487" lon="3.49092">
        <ele>87</ele>
        <time>2022-02-22T15:13:30Z</time>
      </trkpt>
      <trkpt lat="43.57488" lon="3.49088">
        <ele>87</ele>
        <time>2022-02-22T15:13:33Z</time>
      </trkpt>
      <trkpt lat="43.57489" lon="3.49084">
        <ele>87</ele>
        <time>2022-02-22T15:13:36Z</time>
      </trkpt>
      <trkpt lat="43.57489" lon="3.4908">
        <ele>87</ele>
        <time>2022-02-22T15:13:39Z</time>
      </trkpt>
      <trkpt lat="43.57489" lon="3.49075">
        <ele>87</ele>
        <time>2022-02-22T15:13:43Z</time>
      </trkpt>
      <trkpt lat="43.5749" lon="3.49071">
        <ele>87</ele>
        <time>2022-02-22T15:13:46Z</time>
      </trkpt>
      <trkpt lat="43.57492" lon="3.49068">
        <ele>87</ele>
        <time>2022-02-22T15:13:54Z</time>
      </trkpt>
    </trkseg>
  </trk>
</gpx>